<?xml version="1.0" encoding="UTF-8" standalone="no" ?>
<gpx xmlns="http://www.topografix.com/GPX/1/1" xmlns:xsi="http://www.w3.org/2001/XMLSchema-instance" xsi:schemaLocation="http://www.topografix.com/GPX/1/1 http://www.topografix.com/GPX/1/1/gpx.xsd" version="1.1" creator="VisuGPX - https://www.visugpx.com">
  <metadata>
    <name>Gd Colombier (01)</name>
    <desc><![CDATA[montée du colombier par culoz et retour coté valromey]]></desc>
  </metadata>
  <trk>
    <name><![CDATA[09-AVR-12 07:30:44 PM]]></name>
    <trkseg>
      <trkpt lat="45.84844" lon="5.77987">
        <ele>252.96</ele>
        <time>2012-04-09T07:13:09Z</time>
      </trkpt>
      <trkpt lat="45.84844" lon="5.77987">
        <ele>252.96</ele>
        <time>2012-04-09T07:13:11Z</time>
      </trkpt>
      <trkpt lat="45.84845" lon="5.77987">
        <ele>254.41</ele>
        <time>2012-04-09T07:13:13Z</time>
      </trkpt>
      <trkpt lat="45.84844" lon="5.77987">
        <ele>253.93</ele>
        <time>2012-04-09T07:13:15Z</time>
      </trkpt>
      <trkpt lat="45.84843" lon="5.77987">
        <ele>253.93</ele>
        <time>2012-04-09T07:13:17Z</time>
      </trkpt>
      <trkpt lat="45.84845" lon="5.77986">
        <ele>254.41</ele>
        <time>2012-04-09T07:13:19Z</time>
      </trkpt>
      <trkpt lat="45.84846" lon="5.77986">
        <ele>254.41</ele>
        <time>2012-04-09T07:13:21Z</time>
      </trkpt>
      <trkpt lat="45.84849" lon="5.77985">
        <ele>254.89</ele>
        <time>2012-04-09T07:13:23Z</time>
      </trkpt>
      <trkpt lat="45.84853" lon="5.77984">
        <ele>254.89</ele>
        <time>2012-04-09T07:13:25Z</time>
      </trkpt>
      <trkpt lat="45.84855" lon="5.77982">
        <ele>255.37</ele>
        <time>2012-04-09T07:13:27Z</time>
      </trkpt>
      <trkpt lat="45.84858" lon="5.77981">
        <ele>256.81</ele>
        <time>2012-04-09T07:13:29Z</time>
      </trkpt>
      <trkpt lat="45.84861" lon="5.77981">
        <ele>257.77</ele>
        <time>2012-04-09T07:13:31Z</time>
      </trkpt>
      <trkpt lat="45.84863" lon="5.77983">
        <ele>257.77</ele>
        <time>2012-04-09T07:13:33Z</time>
      </trkpt>
      <trkpt lat="45.84865" lon="5.77987">
        <ele>257.77</ele>
        <time>2012-04-09T07:13:35Z</time>
      </trkpt>
      <trkpt lat="45.84867" lon="5.77992">
        <ele>258.25</ele>
        <time>2012-04-09T07:13:37Z</time>
      </trkpt>
      <trkpt lat="45.84867" lon="5.77998">
        <ele>258.25</ele>
        <time>2012-04-09T07:13:39Z</time>
      </trkpt>
      <trkpt lat="45.84868" lon="5.78003">
        <ele>259.21</ele>
        <time>2012-04-09T07:13:41Z</time>
      </trkpt>
      <trkpt lat="45.84869" lon="5.78009">
        <ele>259.69</ele>
        <time>2012-04-09T07:13:43Z</time>
      </trkpt>
      <trkpt lat="45.84871" lon="5.78014">
        <ele>260.17</ele>
        <time>2012-04-09T07:13:45Z</time>
      </trkpt>
      <trkpt lat="45.84874" lon="5.78019">
        <ele>260.65</ele>
        <time>2012-04-09T07:13:47Z</time>
      </trkpt>
      <trkpt lat="45.84877" lon="5.78024">
        <ele>261.62</ele>
        <time>2012-04-09T07:13:49Z</time>
      </trkpt>
      <trkpt lat="45.8488" lon="5.78027">
        <ele>261.62</ele>
        <time>2012-04-09T07:13:51Z</time>
      </trkpt>
      <trkpt lat="45.84884" lon="5.78029">
        <ele>262.1</ele>
        <time>2012-04-09T07:13:53Z</time>
      </trkpt>
      <trkpt lat="45.84888" lon="5.78031">
        <ele>262.58</ele>
        <time>2012-04-09T07:13:55Z</time>
      </trkpt>
      <trkpt lat="45.84892" lon="5.78033">
        <ele>263.06</ele>
        <time>2012-04-09T07:13:57Z</time>
      </trkpt>
      <trkpt lat="45.84896" lon="5.78034">
        <ele>263.54</ele>
        <time>2012-04-09T07:13:59Z</time>
      </trkpt>
      <trkpt lat="45.849" lon="5.78034">
        <ele>264.02</ele>
        <time>2012-04-09T07:14:01Z</time>
      </trkpt>
      <trkpt lat="45.84905" lon="5.78034">
        <ele>264.5</ele>
        <time>2012-04-09T07:14:03Z</time>
      </trkpt>
      <trkpt lat="45.8491" lon="5.78034">
        <ele>264.98</ele>
        <time>2012-04-09T07:14:05Z</time>
      </trkpt>
      <trkpt lat="45.84914" lon="5.78033">
        <ele>265.46</ele>
        <time>2012-04-09T07:14:07Z</time>
      </trkpt>
      <trkpt lat="45.84918" lon="5.78031">
        <ele>265.46</ele>
        <time>2012-04-09T07:14:09Z</time>
      </trkpt>
      <trkpt lat="45.84922" lon="5.7803">
        <ele>265.94</ele>
        <time>2012-04-09T07:14:11Z</time>
      </trkpt>
      <trkpt lat="45.84925" lon="5.78028">
        <ele>266.9</ele>
        <time>2012-04-09T07:14:13Z</time>
      </trkpt>
      <trkpt lat="45.84929" lon="5.78026">
        <ele>267.38</ele>
        <time>2012-04-09T07:14:15Z</time>
      </trkpt>
      <trkpt lat="45.84933" lon="5.78024">
        <ele>267.38</ele>
        <time>2012-04-09T07:14:17Z</time>
      </trkpt>
      <trkpt lat="45.84938" lon="5.78022">
        <ele>267.86</ele>
        <time>2012-04-09T07:14:19Z</time>
      </trkpt>
      <trkpt lat="45.84942" lon="5.7802">
        <ele>267.86</ele>
        <time>2012-04-09T07:14:21Z</time>
      </trkpt>
      <trkpt lat="45.84947" lon="5.78018">
        <ele>268.83</ele>
        <time>2012-04-09T07:14:23Z</time>
      </trkpt>
      <trkpt lat="45.84951" lon="5.78017">
        <ele>269.31</ele>
        <time>2012-04-09T07:14:25Z</time>
      </trkpt>
      <trkpt lat="45.84955" lon="5.78016">
        <ele>268.83</ele>
        <time>2012-04-09T07:14:27Z</time>
      </trkpt>
      <trkpt lat="45.84959" lon="5.78014">
        <ele>269.79</ele>
        <time>2012-04-09T07:14:29Z</time>
      </trkpt>
      <trkpt lat="45.84963" lon="5.78012">
        <ele>270.27</ele>
        <time>2012-04-09T07:14:31Z</time>
      </trkpt>
      <trkpt lat="45.84968" lon="5.7801">
        <ele>270.75</ele>
        <time>2012-04-09T07:14:33Z</time>
      </trkpt>
      <trkpt lat="45.84973" lon="5.78009">
        <ele>270.75</ele>
        <time>2012-04-09T07:14:35Z</time>
      </trkpt>
      <trkpt lat="45.84977" lon="5.78009">
        <ele>271.71</ele>
        <time>2012-04-09T07:14:37Z</time>
      </trkpt>
      <trkpt lat="45.8498" lon="5.78007">
        <ele>271.71</ele>
        <time>2012-04-09T07:14:39Z</time>
      </trkpt>
      <trkpt lat="45.84984" lon="5.78007">
        <ele>272.19</ele>
        <time>2012-04-09T07:14:41Z</time>
      </trkpt>
      <trkpt lat="45.84988" lon="5.78005">
        <ele>272.67</ele>
        <time>2012-04-09T07:14:43Z</time>
      </trkpt>
      <trkpt lat="45.84992" lon="5.78004">
        <ele>272.67</ele>
        <time>2012-04-09T07:14:45Z</time>
      </trkpt>
      <trkpt lat="45.84996" lon="5.78001">
        <ele>273.15</ele>
        <time>2012-04-09T07:14:47Z</time>
      </trkpt>
      <trkpt lat="45.85" lon="5.77999">
        <ele>273.15</ele>
        <time>2012-04-09T07:14:49Z</time>
      </trkpt>
      <trkpt lat="45.85004" lon="5.77996">
        <ele>271.71</ele>
        <time>2012-04-09T07:14:51Z</time>
      </trkpt>
      <trkpt lat="45.85007" lon="5.77994">
        <ele>277.48</ele>
        <time>2012-04-09T07:14:53Z</time>
      </trkpt>
      <trkpt lat="45.85009" lon="5.77992">
        <ele>274.11</ele>
        <time>2012-04-09T07:14:55Z</time>
      </trkpt>
      <trkpt lat="45.85011" lon="5.77991">
        <ele>273.63</ele>
        <time>2012-04-09T07:14:57Z</time>
      </trkpt>
      <trkpt lat="45.85013" lon="5.7799">
        <ele>274.59</ele>
        <time>2012-04-09T07:14:59Z</time>
      </trkpt>
      <trkpt lat="45.85014" lon="5.77989">
        <ele>275.56</ele>
        <time>2012-04-09T07:15:01Z</time>
      </trkpt>
      <trkpt lat="45.85016" lon="5.77986">
        <ele>276.52</ele>
        <time>2012-04-09T07:15:03Z</time>
      </trkpt>
      <trkpt lat="45.85017" lon="5.77984">
        <ele>275.07</ele>
        <time>2012-04-09T07:15:05Z</time>
      </trkpt>
      <trkpt lat="45.85018" lon="5.77982">
        <ele>276.04</ele>
        <time>2012-04-09T07:15:07Z</time>
      </trkpt>
      <trkpt lat="45.8502" lon="5.7798">
        <ele>276.04</ele>
        <time>2012-04-09T07:15:09Z</time>
      </trkpt>
      <trkpt lat="45.85021" lon="5.7798">
        <ele>275.56</ele>
        <time>2012-04-09T07:15:11Z</time>
      </trkpt>
      <trkpt lat="45.85023" lon="5.7798">
        <ele>276.04</ele>
        <time>2012-04-09T07:15:13Z</time>
      </trkpt>
      <trkpt lat="45.85027" lon="5.77981">
        <ele>276.04</ele>
        <time>2012-04-09T07:15:15Z</time>
      </trkpt>
      <trkpt lat="45.8503" lon="5.77982">
        <ele>275.07</ele>
        <time>2012-04-09T07:15:17Z</time>
      </trkpt>
      <trkpt lat="45.85034" lon="5.77982">
        <ele>277</ele>
        <time>2012-04-09T07:15:19Z</time>
      </trkpt>
      <trkpt lat="45.85039" lon="5.77983">
        <ele>277</ele>
        <time>2012-04-09T07:15:21Z</time>
      </trkpt>
      <trkpt lat="45.85044" lon="5.77984">
        <ele>276.52</ele>
        <time>2012-04-09T07:15:23Z</time>
      </trkpt>
      <trkpt lat="45.85049" lon="5.77982">
        <ele>277.48</ele>
        <time>2012-04-09T07:15:25Z</time>
      </trkpt>
      <trkpt lat="45.85055" lon="5.77979">
        <ele>276.52</ele>
        <time>2012-04-09T07:15:27Z</time>
      </trkpt>
      <trkpt lat="45.85059" lon="5.77982">
        <ele>275.56</ele>
        <time>2012-04-09T07:15:29Z</time>
      </trkpt>
      <trkpt lat="45.85065" lon="5.77985">
        <ele>275.56</ele>
        <time>2012-04-09T07:15:31Z</time>
      </trkpt>
      <trkpt lat="45.8507" lon="5.7799">
        <ele>275.56</ele>
        <time>2012-04-09T07:15:33Z</time>
      </trkpt>
      <trkpt lat="45.85073" lon="5.77995">
        <ele>274.59</ele>
        <time>2012-04-09T07:15:35Z</time>
      </trkpt>
      <trkpt lat="45.85077" lon="5.78">
        <ele>275.56</ele>
        <time>2012-04-09T07:15:37Z</time>
      </trkpt>
      <trkpt lat="45.8508" lon="5.78001">
        <ele>276.04</ele>
        <time>2012-04-09T07:15:39Z</time>
      </trkpt>
      <trkpt lat="45.85082" lon="5.77999">
        <ele>277</ele>
        <time>2012-04-09T07:15:41Z</time>
      </trkpt>
      <trkpt lat="45.85084" lon="5.77995">
        <ele>277.48</ele>
        <time>2012-04-09T07:15:43Z</time>
      </trkpt>
      <trkpt lat="45.85085" lon="5.77988">
        <ele>277.96</ele>
        <time>2012-04-09T07:15:45Z</time>
      </trkpt>
      <trkpt lat="45.85087" lon="5.77982">
        <ele>278.44</ele>
        <time>2012-04-09T07:15:47Z</time>
      </trkpt>
      <trkpt lat="45.8509" lon="5.77973">
        <ele>278.92</ele>
        <time>2012-04-09T07:15:49Z</time>
      </trkpt>
      <trkpt lat="45.85093" lon="5.77965">
        <ele>279.4</ele>
        <time>2012-04-09T07:15:51Z</time>
      </trkpt>
      <trkpt lat="45.85095" lon="5.77958">
        <ele>280.36</ele>
        <time>2012-04-09T07:15:53Z</time>
      </trkpt>
      <trkpt lat="45.85098" lon="5.77952">
        <ele>281.8</ele>
        <time>2012-04-09T07:15:55Z</time>
      </trkpt>
      <trkpt lat="45.85099" lon="5.77946">
        <ele>281.8</ele>
        <time>2012-04-09T07:15:57Z</time>
      </trkpt>
      <trkpt lat="45.851" lon="5.77939">
        <ele>282.28</ele>
        <time>2012-04-09T07:15:59Z</time>
      </trkpt>
      <trkpt lat="45.85102" lon="5.77933">
        <ele>282.28</ele>
        <time>2012-04-09T07:16:01Z</time>
      </trkpt>
      <trkpt lat="45.85104" lon="5.77928">
        <ele>282.77</ele>
        <time>2012-04-09T07:16:03Z</time>
      </trkpt>
      <trkpt lat="45.85104" lon="5.77923">
        <ele>285.17</ele>
        <time>2012-04-09T07:16:05Z</time>
      </trkpt>
      <trkpt lat="45.85105" lon="5.77919">
        <ele>285.17</ele>
        <time>2012-04-09T07:16:07Z</time>
      </trkpt>
      <trkpt lat="45.85105" lon="5.77915">
        <ele>285.17</ele>
        <time>2012-04-09T07:16:09Z</time>
      </trkpt>
      <trkpt lat="45.85107" lon="5.7791">
        <ele>285.65</ele>
        <time>2012-04-09T07:16:11Z</time>
      </trkpt>
      <trkpt lat="45.85109" lon="5.77907">
        <ele>286.61</ele>
        <time>2012-04-09T07:16:13Z</time>
      </trkpt>
      <trkpt lat="45.85112" lon="5.77903">
        <ele>286.61</ele>
        <time>2012-04-09T07:16:15Z</time>
      </trkpt>
      <trkpt lat="45.85115" lon="5.77899">
        <ele>287.09</ele>
        <time>2012-04-09T07:16:17Z</time>
      </trkpt>
      <trkpt lat="45.85118" lon="5.77895">
        <ele>286.13</ele>
        <time>2012-04-09T07:16:19Z</time>
      </trkpt>
      <trkpt lat="45.85121" lon="5.77891">
        <ele>289.01</ele>
        <time>2012-04-09T07:16:21Z</time>
      </trkpt>
      <trkpt lat="45.85125" lon="5.77887">
        <ele>289.49</ele>
        <time>2012-04-09T07:16:23Z</time>
      </trkpt>
      <trkpt lat="45.85128" lon="5.77883">
        <ele>289.97</ele>
        <time>2012-04-09T07:16:25Z</time>
      </trkpt>
      <trkpt lat="45.8513" lon="5.77879">
        <ele>290.46</ele>
        <time>2012-04-09T07:16:27Z</time>
      </trkpt>
      <trkpt lat="45.85133" lon="5.77876">
        <ele>290.46</ele>
        <time>2012-04-09T07:16:29Z</time>
      </trkpt>
      <trkpt lat="45.85135" lon="5.77872">
        <ele>290.94</ele>
        <time>2012-04-09T07:16:31Z</time>
      </trkpt>
      <trkpt lat="45.85138" lon="5.77868">
        <ele>291.9</ele>
        <time>2012-04-09T07:16:33Z</time>
      </trkpt>
      <trkpt lat="45.8514" lon="5.77864">
        <ele>292.38</ele>
        <time>2012-04-09T07:16:35Z</time>
      </trkpt>
      <trkpt lat="45.85142" lon="5.7786">
        <ele>292.86</ele>
        <time>2012-04-09T07:16:37Z</time>
      </trkpt>
      <trkpt lat="45.85143" lon="5.77855">
        <ele>292.86</ele>
        <time>2012-04-09T07:16:39Z</time>
      </trkpt>
      <trkpt lat="45.85144" lon="5.7785">
        <ele>293.34</ele>
        <time>2012-04-09T07:16:41Z</time>
      </trkpt>
      <trkpt lat="45.85145" lon="5.77849">
        <ele>294.3</ele>
        <time>2012-04-09T07:16:43Z</time>
      </trkpt>
      <trkpt lat="45.85147" lon="5.77849">
        <ele>293.82</ele>
        <time>2012-04-09T07:16:45Z</time>
      </trkpt>
      <trkpt lat="45.8515" lon="5.77852">
        <ele>294.3</ele>
        <time>2012-04-09T07:16:47Z</time>
      </trkpt>
      <trkpt lat="45.85153" lon="5.77854">
        <ele>295.26</ele>
        <time>2012-04-09T07:16:49Z</time>
      </trkpt>
      <trkpt lat="45.85157" lon="5.77855">
        <ele>295.74</ele>
        <time>2012-04-09T07:16:51Z</time>
      </trkpt>
      <trkpt lat="45.8516" lon="5.77856">
        <ele>296.22</ele>
        <time>2012-04-09T07:16:53Z</time>
      </trkpt>
      <trkpt lat="45.85163" lon="5.77859">
        <ele>297.18</ele>
        <time>2012-04-09T07:16:55Z</time>
      </trkpt>
      <trkpt lat="45.85166" lon="5.77861">
        <ele>296.7</ele>
        <time>2012-04-09T07:16:57Z</time>
      </trkpt>
      <trkpt lat="45.85169" lon="5.77862">
        <ele>298.63</ele>
        <time>2012-04-09T07:16:59Z</time>
      </trkpt>
      <trkpt lat="45.85173" lon="5.77862">
        <ele>298.63</ele>
        <time>2012-04-09T07:17:01Z</time>
      </trkpt>
      <trkpt lat="45.85177" lon="5.7786">
        <ele>299.59</ele>
        <time>2012-04-09T07:17:03Z</time>
      </trkpt>
      <trkpt lat="45.85181" lon="5.77859">
        <ele>299.59</ele>
        <time>2012-04-09T07:17:05Z</time>
      </trkpt>
      <trkpt lat="45.85184" lon="5.77857">
        <ele>300.07</ele>
        <time>2012-04-09T07:17:07Z</time>
      </trkpt>
      <trkpt lat="45.85187" lon="5.77855">
        <ele>300.55</ele>
        <time>2012-04-09T07:17:09Z</time>
      </trkpt>
      <trkpt lat="45.85191" lon="5.77853">
        <ele>300.55</ele>
        <time>2012-04-09T07:17:11Z</time>
      </trkpt>
      <trkpt lat="45.85194" lon="5.77851">
        <ele>300.55</ele>
        <time>2012-04-09T07:17:13Z</time>
      </trkpt>
      <trkpt lat="45.85197" lon="5.77848">
        <ele>301.03</ele>
        <time>2012-04-09T07:17:15Z</time>
      </trkpt>
      <trkpt lat="45.85201" lon="5.77844">
        <ele>301.99</ele>
        <time>2012-04-09T07:17:17Z</time>
      </trkpt>
      <trkpt lat="45.85206" lon="5.77843">
        <ele>301.99</ele>
        <time>2012-04-09T07:17:19Z</time>
      </trkpt>
      <trkpt lat="45.85211" lon="5.77842">
        <ele>302.95</ele>
        <time>2012-04-09T07:17:21Z</time>
      </trkpt>
      <trkpt lat="45.85215" lon="5.77842">
        <ele>303.43</ele>
        <time>2012-04-09T07:17:23Z</time>
      </trkpt>
      <trkpt lat="45.85218" lon="5.77842">
        <ele>303.91</ele>
        <time>2012-04-09T07:17:25Z</time>
      </trkpt>
      <trkpt lat="45.85221" lon="5.7784">
        <ele>303.91</ele>
        <time>2012-04-09T07:17:27Z</time>
      </trkpt>
      <trkpt lat="45.85226" lon="5.77839">
        <ele>306.32</ele>
        <time>2012-04-09T07:17:29Z</time>
      </trkpt>
      <trkpt lat="45.85229" lon="5.77838">
        <ele>306.32</ele>
        <time>2012-04-09T07:17:31Z</time>
      </trkpt>
      <trkpt lat="45.85233" lon="5.77837">
        <ele>307.76</ele>
        <time>2012-04-09T07:17:33Z</time>
      </trkpt>
      <trkpt lat="45.85237" lon="5.77835">
        <ele>308.24</ele>
        <time>2012-04-09T07:17:35Z</time>
      </trkpt>
      <trkpt lat="45.85241" lon="5.77834">
        <ele>308.72</ele>
        <time>2012-04-09T07:17:37Z</time>
      </trkpt>
      <trkpt lat="45.85245" lon="5.77831">
        <ele>308.72</ele>
        <time>2012-04-09T07:17:39Z</time>
      </trkpt>
      <trkpt lat="45.85249" lon="5.77829">
        <ele>309.2</ele>
        <time>2012-04-09T07:17:41Z</time>
      </trkpt>
      <trkpt lat="45.85253" lon="5.77827">
        <ele>309.2</ele>
        <time>2012-04-09T07:17:43Z</time>
      </trkpt>
      <trkpt lat="45.85255" lon="5.77823">
        <ele>310.16</ele>
        <time>2012-04-09T07:17:45Z</time>
      </trkpt>
      <trkpt lat="45.85256" lon="5.7782">
        <ele>310.64</ele>
        <time>2012-04-09T07:17:47Z</time>
      </trkpt>
      <trkpt lat="45.85257" lon="5.77816">
        <ele>311.12</ele>
        <time>2012-04-09T07:17:49Z</time>
      </trkpt>
      <trkpt lat="45.85258" lon="5.77811">
        <ele>311.12</ele>
        <time>2012-04-09T07:17:51Z</time>
      </trkpt>
      <trkpt lat="45.85259" lon="5.77807">
        <ele>311.12</ele>
        <time>2012-04-09T07:17:53Z</time>
      </trkpt>
      <trkpt lat="45.85258" lon="5.77803">
        <ele>315.45</ele>
        <time>2012-04-09T07:17:55Z</time>
      </trkpt>
      <trkpt lat="45.85258" lon="5.77798">
        <ele>329.87</ele>
        <time>2012-04-09T07:17:57Z</time>
      </trkpt>
      <trkpt lat="45.85257" lon="5.77793">
        <ele>312.57</ele>
        <time>2012-04-09T07:17:59Z</time>
      </trkpt>
      <trkpt lat="45.85256" lon="5.77789">
        <ele>313.53</ele>
        <time>2012-04-09T07:18:01Z</time>
      </trkpt>
      <trkpt lat="45.85256" lon="5.77784">
        <ele>313.53</ele>
        <time>2012-04-09T07:18:03Z</time>
      </trkpt>
      <trkpt lat="45.85256" lon="5.7778">
        <ele>314.01</ele>
        <time>2012-04-09T07:18:05Z</time>
      </trkpt>
      <trkpt lat="45.85255" lon="5.77775">
        <ele>314.01</ele>
        <time>2012-04-09T07:18:07Z</time>
      </trkpt>
      <trkpt lat="45.85254" lon="5.77771">
        <ele>314.49</ele>
        <time>2012-04-09T07:18:09Z</time>
      </trkpt>
      <trkpt lat="45.85252" lon="5.77767">
        <ele>314.97</ele>
        <time>2012-04-09T07:18:11Z</time>
      </trkpt>
      <trkpt lat="45.85251" lon="5.77763">
        <ele>315.93</ele>
        <time>2012-04-09T07:18:13Z</time>
      </trkpt>
      <trkpt lat="45.85251" lon="5.77757">
        <ele>316.41</ele>
        <time>2012-04-09T07:18:15Z</time>
      </trkpt>
      <trkpt lat="45.8525" lon="5.77752">
        <ele>316.89</ele>
        <time>2012-04-09T07:18:17Z</time>
      </trkpt>
      <trkpt lat="45.85249" lon="5.77747">
        <ele>317.85</ele>
        <time>2012-04-09T07:18:19Z</time>
      </trkpt>
      <trkpt lat="45.85247" lon="5.77742">
        <ele>317.85</ele>
        <time>2012-04-09T07:18:21Z</time>
      </trkpt>
      <trkpt lat="45.85246" lon="5.77738">
        <ele>318.33</ele>
        <time>2012-04-09T07:18:23Z</time>
      </trkpt>
      <trkpt lat="45.85244" lon="5.77734">
        <ele>318.81</ele>
        <time>2012-04-09T07:18:25Z</time>
      </trkpt>
      <trkpt lat="45.85244" lon="5.77729">
        <ele>319.3</ele>
        <time>2012-04-09T07:18:27Z</time>
      </trkpt>
      <trkpt lat="45.85244" lon="5.77724">
        <ele>319.3</ele>
        <time>2012-04-09T07:18:29Z</time>
      </trkpt>
      <trkpt lat="45.85243" lon="5.77718">
        <ele>320.26</ele>
        <time>2012-04-09T07:18:31Z</time>
      </trkpt>
      <trkpt lat="45.85243" lon="5.77713">
        <ele>320.26</ele>
        <time>2012-04-09T07:18:33Z</time>
      </trkpt>
      <trkpt lat="45.85244" lon="5.77708">
        <ele>320.26</ele>
        <time>2012-04-09T07:18:35Z</time>
      </trkpt>
      <trkpt lat="45.85243" lon="5.77703">
        <ele>320.74</ele>
        <time>2012-04-09T07:18:37Z</time>
      </trkpt>
      <trkpt lat="45.85244" lon="5.77697">
        <ele>321.22</ele>
        <time>2012-04-09T07:18:39Z</time>
      </trkpt>
      <trkpt lat="45.85246" lon="5.77692">
        <ele>321.7</ele>
        <time>2012-04-09T07:18:41Z</time>
      </trkpt>
      <trkpt lat="45.85248" lon="5.77689">
        <ele>322.18</ele>
        <time>2012-04-09T07:18:43Z</time>
      </trkpt>
      <trkpt lat="45.8525" lon="5.77686">
        <ele>322.66</ele>
        <time>2012-04-09T07:18:45Z</time>
      </trkpt>
      <trkpt lat="45.85253" lon="5.77683">
        <ele>323.14</ele>
        <time>2012-04-09T07:18:47Z</time>
      </trkpt>
      <trkpt lat="45.85255" lon="5.77679">
        <ele>323.14</ele>
        <time>2012-04-09T07:18:49Z</time>
      </trkpt>
      <trkpt lat="45.85257" lon="5.77675">
        <ele>324.1</ele>
        <time>2012-04-09T07:18:51Z</time>
      </trkpt>
      <trkpt lat="45.8526" lon="5.77673">
        <ele>324.1</ele>
        <time>2012-04-09T07:18:53Z</time>
      </trkpt>
      <trkpt lat="45.85263" lon="5.77671">
        <ele>324.58</ele>
        <time>2012-04-09T07:18:55Z</time>
      </trkpt>
      <trkpt lat="45.85264" lon="5.77666">
        <ele>325.06</ele>
        <time>2012-04-09T07:18:57Z</time>
      </trkpt>
      <trkpt lat="45.85267" lon="5.77664">
        <ele>325.06</ele>
        <time>2012-04-09T07:18:59Z</time>
      </trkpt>
      <trkpt lat="45.85269" lon="5.77661">
        <ele>326.02</ele>
        <time>2012-04-09T07:19:01Z</time>
      </trkpt>
      <trkpt lat="45.85271" lon="5.77658">
        <ele>326.5</ele>
        <time>2012-04-09T07:19:03Z</time>
      </trkpt>
      <trkpt lat="45.85273" lon="5.77655">
        <ele>326.5</ele>
        <time>2012-04-09T07:19:05Z</time>
      </trkpt>
      <trkpt lat="45.85276" lon="5.77652">
        <ele>326.99</ele>
        <time>2012-04-09T07:19:07Z</time>
      </trkpt>
      <trkpt lat="45.85278" lon="5.77648">
        <ele>327.47</ele>
        <time>2012-04-09T07:19:09Z</time>
      </trkpt>
      <trkpt lat="45.8528" lon="5.77644">
        <ele>327.95</ele>
        <time>2012-04-09T07:19:11Z</time>
      </trkpt>
      <trkpt lat="45.85282" lon="5.77642">
        <ele>328.43</ele>
        <time>2012-04-09T07:19:13Z</time>
      </trkpt>
      <trkpt lat="45.85284" lon="5.77641">
        <ele>329.39</ele>
        <time>2012-04-09T07:19:15Z</time>
      </trkpt>
      <trkpt lat="45.85286" lon="5.77639">
        <ele>329.39</ele>
        <time>2012-04-09T07:19:17Z</time>
      </trkpt>
      <trkpt lat="45.85289" lon="5.77637">
        <ele>330.35</ele>
        <time>2012-04-09T07:19:19Z</time>
      </trkpt>
      <trkpt lat="45.85292" lon="5.77634">
        <ele>330.83</ele>
        <time>2012-04-09T07:19:21Z</time>
      </trkpt>
      <trkpt lat="45.85294" lon="5.7763">
        <ele>330.83</ele>
        <time>2012-04-09T07:19:23Z</time>
      </trkpt>
      <trkpt lat="45.85298" lon="5.77627">
        <ele>331.79</ele>
        <time>2012-04-09T07:19:25Z</time>
      </trkpt>
      <trkpt lat="45.853" lon="5.77624">
        <ele>332.27</ele>
        <time>2012-04-09T07:19:27Z</time>
      </trkpt>
      <trkpt lat="45.85303" lon="5.77623">
        <ele>333.23</ele>
        <time>2012-04-09T07:19:29Z</time>
      </trkpt>
      <trkpt lat="45.85306" lon="5.77623">
        <ele>333.71</ele>
        <time>2012-04-09T07:19:31Z</time>
      </trkpt>
      <trkpt lat="45.85309" lon="5.77622">
        <ele>334.2</ele>
        <time>2012-04-09T07:19:33Z</time>
      </trkpt>
      <trkpt lat="45.85312" lon="5.77622">
        <ele>335.16</ele>
        <time>2012-04-09T07:19:35Z</time>
      </trkpt>
      <trkpt lat="45.85315" lon="5.7762">
        <ele>335.16</ele>
        <time>2012-04-09T07:19:37Z</time>
      </trkpt>
      <trkpt lat="45.85317" lon="5.77619">
        <ele>336.12</ele>
        <time>2012-04-09T07:19:39Z</time>
      </trkpt>
      <trkpt lat="45.8532" lon="5.77618">
        <ele>336.6</ele>
        <time>2012-04-09T07:19:41Z</time>
      </trkpt>
      <trkpt lat="45.85323" lon="5.77617">
        <ele>337.56</ele>
        <time>2012-04-09T07:19:43Z</time>
      </trkpt>
      <trkpt lat="45.85326" lon="5.77617">
        <ele>338.04</ele>
        <time>2012-04-09T07:19:45Z</time>
      </trkpt>
      <trkpt lat="45.85329" lon="5.77615">
        <ele>338.52</ele>
        <time>2012-04-09T07:19:47Z</time>
      </trkpt>
      <trkpt lat="45.85333" lon="5.77616">
        <ele>339</ele>
        <time>2012-04-09T07:19:49Z</time>
      </trkpt>
      <trkpt lat="45.85335" lon="5.77616">
        <ele>339.48</ele>
        <time>2012-04-09T07:19:51Z</time>
      </trkpt>
      <trkpt lat="45.85338" lon="5.77616">
        <ele>339.96</ele>
        <time>2012-04-09T07:19:53Z</time>
      </trkpt>
      <trkpt lat="45.8534" lon="5.77617">
        <ele>340.44</ele>
        <time>2012-04-09T07:19:55Z</time>
      </trkpt>
      <trkpt lat="45.85343" lon="5.77617">
        <ele>341.89</ele>
        <time>2012-04-09T07:19:57Z</time>
      </trkpt>
      <trkpt lat="45.85345" lon="5.77617">
        <ele>342.37</ele>
        <time>2012-04-09T07:19:59Z</time>
      </trkpt>
      <trkpt lat="45.85346" lon="5.77617">
        <ele>342.85</ele>
        <time>2012-04-09T07:20:01Z</time>
      </trkpt>
      <trkpt lat="45.85349" lon="5.77617">
        <ele>342.85</ele>
        <time>2012-04-09T07:20:03Z</time>
      </trkpt>
      <trkpt lat="45.85352" lon="5.77616">
        <ele>343.81</ele>
        <time>2012-04-09T07:20:05Z</time>
      </trkpt>
      <trkpt lat="45.85355" lon="5.77615">
        <ele>344.29</ele>
        <time>2012-04-09T07:20:07Z</time>
      </trkpt>
      <trkpt lat="45.85358" lon="5.77614">
        <ele>344.77</ele>
        <time>2012-04-09T07:20:09Z</time>
      </trkpt>
      <trkpt lat="45.85361" lon="5.77614">
        <ele>345.25</ele>
        <time>2012-04-09T07:20:11Z</time>
      </trkpt>
      <trkpt lat="45.85363" lon="5.77613">
        <ele>345.73</ele>
        <time>2012-04-09T07:20:13Z</time>
      </trkpt>
      <trkpt lat="45.85365" lon="5.77612">
        <ele>346.69</ele>
        <time>2012-04-09T07:20:15Z</time>
      </trkpt>
      <trkpt lat="45.85368" lon="5.77612">
        <ele>347.65</ele>
        <time>2012-04-09T07:20:17Z</time>
      </trkpt>
      <trkpt lat="45.8537" lon="5.77612">
        <ele>348.13</ele>
        <time>2012-04-09T07:20:19Z</time>
      </trkpt>
      <trkpt lat="45.85372" lon="5.77611">
        <ele>348.13</ele>
        <time>2012-04-09T07:20:21Z</time>
      </trkpt>
      <trkpt lat="45.85373" lon="5.77611">
        <ele>349.58</ele>
        <time>2012-04-09T07:20:23Z</time>
      </trkpt>
      <trkpt lat="45.85375" lon="5.7761">
        <ele>350.06</ele>
        <time>2012-04-09T07:20:25Z</time>
      </trkpt>
      <trkpt lat="45.85377" lon="5.77607">
        <ele>350.54</ele>
        <time>2012-04-09T07:20:27Z</time>
      </trkpt>
      <trkpt lat="45.85379" lon="5.77606">
        <ele>351.5</ele>
        <time>2012-04-09T07:20:29Z</time>
      </trkpt>
      <trkpt lat="45.85379" lon="5.77606">
        <ele>351.98</ele>
        <time>2012-04-09T07:20:31Z</time>
      </trkpt>
      <trkpt lat="45.85382" lon="5.77604">
        <ele>352.46</ele>
        <time>2012-04-09T07:20:33Z</time>
      </trkpt>
      <trkpt lat="45.85385" lon="5.77602">
        <ele>352.94</ele>
        <time>2012-04-09T07:20:35Z</time>
      </trkpt>
      <trkpt lat="45.85388" lon="5.77601">
        <ele>354.38</ele>
        <time>2012-04-09T07:20:37Z</time>
      </trkpt>
      <trkpt lat="45.8539" lon="5.776">
        <ele>354.38</ele>
        <time>2012-04-09T07:20:39Z</time>
      </trkpt>
      <trkpt lat="45.85392" lon="5.77599">
        <ele>355.34</ele>
        <time>2012-04-09T07:20:41Z</time>
      </trkpt>
      <trkpt lat="45.85395" lon="5.77598">
        <ele>355.83</ele>
        <time>2012-04-09T07:20:43Z</time>
      </trkpt>
      <trkpt lat="45.85398" lon="5.77597">
        <ele>356.79</ele>
        <time>2012-04-09T07:20:45Z</time>
      </trkpt>
      <trkpt lat="45.85401" lon="5.77596">
        <ele>357.75</ele>
        <time>2012-04-09T07:20:47Z</time>
      </trkpt>
      <trkpt lat="45.85404" lon="5.77594">
        <ele>358.23</ele>
        <time>2012-04-09T07:20:49Z</time>
      </trkpt>
      <trkpt lat="45.85406" lon="5.77592">
        <ele>359.67</ele>
        <time>2012-04-09T07:20:51Z</time>
      </trkpt>
      <trkpt lat="45.85409" lon="5.77592">
        <ele>359.67</ele>
        <time>2012-04-09T07:20:53Z</time>
      </trkpt>
      <trkpt lat="45.85411" lon="5.77591">
        <ele>360.63</ele>
        <time>2012-04-09T07:20:55Z</time>
      </trkpt>
      <trkpt lat="45.85413" lon="5.7759">
        <ele>361.11</ele>
        <time>2012-04-09T07:20:57Z</time>
      </trkpt>
      <trkpt lat="45.85416" lon="5.77589">
        <ele>361.59</ele>
        <time>2012-04-09T07:20:59Z</time>
      </trkpt>
      <trkpt lat="45.85418" lon="5.77589">
        <ele>362.07</ele>
        <time>2012-04-09T07:21:01Z</time>
      </trkpt>
      <trkpt lat="45.85419" lon="5.77588">
        <ele>363.04</ele>
        <time>2012-04-09T07:21:03Z</time>
      </trkpt>
      <trkpt lat="45.85423" lon="5.77588">
        <ele>364.48</ele>
        <time>2012-04-09T07:21:05Z</time>
      </trkpt>
      <trkpt lat="45.85426" lon="5.77585">
        <ele>364.48</ele>
        <time>2012-04-09T07:21:07Z</time>
      </trkpt>
      <trkpt lat="45.85428" lon="5.77583">
        <ele>364.96</ele>
        <time>2012-04-09T07:21:09Z</time>
      </trkpt>
      <trkpt lat="45.8543" lon="5.77582">
        <ele>365.92</ele>
        <time>2012-04-09T07:21:11Z</time>
      </trkpt>
      <trkpt lat="45.85431" lon="5.7758">
        <ele>366.4</ele>
        <time>2012-04-09T07:21:13Z</time>
      </trkpt>
      <trkpt lat="45.85433" lon="5.77579">
        <ele>366.88</ele>
        <time>2012-04-09T07:21:15Z</time>
      </trkpt>
      <trkpt lat="45.85436" lon="5.77577">
        <ele>367.36</ele>
        <time>2012-04-09T07:21:17Z</time>
      </trkpt>
      <trkpt lat="45.85439" lon="5.77575">
        <ele>368.8</ele>
        <time>2012-04-09T07:21:19Z</time>
      </trkpt>
      <trkpt lat="45.85441" lon="5.77574">
        <ele>369.28</ele>
        <time>2012-04-09T07:21:21Z</time>
      </trkpt>
      <trkpt lat="45.85443" lon="5.77572">
        <ele>370.24</ele>
        <time>2012-04-09T07:21:23Z</time>
      </trkpt>
      <trkpt lat="45.85444" lon="5.77571">
        <ele>370.24</ele>
        <time>2012-04-09T07:21:25Z</time>
      </trkpt>
      <trkpt lat="45.85446" lon="5.7757">
        <ele>370.73</ele>
        <time>2012-04-09T07:21:27Z</time>
      </trkpt>
      <trkpt lat="45.85448" lon="5.77569">
        <ele>371.69</ele>
        <time>2012-04-09T07:21:29Z</time>
      </trkpt>
      <trkpt lat="45.85451" lon="5.77567">
        <ele>372.17</ele>
        <time>2012-04-09T07:21:31Z</time>
      </trkpt>
      <trkpt lat="45.85453" lon="5.77566">
        <ele>372.65</ele>
        <time>2012-04-09T07:21:33Z</time>
      </trkpt>
      <trkpt lat="45.85455" lon="5.77566">
        <ele>373.61</ele>
        <time>2012-04-09T07:21:35Z</time>
      </trkpt>
      <trkpt lat="45.85457" lon="5.77565">
        <ele>374.57</ele>
        <time>2012-04-09T07:21:37Z</time>
      </trkpt>
      <trkpt lat="45.85458" lon="5.77563">
        <ele>375.53</ele>
        <time>2012-04-09T07:21:39Z</time>
      </trkpt>
      <trkpt lat="45.8546" lon="5.77563">
        <ele>376.01</ele>
        <time>2012-04-09T07:21:41Z</time>
      </trkpt>
      <trkpt lat="45.85463" lon="5.77563">
        <ele>376.49</ele>
        <time>2012-04-09T07:21:43Z</time>
      </trkpt>
      <trkpt lat="45.85464" lon="5.77562">
        <ele>377.45</ele>
        <time>2012-04-09T07:21:45Z</time>
      </trkpt>
      <trkpt lat="45.85466" lon="5.77561">
        <ele>377.94</ele>
        <time>2012-04-09T07:21:47Z</time>
      </trkpt>
      <trkpt lat="45.85466" lon="5.77561">
        <ele>376.97</ele>
        <time>2012-04-09T07:21:49Z</time>
      </trkpt>
      <trkpt lat="45.85466" lon="5.77561">
        <ele>377.94</ele>
        <time>2012-04-09T07:21:51Z</time>
      </trkpt>
      <trkpt lat="45.85466" lon="5.7756">
        <ele>377.45</ele>
        <time>2012-04-09T07:21:53Z</time>
      </trkpt>
      <trkpt lat="45.85467" lon="5.77559">
        <ele>379.38</ele>
        <time>2012-04-09T07:21:55Z</time>
      </trkpt>
      <trkpt lat="45.85468" lon="5.77559">
        <ele>378.9</ele>
        <time>2012-04-09T07:21:57Z</time>
      </trkpt>
      <trkpt lat="45.85469" lon="5.77559">
        <ele>378.42</ele>
        <time>2012-04-09T07:21:59Z</time>
      </trkpt>
      <trkpt lat="45.8547" lon="5.77561">
        <ele>378.9</ele>
        <time>2012-04-09T07:22:01Z</time>
      </trkpt>
      <trkpt lat="45.85471" lon="5.77564">
        <ele>379.38</ele>
        <time>2012-04-09T07:22:03Z</time>
      </trkpt>
      <trkpt lat="45.85472" lon="5.77566">
        <ele>379.38</ele>
        <time>2012-04-09T07:22:05Z</time>
      </trkpt>
      <trkpt lat="45.85474" lon="5.77569">
        <ele>380.34</ele>
        <time>2012-04-09T07:22:07Z</time>
      </trkpt>
      <trkpt lat="45.85476" lon="5.77573">
        <ele>379.86</ele>
        <time>2012-04-09T07:22:09Z</time>
      </trkpt>
      <trkpt lat="45.85478" lon="5.77576">
        <ele>380.34</ele>
        <time>2012-04-09T07:22:11Z</time>
      </trkpt>
      <trkpt lat="45.85479" lon="5.7758">
        <ele>380.82</ele>
        <time>2012-04-09T07:22:13Z</time>
      </trkpt>
      <trkpt lat="45.85479" lon="5.77584">
        <ele>381.3</ele>
        <time>2012-04-09T07:22:15Z</time>
      </trkpt>
      <trkpt lat="45.85478" lon="5.77589">
        <ele>381.78</ele>
        <time>2012-04-09T07:22:17Z</time>
      </trkpt>
      <trkpt lat="45.85478" lon="5.77595">
        <ele>382.26</ele>
        <time>2012-04-09T07:22:19Z</time>
      </trkpt>
      <trkpt lat="45.85479" lon="5.77602">
        <ele>382.26</ele>
        <time>2012-04-09T07:22:21Z</time>
      </trkpt>
      <trkpt lat="45.8548" lon="5.77608">
        <ele>382.74</ele>
        <time>2012-04-09T07:22:23Z</time>
      </trkpt>
      <trkpt lat="45.85481" lon="5.77614">
        <ele>383.7</ele>
        <time>2012-04-09T07:22:25Z</time>
      </trkpt>
      <trkpt lat="45.85482" lon="5.7762">
        <ele>383.7</ele>
        <time>2012-04-09T07:22:27Z</time>
      </trkpt>
      <trkpt lat="45.85484" lon="5.77626">
        <ele>384.66</ele>
        <time>2012-04-09T07:22:29Z</time>
      </trkpt>
      <trkpt lat="45.85485" lon="5.77629">
        <ele>385.15</ele>
        <time>2012-04-09T07:22:31Z</time>
      </trkpt>
      <trkpt lat="45.85486" lon="5.77633">
        <ele>385.15</ele>
        <time>2012-04-09T07:22:33Z</time>
      </trkpt>
      <trkpt lat="45.85487" lon="5.77638">
        <ele>385.63</ele>
        <time>2012-04-09T07:22:35Z</time>
      </trkpt>
      <trkpt lat="45.85487" lon="5.77643">
        <ele>386.11</ele>
        <time>2012-04-09T07:22:37Z</time>
      </trkpt>
      <trkpt lat="45.85487" lon="5.77648">
        <ele>386.59</ele>
        <time>2012-04-09T07:22:39Z</time>
      </trkpt>
      <trkpt lat="45.85488" lon="5.77653">
        <ele>387.07</ele>
        <time>2012-04-09T07:22:41Z</time>
      </trkpt>
      <trkpt lat="45.85488" lon="5.77656">
        <ele>387.55</ele>
        <time>2012-04-09T07:22:43Z</time>
      </trkpt>
      <trkpt lat="45.85489" lon="5.77662">
        <ele>387.55</ele>
        <time>2012-04-09T07:22:45Z</time>
      </trkpt>
      <trkpt lat="45.8549" lon="5.77667">
        <ele>388.03</ele>
        <time>2012-04-09T07:22:47Z</time>
      </trkpt>
      <trkpt lat="45.8549" lon="5.77673">
        <ele>388.51</ele>
        <time>2012-04-09T07:22:49Z</time>
      </trkpt>
      <trkpt lat="45.8549" lon="5.7768">
        <ele>387.55</ele>
        <time>2012-04-09T07:22:51Z</time>
      </trkpt>
      <trkpt lat="45.8549" lon="5.77687">
        <ele>388.99</ele>
        <time>2012-04-09T07:22:53Z</time>
      </trkpt>
      <trkpt lat="45.8549" lon="5.77692">
        <ele>390.43</ele>
        <time>2012-04-09T07:22:55Z</time>
      </trkpt>
      <trkpt lat="45.8549" lon="5.77695">
        <ele>389.47</ele>
        <time>2012-04-09T07:22:57Z</time>
      </trkpt>
      <trkpt lat="45.85489" lon="5.77698">
        <ele>389.95</ele>
        <time>2012-04-09T07:22:59Z</time>
      </trkpt>
      <trkpt lat="45.85488" lon="5.77703">
        <ele>390.43</ele>
        <time>2012-04-09T07:23:01Z</time>
      </trkpt>
      <trkpt lat="45.85489" lon="5.77708">
        <ele>392.84</ele>
        <time>2012-04-09T07:23:03Z</time>
      </trkpt>
      <trkpt lat="45.85489" lon="5.77713">
        <ele>392.36</ele>
        <time>2012-04-09T07:23:05Z</time>
      </trkpt>
      <trkpt lat="45.85488" lon="5.77717">
        <ele>391.87</ele>
        <time>2012-04-09T07:23:07Z</time>
      </trkpt>
      <trkpt lat="45.85488" lon="5.7772">
        <ele>390.91</ele>
        <time>2012-04-09T07:23:09Z</time>
      </trkpt>
      <trkpt lat="45.85488" lon="5.77723">
        <ele>392.36</ele>
        <time>2012-04-09T07:23:11Z</time>
      </trkpt>
      <trkpt lat="45.85488" lon="5.77727">
        <ele>392.36</ele>
        <time>2012-04-09T07:23:13Z</time>
      </trkpt>
      <trkpt lat="45.85489" lon="5.77733">
        <ele>392.84</ele>
        <time>2012-04-09T07:23:15Z</time>
      </trkpt>
      <trkpt lat="45.8549" lon="5.77739">
        <ele>393.32</ele>
        <time>2012-04-09T07:23:17Z</time>
      </trkpt>
      <trkpt lat="45.85493" lon="5.77745">
        <ele>393.32</ele>
        <time>2012-04-09T07:23:19Z</time>
      </trkpt>
      <trkpt lat="45.85494" lon="5.7775">
        <ele>394.28</ele>
        <time>2012-04-09T07:23:21Z</time>
      </trkpt>
      <trkpt lat="45.85497" lon="5.77755">
        <ele>394.76</ele>
        <time>2012-04-09T07:23:23Z</time>
      </trkpt>
      <trkpt lat="45.85499" lon="5.77758">
        <ele>394.76</ele>
        <time>2012-04-09T07:23:25Z</time>
      </trkpt>
      <trkpt lat="45.85501" lon="5.77763">
        <ele>395.24</ele>
        <time>2012-04-09T07:23:27Z</time>
      </trkpt>
      <trkpt lat="45.85504" lon="5.77765">
        <ele>395.72</ele>
        <time>2012-04-09T07:23:29Z</time>
      </trkpt>
      <trkpt lat="45.85506" lon="5.7777">
        <ele>396.2</ele>
        <time>2012-04-09T07:23:31Z</time>
      </trkpt>
      <trkpt lat="45.8551" lon="5.77774">
        <ele>397.16</ele>
        <time>2012-04-09T07:23:33Z</time>
      </trkpt>
      <trkpt lat="45.85512" lon="5.77777">
        <ele>397.16</ele>
        <time>2012-04-09T07:23:35Z</time>
      </trkpt>
      <trkpt lat="45.85515" lon="5.77779">
        <ele>397.64</ele>
        <time>2012-04-09T07:23:37Z</time>
      </trkpt>
      <trkpt lat="45.85518" lon="5.77783">
        <ele>398.12</ele>
        <time>2012-04-09T07:23:39Z</time>
      </trkpt>
      <trkpt lat="45.8552" lon="5.77788">
        <ele>398.12</ele>
        <time>2012-04-09T07:23:41Z</time>
      </trkpt>
      <trkpt lat="45.85522" lon="5.77792">
        <ele>398.6</ele>
        <time>2012-04-09T07:23:43Z</time>
      </trkpt>
      <trkpt lat="45.85524" lon="5.77796">
        <ele>399.08</ele>
        <time>2012-04-09T07:23:45Z</time>
      </trkpt>
      <trkpt lat="45.85526" lon="5.77801">
        <ele>399.57</ele>
        <time>2012-04-09T07:23:47Z</time>
      </trkpt>
      <trkpt lat="45.85528" lon="5.77806">
        <ele>400.05</ele>
        <time>2012-04-09T07:23:49Z</time>
      </trkpt>
      <trkpt lat="45.85531" lon="5.77811">
        <ele>401.01</ele>
        <time>2012-04-09T07:23:51Z</time>
      </trkpt>
      <trkpt lat="45.85533" lon="5.77816">
        <ele>401.01</ele>
        <time>2012-04-09T07:23:53Z</time>
      </trkpt>
      <trkpt lat="45.85535" lon="5.7782">
        <ele>401.97</ele>
        <time>2012-04-09T07:23:55Z</time>
      </trkpt>
      <trkpt lat="45.85537" lon="5.77825">
        <ele>402.45</ele>
        <time>2012-04-09T07:23:57Z</time>
      </trkpt>
      <trkpt lat="45.8554" lon="5.77829">
        <ele>402.93</ele>
        <time>2012-04-09T07:23:59Z</time>
      </trkpt>
      <trkpt lat="45.85542" lon="5.77833">
        <ele>403.89</ele>
        <time>2012-04-09T07:24:01Z</time>
      </trkpt>
      <trkpt lat="45.85546" lon="5.77835">
        <ele>403.89</ele>
        <time>2012-04-09T07:24:03Z</time>
      </trkpt>
      <trkpt lat="45.85548" lon="5.77832">
        <ele>404.85</ele>
        <time>2012-04-09T07:24:05Z</time>
      </trkpt>
      <trkpt lat="45.8555" lon="5.77828">
        <ele>405.33</ele>
        <time>2012-04-09T07:24:07Z</time>
      </trkpt>
      <trkpt lat="45.85549" lon="5.77824">
        <ele>405.81</ele>
        <time>2012-04-09T07:24:09Z</time>
      </trkpt>
      <trkpt lat="45.85547" lon="5.77818">
        <ele>406.29</ele>
        <time>2012-04-09T07:24:11Z</time>
      </trkpt>
      <trkpt lat="45.85546" lon="5.77812">
        <ele>406.29</ele>
        <time>2012-04-09T07:24:13Z</time>
      </trkpt>
      <trkpt lat="45.85544" lon="5.77807">
        <ele>406.77</ele>
        <time>2012-04-09T07:24:15Z</time>
      </trkpt>
      <trkpt lat="45.85542" lon="5.77804">
        <ele>407.26</ele>
        <time>2012-04-09T07:24:17Z</time>
      </trkpt>
      <trkpt lat="45.85541" lon="5.778">
        <ele>407.26</ele>
        <time>2012-04-09T07:24:19Z</time>
      </trkpt>
      <trkpt lat="45.8554" lon="5.77796">
        <ele>407.74</ele>
        <time>2012-04-09T07:24:21Z</time>
      </trkpt>
      <trkpt lat="45.85539" lon="5.77792">
        <ele>407.74</ele>
        <time>2012-04-09T07:24:23Z</time>
      </trkpt>
      <trkpt lat="45.85538" lon="5.77786">
        <ele>408.22</ele>
        <time>2012-04-09T07:24:25Z</time>
      </trkpt>
      <trkpt lat="45.85536" lon="5.7778">
        <ele>408.7</ele>
        <time>2012-04-09T07:24:27Z</time>
      </trkpt>
      <trkpt lat="45.85536" lon="5.77774">
        <ele>408.7</ele>
        <time>2012-04-09T07:24:29Z</time>
      </trkpt>
      <trkpt lat="45.85535" lon="5.77769">
        <ele>409.18</ele>
        <time>2012-04-09T07:24:31Z</time>
      </trkpt>
      <trkpt lat="45.85534" lon="5.77765">
        <ele>409.66</ele>
        <time>2012-04-09T07:24:33Z</time>
      </trkpt>
      <trkpt lat="45.85533" lon="5.77761">
        <ele>409.66</ele>
        <time>2012-04-09T07:24:35Z</time>
      </trkpt>
      <trkpt lat="45.85531" lon="5.77756">
        <ele>410.14</ele>
        <time>2012-04-09T07:24:37Z</time>
      </trkpt>
      <trkpt lat="45.85531" lon="5.77751">
        <ele>410.14</ele>
        <time>2012-04-09T07:24:39Z</time>
      </trkpt>
      <trkpt lat="45.85531" lon="5.77746">
        <ele>410.62</ele>
        <time>2012-04-09T07:24:41Z</time>
      </trkpt>
      <trkpt lat="45.85531" lon="5.7774">
        <ele>412.06</ele>
        <time>2012-04-09T07:24:43Z</time>
      </trkpt>
      <trkpt lat="45.85531" lon="5.77733">
        <ele>411.58</ele>
        <time>2012-04-09T07:24:45Z</time>
      </trkpt>
      <trkpt lat="45.85532" lon="5.77729">
        <ele>412.06</ele>
        <time>2012-04-09T07:24:47Z</time>
      </trkpt>
      <trkpt lat="45.85532" lon="5.77724">
        <ele>412.54</ele>
        <time>2012-04-09T07:24:49Z</time>
      </trkpt>
      <trkpt lat="45.85532" lon="5.7772">
        <ele>412.54</ele>
        <time>2012-04-09T07:24:51Z</time>
      </trkpt>
      <trkpt lat="45.85532" lon="5.77716">
        <ele>413.02</ele>
        <time>2012-04-09T07:24:53Z</time>
      </trkpt>
      <trkpt lat="45.85532" lon="5.77711">
        <ele>413.5</ele>
        <time>2012-04-09T07:24:55Z</time>
      </trkpt>
      <trkpt lat="45.85532" lon="5.77705">
        <ele>413.98</ele>
        <time>2012-04-09T07:24:57Z</time>
      </trkpt>
      <trkpt lat="45.85532" lon="5.777">
        <ele>414.47</ele>
        <time>2012-04-09T07:24:59Z</time>
      </trkpt>
      <trkpt lat="45.85531" lon="5.77696">
        <ele>415.43</ele>
        <time>2012-04-09T07:25:01Z</time>
      </trkpt>
      <trkpt lat="45.85531" lon="5.77691">
        <ele>415.43</ele>
        <time>2012-04-09T07:25:03Z</time>
      </trkpt>
      <trkpt lat="45.85531" lon="5.77687">
        <ele>415.91</ele>
        <time>2012-04-09T07:25:05Z</time>
      </trkpt>
      <trkpt lat="45.8553" lon="5.77681">
        <ele>415.91</ele>
        <time>2012-04-09T07:25:07Z</time>
      </trkpt>
      <trkpt lat="45.8553" lon="5.77676">
        <ele>416.87</ele>
        <time>2012-04-09T07:25:09Z</time>
      </trkpt>
      <trkpt lat="45.8553" lon="5.7767">
        <ele>417.35</ele>
        <time>2012-04-09T07:25:11Z</time>
      </trkpt>
      <trkpt lat="45.8553" lon="5.77664">
        <ele>416.87</ele>
        <time>2012-04-09T07:25:13Z</time>
      </trkpt>
      <trkpt lat="45.85531" lon="5.77659">
        <ele>418.31</ele>
        <time>2012-04-09T07:25:15Z</time>
      </trkpt>
      <trkpt lat="45.85533" lon="5.77655">
        <ele>418.79</ele>
        <time>2012-04-09T07:25:17Z</time>
      </trkpt>
      <trkpt lat="45.85534" lon="5.77651">
        <ele>419.27</ele>
        <time>2012-04-09T07:25:19Z</time>
      </trkpt>
      <trkpt lat="45.85537" lon="5.77646">
        <ele>419.27</ele>
        <time>2012-04-09T07:25:21Z</time>
      </trkpt>
      <trkpt lat="45.85539" lon="5.77642">
        <ele>419.75</ele>
        <time>2012-04-09T07:25:23Z</time>
      </trkpt>
      <trkpt lat="45.8554" lon="5.77639">
        <ele>420.23</ele>
        <time>2012-04-09T07:25:25Z</time>
      </trkpt>
      <trkpt lat="45.85542" lon="5.77635">
        <ele>420.23</ele>
        <time>2012-04-09T07:25:27Z</time>
      </trkpt>
      <trkpt lat="45.85542" lon="5.7763">
        <ele>421.19</ele>
        <time>2012-04-09T07:25:29Z</time>
      </trkpt>
      <trkpt lat="45.85542" lon="5.77625">
        <ele>421.68</ele>
        <time>2012-04-09T07:25:31Z</time>
      </trkpt>
      <trkpt lat="45.85541" lon="5.77621">
        <ele>422.16</ele>
        <time>2012-04-09T07:25:33Z</time>
      </trkpt>
      <trkpt lat="45.8554" lon="5.77616">
        <ele>422.16</ele>
        <time>2012-04-09T07:25:35Z</time>
      </trkpt>
      <trkpt lat="45.85539" lon="5.77612">
        <ele>423.12</ele>
        <time>2012-04-09T07:25:37Z</time>
      </trkpt>
      <trkpt lat="45.85538" lon="5.7761">
        <ele>423.12</ele>
        <time>2012-04-09T07:25:39Z</time>
      </trkpt>
      <trkpt lat="45.85538" lon="5.77605">
        <ele>424.08</ele>
        <time>2012-04-09T07:25:41Z</time>
      </trkpt>
      <trkpt lat="45.85538" lon="5.77603">
        <ele>424.08</ele>
        <time>2012-04-09T07:25:43Z</time>
      </trkpt>
      <trkpt lat="45.85537" lon="5.77599">
        <ele>425.04</ele>
        <time>2012-04-09T07:25:45Z</time>
      </trkpt>
      <trkpt lat="45.85536" lon="5.77595">
        <ele>425.04</ele>
        <time>2012-04-09T07:25:47Z</time>
      </trkpt>
      <trkpt lat="45.85536" lon="5.7759">
        <ele>425.52</ele>
        <time>2012-04-09T07:25:49Z</time>
      </trkpt>
      <trkpt lat="45.85536" lon="5.77583">
        <ele>426</ele>
        <time>2012-04-09T07:25:51Z</time>
      </trkpt>
      <trkpt lat="45.85536" lon="5.77577">
        <ele>426</ele>
        <time>2012-04-09T07:25:53Z</time>
      </trkpt>
      <trkpt lat="45.85539" lon="5.77572">
        <ele>426.96</ele>
        <time>2012-04-09T07:25:55Z</time>
      </trkpt>
      <trkpt lat="45.85542" lon="5.77571">
        <ele>427.92</ele>
        <time>2012-04-09T07:25:57Z</time>
      </trkpt>
      <trkpt lat="45.85544" lon="5.77573">
        <ele>427.92</ele>
        <time>2012-04-09T07:25:59Z</time>
      </trkpt>
      <trkpt lat="45.85544" lon="5.77576">
        <ele>428.4</ele>
        <time>2012-04-09T07:26:01Z</time>
      </trkpt>
      <trkpt lat="45.85544" lon="5.77579">
        <ele>428.89</ele>
        <time>2012-04-09T07:26:03Z</time>
      </trkpt>
      <trkpt lat="45.85545" lon="5.77583">
        <ele>429.37</ele>
        <time>2012-04-09T07:26:05Z</time>
      </trkpt>
      <trkpt lat="45.85546" lon="5.77587">
        <ele>428.89</ele>
        <time>2012-04-09T07:26:07Z</time>
      </trkpt>
      <trkpt lat="45.85547" lon="5.77591">
        <ele>429.85</ele>
        <time>2012-04-09T07:26:09Z</time>
      </trkpt>
      <trkpt lat="45.85548" lon="5.77595">
        <ele>429.85</ele>
        <time>2012-04-09T07:26:11Z</time>
      </trkpt>
      <trkpt lat="45.8555" lon="5.77598">
        <ele>430.33</ele>
        <time>2012-04-09T07:26:13Z</time>
      </trkpt>
      <trkpt lat="45.85552" lon="5.776">
        <ele>430.33</ele>
        <time>2012-04-09T07:26:15Z</time>
      </trkpt>
      <trkpt lat="45.85554" lon="5.77604">
        <ele>431.29</ele>
        <time>2012-04-09T07:26:17Z</time>
      </trkpt>
      <trkpt lat="45.85557" lon="5.77607">
        <ele>431.29</ele>
        <time>2012-04-09T07:26:19Z</time>
      </trkpt>
      <trkpt lat="45.85559" lon="5.7761">
        <ele>432.25</ele>
        <time>2012-04-09T07:26:21Z</time>
      </trkpt>
      <trkpt lat="45.8556" lon="5.77613">
        <ele>432.25</ele>
        <time>2012-04-09T07:26:23Z</time>
      </trkpt>
      <trkpt lat="45.8556" lon="5.77619">
        <ele>432.73</ele>
        <time>2012-04-09T07:26:25Z</time>
      </trkpt>
      <trkpt lat="45.8556" lon="5.77623">
        <ele>433.21</ele>
        <time>2012-04-09T07:26:27Z</time>
      </trkpt>
      <trkpt lat="45.85559" lon="5.77628">
        <ele>433.69</ele>
        <time>2012-04-09T07:26:29Z</time>
      </trkpt>
      <trkpt lat="45.85559" lon="5.77633">
        <ele>434.65</ele>
        <time>2012-04-09T07:26:31Z</time>
      </trkpt>
      <trkpt lat="45.85558" lon="5.77638">
        <ele>435.61</ele>
        <time>2012-04-09T07:26:33Z</time>
      </trkpt>
      <trkpt lat="45.85557" lon="5.77643">
        <ele>435.61</ele>
        <time>2012-04-09T07:26:35Z</time>
      </trkpt>
      <trkpt lat="45.85556" lon="5.77648">
        <ele>436.1</ele>
        <time>2012-04-09T07:26:37Z</time>
      </trkpt>
      <trkpt lat="45.85555" lon="5.77652">
        <ele>436.58</ele>
        <time>2012-04-09T07:26:39Z</time>
      </trkpt>
      <trkpt lat="45.85555" lon="5.77658">
        <ele>436.58</ele>
        <time>2012-04-09T07:26:41Z</time>
      </trkpt>
      <trkpt lat="45.85555" lon="5.77662">
        <ele>437.54</ele>
        <time>2012-04-09T07:26:43Z</time>
      </trkpt>
      <trkpt lat="45.85556" lon="5.77668">
        <ele>438.02</ele>
        <time>2012-04-09T07:26:45Z</time>
      </trkpt>
      <trkpt lat="45.85556" lon="5.77673">
        <ele>438.02</ele>
        <time>2012-04-09T07:26:47Z</time>
      </trkpt>
      <trkpt lat="45.85557" lon="5.77679">
        <ele>438.5</ele>
        <time>2012-04-09T07:26:49Z</time>
      </trkpt>
      <trkpt lat="45.85557" lon="5.77683">
        <ele>438.98</ele>
        <time>2012-04-09T07:26:51Z</time>
      </trkpt>
      <trkpt lat="45.85558" lon="5.77688">
        <ele>438.98</ele>
        <time>2012-04-09T07:26:53Z</time>
      </trkpt>
      <trkpt lat="45.8556" lon="5.77692">
        <ele>439.46</ele>
        <time>2012-04-09T07:26:55Z</time>
      </trkpt>
      <trkpt lat="45.85561" lon="5.77696">
        <ele>439.94</ele>
        <time>2012-04-09T07:26:57Z</time>
      </trkpt>
      <trkpt lat="45.85563" lon="5.777">
        <ele>440.42</ele>
        <time>2012-04-09T07:26:59Z</time>
      </trkpt>
      <trkpt lat="45.85566" lon="5.77704">
        <ele>440.9</ele>
        <time>2012-04-09T07:27:01Z</time>
      </trkpt>
      <trkpt lat="45.85569" lon="5.77707">
        <ele>441.38</ele>
        <time>2012-04-09T07:27:03Z</time>
      </trkpt>
      <trkpt lat="45.85571" lon="5.77712">
        <ele>441.86</ele>
        <time>2012-04-09T07:27:05Z</time>
      </trkpt>
      <trkpt lat="45.85573" lon="5.77716">
        <ele>442.34</ele>
        <time>2012-04-09T07:27:07Z</time>
      </trkpt>
      <trkpt lat="45.85575" lon="5.77721">
        <ele>442.82</ele>
        <time>2012-04-09T07:27:09Z</time>
      </trkpt>
      <trkpt lat="45.85576" lon="5.77725">
        <ele>443.31</ele>
        <time>2012-04-09T07:27:11Z</time>
      </trkpt>
      <trkpt lat="45.85579" lon="5.77729">
        <ele>443.79</ele>
        <time>2012-04-09T07:27:13Z</time>
      </trkpt>
      <trkpt lat="45.85581" lon="5.77733">
        <ele>444.27</ele>
        <time>2012-04-09T07:27:15Z</time>
      </trkpt>
      <trkpt lat="45.85583" lon="5.77738">
        <ele>444.75</ele>
        <time>2012-04-09T07:27:17Z</time>
      </trkpt>
      <trkpt lat="45.85584" lon="5.77742">
        <ele>444.75</ele>
        <time>2012-04-09T07:27:19Z</time>
      </trkpt>
      <trkpt lat="45.85584" lon="5.77746">
        <ele>445.71</ele>
        <time>2012-04-09T07:27:21Z</time>
      </trkpt>
      <trkpt lat="45.85585" lon="5.7775">
        <ele>446.19</ele>
        <time>2012-04-09T07:27:23Z</time>
      </trkpt>
      <trkpt lat="45.85586" lon="5.77754">
        <ele>446.67</ele>
        <time>2012-04-09T07:27:25Z</time>
      </trkpt>
      <trkpt lat="45.85588" lon="5.77758">
        <ele>446.67</ele>
        <time>2012-04-09T07:27:27Z</time>
      </trkpt>
      <trkpt lat="45.85589" lon="5.77764">
        <ele>447.15</ele>
        <time>2012-04-09T07:27:29Z</time>
      </trkpt>
      <trkpt lat="45.85591" lon="5.77769">
        <ele>447.15</ele>
        <time>2012-04-09T07:27:31Z</time>
      </trkpt>
      <trkpt lat="45.85591" lon="5.77775">
        <ele>447.63</ele>
        <time>2012-04-09T07:27:33Z</time>
      </trkpt>
      <trkpt lat="45.85591" lon="5.77779">
        <ele>448.11</ele>
        <time>2012-04-09T07:27:35Z</time>
      </trkpt>
      <trkpt lat="45.85592" lon="5.77782">
        <ele>448.59</ele>
        <time>2012-04-09T07:27:37Z</time>
      </trkpt>
      <trkpt lat="45.85594" lon="5.77785">
        <ele>449.55</ele>
        <time>2012-04-09T07:27:39Z</time>
      </trkpt>
      <trkpt lat="45.85595" lon="5.77788">
        <ele>450.03</ele>
        <time>2012-04-09T07:27:41Z</time>
      </trkpt>
      <trkpt lat="45.85596" lon="5.77792">
        <ele>451.48</ele>
        <time>2012-04-09T07:27:43Z</time>
      </trkpt>
      <trkpt lat="45.85598" lon="5.77795">
        <ele>452.44</ele>
        <time>2012-04-09T07:27:45Z</time>
      </trkpt>
      <trkpt lat="45.856" lon="5.77798">
        <ele>453.88</ele>
        <time>2012-04-09T07:27:47Z</time>
      </trkpt>
      <trkpt lat="45.85601" lon="5.77801">
        <ele>454.36</ele>
        <time>2012-04-09T07:27:49Z</time>
      </trkpt>
      <trkpt lat="45.85604" lon="5.77804">
        <ele>455.32</ele>
        <time>2012-04-09T07:27:51Z</time>
      </trkpt>
      <trkpt lat="45.85606" lon="5.77808">
        <ele>455.8</ele>
        <time>2012-04-09T07:27:53Z</time>
      </trkpt>
      <trkpt lat="45.85608" lon="5.77812">
        <ele>456.28</ele>
        <time>2012-04-09T07:27:55Z</time>
      </trkpt>
      <trkpt lat="45.8561" lon="5.77814">
        <ele>457.24</ele>
        <time>2012-04-09T07:27:57Z</time>
      </trkpt>
      <trkpt lat="45.85611" lon="5.77813">
        <ele>457.72</ele>
        <time>2012-04-09T07:27:59Z</time>
      </trkpt>
      <trkpt lat="45.85611" lon="5.7781">
        <ele>457.72</ele>
        <time>2012-04-09T07:28:01Z</time>
      </trkpt>
      <trkpt lat="45.8561" lon="5.77807">
        <ele>458.21</ele>
        <time>2012-04-09T07:28:03Z</time>
      </trkpt>
      <trkpt lat="45.8561" lon="5.77802">
        <ele>458.69</ele>
        <time>2012-04-09T07:28:05Z</time>
      </trkpt>
      <trkpt lat="45.8561" lon="5.77798">
        <ele>458.69</ele>
        <time>2012-04-09T07:28:07Z</time>
      </trkpt>
      <trkpt lat="45.8561" lon="5.77791">
        <ele>459.17</ele>
        <time>2012-04-09T07:28:09Z</time>
      </trkpt>
      <trkpt lat="45.8561" lon="5.77785">
        <ele>460.13</ele>
        <time>2012-04-09T07:28:11Z</time>
      </trkpt>
      <trkpt lat="45.85609" lon="5.7778">
        <ele>460.13</ele>
        <time>2012-04-09T07:28:13Z</time>
      </trkpt>
      <trkpt lat="45.85608" lon="5.77775">
        <ele>460.61</ele>
        <time>2012-04-09T07:28:15Z</time>
      </trkpt>
      <trkpt lat="45.85608" lon="5.77769">
        <ele>461.09</ele>
        <time>2012-04-09T07:28:17Z</time>
      </trkpt>
      <trkpt lat="45.85608" lon="5.77764">
        <ele>461.57</ele>
        <time>2012-04-09T07:28:19Z</time>
      </trkpt>
      <trkpt lat="45.85607" lon="5.77758">
        <ele>462.05</ele>
        <time>2012-04-09T07:28:21Z</time>
      </trkpt>
      <trkpt lat="45.85607" lon="5.77751">
        <ele>462.53</ele>
        <time>2012-04-09T07:28:23Z</time>
      </trkpt>
      <trkpt lat="45.85607" lon="5.77746">
        <ele>463.01</ele>
        <time>2012-04-09T07:28:25Z</time>
      </trkpt>
      <trkpt lat="45.85606" lon="5.7774">
        <ele>463.01</ele>
        <time>2012-04-09T07:28:27Z</time>
      </trkpt>
      <trkpt lat="45.85606" lon="5.77734">
        <ele>463.01</ele>
        <time>2012-04-09T07:28:29Z</time>
      </trkpt>
      <trkpt lat="45.85606" lon="5.77727">
        <ele>463.97</ele>
        <time>2012-04-09T07:28:31Z</time>
      </trkpt>
      <trkpt lat="45.85606" lon="5.77721">
        <ele>464.45</ele>
        <time>2012-04-09T07:28:33Z</time>
      </trkpt>
      <trkpt lat="45.85606" lon="5.77715">
        <ele>464.93</ele>
        <time>2012-04-09T07:28:35Z</time>
      </trkpt>
      <trkpt lat="45.85606" lon="5.77709">
        <ele>464.93</ele>
        <time>2012-04-09T07:28:37Z</time>
      </trkpt>
      <trkpt lat="45.85605" lon="5.77703">
        <ele>465.9</ele>
        <time>2012-04-09T07:28:39Z</time>
      </trkpt>
      <trkpt lat="45.85605" lon="5.77698">
        <ele>466.38</ele>
        <time>2012-04-09T07:28:41Z</time>
      </trkpt>
      <trkpt lat="45.85605" lon="5.77691">
        <ele>466.86</ele>
        <time>2012-04-09T07:28:43Z</time>
      </trkpt>
      <trkpt lat="45.85606" lon="5.77685">
        <ele>467.34</ele>
        <time>2012-04-09T07:28:45Z</time>
      </trkpt>
      <trkpt lat="45.85606" lon="5.77679">
        <ele>467.34</ele>
        <time>2012-04-09T07:28:47Z</time>
      </trkpt>
      <trkpt lat="45.85607" lon="5.77674">
        <ele>467.82</ele>
        <time>2012-04-09T07:28:49Z</time>
      </trkpt>
      <trkpt lat="45.85609" lon="5.77667">
        <ele>467.82</ele>
        <time>2012-04-09T07:28:51Z</time>
      </trkpt>
      <trkpt lat="45.8561" lon="5.77661">
        <ele>468.78</ele>
        <time>2012-04-09T07:28:53Z</time>
      </trkpt>
      <trkpt lat="45.85612" lon="5.77655">
        <ele>469.26</ele>
        <time>2012-04-09T07:28:55Z</time>
      </trkpt>
      <trkpt lat="45.85614" lon="5.77651">
        <ele>469.74</ele>
        <time>2012-04-09T07:28:57Z</time>
      </trkpt>
      <trkpt lat="45.85615" lon="5.77648">
        <ele>470.22</ele>
        <time>2012-04-09T07:28:59Z</time>
      </trkpt>
      <trkpt lat="45.85618" lon="5.77643">
        <ele>470.22</ele>
        <time>2012-04-09T07:29:01Z</time>
      </trkpt>
      <trkpt lat="45.85622" lon="5.77639">
        <ele>471.18</ele>
        <time>2012-04-09T07:29:03Z</time>
      </trkpt>
      <trkpt lat="45.85626" lon="5.77637">
        <ele>471.18</ele>
        <time>2012-04-09T07:29:05Z</time>
      </trkpt>
      <trkpt lat="45.85628" lon="5.77635">
        <ele>471.66</ele>
        <time>2012-04-09T07:29:07Z</time>
      </trkpt>
      <trkpt lat="45.85631" lon="5.77632">
        <ele>472.14</ele>
        <time>2012-04-09T07:29:09Z</time>
      </trkpt>
      <trkpt lat="45.85634" lon="5.77629">
        <ele>472.63</ele>
        <time>2012-04-09T07:29:11Z</time>
      </trkpt>
      <trkpt lat="45.85638" lon="5.77626">
        <ele>472.63</ele>
        <time>2012-04-09T07:29:13Z</time>
      </trkpt>
      <trkpt lat="45.85641" lon="5.77622">
        <ele>472.63</ele>
        <time>2012-04-09T07:29:15Z</time>
      </trkpt>
      <trkpt lat="45.85643" lon="5.77618">
        <ele>474.07</ele>
        <time>2012-04-09T07:29:17Z</time>
      </trkpt>
      <trkpt lat="45.85645" lon="5.77616">
        <ele>474.55</ele>
        <time>2012-04-09T07:29:19Z</time>
      </trkpt>
      <trkpt lat="45.85647" lon="5.77611">
        <ele>475.51</ele>
        <time>2012-04-09T07:29:21Z</time>
      </trkpt>
      <trkpt lat="45.85649" lon="5.77607">
        <ele>475.99</ele>
        <time>2012-04-09T07:29:23Z</time>
      </trkpt>
      <trkpt lat="45.8565" lon="5.77602">
        <ele>475.99</ele>
        <time>2012-04-09T07:29:25Z</time>
      </trkpt>
      <trkpt lat="45.85651" lon="5.77597">
        <ele>476.47</ele>
        <time>2012-04-09T07:29:27Z</time>
      </trkpt>
      <trkpt lat="45.85652" lon="5.77592">
        <ele>476.95</ele>
        <time>2012-04-09T07:29:29Z</time>
      </trkpt>
      <trkpt lat="45.85654" lon="5.77586">
        <ele>477.91</ele>
        <time>2012-04-09T07:29:31Z</time>
      </trkpt>
      <trkpt lat="45.85656" lon="5.77582">
        <ele>477.91</ele>
        <time>2012-04-09T07:29:33Z</time>
      </trkpt>
      <trkpt lat="45.85657" lon="5.77577">
        <ele>478.39</ele>
        <time>2012-04-09T07:29:35Z</time>
      </trkpt>
      <trkpt lat="45.85659" lon="5.77573">
        <ele>478.87</ele>
        <time>2012-04-09T07:29:37Z</time>
      </trkpt>
      <trkpt lat="45.85661" lon="5.77569">
        <ele>479.35</ele>
        <time>2012-04-09T07:29:39Z</time>
      </trkpt>
      <trkpt lat="45.85663" lon="5.77564">
        <ele>480.32</ele>
        <time>2012-04-09T07:29:41Z</time>
      </trkpt>
      <trkpt lat="45.85665" lon="5.7756">
        <ele>480.8</ele>
        <time>2012-04-09T07:29:43Z</time>
      </trkpt>
      <trkpt lat="45.85668" lon="5.77556">
        <ele>481.76</ele>
        <time>2012-04-09T07:29:45Z</time>
      </trkpt>
      <trkpt lat="45.8567" lon="5.77553">
        <ele>481.76</ele>
        <time>2012-04-09T07:29:47Z</time>
      </trkpt>
      <trkpt lat="45.85674" lon="5.7755">
        <ele>482.24</ele>
        <time>2012-04-09T07:29:49Z</time>
      </trkpt>
      <trkpt lat="45.85677" lon="5.77547">
        <ele>482.24</ele>
        <time>2012-04-09T07:29:51Z</time>
      </trkpt>
      <trkpt lat="45.8568" lon="5.77544">
        <ele>482.72</ele>
        <time>2012-04-09T07:29:53Z</time>
      </trkpt>
      <trkpt lat="45.85682" lon="5.77542">
        <ele>482.72</ele>
        <time>2012-04-09T07:29:55Z</time>
      </trkpt>
      <trkpt lat="45.85683" lon="5.7754">
        <ele>483.68</ele>
        <time>2012-04-09T07:29:57Z</time>
      </trkpt>
      <trkpt lat="45.85684" lon="5.77539">
        <ele>483.2</ele>
        <time>2012-04-09T07:29:59Z</time>
      </trkpt>
      <trkpt lat="45.85684" lon="5.77539">
        <ele>483.68</ele>
        <time>2012-04-09T07:30:01Z</time>
      </trkpt>
      <trkpt lat="45.85684" lon="5.77539">
        <ele>483.2</ele>
        <time>2012-04-09T07:30:03Z</time>
      </trkpt>
      <trkpt lat="45.85684" lon="5.77539">
        <ele>483.2</ele>
        <time>2012-04-09T07:30:05Z</time>
      </trkpt>
      <trkpt lat="45.85684" lon="5.77539">
        <ele>483.2</ele>
        <time>2012-04-09T07:30:07Z</time>
      </trkpt>
      <trkpt lat="45.85684" lon="5.77539">
        <ele>483.68</ele>
        <time>2012-04-09T07:30:09Z</time>
      </trkpt>
      <trkpt lat="45.85684" lon="5.77537">
        <ele>483.68</ele>
        <time>2012-04-09T07:30:11Z</time>
      </trkpt>
      <trkpt lat="45.85686" lon="5.77534">
        <ele>483.68</ele>
        <time>2012-04-09T07:30:13Z</time>
      </trkpt>
      <trkpt lat="45.85689" lon="5.77532">
        <ele>484.64</ele>
        <time>2012-04-09T07:30:15Z</time>
      </trkpt>
      <trkpt lat="45.85691" lon="5.77528">
        <ele>484.64</ele>
        <time>2012-04-09T07:30:17Z</time>
      </trkpt>
      <trkpt lat="45.85693" lon="5.77524">
        <ele>485.6</ele>
        <time>2012-04-09T07:30:19Z</time>
      </trkpt>
      <trkpt lat="45.85695" lon="5.77518">
        <ele>486.08</ele>
        <time>2012-04-09T07:30:21Z</time>
      </trkpt>
      <trkpt lat="45.85697" lon="5.77514">
        <ele>486.08</ele>
        <time>2012-04-09T07:30:23Z</time>
      </trkpt>
      <trkpt lat="45.857" lon="5.7751">
        <ele>486.56</ele>
        <time>2012-04-09T07:30:25Z</time>
      </trkpt>
      <trkpt lat="45.85701" lon="5.77505">
        <ele>487.53</ele>
        <time>2012-04-09T07:30:27Z</time>
      </trkpt>
      <trkpt lat="45.85702" lon="5.77498">
        <ele>488.01</ele>
        <time>2012-04-09T07:30:29Z</time>
      </trkpt>
      <trkpt lat="45.85702" lon="5.77493">
        <ele>488.49</ele>
        <time>2012-04-09T07:30:31Z</time>
      </trkpt>
      <trkpt lat="45.85701" lon="5.77489">
        <ele>489.45</ele>
        <time>2012-04-09T07:30:33Z</time>
      </trkpt>
      <trkpt lat="45.85698" lon="5.77489">
        <ele>489.45</ele>
        <time>2012-04-09T07:30:35Z</time>
      </trkpt>
      <trkpt lat="45.85696" lon="5.7749">
        <ele>489.45</ele>
        <time>2012-04-09T07:30:37Z</time>
      </trkpt>
      <trkpt lat="45.85693" lon="5.7749">
        <ele>490.41</ele>
        <time>2012-04-09T07:30:39Z</time>
      </trkpt>
      <trkpt lat="45.8569" lon="5.77489">
        <ele>490.89</ele>
        <time>2012-04-09T07:30:41Z</time>
      </trkpt>
      <trkpt lat="45.85688" lon="5.77487">
        <ele>490.89</ele>
        <time>2012-04-09T07:30:43Z</time>
      </trkpt>
      <trkpt lat="45.85685" lon="5.77484">
        <ele>491.37</ele>
        <time>2012-04-09T07:30:45Z</time>
      </trkpt>
      <trkpt lat="45.85682" lon="5.77482">
        <ele>491.85</ele>
        <time>2012-04-09T07:30:47Z</time>
      </trkpt>
      <trkpt lat="45.85679" lon="5.7748">
        <ele>492.81</ele>
        <time>2012-04-09T07:30:49Z</time>
      </trkpt>
      <trkpt lat="45.85676" lon="5.77478">
        <ele>492.81</ele>
        <time>2012-04-09T07:30:51Z</time>
      </trkpt>
      <trkpt lat="45.85674" lon="5.77474">
        <ele>493.77</ele>
        <time>2012-04-09T07:30:53Z</time>
      </trkpt>
      <trkpt lat="45.85672" lon="5.7747">
        <ele>494.26</ele>
        <time>2012-04-09T07:30:55Z</time>
      </trkpt>
      <trkpt lat="45.8567" lon="5.77464">
        <ele>495.22</ele>
        <time>2012-04-09T07:30:57Z</time>
      </trkpt>
      <trkpt lat="45.85668" lon="5.77459">
        <ele>495.7</ele>
        <time>2012-04-09T07:30:59Z</time>
      </trkpt>
      <trkpt lat="45.85666" lon="5.77454">
        <ele>496.18</ele>
        <time>2012-04-09T07:31:01Z</time>
      </trkpt>
      <trkpt lat="45.85663" lon="5.77452">
        <ele>496.66</ele>
        <time>2012-04-09T07:31:03Z</time>
      </trkpt>
      <trkpt lat="45.85659" lon="5.77448">
        <ele>497.62</ele>
        <time>2012-04-09T07:31:05Z</time>
      </trkpt>
      <trkpt lat="45.85656" lon="5.77444">
        <ele>497.62</ele>
        <time>2012-04-09T07:31:07Z</time>
      </trkpt>
      <trkpt lat="45.85653" lon="5.77441">
        <ele>498.58</ele>
        <time>2012-04-09T07:31:09Z</time>
      </trkpt>
      <trkpt lat="45.8565" lon="5.77437">
        <ele>498.58</ele>
        <time>2012-04-09T07:31:11Z</time>
      </trkpt>
      <trkpt lat="45.85648" lon="5.77432">
        <ele>499.06</ele>
        <time>2012-04-09T07:31:13Z</time>
      </trkpt>
      <trkpt lat="45.85646" lon="5.77426">
        <ele>499.54</ele>
        <time>2012-04-09T07:31:15Z</time>
      </trkpt>
      <trkpt lat="45.85644" lon="5.77421">
        <ele>500.5</ele>
        <time>2012-04-09T07:31:17Z</time>
      </trkpt>
      <trkpt lat="45.85641" lon="5.77417">
        <ele>500.5</ele>
        <time>2012-04-09T07:31:19Z</time>
      </trkpt>
      <trkpt lat="45.85639" lon="5.77412">
        <ele>501.46</ele>
        <time>2012-04-09T07:31:21Z</time>
      </trkpt>
      <trkpt lat="45.85636" lon="5.77407">
        <ele>501.46</ele>
        <time>2012-04-09T07:31:23Z</time>
      </trkpt>
      <trkpt lat="45.85634" lon="5.77403">
        <ele>501.95</ele>
        <time>2012-04-09T07:31:25Z</time>
      </trkpt>
      <trkpt lat="45.85631" lon="5.77399">
        <ele>502.43</ele>
        <time>2012-04-09T07:31:27Z</time>
      </trkpt>
      <trkpt lat="45.85629" lon="5.77395">
        <ele>502.91</ele>
        <time>2012-04-09T07:31:29Z</time>
      </trkpt>
      <trkpt lat="45.85626" lon="5.77393">
        <ele>502.91</ele>
        <time>2012-04-09T07:31:31Z</time>
      </trkpt>
      <trkpt lat="45.85623" lon="5.77391">
        <ele>503.39</ele>
        <time>2012-04-09T07:31:33Z</time>
      </trkpt>
      <trkpt lat="45.8562" lon="5.77389">
        <ele>503.39</ele>
        <time>2012-04-09T07:31:35Z</time>
      </trkpt>
      <trkpt lat="45.85616" lon="5.77386">
        <ele>504.35</ele>
        <time>2012-04-09T07:31:37Z</time>
      </trkpt>
      <trkpt lat="45.85613" lon="5.77384">
        <ele>505.31</ele>
        <time>2012-04-09T07:31:39Z</time>
      </trkpt>
      <trkpt lat="45.85609" lon="5.7738">
        <ele>505.31</ele>
        <time>2012-04-09T07:31:41Z</time>
      </trkpt>
      <trkpt lat="45.85606" lon="5.77377">
        <ele>505.79</ele>
        <time>2012-04-09T07:31:43Z</time>
      </trkpt>
      <trkpt lat="45.85603" lon="5.77375">
        <ele>506.27</ele>
        <time>2012-04-09T07:31:45Z</time>
      </trkpt>
      <trkpt lat="45.856" lon="5.77371">
        <ele>506.27</ele>
        <time>2012-04-09T07:31:47Z</time>
      </trkpt>
      <trkpt lat="45.85597" lon="5.77367">
        <ele>506.75</ele>
        <time>2012-04-09T07:31:49Z</time>
      </trkpt>
      <trkpt lat="45.85595" lon="5.77361">
        <ele>507.23</ele>
        <time>2012-04-09T07:31:51Z</time>
      </trkpt>
      <trkpt lat="45.85592" lon="5.77356">
        <ele>507.23</ele>
        <time>2012-04-09T07:31:53Z</time>
      </trkpt>
      <trkpt lat="45.8559" lon="5.7735">
        <ele>507.71</ele>
        <time>2012-04-09T07:31:55Z</time>
      </trkpt>
      <trkpt lat="45.85588" lon="5.77345">
        <ele>508.19</ele>
        <time>2012-04-09T07:31:57Z</time>
      </trkpt>
      <trkpt lat="45.85586" lon="5.77341">
        <ele>508.67</ele>
        <time>2012-04-09T07:31:59Z</time>
      </trkpt>
      <trkpt lat="45.85583" lon="5.77336">
        <ele>508.67</ele>
        <time>2012-04-09T07:32:01Z</time>
      </trkpt>
      <trkpt lat="45.85581" lon="5.77333">
        <ele>509.64</ele>
        <time>2012-04-09T07:32:03Z</time>
      </trkpt>
      <trkpt lat="45.85578" lon="5.7733">
        <ele>509.64</ele>
        <time>2012-04-09T07:32:05Z</time>
      </trkpt>
      <trkpt lat="45.85575" lon="5.77327">
        <ele>510.6</ele>
        <time>2012-04-09T07:32:07Z</time>
      </trkpt>
      <trkpt lat="45.85573" lon="5.77321">
        <ele>510.6</ele>
        <time>2012-04-09T07:32:09Z</time>
      </trkpt>
      <trkpt lat="45.8557" lon="5.77316">
        <ele>511.08</ele>
        <time>2012-04-09T07:32:11Z</time>
      </trkpt>
      <trkpt lat="45.85567" lon="5.77313">
        <ele>512.04</ele>
        <time>2012-04-09T07:32:13Z</time>
      </trkpt>
      <trkpt lat="45.85564" lon="5.7731">
        <ele>512.04</ele>
        <time>2012-04-09T07:32:15Z</time>
      </trkpt>
      <trkpt lat="45.85563" lon="5.77307">
        <ele>513</ele>
        <time>2012-04-09T07:32:17Z</time>
      </trkpt>
      <trkpt lat="45.85561" lon="5.77305">
        <ele>513.48</ele>
        <time>2012-04-09T07:32:19Z</time>
      </trkpt>
      <trkpt lat="45.8556" lon="5.77304">
        <ele>513.48</ele>
        <time>2012-04-09T07:32:21Z</time>
      </trkpt>
      <trkpt lat="45.85558" lon="5.77302">
        <ele>513.96</ele>
        <time>2012-04-09T07:32:23Z</time>
      </trkpt>
      <trkpt lat="45.85556" lon="5.773">
        <ele>514.44</ele>
        <time>2012-04-09T07:32:25Z</time>
      </trkpt>
      <trkpt lat="45.85553" lon="5.77298">
        <ele>515.4</ele>
        <time>2012-04-09T07:32:27Z</time>
      </trkpt>
      <trkpt lat="45.85551" lon="5.77297">
        <ele>515.88</ele>
        <time>2012-04-09T07:32:29Z</time>
      </trkpt>
      <trkpt lat="45.85548" lon="5.77297">
        <ele>515.88</ele>
        <time>2012-04-09T07:32:31Z</time>
      </trkpt>
      <trkpt lat="45.85545" lon="5.77297">
        <ele>516.85</ele>
        <time>2012-04-09T07:32:33Z</time>
      </trkpt>
      <trkpt lat="45.85541" lon="5.77298">
        <ele>517.33</ele>
        <time>2012-04-09T07:32:35Z</time>
      </trkpt>
      <trkpt lat="45.85536" lon="5.77298">
        <ele>517.81</ele>
        <time>2012-04-09T07:32:37Z</time>
      </trkpt>
      <trkpt lat="45.85532" lon="5.77298">
        <ele>518.29</ele>
        <time>2012-04-09T07:32:39Z</time>
      </trkpt>
      <trkpt lat="45.85529" lon="5.77299">
        <ele>519.25</ele>
        <time>2012-04-09T07:32:41Z</time>
      </trkpt>
      <trkpt lat="45.85525" lon="5.77299">
        <ele>519.25</ele>
        <time>2012-04-09T07:32:43Z</time>
      </trkpt>
      <trkpt lat="45.85521" lon="5.77297">
        <ele>519.73</ele>
        <time>2012-04-09T07:32:45Z</time>
      </trkpt>
      <trkpt lat="45.85518" lon="5.77295">
        <ele>520.21</ele>
        <time>2012-04-09T07:32:47Z</time>
      </trkpt>
      <trkpt lat="45.85515" lon="5.77294">
        <ele>520.21</ele>
        <time>2012-04-09T07:32:49Z</time>
      </trkpt>
      <trkpt lat="45.85514" lon="5.77292">
        <ele>520.69</ele>
        <time>2012-04-09T07:32:51Z</time>
      </trkpt>
      <trkpt lat="45.85514" lon="5.77292">
        <ele>520.69</ele>
        <time>2012-04-09T07:32:53Z</time>
      </trkpt>
      <trkpt lat="45.85514" lon="5.77292">
        <ele>520.21</ele>
        <time>2012-04-09T07:32:55Z</time>
      </trkpt>
      <trkpt lat="45.85514" lon="5.77292">
        <ele>520.69</ele>
        <time>2012-04-09T07:32:57Z</time>
      </trkpt>
      <trkpt lat="45.85514" lon="5.77292">
        <ele>520.69</ele>
        <time>2012-04-09T07:32:59Z</time>
      </trkpt>
      <trkpt lat="45.85514" lon="5.77292">
        <ele>520.69</ele>
        <time>2012-04-09T07:33:01Z</time>
      </trkpt>
      <trkpt lat="45.85514" lon="5.77292">
        <ele>520.69</ele>
        <time>2012-04-09T07:33:03Z</time>
      </trkpt>
      <trkpt lat="45.85514" lon="5.77292">
        <ele>520.69</ele>
        <time>2012-04-09T07:33:05Z</time>
      </trkpt>
      <trkpt lat="45.85514" lon="5.77292">
        <ele>520.69</ele>
        <time>2012-04-09T07:33:07Z</time>
      </trkpt>
      <trkpt lat="45.85514" lon="5.77292">
        <ele>520.69</ele>
        <time>2012-04-09T07:33:09Z</time>
      </trkpt>
      <trkpt lat="45.85514" lon="5.77292">
        <ele>520.69</ele>
        <time>2012-04-09T07:33:11Z</time>
      </trkpt>
      <trkpt lat="45.85514" lon="5.77292">
        <ele>520.69</ele>
        <time>2012-04-09T07:33:13Z</time>
      </trkpt>
      <trkpt lat="45.85514" lon="5.77292">
        <ele>520.69</ele>
        <time>2012-04-09T07:33:15Z</time>
      </trkpt>
      <trkpt lat="45.85514" lon="5.77292">
        <ele>520.69</ele>
        <time>2012-04-09T07:33:17Z</time>
      </trkpt>
      <trkpt lat="45.85514" lon="5.77292">
        <ele>521.17</ele>
        <time>2012-04-09T07:33:19Z</time>
      </trkpt>
      <trkpt lat="45.85514" lon="5.77292">
        <ele>520.69</ele>
        <time>2012-04-09T07:33:21Z</time>
      </trkpt>
      <trkpt lat="45.85513" lon="5.77292">
        <ele>521.17</ele>
        <time>2012-04-09T07:33:23Z</time>
      </trkpt>
      <trkpt lat="45.85514" lon="5.77289">
        <ele>521.65</ele>
        <time>2012-04-09T07:33:25Z</time>
      </trkpt>
      <trkpt lat="45.85517" lon="5.77286">
        <ele>521.65</ele>
        <time>2012-04-09T07:33:27Z</time>
      </trkpt>
      <trkpt lat="45.8552" lon="5.77284">
        <ele>521.65</ele>
        <time>2012-04-09T07:33:29Z</time>
      </trkpt>
      <trkpt lat="45.85523" lon="5.77283">
        <ele>522.61</ele>
        <time>2012-04-09T07:33:31Z</time>
      </trkpt>
      <trkpt lat="45.85527" lon="5.77281">
        <ele>523.58</ele>
        <time>2012-04-09T07:33:33Z</time>
      </trkpt>
      <trkpt lat="45.85531" lon="5.77279">
        <ele>523.58</ele>
        <time>2012-04-09T07:33:35Z</time>
      </trkpt>
      <trkpt lat="45.85534" lon="5.77277">
        <ele>524.06</ele>
        <time>2012-04-09T07:33:37Z</time>
      </trkpt>
      <trkpt lat="45.85536" lon="5.77277">
        <ele>524.54</ele>
        <time>2012-04-09T07:33:39Z</time>
      </trkpt>
      <trkpt lat="45.85538" lon="5.77275">
        <ele>525.5</ele>
        <time>2012-04-09T07:33:41Z</time>
      </trkpt>
      <trkpt lat="45.85541" lon="5.77271">
        <ele>525.98</ele>
        <time>2012-04-09T07:33:43Z</time>
      </trkpt>
      <trkpt lat="45.85544" lon="5.77269">
        <ele>526.46</ele>
        <time>2012-04-09T07:33:45Z</time>
      </trkpt>
      <trkpt lat="45.85547" lon="5.77267">
        <ele>526.94</ele>
        <time>2012-04-09T07:33:47Z</time>
      </trkpt>
      <trkpt lat="45.85551" lon="5.77265">
        <ele>527.42</ele>
        <time>2012-04-09T07:33:49Z</time>
      </trkpt>
      <trkpt lat="45.85554" lon="5.77262">
        <ele>527.9</ele>
        <time>2012-04-09T07:33:51Z</time>
      </trkpt>
      <trkpt lat="45.85558" lon="5.7726">
        <ele>527.9</ele>
        <time>2012-04-09T07:33:53Z</time>
      </trkpt>
      <trkpt lat="45.85562" lon="5.77257">
        <ele>528.86</ele>
        <time>2012-04-09T07:33:55Z</time>
      </trkpt>
      <trkpt lat="45.85566" lon="5.77254">
        <ele>529.82</ele>
        <time>2012-04-09T07:33:57Z</time>
      </trkpt>
      <trkpt lat="45.8557" lon="5.77252">
        <ele>529.82</ele>
        <time>2012-04-09T07:33:59Z</time>
      </trkpt>
      <trkpt lat="45.85572" lon="5.77253">
        <ele>530.3</ele>
        <time>2012-04-09T07:34:01Z</time>
      </trkpt>
      <trkpt lat="45.85574" lon="5.77255">
        <ele>530.3</ele>
        <time>2012-04-09T07:34:03Z</time>
      </trkpt>
      <trkpt lat="45.85575" lon="5.77257">
        <ele>531.27</ele>
        <time>2012-04-09T07:34:05Z</time>
      </trkpt>
      <trkpt lat="45.85576" lon="5.77261">
        <ele>532.23</ele>
        <time>2012-04-09T07:34:07Z</time>
      </trkpt>
      <trkpt lat="45.85578" lon="5.77265">
        <ele>532.71</ele>
        <time>2012-04-09T07:34:09Z</time>
      </trkpt>
      <trkpt lat="45.8558" lon="5.77269">
        <ele>533.19</ele>
        <time>2012-04-09T07:34:11Z</time>
      </trkpt>
      <trkpt lat="45.85582" lon="5.77274">
        <ele>533.67</ele>
        <time>2012-04-09T07:34:13Z</time>
      </trkpt>
      <trkpt lat="45.85585" lon="5.77278">
        <ele>534.15</ele>
        <time>2012-04-09T07:34:15Z</time>
      </trkpt>
      <trkpt lat="45.85587" lon="5.77282">
        <ele>535.11</ele>
        <time>2012-04-09T07:34:17Z</time>
      </trkpt>
      <trkpt lat="45.8559" lon="5.77286">
        <ele>535.11</ele>
        <time>2012-04-09T07:34:19Z</time>
      </trkpt>
      <trkpt lat="45.85592" lon="5.7729">
        <ele>536.07</ele>
        <time>2012-04-09T07:34:21Z</time>
      </trkpt>
      <trkpt lat="45.85596" lon="5.77292">
        <ele>536.55</ele>
        <time>2012-04-09T07:34:23Z</time>
      </trkpt>
      <trkpt lat="45.856" lon="5.77296">
        <ele>537.03</ele>
        <time>2012-04-09T07:34:25Z</time>
      </trkpt>
      <trkpt lat="45.85603" lon="5.77299">
        <ele>537.51</ele>
        <time>2012-04-09T07:34:27Z</time>
      </trkpt>
      <trkpt lat="45.85607" lon="5.77302">
        <ele>538.48</ele>
        <time>2012-04-09T07:34:29Z</time>
      </trkpt>
      <trkpt lat="45.8561" lon="5.77304">
        <ele>538.48</ele>
        <time>2012-04-09T07:34:31Z</time>
      </trkpt>
      <trkpt lat="45.85613" lon="5.77307">
        <ele>538.96</ele>
        <time>2012-04-09T07:34:33Z</time>
      </trkpt>
      <trkpt lat="45.85617" lon="5.77309">
        <ele>539.92</ele>
        <time>2012-04-09T07:34:35Z</time>
      </trkpt>
      <trkpt lat="45.8562" lon="5.77311">
        <ele>539.92</ele>
        <time>2012-04-09T07:34:37Z</time>
      </trkpt>
      <trkpt lat="45.85624" lon="5.77312">
        <ele>540.88</ele>
        <time>2012-04-09T07:34:39Z</time>
      </trkpt>
      <trkpt lat="45.85628" lon="5.77312">
        <ele>541.36</ele>
        <time>2012-04-09T07:34:41Z</time>
      </trkpt>
      <trkpt lat="45.85632" lon="5.77314">
        <ele>541.36</ele>
        <time>2012-04-09T07:34:43Z</time>
      </trkpt>
      <trkpt lat="45.85635" lon="5.77315">
        <ele>541.84</ele>
        <time>2012-04-09T07:34:45Z</time>
      </trkpt>
      <trkpt lat="45.85639" lon="5.77317">
        <ele>542.32</ele>
        <time>2012-04-09T07:34:47Z</time>
      </trkpt>
      <trkpt lat="45.85642" lon="5.77319">
        <ele>542.8</ele>
        <time>2012-04-09T07:34:49Z</time>
      </trkpt>
      <trkpt lat="45.85645" lon="5.7732">
        <ele>543.28</ele>
        <time>2012-04-09T07:34:51Z</time>
      </trkpt>
      <trkpt lat="45.85648" lon="5.77321">
        <ele>543.76</ele>
        <time>2012-04-09T07:34:53Z</time>
      </trkpt>
      <trkpt lat="45.85652" lon="5.77322">
        <ele>544.24</ele>
        <time>2012-04-09T07:34:55Z</time>
      </trkpt>
      <trkpt lat="45.85655" lon="5.77325">
        <ele>544.72</ele>
        <time>2012-04-09T07:34:57Z</time>
      </trkpt>
      <trkpt lat="45.85659" lon="5.77326">
        <ele>544.72</ele>
        <time>2012-04-09T07:34:59Z</time>
      </trkpt>
      <trkpt lat="45.85661" lon="5.77328">
        <ele>545.2</ele>
        <time>2012-04-09T07:35:01Z</time>
      </trkpt>
      <trkpt lat="45.85664" lon="5.7733">
        <ele>546.17</ele>
        <time>2012-04-09T07:35:03Z</time>
      </trkpt>
      <trkpt lat="45.85666" lon="5.77332">
        <ele>546.65</ele>
        <time>2012-04-09T07:35:05Z</time>
      </trkpt>
      <trkpt lat="45.85669" lon="5.77333">
        <ele>547.13</ele>
        <time>2012-04-09T07:35:07Z</time>
      </trkpt>
      <trkpt lat="45.85672" lon="5.77333">
        <ele>548.09</ele>
        <time>2012-04-09T07:35:09Z</time>
      </trkpt>
      <trkpt lat="45.85676" lon="5.77333">
        <ele>548.57</ele>
        <time>2012-04-09T07:35:11Z</time>
      </trkpt>
      <trkpt lat="45.85678" lon="5.77333">
        <ele>549.05</ele>
        <time>2012-04-09T07:35:13Z</time>
      </trkpt>
      <trkpt lat="45.85679" lon="5.77333">
        <ele>549.53</ele>
        <time>2012-04-09T07:35:15Z</time>
      </trkpt>
      <trkpt lat="45.8568" lon="5.77331">
        <ele>550.49</ele>
        <time>2012-04-09T07:35:17Z</time>
      </trkpt>
      <trkpt lat="45.85678" lon="5.77328">
        <ele>550.49</ele>
        <time>2012-04-09T07:35:19Z</time>
      </trkpt>
      <trkpt lat="45.85676" lon="5.77326">
        <ele>551.45</ele>
        <time>2012-04-09T07:35:21Z</time>
      </trkpt>
      <trkpt lat="45.85674" lon="5.77326">
        <ele>551.93</ele>
        <time>2012-04-09T07:35:23Z</time>
      </trkpt>
      <trkpt lat="45.85671" lon="5.77326">
        <ele>552.41</ele>
        <time>2012-04-09T07:35:25Z</time>
      </trkpt>
      <trkpt lat="45.85668" lon="5.77326">
        <ele>552.9</ele>
        <time>2012-04-09T07:35:27Z</time>
      </trkpt>
      <trkpt lat="45.85666" lon="5.77325">
        <ele>552.9</ele>
        <time>2012-04-09T07:35:29Z</time>
      </trkpt>
      <trkpt lat="45.85664" lon="5.77324">
        <ele>552.9</ele>
        <time>2012-04-09T07:35:31Z</time>
      </trkpt>
      <trkpt lat="45.8566" lon="5.77324">
        <ele>553.86</ele>
        <time>2012-04-09T07:35:33Z</time>
      </trkpt>
      <trkpt lat="45.85657" lon="5.77323">
        <ele>553.86</ele>
        <time>2012-04-09T07:35:35Z</time>
      </trkpt>
      <trkpt lat="45.85654" lon="5.7732">
        <ele>554.34</ele>
        <time>2012-04-09T07:35:37Z</time>
      </trkpt>
      <trkpt lat="45.8565" lon="5.77318">
        <ele>554.82</ele>
        <time>2012-04-09T07:35:39Z</time>
      </trkpt>
      <trkpt lat="45.85647" lon="5.77315">
        <ele>554.82</ele>
        <time>2012-04-09T07:35:41Z</time>
      </trkpt>
      <trkpt lat="45.85644" lon="5.7731">
        <ele>555.78</ele>
        <time>2012-04-09T07:35:43Z</time>
      </trkpt>
      <trkpt lat="45.85642" lon="5.77305">
        <ele>556.26</ele>
        <time>2012-04-09T07:35:45Z</time>
      </trkpt>
      <trkpt lat="45.85639" lon="5.773">
        <ele>556.74</ele>
        <time>2012-04-09T07:35:47Z</time>
      </trkpt>
      <trkpt lat="45.85637" lon="5.77296">
        <ele>557.22</ele>
        <time>2012-04-09T07:35:49Z</time>
      </trkpt>
      <trkpt lat="45.85635" lon="5.77292">
        <ele>557.7</ele>
        <time>2012-04-09T07:35:51Z</time>
      </trkpt>
      <trkpt lat="45.85634" lon="5.77286">
        <ele>558.18</ele>
        <time>2012-04-09T07:35:53Z</time>
      </trkpt>
      <trkpt lat="45.85633" lon="5.77282">
        <ele>558.18</ele>
        <time>2012-04-09T07:35:55Z</time>
      </trkpt>
      <trkpt lat="45.85632" lon="5.77278">
        <ele>559.14</ele>
        <time>2012-04-09T07:35:57Z</time>
      </trkpt>
      <trkpt lat="45.8563" lon="5.77274">
        <ele>559.62</ele>
        <time>2012-04-09T07:35:59Z</time>
      </trkpt>
      <trkpt lat="45.85628" lon="5.7727">
        <ele>560.11</ele>
        <time>2012-04-09T07:36:01Z</time>
      </trkpt>
      <trkpt lat="45.85626" lon="5.77266">
        <ele>560.59</ele>
        <time>2012-04-09T07:36:03Z</time>
      </trkpt>
      <trkpt lat="45.85623" lon="5.77263">
        <ele>561.07</ele>
        <time>2012-04-09T07:36:05Z</time>
      </trkpt>
      <trkpt lat="45.8562" lon="5.77259">
        <ele>561.55</ele>
        <time>2012-04-09T07:36:07Z</time>
      </trkpt>
      <trkpt lat="45.85618" lon="5.77256">
        <ele>562.03</ele>
        <time>2012-04-09T07:36:09Z</time>
      </trkpt>
      <trkpt lat="45.85617" lon="5.77251">
        <ele>562.51</ele>
        <time>2012-04-09T07:36:11Z</time>
      </trkpt>
      <trkpt lat="45.85616" lon="5.77245">
        <ele>563.47</ele>
        <time>2012-04-09T07:36:13Z</time>
      </trkpt>
      <trkpt lat="45.85616" lon="5.7724">
        <ele>563.47</ele>
        <time>2012-04-09T07:36:15Z</time>
      </trkpt>
      <trkpt lat="45.85615" lon="5.77235">
        <ele>563.47</ele>
        <time>2012-04-09T07:36:17Z</time>
      </trkpt>
      <trkpt lat="45.85615" lon="5.77229">
        <ele>563.95</ele>
        <time>2012-04-09T07:36:19Z</time>
      </trkpt>
      <trkpt lat="45.85614" lon="5.77224">
        <ele>564.43</ele>
        <time>2012-04-09T07:36:21Z</time>
      </trkpt>
      <trkpt lat="45.85615" lon="5.7722">
        <ele>564.91</ele>
        <time>2012-04-09T07:36:23Z</time>
      </trkpt>
      <trkpt lat="45.85615" lon="5.77215">
        <ele>565.39</ele>
        <time>2012-04-09T07:36:25Z</time>
      </trkpt>
      <trkpt lat="45.85615" lon="5.7721">
        <ele>565.87</ele>
        <time>2012-04-09T07:36:27Z</time>
      </trkpt>
      <trkpt lat="45.85616" lon="5.77204">
        <ele>565.87</ele>
        <time>2012-04-09T07:36:29Z</time>
      </trkpt>
      <trkpt lat="45.85616" lon="5.772">
        <ele>566.35</ele>
        <time>2012-04-09T07:36:31Z</time>
      </trkpt>
      <trkpt lat="45.85617" lon="5.77194">
        <ele>567.8</ele>
        <time>2012-04-09T07:36:33Z</time>
      </trkpt>
      <trkpt lat="45.85617" lon="5.77189">
        <ele>567.8</ele>
        <time>2012-04-09T07:36:35Z</time>
      </trkpt>
      <trkpt lat="45.85618" lon="5.77183">
        <ele>568.28</ele>
        <time>2012-04-09T07:36:37Z</time>
      </trkpt>
      <trkpt lat="45.85617" lon="5.77179">
        <ele>569.24</ele>
        <time>2012-04-09T07:36:39Z</time>
      </trkpt>
      <trkpt lat="45.85617" lon="5.77175">
        <ele>569.72</ele>
        <time>2012-04-09T07:36:41Z</time>
      </trkpt>
      <trkpt lat="45.85619" lon="5.77172">
        <ele>570.2</ele>
        <time>2012-04-09T07:36:43Z</time>
      </trkpt>
      <trkpt lat="45.85622" lon="5.77169">
        <ele>570.68</ele>
        <time>2012-04-09T07:36:45Z</time>
      </trkpt>
      <trkpt lat="45.85624" lon="5.77168">
        <ele>571.16</ele>
        <time>2012-04-09T07:36:47Z</time>
      </trkpt>
      <trkpt lat="45.85626" lon="5.77169">
        <ele>572.12</ele>
        <time>2012-04-09T07:36:49Z</time>
      </trkpt>
      <trkpt lat="45.85626" lon="5.7717">
        <ele>572.6</ele>
        <time>2012-04-09T07:36:51Z</time>
      </trkpt>
      <trkpt lat="45.85626" lon="5.7717">
        <ele>573.08</ele>
        <time>2012-04-09T07:36:53Z</time>
      </trkpt>
      <trkpt lat="45.85626" lon="5.77171">
        <ele>573.56</ele>
        <time>2012-04-09T07:36:55Z</time>
      </trkpt>
      <trkpt lat="45.85627" lon="5.77173">
        <ele>573.56</ele>
        <time>2012-04-09T07:36:57Z</time>
      </trkpt>
      <trkpt lat="45.85627" lon="5.77177">
        <ele>574.53</ele>
        <time>2012-04-09T07:36:59Z</time>
      </trkpt>
      <trkpt lat="45.85629" lon="5.77182">
        <ele>575.01</ele>
        <time>2012-04-09T07:37:01Z</time>
      </trkpt>
      <trkpt lat="45.8563" lon="5.77186">
        <ele>575.49</ele>
        <time>2012-04-09T07:37:03Z</time>
      </trkpt>
      <trkpt lat="45.85632" lon="5.7719">
        <ele>575.97</ele>
        <time>2012-04-09T07:37:05Z</time>
      </trkpt>
      <trkpt lat="45.85634" lon="5.77196">
        <ele>576.93</ele>
        <time>2012-04-09T07:37:07Z</time>
      </trkpt>
      <trkpt lat="45.85637" lon="5.77201">
        <ele>577.41</ele>
        <time>2012-04-09T07:37:09Z</time>
      </trkpt>
      <trkpt lat="45.85639" lon="5.77205">
        <ele>577.89</ele>
        <time>2012-04-09T07:37:11Z</time>
      </trkpt>
      <trkpt lat="45.85641" lon="5.77208">
        <ele>578.37</ele>
        <time>2012-04-09T07:37:13Z</time>
      </trkpt>
      <trkpt lat="45.85644" lon="5.77209">
        <ele>578.85</ele>
        <time>2012-04-09T07:37:15Z</time>
      </trkpt>
      <trkpt lat="45.85646" lon="5.77212">
        <ele>579.33</ele>
        <time>2012-04-09T07:37:17Z</time>
      </trkpt>
      <trkpt lat="45.8565" lon="5.77213">
        <ele>579.81</ele>
        <time>2012-04-09T07:37:19Z</time>
      </trkpt>
      <trkpt lat="45.85654" lon="5.77215">
        <ele>580.77</ele>
        <time>2012-04-09T07:37:21Z</time>
      </trkpt>
      <trkpt lat="45.85658" lon="5.77218">
        <ele>580.77</ele>
        <time>2012-04-09T07:37:23Z</time>
      </trkpt>
      <trkpt lat="45.85661" lon="5.77221">
        <ele>581.25</ele>
        <time>2012-04-09T07:37:25Z</time>
      </trkpt>
      <trkpt lat="45.85663" lon="5.77225">
        <ele>581.73</ele>
        <time>2012-04-09T07:37:27Z</time>
      </trkpt>
      <trkpt lat="45.85664" lon="5.77229">
        <ele>581.73</ele>
        <time>2012-04-09T07:37:29Z</time>
      </trkpt>
      <trkpt lat="45.85666" lon="5.77233">
        <ele>581.73</ele>
        <time>2012-04-09T07:37:31Z</time>
      </trkpt>
      <trkpt lat="45.85666" lon="5.77237">
        <ele>582.7</ele>
        <time>2012-04-09T07:37:33Z</time>
      </trkpt>
      <trkpt lat="45.85668" lon="5.77241">
        <ele>583.18</ele>
        <time>2012-04-09T07:37:35Z</time>
      </trkpt>
      <trkpt lat="45.8567" lon="5.77245">
        <ele>583.66</ele>
        <time>2012-04-09T07:37:37Z</time>
      </trkpt>
      <trkpt lat="45.85672" lon="5.77247">
        <ele>584.62</ele>
        <time>2012-04-09T07:37:39Z</time>
      </trkpt>
      <trkpt lat="45.85676" lon="5.77249">
        <ele>585.1</ele>
        <time>2012-04-09T07:37:41Z</time>
      </trkpt>
      <trkpt lat="45.8568" lon="5.77252">
        <ele>585.1</ele>
        <time>2012-04-09T07:37:43Z</time>
      </trkpt>
      <trkpt lat="45.85683" lon="5.77254">
        <ele>586.06</ele>
        <time>2012-04-09T07:37:45Z</time>
      </trkpt>
      <trkpt lat="45.85686" lon="5.77256">
        <ele>586.06</ele>
        <time>2012-04-09T07:37:47Z</time>
      </trkpt>
      <trkpt lat="45.85688" lon="5.77257">
        <ele>587.02</ele>
        <time>2012-04-09T07:37:49Z</time>
      </trkpt>
      <trkpt lat="45.85691" lon="5.77259">
        <ele>587.02</ele>
        <time>2012-04-09T07:37:51Z</time>
      </trkpt>
      <trkpt lat="45.85693" lon="5.77262">
        <ele>587.98</ele>
        <time>2012-04-09T07:37:53Z</time>
      </trkpt>
      <trkpt lat="45.85697" lon="5.77264">
        <ele>587.98</ele>
        <time>2012-04-09T07:37:55Z</time>
      </trkpt>
      <trkpt lat="45.857" lon="5.77266">
        <ele>588.46</ele>
        <time>2012-04-09T07:37:57Z</time>
      </trkpt>
      <trkpt lat="45.85704" lon="5.77268">
        <ele>588.95</ele>
        <time>2012-04-09T07:37:59Z</time>
      </trkpt>
      <trkpt lat="45.85707" lon="5.77269">
        <ele>589.43</ele>
        <time>2012-04-09T07:38:01Z</time>
      </trkpt>
      <trkpt lat="45.8571" lon="5.77271">
        <ele>589.91</ele>
        <time>2012-04-09T07:38:03Z</time>
      </trkpt>
      <trkpt lat="45.85714" lon="5.77272">
        <ele>590.39</ele>
        <time>2012-04-09T07:38:05Z</time>
      </trkpt>
      <trkpt lat="45.85718" lon="5.77272">
        <ele>590.39</ele>
        <time>2012-04-09T07:38:07Z</time>
      </trkpt>
      <trkpt lat="45.85722" lon="5.77272">
        <ele>591.35</ele>
        <time>2012-04-09T07:38:09Z</time>
      </trkpt>
      <trkpt lat="45.85725" lon="5.77273">
        <ele>592.31</ele>
        <time>2012-04-09T07:38:11Z</time>
      </trkpt>
      <trkpt lat="45.85727" lon="5.77275">
        <ele>592.79</ele>
        <time>2012-04-09T07:38:13Z</time>
      </trkpt>
      <trkpt lat="45.8573" lon="5.77276">
        <ele>592.79</ele>
        <time>2012-04-09T07:38:15Z</time>
      </trkpt>
      <trkpt lat="45.85732" lon="5.77277">
        <ele>593.27</ele>
        <time>2012-04-09T07:38:17Z</time>
      </trkpt>
      <trkpt lat="45.85735" lon="5.77278">
        <ele>593.75</ele>
        <time>2012-04-09T07:38:19Z</time>
      </trkpt>
      <trkpt lat="45.85736" lon="5.7728">
        <ele>594.23</ele>
        <time>2012-04-09T07:38:21Z</time>
      </trkpt>
      <trkpt lat="45.85738" lon="5.7728">
        <ele>594.71</ele>
        <time>2012-04-09T07:38:23Z</time>
      </trkpt>
      <trkpt lat="45.8574" lon="5.77281">
        <ele>595.19</ele>
        <time>2012-04-09T07:38:25Z</time>
      </trkpt>
      <trkpt lat="45.85744" lon="5.77282">
        <ele>595.67</ele>
        <time>2012-04-09T07:38:27Z</time>
      </trkpt>
      <trkpt lat="45.85747" lon="5.77283">
        <ele>596.15</ele>
        <time>2012-04-09T07:38:29Z</time>
      </trkpt>
      <trkpt lat="45.85747" lon="5.77284">
        <ele>596.64</ele>
        <time>2012-04-09T07:38:31Z</time>
      </trkpt>
      <trkpt lat="45.85747" lon="5.77286">
        <ele>597.12</ele>
        <time>2012-04-09T07:38:33Z</time>
      </trkpt>
      <trkpt lat="45.85746" lon="5.77288">
        <ele>598.08</ele>
        <time>2012-04-09T07:38:35Z</time>
      </trkpt>
      <trkpt lat="45.85744" lon="5.77289">
        <ele>598.56</ele>
        <time>2012-04-09T07:38:37Z</time>
      </trkpt>
      <trkpt lat="45.85742" lon="5.77288">
        <ele>599.04</ele>
        <time>2012-04-09T07:38:39Z</time>
      </trkpt>
      <trkpt lat="45.8574" lon="5.77285">
        <ele>599.04</ele>
        <time>2012-04-09T07:38:41Z</time>
      </trkpt>
      <trkpt lat="45.85737" lon="5.77285">
        <ele>599.04</ele>
        <time>2012-04-09T07:38:43Z</time>
      </trkpt>
      <trkpt lat="45.85735" lon="5.77285">
        <ele>599.52</ele>
        <time>2012-04-09T07:38:45Z</time>
      </trkpt>
      <trkpt lat="45.85732" lon="5.77284">
        <ele>600</ele>
        <time>2012-04-09T07:38:47Z</time>
      </trkpt>
      <trkpt lat="45.8573" lon="5.77282">
        <ele>600.96</ele>
        <time>2012-04-09T07:38:49Z</time>
      </trkpt>
      <trkpt lat="45.85728" lon="5.7728">
        <ele>600.96</ele>
        <time>2012-04-09T07:38:51Z</time>
      </trkpt>
      <trkpt lat="45.85725" lon="5.77276">
        <ele>601.44</ele>
        <time>2012-04-09T07:38:53Z</time>
      </trkpt>
      <trkpt lat="45.85723" lon="5.77272">
        <ele>601.92</ele>
        <time>2012-04-09T07:38:55Z</time>
      </trkpt>
      <trkpt lat="45.85721" lon="5.77268">
        <ele>602.4</ele>
        <time>2012-04-09T07:38:57Z</time>
      </trkpt>
      <trkpt lat="45.85718" lon="5.77265">
        <ele>602.4</ele>
        <time>2012-04-09T07:38:59Z</time>
      </trkpt>
      <trkpt lat="45.85716" lon="5.77258">
        <ele>603.85</ele>
        <time>2012-04-09T07:39:01Z</time>
      </trkpt>
      <trkpt lat="45.85715" lon="5.77254">
        <ele>603.85</ele>
        <time>2012-04-09T07:39:03Z</time>
      </trkpt>
      <trkpt lat="45.85714" lon="5.7725">
        <ele>604.33</ele>
        <time>2012-04-09T07:39:05Z</time>
      </trkpt>
      <trkpt lat="45.85712" lon="5.77245">
        <ele>604.33</ele>
        <time>2012-04-09T07:39:07Z</time>
      </trkpt>
      <trkpt lat="45.85712" lon="5.77239">
        <ele>604.81</ele>
        <time>2012-04-09T07:39:09Z</time>
      </trkpt>
      <trkpt lat="45.85711" lon="5.77232">
        <ele>605.77</ele>
        <time>2012-04-09T07:39:11Z</time>
      </trkpt>
      <trkpt lat="45.8571" lon="5.77228">
        <ele>605.77</ele>
        <time>2012-04-09T07:39:13Z</time>
      </trkpt>
      <trkpt lat="45.85708" lon="5.77225">
        <ele>606.25</ele>
        <time>2012-04-09T07:39:15Z</time>
      </trkpt>
      <trkpt lat="45.85706" lon="5.77221">
        <ele>606.73</ele>
        <time>2012-04-09T07:39:17Z</time>
      </trkpt>
      <trkpt lat="45.85705" lon="5.77217">
        <ele>606.73</ele>
        <time>2012-04-09T07:39:19Z</time>
      </trkpt>
      <trkpt lat="45.85703" lon="5.77213">
        <ele>607.69</ele>
        <time>2012-04-09T07:39:21Z</time>
      </trkpt>
      <trkpt lat="45.85703" lon="5.77209">
        <ele>608.17</ele>
        <time>2012-04-09T07:39:23Z</time>
      </trkpt>
      <trkpt lat="45.85702" lon="5.77205">
        <ele>608.65</ele>
        <time>2012-04-09T07:39:25Z</time>
      </trkpt>
      <trkpt lat="45.85701" lon="5.77201">
        <ele>609.13</ele>
        <time>2012-04-09T07:39:27Z</time>
      </trkpt>
      <trkpt lat="45.85702" lon="5.77197">
        <ele>610.09</ele>
        <time>2012-04-09T07:39:29Z</time>
      </trkpt>
      <trkpt lat="45.85701" lon="5.77193">
        <ele>610.09</ele>
        <time>2012-04-09T07:39:31Z</time>
      </trkpt>
      <trkpt lat="45.85701" lon="5.77186">
        <ele>611.06</ele>
        <time>2012-04-09T07:39:33Z</time>
      </trkpt>
      <trkpt lat="45.857" lon="5.77179">
        <ele>611.06</ele>
        <time>2012-04-09T07:39:35Z</time>
      </trkpt>
      <trkpt lat="45.857" lon="5.77171">
        <ele>611.54</ele>
        <time>2012-04-09T07:39:37Z</time>
      </trkpt>
      <trkpt lat="45.857" lon="5.77164">
        <ele>612.02</ele>
        <time>2012-04-09T07:39:39Z</time>
      </trkpt>
      <trkpt lat="45.857" lon="5.77158">
        <ele>612.98</ele>
        <time>2012-04-09T07:39:41Z</time>
      </trkpt>
      <trkpt lat="45.85699" lon="5.77153">
        <ele>613.46</ele>
        <time>2012-04-09T07:39:43Z</time>
      </trkpt>
      <trkpt lat="45.85699" lon="5.77149">
        <ele>613.46</ele>
        <time>2012-04-09T07:39:45Z</time>
      </trkpt>
      <trkpt lat="45.85698" lon="5.77144">
        <ele>613.94</ele>
        <time>2012-04-09T07:39:47Z</time>
      </trkpt>
      <trkpt lat="45.85698" lon="5.77141">
        <ele>613.94</ele>
        <time>2012-04-09T07:39:49Z</time>
      </trkpt>
      <trkpt lat="45.85697" lon="5.7714">
        <ele>614.42</ele>
        <time>2012-04-09T07:39:51Z</time>
      </trkpt>
      <trkpt lat="45.85696" lon="5.77137">
        <ele>614.9</ele>
        <time>2012-04-09T07:39:53Z</time>
      </trkpt>
      <trkpt lat="45.85695" lon="5.77133">
        <ele>615.86</ele>
        <time>2012-04-09T07:39:55Z</time>
      </trkpt>
      <trkpt lat="45.85694" lon="5.77128">
        <ele>615.86</ele>
        <time>2012-04-09T07:39:57Z</time>
      </trkpt>
      <trkpt lat="45.85693" lon="5.77123">
        <ele>616.82</ele>
        <time>2012-04-09T07:39:59Z</time>
      </trkpt>
      <trkpt lat="45.85692" lon="5.77117">
        <ele>617.3</ele>
        <time>2012-04-09T07:40:01Z</time>
      </trkpt>
      <trkpt lat="45.85692" lon="5.77113">
        <ele>617.78</ele>
        <time>2012-04-09T07:40:03Z</time>
      </trkpt>
      <trkpt lat="45.85693" lon="5.77107">
        <ele>617.78</ele>
        <time>2012-04-09T07:40:05Z</time>
      </trkpt>
      <trkpt lat="45.85693" lon="5.77102">
        <ele>618.26</ele>
        <time>2012-04-09T07:40:07Z</time>
      </trkpt>
      <trkpt lat="45.85694" lon="5.77097">
        <ele>619.23</ele>
        <time>2012-04-09T07:40:09Z</time>
      </trkpt>
      <trkpt lat="45.85694" lon="5.77092">
        <ele>619.23</ele>
        <time>2012-04-09T07:40:11Z</time>
      </trkpt>
      <trkpt lat="45.85694" lon="5.77087">
        <ele>619.71</ele>
        <time>2012-04-09T07:40:13Z</time>
      </trkpt>
      <trkpt lat="45.85694" lon="5.77083">
        <ele>620.19</ele>
        <time>2012-04-09T07:40:15Z</time>
      </trkpt>
      <trkpt lat="45.85695" lon="5.77079">
        <ele>620.67</ele>
        <time>2012-04-09T07:40:17Z</time>
      </trkpt>
      <trkpt lat="45.85695" lon="5.77074">
        <ele>620.67</ele>
        <time>2012-04-09T07:40:19Z</time>
      </trkpt>
      <trkpt lat="45.85695" lon="5.7707">
        <ele>621.15</ele>
        <time>2012-04-09T07:40:21Z</time>
      </trkpt>
      <trkpt lat="45.85695" lon="5.77068">
        <ele>621.63</ele>
        <time>2012-04-09T07:40:23Z</time>
      </trkpt>
      <trkpt lat="45.85696" lon="5.77065">
        <ele>622.59</ele>
        <time>2012-04-09T07:40:25Z</time>
      </trkpt>
      <trkpt lat="45.85697" lon="5.77063">
        <ele>622.59</ele>
        <time>2012-04-09T07:40:27Z</time>
      </trkpt>
      <trkpt lat="45.85697" lon="5.77063">
        <ele>623.07</ele>
        <time>2012-04-09T07:40:29Z</time>
      </trkpt>
      <trkpt lat="45.85697" lon="5.77063">
        <ele>623.55</ele>
        <time>2012-04-09T07:40:31Z</time>
      </trkpt>
      <trkpt lat="45.85697" lon="5.77063">
        <ele>623.55</ele>
        <time>2012-04-09T07:40:33Z</time>
      </trkpt>
      <trkpt lat="45.85697" lon="5.77063">
        <ele>623.07</ele>
        <time>2012-04-09T07:40:35Z</time>
      </trkpt>
      <trkpt lat="45.85697" lon="5.77063">
        <ele>622.11</ele>
        <time>2012-04-09T07:40:37Z</time>
      </trkpt>
      <trkpt lat="45.85697" lon="5.77063">
        <ele>622.11</ele>
        <time>2012-04-09T07:40:39Z</time>
      </trkpt>
      <trkpt lat="45.85697" lon="5.77063">
        <ele>622.59</ele>
        <time>2012-04-09T07:40:41Z</time>
      </trkpt>
      <trkpt lat="45.85698" lon="5.77063">
        <ele>624.51</ele>
        <time>2012-04-09T07:40:43Z</time>
      </trkpt>
      <trkpt lat="45.85698" lon="5.77063">
        <ele>623.55</ele>
        <time>2012-04-09T07:40:45Z</time>
      </trkpt>
      <trkpt lat="45.85698" lon="5.77063">
        <ele>623.55</ele>
        <time>2012-04-09T07:40:47Z</time>
      </trkpt>
      <trkpt lat="45.85698" lon="5.77063">
        <ele>623.55</ele>
        <time>2012-04-09T07:40:49Z</time>
      </trkpt>
      <trkpt lat="45.85698" lon="5.77063">
        <ele>622.59</ele>
        <time>2012-04-09T07:40:51Z</time>
      </trkpt>
      <trkpt lat="45.85698" lon="5.77063">
        <ele>623.55</ele>
        <time>2012-04-09T07:40:53Z</time>
      </trkpt>
      <trkpt lat="45.85698" lon="5.77063">
        <ele>623.55</ele>
        <time>2012-04-09T07:40:55Z</time>
      </trkpt>
      <trkpt lat="45.85698" lon="5.77063">
        <ele>623.55</ele>
        <time>2012-04-09T07:40:57Z</time>
      </trkpt>
      <trkpt lat="45.85698" lon="5.77063">
        <ele>620.19</ele>
        <time>2012-04-09T07:40:59Z</time>
      </trkpt>
      <trkpt lat="45.85698" lon="5.77064">
        <ele>623.55</ele>
        <time>2012-04-09T07:41:01Z</time>
      </trkpt>
      <trkpt lat="45.85699" lon="5.77064">
        <ele>624.51</ele>
        <time>2012-04-09T07:41:03Z</time>
      </trkpt>
      <trkpt lat="45.857" lon="5.77064">
        <ele>624.99</ele>
        <time>2012-04-09T07:41:05Z</time>
      </trkpt>
      <trkpt lat="45.85701" lon="5.77065">
        <ele>624.99</ele>
        <time>2012-04-09T07:41:07Z</time>
      </trkpt>
      <trkpt lat="45.85701" lon="5.77065">
        <ele>624.51</ele>
        <time>2012-04-09T07:41:09Z</time>
      </trkpt>
      <trkpt lat="45.857" lon="5.77063">
        <ele>625.96</ele>
        <time>2012-04-09T07:41:11Z</time>
      </trkpt>
      <trkpt lat="45.85699" lon="5.77063">
        <ele>626.44</ele>
        <time>2012-04-09T07:41:13Z</time>
      </trkpt>
      <trkpt lat="45.85699" lon="5.77065">
        <ele>626.92</ele>
        <time>2012-04-09T07:41:15Z</time>
      </trkpt>
      <trkpt lat="45.857" lon="5.77066">
        <ele>626.92</ele>
        <time>2012-04-09T07:41:17Z</time>
      </trkpt>
      <trkpt lat="45.857" lon="5.77067">
        <ele>627.88</ele>
        <time>2012-04-09T07:41:19Z</time>
      </trkpt>
      <trkpt lat="45.857" lon="5.7707">
        <ele>627.88</ele>
        <time>2012-04-09T07:41:21Z</time>
      </trkpt>
      <trkpt lat="45.85701" lon="5.77073">
        <ele>628.84</ele>
        <time>2012-04-09T07:41:23Z</time>
      </trkpt>
      <trkpt lat="45.85702" lon="5.77078">
        <ele>628.84</ele>
        <time>2012-04-09T07:41:25Z</time>
      </trkpt>
      <trkpt lat="45.85702" lon="5.77082">
        <ele>629.8</ele>
        <time>2012-04-09T07:41:27Z</time>
      </trkpt>
      <trkpt lat="45.85704" lon="5.77084">
        <ele>630.28</ele>
        <time>2012-04-09T07:41:29Z</time>
      </trkpt>
      <trkpt lat="45.85708" lon="5.77088">
        <ele>630.76</ele>
        <time>2012-04-09T07:41:31Z</time>
      </trkpt>
      <trkpt lat="45.85712" lon="5.77091">
        <ele>631.24</ele>
        <time>2012-04-09T07:41:33Z</time>
      </trkpt>
      <trkpt lat="45.85716" lon="5.77095">
        <ele>632.2</ele>
        <time>2012-04-09T07:41:35Z</time>
      </trkpt>
      <trkpt lat="45.85719" lon="5.77099">
        <ele>632.2</ele>
        <time>2012-04-09T07:41:37Z</time>
      </trkpt>
      <trkpt lat="45.85722" lon="5.77102">
        <ele>633.17</ele>
        <time>2012-04-09T07:41:39Z</time>
      </trkpt>
      <trkpt lat="45.85725" lon="5.77105">
        <ele>634.13</ele>
        <time>2012-04-09T07:41:41Z</time>
      </trkpt>
      <trkpt lat="45.85728" lon="5.77109">
        <ele>634.13</ele>
        <time>2012-04-09T07:41:43Z</time>
      </trkpt>
      <trkpt lat="45.85729" lon="5.77112">
        <ele>635.09</ele>
        <time>2012-04-09T07:41:45Z</time>
      </trkpt>
      <trkpt lat="45.85729" lon="5.77115">
        <ele>635.09</ele>
        <time>2012-04-09T07:41:47Z</time>
      </trkpt>
      <trkpt lat="45.85731" lon="5.77119">
        <ele>635.57</ele>
        <time>2012-04-09T07:41:49Z</time>
      </trkpt>
      <trkpt lat="45.85732" lon="5.77123">
        <ele>636.05</ele>
        <time>2012-04-09T07:41:51Z</time>
      </trkpt>
      <trkpt lat="45.85735" lon="5.77128">
        <ele>636.53</ele>
        <time>2012-04-09T07:41:53Z</time>
      </trkpt>
      <trkpt lat="45.85736" lon="5.77135">
        <ele>636.53</ele>
        <time>2012-04-09T07:41:55Z</time>
      </trkpt>
      <trkpt lat="45.85738" lon="5.7714">
        <ele>637.49</ele>
        <time>2012-04-09T07:41:57Z</time>
      </trkpt>
      <trkpt lat="45.8574" lon="5.77146">
        <ele>637.97</ele>
        <time>2012-04-09T07:41:59Z</time>
      </trkpt>
      <trkpt lat="45.85742" lon="5.77151">
        <ele>638.45</ele>
        <time>2012-04-09T07:42:01Z</time>
      </trkpt>
      <trkpt lat="45.85746" lon="5.77156">
        <ele>638.93</ele>
        <time>2012-04-09T07:42:03Z</time>
      </trkpt>
      <trkpt lat="45.85748" lon="5.77161">
        <ele>639.41</ele>
        <time>2012-04-09T07:42:05Z</time>
      </trkpt>
      <trkpt lat="45.85751" lon="5.77165">
        <ele>639.89</ele>
        <time>2012-04-09T07:42:07Z</time>
      </trkpt>
      <trkpt lat="45.85753" lon="5.77169">
        <ele>640.38</ele>
        <time>2012-04-09T07:42:09Z</time>
      </trkpt>
      <trkpt lat="45.85755" lon="5.77173">
        <ele>640.86</ele>
        <time>2012-04-09T07:42:11Z</time>
      </trkpt>
      <trkpt lat="45.85757" lon="5.77177">
        <ele>641.34</ele>
        <time>2012-04-09T07:42:13Z</time>
      </trkpt>
      <trkpt lat="45.85759" lon="5.77182">
        <ele>642.3</ele>
        <time>2012-04-09T07:42:15Z</time>
      </trkpt>
      <trkpt lat="45.85761" lon="5.77185">
        <ele>642.78</ele>
        <time>2012-04-09T07:42:17Z</time>
      </trkpt>
      <trkpt lat="45.85763" lon="5.77188">
        <ele>643.26</ele>
        <time>2012-04-09T07:42:19Z</time>
      </trkpt>
      <trkpt lat="45.85766" lon="5.77191">
        <ele>643.74</ele>
        <time>2012-04-09T07:42:21Z</time>
      </trkpt>
      <trkpt lat="45.85769" lon="5.77193">
        <ele>644.22</ele>
        <time>2012-04-09T07:42:23Z</time>
      </trkpt>
      <trkpt lat="45.85772" lon="5.77196">
        <ele>644.22</ele>
        <time>2012-04-09T07:42:25Z</time>
      </trkpt>
      <trkpt lat="45.85776" lon="5.77198">
        <ele>644.7</ele>
        <time>2012-04-09T07:42:27Z</time>
      </trkpt>
      <trkpt lat="45.85779" lon="5.772">
        <ele>645.66</ele>
        <time>2012-04-09T07:42:29Z</time>
      </trkpt>
      <trkpt lat="45.85782" lon="5.77202">
        <ele>646.14</ele>
        <time>2012-04-09T07:42:31Z</time>
      </trkpt>
      <trkpt lat="45.85786" lon="5.77204">
        <ele>647.1</ele>
        <time>2012-04-09T07:42:33Z</time>
      </trkpt>
      <trkpt lat="45.85789" lon="5.77205">
        <ele>647.1</ele>
        <time>2012-04-09T07:42:35Z</time>
      </trkpt>
      <trkpt lat="45.85792" lon="5.77207">
        <ele>647.59</ele>
        <time>2012-04-09T07:42:37Z</time>
      </trkpt>
      <trkpt lat="45.85796" lon="5.77208">
        <ele>647.59</ele>
        <time>2012-04-09T07:42:39Z</time>
      </trkpt>
      <trkpt lat="45.85799" lon="5.7721">
        <ele>649.03</ele>
        <time>2012-04-09T07:42:41Z</time>
      </trkpt>
      <trkpt lat="45.85803" lon="5.77213">
        <ele>649.51</ele>
        <time>2012-04-09T07:42:43Z</time>
      </trkpt>
      <trkpt lat="45.85806" lon="5.77215">
        <ele>649.51</ele>
        <time>2012-04-09T07:42:45Z</time>
      </trkpt>
      <trkpt lat="45.8581" lon="5.77216">
        <ele>649.51</ele>
        <time>2012-04-09T07:42:47Z</time>
      </trkpt>
      <trkpt lat="45.85813" lon="5.77217">
        <ele>650.47</ele>
        <time>2012-04-09T07:42:49Z</time>
      </trkpt>
      <trkpt lat="45.85818" lon="5.77217">
        <ele>650.95</ele>
        <time>2012-04-09T07:42:51Z</time>
      </trkpt>
      <trkpt lat="45.85821" lon="5.7722">
        <ele>651.91</ele>
        <time>2012-04-09T07:42:53Z</time>
      </trkpt>
      <trkpt lat="45.85823" lon="5.77223">
        <ele>651.91</ele>
        <time>2012-04-09T07:42:55Z</time>
      </trkpt>
      <trkpt lat="45.85825" lon="5.77225">
        <ele>652.39</ele>
        <time>2012-04-09T07:42:57Z</time>
      </trkpt>
      <trkpt lat="45.85827" lon="5.77227">
        <ele>652.87</ele>
        <time>2012-04-09T07:42:59Z</time>
      </trkpt>
      <trkpt lat="45.85828" lon="5.77229">
        <ele>653.35</ele>
        <time>2012-04-09T07:43:01Z</time>
      </trkpt>
      <trkpt lat="45.8583" lon="5.77232">
        <ele>653.35</ele>
        <time>2012-04-09T07:43:03Z</time>
      </trkpt>
      <trkpt lat="45.85832" lon="5.77236">
        <ele>653.83</ele>
        <time>2012-04-09T07:43:05Z</time>
      </trkpt>
      <trkpt lat="45.85835" lon="5.77241">
        <ele>654.31</ele>
        <time>2012-04-09T07:43:07Z</time>
      </trkpt>
      <trkpt lat="45.85837" lon="5.77246">
        <ele>654.8</ele>
        <time>2012-04-09T07:43:09Z</time>
      </trkpt>
      <trkpt lat="45.85838" lon="5.7725">
        <ele>655.28</ele>
        <time>2012-04-09T07:43:11Z</time>
      </trkpt>
      <trkpt lat="45.8584" lon="5.77254">
        <ele>655.76</ele>
        <time>2012-04-09T07:43:13Z</time>
      </trkpt>
      <trkpt lat="45.85842" lon="5.77259">
        <ele>656.24</ele>
        <time>2012-04-09T07:43:15Z</time>
      </trkpt>
      <trkpt lat="45.85843" lon="5.77263">
        <ele>656.72</ele>
        <time>2012-04-09T07:43:17Z</time>
      </trkpt>
      <trkpt lat="45.85844" lon="5.77267">
        <ele>657.2</ele>
        <time>2012-04-09T07:43:19Z</time>
      </trkpt>
      <trkpt lat="45.85845" lon="5.77271">
        <ele>657.68</ele>
        <time>2012-04-09T07:43:21Z</time>
      </trkpt>
      <trkpt lat="45.85846" lon="5.77274">
        <ele>658.16</ele>
        <time>2012-04-09T07:43:23Z</time>
      </trkpt>
      <trkpt lat="45.85847" lon="5.77278">
        <ele>658.64</ele>
        <time>2012-04-09T07:43:25Z</time>
      </trkpt>
      <trkpt lat="45.85849" lon="5.77281">
        <ele>659.6</ele>
        <time>2012-04-09T07:43:27Z</time>
      </trkpt>
      <trkpt lat="45.8585" lon="5.77284">
        <ele>660.08</ele>
        <time>2012-04-09T07:43:29Z</time>
      </trkpt>
      <trkpt lat="45.85852" lon="5.77286">
        <ele>661.04</ele>
        <time>2012-04-09T07:43:31Z</time>
      </trkpt>
      <trkpt lat="45.85856" lon="5.77286">
        <ele>661.04</ele>
        <time>2012-04-09T07:43:33Z</time>
      </trkpt>
      <trkpt lat="45.85858" lon="5.77285">
        <ele>662.01</ele>
        <time>2012-04-09T07:43:35Z</time>
      </trkpt>
      <trkpt lat="45.85858" lon="5.77284">
        <ele>662.49</ele>
        <time>2012-04-09T07:43:37Z</time>
      </trkpt>
      <trkpt lat="45.85858" lon="5.77281">
        <ele>662.97</ele>
        <time>2012-04-09T07:43:39Z</time>
      </trkpt>
      <trkpt lat="45.85858" lon="5.7728">
        <ele>663.93</ele>
        <time>2012-04-09T07:43:41Z</time>
      </trkpt>
      <trkpt lat="45.85857" lon="5.77279">
        <ele>663.93</ele>
        <time>2012-04-09T07:43:43Z</time>
      </trkpt>
      <trkpt lat="45.85857" lon="5.77274">
        <ele>664.41</ele>
        <time>2012-04-09T07:43:45Z</time>
      </trkpt>
      <trkpt lat="45.85857" lon="5.7727">
        <ele>665.37</ele>
        <time>2012-04-09T07:43:47Z</time>
      </trkpt>
      <trkpt lat="45.85857" lon="5.77266">
        <ele>665.85</ele>
        <time>2012-04-09T07:43:49Z</time>
      </trkpt>
      <trkpt lat="45.85856" lon="5.77262">
        <ele>666.33</ele>
        <time>2012-04-09T07:43:51Z</time>
      </trkpt>
      <trkpt lat="45.85857" lon="5.77258">
        <ele>666.81</ele>
        <time>2012-04-09T07:43:53Z</time>
      </trkpt>
      <trkpt lat="45.85857" lon="5.77254">
        <ele>666.81</ele>
        <time>2012-04-09T07:43:55Z</time>
      </trkpt>
      <trkpt lat="45.85858" lon="5.7725">
        <ele>667.29</ele>
        <time>2012-04-09T07:43:57Z</time>
      </trkpt>
      <trkpt lat="45.85858" lon="5.77246">
        <ele>667.77</ele>
        <time>2012-04-09T07:43:59Z</time>
      </trkpt>
      <trkpt lat="45.85856" lon="5.77244">
        <ele>668.25</ele>
        <time>2012-04-09T07:44:01Z</time>
      </trkpt>
      <trkpt lat="45.85857" lon="5.7724">
        <ele>668.73</ele>
        <time>2012-04-09T07:44:03Z</time>
      </trkpt>
      <trkpt lat="45.85856" lon="5.77236">
        <ele>669.22</ele>
        <time>2012-04-09T07:44:05Z</time>
      </trkpt>
      <trkpt lat="45.85855" lon="5.77233">
        <ele>669.7</ele>
        <time>2012-04-09T07:44:07Z</time>
      </trkpt>
      <trkpt lat="45.85853" lon="5.77231">
        <ele>670.66</ele>
        <time>2012-04-09T07:44:09Z</time>
      </trkpt>
      <trkpt lat="45.85851" lon="5.77229">
        <ele>670.66</ele>
        <time>2012-04-09T07:44:11Z</time>
      </trkpt>
      <trkpt lat="45.85848" lon="5.77228">
        <ele>671.14</ele>
        <time>2012-04-09T07:44:13Z</time>
      </trkpt>
      <trkpt lat="45.85846" lon="5.77225">
        <ele>672.1</ele>
        <time>2012-04-09T07:44:15Z</time>
      </trkpt>
      <trkpt lat="45.85844" lon="5.77223">
        <ele>672.58</ele>
        <time>2012-04-09T07:44:17Z</time>
      </trkpt>
      <trkpt lat="45.85842" lon="5.77219">
        <ele>672.58</ele>
        <time>2012-04-09T07:44:19Z</time>
      </trkpt>
      <trkpt lat="45.8584" lon="5.77216">
        <ele>673.06</ele>
        <time>2012-04-09T07:44:21Z</time>
      </trkpt>
      <trkpt lat="45.85839" lon="5.77214">
        <ele>673.54</ele>
        <time>2012-04-09T07:44:23Z</time>
      </trkpt>
      <trkpt lat="45.85837" lon="5.77211">
        <ele>673.54</ele>
        <time>2012-04-09T07:44:25Z</time>
      </trkpt>
      <trkpt lat="45.85835" lon="5.7721">
        <ele>674.02</ele>
        <time>2012-04-09T07:44:27Z</time>
      </trkpt>
      <trkpt lat="45.85833" lon="5.77206">
        <ele>674.5</ele>
        <time>2012-04-09T07:44:29Z</time>
      </trkpt>
      <trkpt lat="45.8583" lon="5.77205">
        <ele>674.98</ele>
        <time>2012-04-09T07:44:31Z</time>
      </trkpt>
      <trkpt lat="45.85828" lon="5.77203">
        <ele>674.98</ele>
        <time>2012-04-09T07:44:33Z</time>
      </trkpt>
      <trkpt lat="45.85826" lon="5.772">
        <ele>675.94</ele>
        <time>2012-04-09T07:44:35Z</time>
      </trkpt>
      <trkpt lat="45.85824" lon="5.77198">
        <ele>676.42</ele>
        <time>2012-04-09T07:44:37Z</time>
      </trkpt>
      <trkpt lat="45.85821" lon="5.77197">
        <ele>676.91</ele>
        <time>2012-04-09T07:44:39Z</time>
      </trkpt>
      <trkpt lat="45.85819" lon="5.77196">
        <ele>677.39</ele>
        <time>2012-04-09T07:44:41Z</time>
      </trkpt>
      <trkpt lat="45.85817" lon="5.77194">
        <ele>677.39</ele>
        <time>2012-04-09T07:44:43Z</time>
      </trkpt>
      <trkpt lat="45.85816" lon="5.77188">
        <ele>677.87</ele>
        <time>2012-04-09T07:44:45Z</time>
      </trkpt>
      <trkpt lat="45.85815" lon="5.77185">
        <ele>678.35</ele>
        <time>2012-04-09T07:44:47Z</time>
      </trkpt>
      <trkpt lat="45.85815" lon="5.77179">
        <ele>678.83</ele>
        <time>2012-04-09T07:44:49Z</time>
      </trkpt>
      <trkpt lat="45.85816" lon="5.77172">
        <ele>678.83</ele>
        <time>2012-04-09T07:44:51Z</time>
      </trkpt>
      <trkpt lat="45.85815" lon="5.77164">
        <ele>679.31</ele>
        <time>2012-04-09T07:44:53Z</time>
      </trkpt>
      <trkpt lat="45.85816" lon="5.77158">
        <ele>679.79</ele>
        <time>2012-04-09T07:44:55Z</time>
      </trkpt>
      <trkpt lat="45.85816" lon="5.77151">
        <ele>680.27</ele>
        <time>2012-04-09T07:44:57Z</time>
      </trkpt>
      <trkpt lat="45.85815" lon="5.77141">
        <ele>680.75</ele>
        <time>2012-04-09T07:44:59Z</time>
      </trkpt>
      <trkpt lat="45.85815" lon="5.77134">
        <ele>681.23</ele>
        <time>2012-04-09T07:45:01Z</time>
      </trkpt>
      <trkpt lat="45.85815" lon="5.77125">
        <ele>682.19</ele>
        <time>2012-04-09T07:45:03Z</time>
      </trkpt>
      <trkpt lat="45.85816" lon="5.77115">
        <ele>682.67</ele>
        <time>2012-04-09T07:45:05Z</time>
      </trkpt>
      <trkpt lat="45.85817" lon="5.77108">
        <ele>682.67</ele>
        <time>2012-04-09T07:45:07Z</time>
      </trkpt>
      <trkpt lat="45.85817" lon="5.77103">
        <ele>683.15</ele>
        <time>2012-04-09T07:45:09Z</time>
      </trkpt>
      <trkpt lat="45.85818" lon="5.77098">
        <ele>683.63</ele>
        <time>2012-04-09T07:45:11Z</time>
      </trkpt>
      <trkpt lat="45.85818" lon="5.77093">
        <ele>684.12</ele>
        <time>2012-04-09T07:45:13Z</time>
      </trkpt>
      <trkpt lat="45.85819" lon="5.77089">
        <ele>685.08</ele>
        <time>2012-04-09T07:45:15Z</time>
      </trkpt>
      <trkpt lat="45.85819" lon="5.77084">
        <ele>685.56</ele>
        <time>2012-04-09T07:45:17Z</time>
      </trkpt>
      <trkpt lat="45.8582" lon="5.77078">
        <ele>686.04</ele>
        <time>2012-04-09T07:45:19Z</time>
      </trkpt>
      <trkpt lat="45.8582" lon="5.77074">
        <ele>686.04</ele>
        <time>2012-04-09T07:45:21Z</time>
      </trkpt>
      <trkpt lat="45.8582" lon="5.7707">
        <ele>686.52</ele>
        <time>2012-04-09T07:45:23Z</time>
      </trkpt>
      <trkpt lat="45.85819" lon="5.77065">
        <ele>687.48</ele>
        <time>2012-04-09T07:45:25Z</time>
      </trkpt>
      <trkpt lat="45.85818" lon="5.77062">
        <ele>687.96</ele>
        <time>2012-04-09T07:45:27Z</time>
      </trkpt>
      <trkpt lat="45.85816" lon="5.7706">
        <ele>688.44</ele>
        <time>2012-04-09T07:45:29Z</time>
      </trkpt>
      <trkpt lat="45.85814" lon="5.77058">
        <ele>688.44</ele>
        <time>2012-04-09T07:45:31Z</time>
      </trkpt>
      <trkpt lat="45.85813" lon="5.77055">
        <ele>688.92</ele>
        <time>2012-04-09T07:45:33Z</time>
      </trkpt>
      <trkpt lat="45.85811" lon="5.77051">
        <ele>689.4</ele>
        <time>2012-04-09T07:45:35Z</time>
      </trkpt>
      <trkpt lat="45.8581" lon="5.77046">
        <ele>689.4</ele>
        <time>2012-04-09T07:45:37Z</time>
      </trkpt>
      <trkpt lat="45.85809" lon="5.77041">
        <ele>690.36</ele>
        <time>2012-04-09T07:45:39Z</time>
      </trkpt>
      <trkpt lat="45.85808" lon="5.77033">
        <ele>691.33</ele>
        <time>2012-04-09T07:45:41Z</time>
      </trkpt>
      <trkpt lat="45.85807" lon="5.77026">
        <ele>691.81</ele>
        <time>2012-04-09T07:45:43Z</time>
      </trkpt>
      <trkpt lat="45.85806" lon="5.7702">
        <ele>692.29</ele>
        <time>2012-04-09T07:45:45Z</time>
      </trkpt>
      <trkpt lat="45.85807" lon="5.77013">
        <ele>692.77</ele>
        <time>2012-04-09T07:45:47Z</time>
      </trkpt>
      <trkpt lat="45.85808" lon="5.77007">
        <ele>693.25</ele>
        <time>2012-04-09T07:45:49Z</time>
      </trkpt>
      <trkpt lat="45.85809" lon="5.77001">
        <ele>693.73</ele>
        <time>2012-04-09T07:45:51Z</time>
      </trkpt>
      <trkpt lat="45.8581" lon="5.76996">
        <ele>693.73</ele>
        <time>2012-04-09T07:45:53Z</time>
      </trkpt>
      <trkpt lat="45.8581" lon="5.76993">
        <ele>694.69</ele>
        <time>2012-04-09T07:45:55Z</time>
      </trkpt>
      <trkpt lat="45.8581" lon="5.76988">
        <ele>695.17</ele>
        <time>2012-04-09T07:45:57Z</time>
      </trkpt>
      <trkpt lat="45.8581" lon="5.76984">
        <ele>695.17</ele>
        <time>2012-04-09T07:45:59Z</time>
      </trkpt>
      <trkpt lat="45.8581" lon="5.76979">
        <ele>695.65</ele>
        <time>2012-04-09T07:46:01Z</time>
      </trkpt>
      <trkpt lat="45.85811" lon="5.76973">
        <ele>696.13</ele>
        <time>2012-04-09T07:46:03Z</time>
      </trkpt>
      <trkpt lat="45.85811" lon="5.76968">
        <ele>696.61</ele>
        <time>2012-04-09T07:46:05Z</time>
      </trkpt>
      <trkpt lat="45.85812" lon="5.76964">
        <ele>697.09</ele>
        <time>2012-04-09T07:46:07Z</time>
      </trkpt>
      <trkpt lat="45.85813" lon="5.76959">
        <ele>698.05</ele>
        <time>2012-04-09T07:46:09Z</time>
      </trkpt>
      <trkpt lat="45.85813" lon="5.76955">
        <ele>698.05</ele>
        <time>2012-04-09T07:46:11Z</time>
      </trkpt>
      <trkpt lat="45.85815" lon="5.76949">
        <ele>699.02</ele>
        <time>2012-04-09T07:46:13Z</time>
      </trkpt>
      <trkpt lat="45.85816" lon="5.76944">
        <ele>699.5</ele>
        <time>2012-04-09T07:46:15Z</time>
      </trkpt>
      <trkpt lat="45.85816" lon="5.7694">
        <ele>699.98</ele>
        <time>2012-04-09T07:46:17Z</time>
      </trkpt>
      <trkpt lat="45.85816" lon="5.76935">
        <ele>699.98</ele>
        <time>2012-04-09T07:46:19Z</time>
      </trkpt>
      <trkpt lat="45.85816" lon="5.7693">
        <ele>700.94</ele>
        <time>2012-04-09T07:46:21Z</time>
      </trkpt>
      <trkpt lat="45.85817" lon="5.76926">
        <ele>701.42</ele>
        <time>2012-04-09T07:46:23Z</time>
      </trkpt>
      <trkpt lat="45.85817" lon="5.76921">
        <ele>701.9</ele>
        <time>2012-04-09T07:46:25Z</time>
      </trkpt>
      <trkpt lat="45.85817" lon="5.76916">
        <ele>702.38</ele>
        <time>2012-04-09T07:46:27Z</time>
      </trkpt>
      <trkpt lat="45.85817" lon="5.76912">
        <ele>702.86</ele>
        <time>2012-04-09T07:46:29Z</time>
      </trkpt>
      <trkpt lat="45.85818" lon="5.76908">
        <ele>702.86</ele>
        <time>2012-04-09T07:46:31Z</time>
      </trkpt>
      <trkpt lat="45.85817" lon="5.76906">
        <ele>703.82</ele>
        <time>2012-04-09T07:46:33Z</time>
      </trkpt>
      <trkpt lat="45.85817" lon="5.76904">
        <ele>704.3</ele>
        <time>2012-04-09T07:46:35Z</time>
      </trkpt>
      <trkpt lat="45.85816" lon="5.76901">
        <ele>704.78</ele>
        <time>2012-04-09T07:46:37Z</time>
      </trkpt>
      <trkpt lat="45.85817" lon="5.76897">
        <ele>705.75</ele>
        <time>2012-04-09T07:46:39Z</time>
      </trkpt>
      <trkpt lat="45.85818" lon="5.76893">
        <ele>705.75</ele>
        <time>2012-04-09T07:46:41Z</time>
      </trkpt>
      <trkpt lat="45.8582" lon="5.7689">
        <ele>707.19</ele>
        <time>2012-04-09T07:46:43Z</time>
      </trkpt>
      <trkpt lat="45.85822" lon="5.7689">
        <ele>707.19</ele>
        <time>2012-04-09T07:46:45Z</time>
      </trkpt>
      <trkpt lat="45.85823" lon="5.76891">
        <ele>708.63</ele>
        <time>2012-04-09T07:46:47Z</time>
      </trkpt>
      <trkpt lat="45.85825" lon="5.76894">
        <ele>709.11</ele>
        <time>2012-04-09T07:46:49Z</time>
      </trkpt>
      <trkpt lat="45.85825" lon="5.76896">
        <ele>709.11</ele>
        <time>2012-04-09T07:46:51Z</time>
      </trkpt>
      <trkpt lat="45.85827" lon="5.769">
        <ele>709.59</ele>
        <time>2012-04-09T07:46:53Z</time>
      </trkpt>
      <trkpt lat="45.85827" lon="5.76902">
        <ele>710.07</ele>
        <time>2012-04-09T07:46:55Z</time>
      </trkpt>
      <trkpt lat="45.85828" lon="5.76906">
        <ele>710.07</ele>
        <time>2012-04-09T07:46:57Z</time>
      </trkpt>
      <trkpt lat="45.85828" lon="5.76911">
        <ele>710.55</ele>
        <time>2012-04-09T07:46:59Z</time>
      </trkpt>
      <trkpt lat="45.85828" lon="5.76914">
        <ele>711.51</ele>
        <time>2012-04-09T07:47:01Z</time>
      </trkpt>
      <trkpt lat="45.85828" lon="5.76918">
        <ele>711.51</ele>
        <time>2012-04-09T07:47:03Z</time>
      </trkpt>
      <trkpt lat="45.85828" lon="5.76922">
        <ele>711.99</ele>
        <time>2012-04-09T07:47:05Z</time>
      </trkpt>
      <trkpt lat="45.85828" lon="5.76926">
        <ele>712.95</ele>
        <time>2012-04-09T07:47:07Z</time>
      </trkpt>
      <trkpt lat="45.85828" lon="5.7693">
        <ele>712.47</ele>
        <time>2012-04-09T07:47:09Z</time>
      </trkpt>
      <trkpt lat="45.85829" lon="5.76933">
        <ele>713.44</ele>
        <time>2012-04-09T07:47:11Z</time>
      </trkpt>
      <trkpt lat="45.85829" lon="5.76938">
        <ele>713.44</ele>
        <time>2012-04-09T07:47:13Z</time>
      </trkpt>
      <trkpt lat="45.85829" lon="5.76943">
        <ele>714.4</ele>
        <time>2012-04-09T07:47:15Z</time>
      </trkpt>
      <trkpt lat="45.8583" lon="5.76951">
        <ele>714.88</ele>
        <time>2012-04-09T07:47:17Z</time>
      </trkpt>
      <trkpt lat="45.85831" lon="5.76955">
        <ele>715.36</ele>
        <time>2012-04-09T07:47:19Z</time>
      </trkpt>
      <trkpt lat="45.85833" lon="5.76958">
        <ele>715.36</ele>
        <time>2012-04-09T07:47:21Z</time>
      </trkpt>
      <trkpt lat="45.85836" lon="5.76962">
        <ele>715.84</ele>
        <time>2012-04-09T07:47:23Z</time>
      </trkpt>
      <trkpt lat="45.85837" lon="5.76968">
        <ele>716.32</ele>
        <time>2012-04-09T07:47:25Z</time>
      </trkpt>
      <trkpt lat="45.85839" lon="5.76974">
        <ele>716.8</ele>
        <time>2012-04-09T07:47:27Z</time>
      </trkpt>
      <trkpt lat="45.85841" lon="5.76979">
        <ele>717.28</ele>
        <time>2012-04-09T07:47:29Z</time>
      </trkpt>
      <trkpt lat="45.85843" lon="5.76984">
        <ele>718.24</ele>
        <time>2012-04-09T07:47:31Z</time>
      </trkpt>
      <trkpt lat="45.85845" lon="5.76989">
        <ele>718.72</ele>
        <time>2012-04-09T07:47:33Z</time>
      </trkpt>
      <trkpt lat="45.85848" lon="5.76994">
        <ele>718.72</ele>
        <time>2012-04-09T07:47:35Z</time>
      </trkpt>
      <trkpt lat="45.8585" lon="5.76999">
        <ele>719.2</ele>
        <time>2012-04-09T07:47:37Z</time>
      </trkpt>
      <trkpt lat="45.85853" lon="5.77003">
        <ele>720.16</ele>
        <time>2012-04-09T07:47:39Z</time>
      </trkpt>
      <trkpt lat="45.85855" lon="5.77008">
        <ele>720.16</ele>
        <time>2012-04-09T07:47:41Z</time>
      </trkpt>
      <trkpt lat="45.85857" lon="5.77013">
        <ele>721.13</ele>
        <time>2012-04-09T07:47:43Z</time>
      </trkpt>
      <trkpt lat="45.85859" lon="5.77019">
        <ele>721.61</ele>
        <time>2012-04-09T07:47:45Z</time>
      </trkpt>
      <trkpt lat="45.85863" lon="5.77023">
        <ele>722.57</ele>
        <time>2012-04-09T07:47:47Z</time>
      </trkpt>
      <trkpt lat="45.85865" lon="5.77028">
        <ele>723.05</ele>
        <time>2012-04-09T07:47:49Z</time>
      </trkpt>
      <trkpt lat="45.85866" lon="5.77032">
        <ele>723.53</ele>
        <time>2012-04-09T07:47:51Z</time>
      </trkpt>
      <trkpt lat="45.85869" lon="5.77036">
        <ele>723.53</ele>
        <time>2012-04-09T07:47:53Z</time>
      </trkpt>
      <trkpt lat="45.85871" lon="5.7704">
        <ele>724.97</ele>
        <time>2012-04-09T07:47:55Z</time>
      </trkpt>
      <trkpt lat="45.85874" lon="5.77043">
        <ele>724.97</ele>
        <time>2012-04-09T07:47:57Z</time>
      </trkpt>
      <trkpt lat="45.85876" lon="5.77047">
        <ele>725.45</ele>
        <time>2012-04-09T07:47:59Z</time>
      </trkpt>
      <trkpt lat="45.85877" lon="5.77052">
        <ele>726.41</ele>
        <time>2012-04-09T07:48:01Z</time>
      </trkpt>
      <trkpt lat="45.85878" lon="5.77058">
        <ele>726.41</ele>
        <time>2012-04-09T07:48:03Z</time>
      </trkpt>
      <trkpt lat="45.8588" lon="5.77063">
        <ele>726.41</ele>
        <time>2012-04-09T07:48:05Z</time>
      </trkpt>
      <trkpt lat="45.85882" lon="5.77069">
        <ele>727.37</ele>
        <time>2012-04-09T07:48:07Z</time>
      </trkpt>
      <trkpt lat="45.85885" lon="5.77074">
        <ele>727.86</ele>
        <time>2012-04-09T07:48:09Z</time>
      </trkpt>
      <trkpt lat="45.85887" lon="5.77079">
        <ele>728.34</ele>
        <time>2012-04-09T07:48:11Z</time>
      </trkpt>
      <trkpt lat="45.85888" lon="5.77085">
        <ele>728.34</ele>
        <time>2012-04-09T07:48:13Z</time>
      </trkpt>
      <trkpt lat="45.85888" lon="5.7709">
        <ele>729.78</ele>
        <time>2012-04-09T07:48:15Z</time>
      </trkpt>
      <trkpt lat="45.8589" lon="5.77095">
        <ele>729.78</ele>
        <time>2012-04-09T07:48:17Z</time>
      </trkpt>
      <trkpt lat="45.85892" lon="5.77099">
        <ele>730.74</ele>
        <time>2012-04-09T07:48:19Z</time>
      </trkpt>
      <trkpt lat="45.85895" lon="5.77101">
        <ele>731.22</ele>
        <time>2012-04-09T07:48:21Z</time>
      </trkpt>
      <trkpt lat="45.85898" lon="5.771">
        <ele>731.22</ele>
        <time>2012-04-09T07:48:23Z</time>
      </trkpt>
      <trkpt lat="45.859" lon="5.77098">
        <ele>731.7</ele>
        <time>2012-04-09T07:48:25Z</time>
      </trkpt>
      <trkpt lat="45.859" lon="5.77094">
        <ele>733.14</ele>
        <time>2012-04-09T07:48:27Z</time>
      </trkpt>
      <trkpt lat="45.85899" lon="5.77092">
        <ele>733.62</ele>
        <time>2012-04-09T07:48:29Z</time>
      </trkpt>
      <trkpt lat="45.85897" lon="5.77091">
        <ele>733.62</ele>
        <time>2012-04-09T07:48:31Z</time>
      </trkpt>
      <trkpt lat="45.85896" lon="5.7709">
        <ele>734.58</ele>
        <time>2012-04-09T07:48:33Z</time>
      </trkpt>
      <trkpt lat="45.85896" lon="5.77086">
        <ele>734.58</ele>
        <time>2012-04-09T07:48:35Z</time>
      </trkpt>
      <trkpt lat="45.85895" lon="5.77081">
        <ele>735.55</ele>
        <time>2012-04-09T07:48:37Z</time>
      </trkpt>
      <trkpt lat="45.85895" lon="5.77076">
        <ele>736.03</ele>
        <time>2012-04-09T07:48:39Z</time>
      </trkpt>
      <trkpt lat="45.85895" lon="5.7707">
        <ele>736.51</ele>
        <time>2012-04-09T07:48:41Z</time>
      </trkpt>
      <trkpt lat="45.85895" lon="5.77066">
        <ele>736.51</ele>
        <time>2012-04-09T07:48:43Z</time>
      </trkpt>
      <trkpt lat="45.85894" lon="5.77061">
        <ele>736.99</ele>
        <time>2012-04-09T07:48:45Z</time>
      </trkpt>
      <trkpt lat="45.85894" lon="5.77057">
        <ele>737.95</ele>
        <time>2012-04-09T07:48:47Z</time>
      </trkpt>
      <trkpt lat="45.85894" lon="5.77054">
        <ele>738.43</ele>
        <time>2012-04-09T07:48:49Z</time>
      </trkpt>
      <trkpt lat="45.85892" lon="5.77051">
        <ele>738.43</ele>
        <time>2012-04-09T07:48:51Z</time>
      </trkpt>
      <trkpt lat="45.85892" lon="5.77048">
        <ele>738.43</ele>
        <time>2012-04-09T07:48:53Z</time>
      </trkpt>
      <trkpt lat="45.85892" lon="5.77044">
        <ele>739.39</ele>
        <time>2012-04-09T07:48:55Z</time>
      </trkpt>
      <trkpt lat="45.85891" lon="5.77038">
        <ele>739.39</ele>
        <time>2012-04-09T07:48:57Z</time>
      </trkpt>
      <trkpt lat="45.85891" lon="5.77033">
        <ele>740.35</ele>
        <time>2012-04-09T07:48:59Z</time>
      </trkpt>
      <trkpt lat="45.85892" lon="5.7703">
        <ele>740.35</ele>
        <time>2012-04-09T07:49:01Z</time>
      </trkpt>
      <trkpt lat="45.85891" lon="5.77026">
        <ele>740.83</ele>
        <time>2012-04-09T07:49:03Z</time>
      </trkpt>
      <trkpt lat="45.85891" lon="5.77023">
        <ele>740.83</ele>
        <time>2012-04-09T07:49:05Z</time>
      </trkpt>
      <trkpt lat="45.8589" lon="5.77016">
        <ele>741.79</ele>
        <time>2012-04-09T07:49:07Z</time>
      </trkpt>
      <trkpt lat="45.8589" lon="5.7701">
        <ele>742.28</ele>
        <time>2012-04-09T07:49:09Z</time>
      </trkpt>
      <trkpt lat="45.85889" lon="5.77004">
        <ele>742.76</ele>
        <time>2012-04-09T07:49:11Z</time>
      </trkpt>
      <trkpt lat="45.85888" lon="5.77">
        <ele>743.24</ele>
        <time>2012-04-09T07:49:13Z</time>
      </trkpt>
      <trkpt lat="45.85889" lon="5.76997">
        <ele>743.24</ele>
        <time>2012-04-09T07:49:15Z</time>
      </trkpt>
      <trkpt lat="45.8589" lon="5.76991">
        <ele>743.72</ele>
        <time>2012-04-09T07:49:17Z</time>
      </trkpt>
      <trkpt lat="45.8589" lon="5.76987">
        <ele>744.2</ele>
        <time>2012-04-09T07:49:19Z</time>
      </trkpt>
      <trkpt lat="45.85891" lon="5.76982">
        <ele>744.68</ele>
        <time>2012-04-09T07:49:21Z</time>
      </trkpt>
      <trkpt lat="45.85891" lon="5.76978">
        <ele>745.64</ele>
        <time>2012-04-09T07:49:23Z</time>
      </trkpt>
      <trkpt lat="45.85891" lon="5.76973">
        <ele>745.16</ele>
        <time>2012-04-09T07:49:25Z</time>
      </trkpt>
      <trkpt lat="45.85892" lon="5.76968">
        <ele>746.12</ele>
        <time>2012-04-09T07:49:27Z</time>
      </trkpt>
      <trkpt lat="45.85893" lon="5.76963">
        <ele>746.6</ele>
        <time>2012-04-09T07:49:29Z</time>
      </trkpt>
      <trkpt lat="45.85894" lon="5.76958">
        <ele>747.08</ele>
        <time>2012-04-09T07:49:31Z</time>
      </trkpt>
      <trkpt lat="45.85897" lon="5.76953">
        <ele>747.08</ele>
        <time>2012-04-09T07:49:33Z</time>
      </trkpt>
      <trkpt lat="45.85898" lon="5.76948">
        <ele>747.56</ele>
        <time>2012-04-09T07:49:35Z</time>
      </trkpt>
      <trkpt lat="45.859" lon="5.76943">
        <ele>748.04</ele>
        <time>2012-04-09T07:49:37Z</time>
      </trkpt>
      <trkpt lat="45.85902" lon="5.76938">
        <ele>748.04</ele>
        <time>2012-04-09T07:49:39Z</time>
      </trkpt>
      <trkpt lat="45.85904" lon="5.76934">
        <ele>749</ele>
        <time>2012-04-09T07:49:41Z</time>
      </trkpt>
      <trkpt lat="45.85906" lon="5.7693">
        <ele>749.49</ele>
        <time>2012-04-09T07:49:43Z</time>
      </trkpt>
      <trkpt lat="45.85907" lon="5.76927">
        <ele>749.49</ele>
        <time>2012-04-09T07:49:45Z</time>
      </trkpt>
      <trkpt lat="45.85908" lon="5.76924">
        <ele>749.97</ele>
        <time>2012-04-09T07:49:47Z</time>
      </trkpt>
      <trkpt lat="45.85909" lon="5.76919">
        <ele>750.93</ele>
        <time>2012-04-09T07:49:49Z</time>
      </trkpt>
      <trkpt lat="45.85911" lon="5.76915">
        <ele>750.93</ele>
        <time>2012-04-09T07:49:51Z</time>
      </trkpt>
      <trkpt lat="45.85912" lon="5.76911">
        <ele>751.89</ele>
        <time>2012-04-09T07:49:53Z</time>
      </trkpt>
      <trkpt lat="45.85913" lon="5.76907">
        <ele>751.89</ele>
        <time>2012-04-09T07:49:55Z</time>
      </trkpt>
      <trkpt lat="45.85912" lon="5.76902">
        <ele>752.85</ele>
        <time>2012-04-09T07:49:57Z</time>
      </trkpt>
      <trkpt lat="45.85912" lon="5.76898">
        <ele>753.33</ele>
        <time>2012-04-09T07:49:59Z</time>
      </trkpt>
      <trkpt lat="45.85913" lon="5.76893">
        <ele>753.33</ele>
        <time>2012-04-09T07:50:01Z</time>
      </trkpt>
      <trkpt lat="45.85912" lon="5.76888">
        <ele>754.29</ele>
        <time>2012-04-09T07:50:03Z</time>
      </trkpt>
      <trkpt lat="45.85912" lon="5.76885">
        <ele>754.77</ele>
        <time>2012-04-09T07:50:05Z</time>
      </trkpt>
      <trkpt lat="45.85911" lon="5.76882">
        <ele>755.25</ele>
        <time>2012-04-09T07:50:07Z</time>
      </trkpt>
      <trkpt lat="45.85911" lon="5.76878">
        <ele>755.25</ele>
        <time>2012-04-09T07:50:09Z</time>
      </trkpt>
      <trkpt lat="45.85909" lon="5.76875">
        <ele>755.73</ele>
        <time>2012-04-09T07:50:11Z</time>
      </trkpt>
      <trkpt lat="45.85909" lon="5.7687">
        <ele>757.18</ele>
        <time>2012-04-09T07:50:13Z</time>
      </trkpt>
      <trkpt lat="45.85908" lon="5.76865">
        <ele>757.66</ele>
        <time>2012-04-09T07:50:15Z</time>
      </trkpt>
      <trkpt lat="45.85908" lon="5.76859">
        <ele>758.14</ele>
        <time>2012-04-09T07:50:17Z</time>
      </trkpt>
      <trkpt lat="45.85909" lon="5.76852">
        <ele>758.62</ele>
        <time>2012-04-09T07:50:19Z</time>
      </trkpt>
      <trkpt lat="45.8591" lon="5.76848">
        <ele>758.62</ele>
        <time>2012-04-09T07:50:21Z</time>
      </trkpt>
      <trkpt lat="45.85912" lon="5.76841">
        <ele>759.58</ele>
        <time>2012-04-09T07:50:23Z</time>
      </trkpt>
      <trkpt lat="45.85913" lon="5.76834">
        <ele>759.58</ele>
        <time>2012-04-09T07:50:25Z</time>
      </trkpt>
      <trkpt lat="45.85914" lon="5.7683">
        <ele>760.06</ele>
        <time>2012-04-09T07:50:27Z</time>
      </trkpt>
      <trkpt lat="45.85914" lon="5.76826">
        <ele>760.54</ele>
        <time>2012-04-09T07:50:29Z</time>
      </trkpt>
      <trkpt lat="45.85916" lon="5.76821">
        <ele>760.54</ele>
        <time>2012-04-09T07:50:31Z</time>
      </trkpt>
      <trkpt lat="45.85917" lon="5.76817">
        <ele>761.02</ele>
        <time>2012-04-09T07:50:33Z</time>
      </trkpt>
      <trkpt lat="45.85918" lon="5.76814">
        <ele>761.5</ele>
        <time>2012-04-09T07:50:35Z</time>
      </trkpt>
      <trkpt lat="45.85918" lon="5.7681">
        <ele>762.46</ele>
        <time>2012-04-09T07:50:37Z</time>
      </trkpt>
      <trkpt lat="45.85917" lon="5.76806">
        <ele>762.46</ele>
        <time>2012-04-09T07:50:39Z</time>
      </trkpt>
      <trkpt lat="45.85916" lon="5.76803">
        <ele>762.94</ele>
        <time>2012-04-09T07:50:41Z</time>
      </trkpt>
      <trkpt lat="45.85915" lon="5.768">
        <ele>763.42</ele>
        <time>2012-04-09T07:50:43Z</time>
      </trkpt>
      <trkpt lat="45.85914" lon="5.76797">
        <ele>763.9</ele>
        <time>2012-04-09T07:50:45Z</time>
      </trkpt>
      <trkpt lat="45.85912" lon="5.76796">
        <ele>764.39</ele>
        <time>2012-04-09T07:50:47Z</time>
      </trkpt>
      <trkpt lat="45.8591" lon="5.76793">
        <ele>764.39</ele>
        <time>2012-04-09T07:50:49Z</time>
      </trkpt>
      <trkpt lat="45.85908" lon="5.76789">
        <ele>764.87</ele>
        <time>2012-04-09T07:50:51Z</time>
      </trkpt>
      <trkpt lat="45.85905" lon="5.76787">
        <ele>765.83</ele>
        <time>2012-04-09T07:50:53Z</time>
      </trkpt>
      <trkpt lat="45.85903" lon="5.76784">
        <ele>766.31</ele>
        <time>2012-04-09T07:50:55Z</time>
      </trkpt>
      <trkpt lat="45.85899" lon="5.76784">
        <ele>766.79</ele>
        <time>2012-04-09T07:50:57Z</time>
      </trkpt>
      <trkpt lat="45.85897" lon="5.76781">
        <ele>767.27</ele>
        <time>2012-04-09T07:50:59Z</time>
      </trkpt>
      <trkpt lat="45.85895" lon="5.76778">
        <ele>768.23</ele>
        <time>2012-04-09T07:51:01Z</time>
      </trkpt>
      <trkpt lat="45.85894" lon="5.76772">
        <ele>768.23</ele>
        <time>2012-04-09T07:51:03Z</time>
      </trkpt>
      <trkpt lat="45.85894" lon="5.76766">
        <ele>768.23</ele>
        <time>2012-04-09T07:51:05Z</time>
      </trkpt>
      <trkpt lat="45.85893" lon="5.76761">
        <ele>768.71</ele>
        <time>2012-04-09T07:51:07Z</time>
      </trkpt>
      <trkpt lat="45.85894" lon="5.76758">
        <ele>769.19</ele>
        <time>2012-04-09T07:51:09Z</time>
      </trkpt>
      <trkpt lat="45.85894" lon="5.76753">
        <ele>769.19</ele>
        <time>2012-04-09T07:51:11Z</time>
      </trkpt>
      <trkpt lat="45.85895" lon="5.76745">
        <ele>769.67</ele>
        <time>2012-04-09T07:51:13Z</time>
      </trkpt>
      <trkpt lat="45.85895" lon="5.7674">
        <ele>770.63</ele>
        <time>2012-04-09T07:51:15Z</time>
      </trkpt>
      <trkpt lat="45.85896" lon="5.76734">
        <ele>770.63</ele>
        <time>2012-04-09T07:51:17Z</time>
      </trkpt>
      <trkpt lat="45.85895" lon="5.76732">
        <ele>771.11</ele>
        <time>2012-04-09T07:51:19Z</time>
      </trkpt>
      <trkpt lat="45.85895" lon="5.76727">
        <ele>771.6</ele>
        <time>2012-04-09T07:51:21Z</time>
      </trkpt>
      <trkpt lat="45.85895" lon="5.76721">
        <ele>772.56</ele>
        <time>2012-04-09T07:51:23Z</time>
      </trkpt>
      <trkpt lat="45.85895" lon="5.76716">
        <ele>773.04</ele>
        <time>2012-04-09T07:51:25Z</time>
      </trkpt>
      <trkpt lat="45.85894" lon="5.76712">
        <ele>772.56</ele>
        <time>2012-04-09T07:51:27Z</time>
      </trkpt>
      <trkpt lat="45.85891" lon="5.76708">
        <ele>773.52</ele>
        <time>2012-04-09T07:51:29Z</time>
      </trkpt>
      <trkpt lat="45.85889" lon="5.76703">
        <ele>774</ele>
        <time>2012-04-09T07:51:31Z</time>
      </trkpt>
      <trkpt lat="45.85886" lon="5.76698">
        <ele>774.48</ele>
        <time>2012-04-09T07:51:33Z</time>
      </trkpt>
      <trkpt lat="45.85884" lon="5.76695">
        <ele>774.96</ele>
        <time>2012-04-09T07:51:35Z</time>
      </trkpt>
      <trkpt lat="45.85882" lon="5.76692">
        <ele>775.44</ele>
        <time>2012-04-09T07:51:37Z</time>
      </trkpt>
      <trkpt lat="45.85881" lon="5.76688">
        <ele>775.92</ele>
        <time>2012-04-09T07:51:39Z</time>
      </trkpt>
      <trkpt lat="45.85879" lon="5.76685">
        <ele>776.4</ele>
        <time>2012-04-09T07:51:41Z</time>
      </trkpt>
      <trkpt lat="45.85877" lon="5.76682">
        <ele>776.88</ele>
        <time>2012-04-09T07:51:43Z</time>
      </trkpt>
      <trkpt lat="45.85874" lon="5.76681">
        <ele>777.36</ele>
        <time>2012-04-09T07:51:45Z</time>
      </trkpt>
      <trkpt lat="45.85871" lon="5.76679">
        <ele>777.84</ele>
        <time>2012-04-09T07:51:47Z</time>
      </trkpt>
      <trkpt lat="45.8587" lon="5.76676">
        <ele>778.32</ele>
        <time>2012-04-09T07:51:49Z</time>
      </trkpt>
      <trkpt lat="45.85867" lon="5.76673">
        <ele>779.29</ele>
        <time>2012-04-09T07:51:51Z</time>
      </trkpt>
      <trkpt lat="45.85863" lon="5.7667">
        <ele>779.77</ele>
        <time>2012-04-09T07:51:53Z</time>
      </trkpt>
      <trkpt lat="45.8586" lon="5.76665">
        <ele>779.77</ele>
        <time>2012-04-09T07:51:55Z</time>
      </trkpt>
      <trkpt lat="45.85857" lon="5.76662">
        <ele>780.25</ele>
        <time>2012-04-09T07:51:57Z</time>
      </trkpt>
      <trkpt lat="45.85854" lon="5.76658">
        <ele>780.73</ele>
        <time>2012-04-09T07:51:59Z</time>
      </trkpt>
      <trkpt lat="45.85852" lon="5.76655">
        <ele>781.21</ele>
        <time>2012-04-09T07:52:01Z</time>
      </trkpt>
      <trkpt lat="45.85851" lon="5.76648">
        <ele>781.69</ele>
        <time>2012-04-09T07:52:03Z</time>
      </trkpt>
      <trkpt lat="45.85849" lon="5.76643">
        <ele>782.17</ele>
        <time>2012-04-09T07:52:05Z</time>
      </trkpt>
      <trkpt lat="45.85849" lon="5.76638">
        <ele>782.65</ele>
        <time>2012-04-09T07:52:07Z</time>
      </trkpt>
      <trkpt lat="45.85849" lon="5.76631">
        <ele>783.13</ele>
        <time>2012-04-09T07:52:09Z</time>
      </trkpt>
      <trkpt lat="45.85851" lon="5.7663">
        <ele>783.61</ele>
        <time>2012-04-09T07:52:11Z</time>
      </trkpt>
      <trkpt lat="45.85854" lon="5.76629">
        <ele>784.09</ele>
        <time>2012-04-09T07:52:13Z</time>
      </trkpt>
      <trkpt lat="45.85857" lon="5.76629">
        <ele>785.05</ele>
        <time>2012-04-09T07:52:15Z</time>
      </trkpt>
      <trkpt lat="45.8586" lon="5.7663">
        <ele>785.05</ele>
        <time>2012-04-09T07:52:17Z</time>
      </trkpt>
      <trkpt lat="45.85862" lon="5.7663">
        <ele>785.53</ele>
        <time>2012-04-09T07:52:19Z</time>
      </trkpt>
      <trkpt lat="45.85865" lon="5.76629">
        <ele>785.53</ele>
        <time>2012-04-09T07:52:21Z</time>
      </trkpt>
      <trkpt lat="45.85868" lon="5.7663">
        <ele>786.5</ele>
        <time>2012-04-09T07:52:23Z</time>
      </trkpt>
      <trkpt lat="45.85872" lon="5.76631">
        <ele>786.5</ele>
        <time>2012-04-09T07:52:25Z</time>
      </trkpt>
      <trkpt lat="45.85876" lon="5.7663">
        <ele>786.98</ele>
        <time>2012-04-09T07:52:27Z</time>
      </trkpt>
      <trkpt lat="45.8588" lon="5.7663">
        <ele>786.98</ele>
        <time>2012-04-09T07:52:29Z</time>
      </trkpt>
      <trkpt lat="45.85883" lon="5.7663">
        <ele>787.94</ele>
        <time>2012-04-09T07:52:31Z</time>
      </trkpt>
      <trkpt lat="45.85886" lon="5.76631">
        <ele>788.42</ele>
        <time>2012-04-09T07:52:33Z</time>
      </trkpt>
      <trkpt lat="45.8589" lon="5.76632">
        <ele>788.9</ele>
        <time>2012-04-09T07:52:35Z</time>
      </trkpt>
      <trkpt lat="45.85892" lon="5.76634">
        <ele>789.38</ele>
        <time>2012-04-09T07:52:37Z</time>
      </trkpt>
      <trkpt lat="45.85895" lon="5.76635">
        <ele>789.86</ele>
        <time>2012-04-09T07:52:39Z</time>
      </trkpt>
      <trkpt lat="45.85898" lon="5.76638">
        <ele>790.34</ele>
        <time>2012-04-09T07:52:41Z</time>
      </trkpt>
      <trkpt lat="45.85899" lon="5.7664">
        <ele>790.34</ele>
        <time>2012-04-09T07:52:43Z</time>
      </trkpt>
      <trkpt lat="45.85901" lon="5.76641">
        <ele>790.82</ele>
        <time>2012-04-09T07:52:45Z</time>
      </trkpt>
      <trkpt lat="45.85904" lon="5.76643">
        <ele>790.82</ele>
        <time>2012-04-09T07:52:47Z</time>
      </trkpt>
      <trkpt lat="45.85908" lon="5.76645">
        <ele>791.78</ele>
        <time>2012-04-09T07:52:49Z</time>
      </trkpt>
      <trkpt lat="45.85911" lon="5.76647">
        <ele>792.26</ele>
        <time>2012-04-09T07:52:51Z</time>
      </trkpt>
      <trkpt lat="45.85915" lon="5.76648">
        <ele>793.22</ele>
        <time>2012-04-09T07:52:53Z</time>
      </trkpt>
      <trkpt lat="45.85918" lon="5.76651">
        <ele>793.22</ele>
        <time>2012-04-09T07:52:55Z</time>
      </trkpt>
      <trkpt lat="45.85922" lon="5.76654">
        <ele>793.71</ele>
        <time>2012-04-09T07:52:57Z</time>
      </trkpt>
      <trkpt lat="45.85926" lon="5.76656">
        <ele>794.19</ele>
        <time>2012-04-09T07:52:59Z</time>
      </trkpt>
      <trkpt lat="45.8593" lon="5.76658">
        <ele>794.67</ele>
        <time>2012-04-09T07:53:01Z</time>
      </trkpt>
      <trkpt lat="45.85935" lon="5.76661">
        <ele>795.15</ele>
        <time>2012-04-09T07:53:03Z</time>
      </trkpt>
      <trkpt lat="45.85937" lon="5.76665">
        <ele>795.63</ele>
        <time>2012-04-09T07:53:05Z</time>
      </trkpt>
      <trkpt lat="45.85939" lon="5.76668">
        <ele>796.11</ele>
        <time>2012-04-09T07:53:07Z</time>
      </trkpt>
      <trkpt lat="45.85942" lon="5.76671">
        <ele>796.59</ele>
        <time>2012-04-09T07:53:09Z</time>
      </trkpt>
      <trkpt lat="45.85944" lon="5.76674">
        <ele>796.59</ele>
        <time>2012-04-09T07:53:11Z</time>
      </trkpt>
      <trkpt lat="45.85947" lon="5.76678">
        <ele>797.55</ele>
        <time>2012-04-09T07:53:13Z</time>
      </trkpt>
      <trkpt lat="45.8595" lon="5.76681">
        <ele>797.55</ele>
        <time>2012-04-09T07:53:15Z</time>
      </trkpt>
      <trkpt lat="45.85953" lon="5.76685">
        <ele>798.03</ele>
        <time>2012-04-09T07:53:17Z</time>
      </trkpt>
      <trkpt lat="45.85957" lon="5.76688">
        <ele>798.99</ele>
        <time>2012-04-09T07:53:19Z</time>
      </trkpt>
      <trkpt lat="45.85961" lon="5.76691">
        <ele>798.99</ele>
        <time>2012-04-09T07:53:21Z</time>
      </trkpt>
      <trkpt lat="45.85964" lon="5.76695">
        <ele>799.47</ele>
        <time>2012-04-09T07:53:23Z</time>
      </trkpt>
      <trkpt lat="45.85965" lon="5.76697">
        <ele>799.95</ele>
        <time>2012-04-09T07:53:25Z</time>
      </trkpt>
      <trkpt lat="45.85966" lon="5.76701">
        <ele>800.44</ele>
        <time>2012-04-09T07:53:27Z</time>
      </trkpt>
      <trkpt lat="45.85968" lon="5.76705">
        <ele>800.92</ele>
        <time>2012-04-09T07:53:29Z</time>
      </trkpt>
      <trkpt lat="45.8597" lon="5.76708">
        <ele>800.92</ele>
        <time>2012-04-09T07:53:31Z</time>
      </trkpt>
      <trkpt lat="45.85972" lon="5.76712">
        <ele>801.88</ele>
        <time>2012-04-09T07:53:33Z</time>
      </trkpt>
      <trkpt lat="45.85975" lon="5.76716">
        <ele>802.36</ele>
        <time>2012-04-09T07:53:35Z</time>
      </trkpt>
      <trkpt lat="45.85977" lon="5.7672">
        <ele>802.84</ele>
        <time>2012-04-09T07:53:37Z</time>
      </trkpt>
      <trkpt lat="45.85979" lon="5.76725">
        <ele>802.84</ele>
        <time>2012-04-09T07:53:39Z</time>
      </trkpt>
      <trkpt lat="45.8598" lon="5.76729">
        <ele>803.8</ele>
        <time>2012-04-09T07:53:41Z</time>
      </trkpt>
      <trkpt lat="45.85981" lon="5.76733">
        <ele>804.28</ele>
        <time>2012-04-09T07:53:43Z</time>
      </trkpt>
      <trkpt lat="45.85983" lon="5.76737">
        <ele>804.76</ele>
        <time>2012-04-09T07:53:45Z</time>
      </trkpt>
      <trkpt lat="45.85984" lon="5.7674">
        <ele>805.24</ele>
        <time>2012-04-09T07:53:47Z</time>
      </trkpt>
      <trkpt lat="45.85986" lon="5.76743">
        <ele>805.24</ele>
        <time>2012-04-09T07:53:49Z</time>
      </trkpt>
      <trkpt lat="45.85988" lon="5.76746">
        <ele>805.72</ele>
        <time>2012-04-09T07:53:51Z</time>
      </trkpt>
      <trkpt lat="45.8599" lon="5.76748">
        <ele>806.2</ele>
        <time>2012-04-09T07:53:53Z</time>
      </trkpt>
      <trkpt lat="45.85992" lon="5.7675">
        <ele>806.68</ele>
        <time>2012-04-09T07:53:55Z</time>
      </trkpt>
      <trkpt lat="45.85994" lon="5.76754">
        <ele>807.16</ele>
        <time>2012-04-09T07:53:57Z</time>
      </trkpt>
      <trkpt lat="45.85996" lon="5.76759">
        <ele>807.64</ele>
        <time>2012-04-09T07:53:59Z</time>
      </trkpt>
      <trkpt lat="45.85998" lon="5.76764">
        <ele>807.64</ele>
        <time>2012-04-09T07:54:01Z</time>
      </trkpt>
      <trkpt lat="45.86" lon="5.76768">
        <ele>808.13</ele>
        <time>2012-04-09T07:54:03Z</time>
      </trkpt>
      <trkpt lat="45.86001" lon="5.76772">
        <ele>809.09</ele>
        <time>2012-04-09T07:54:05Z</time>
      </trkpt>
      <trkpt lat="45.86003" lon="5.76776">
        <ele>809.57</ele>
        <time>2012-04-09T07:54:07Z</time>
      </trkpt>
      <trkpt lat="45.86004" lon="5.76781">
        <ele>810.05</ele>
        <time>2012-04-09T07:54:09Z</time>
      </trkpt>
      <trkpt lat="45.86005" lon="5.76786">
        <ele>810.53</ele>
        <time>2012-04-09T07:54:11Z</time>
      </trkpt>
      <trkpt lat="45.86006" lon="5.7679">
        <ele>810.53</ele>
        <time>2012-04-09T07:54:13Z</time>
      </trkpt>
      <trkpt lat="45.86007" lon="5.76793">
        <ele>811.01</ele>
        <time>2012-04-09T07:54:15Z</time>
      </trkpt>
      <trkpt lat="45.86007" lon="5.76797">
        <ele>811.49</ele>
        <time>2012-04-09T07:54:17Z</time>
      </trkpt>
      <trkpt lat="45.86007" lon="5.76802">
        <ele>811.97</ele>
        <time>2012-04-09T07:54:19Z</time>
      </trkpt>
      <trkpt lat="45.86007" lon="5.76806">
        <ele>811.97</ele>
        <time>2012-04-09T07:54:21Z</time>
      </trkpt>
      <trkpt lat="45.86007" lon="5.76811">
        <ele>812.45</ele>
        <time>2012-04-09T07:54:23Z</time>
      </trkpt>
      <trkpt lat="45.86008" lon="5.76815">
        <ele>813.41</ele>
        <time>2012-04-09T07:54:25Z</time>
      </trkpt>
      <trkpt lat="45.8601" lon="5.7682">
        <ele>813.41</ele>
        <time>2012-04-09T07:54:27Z</time>
      </trkpt>
      <trkpt lat="45.8601" lon="5.76827">
        <ele>814.37</ele>
        <time>2012-04-09T07:54:29Z</time>
      </trkpt>
      <trkpt lat="45.86011" lon="5.76831">
        <ele>814.85</ele>
        <time>2012-04-09T07:54:31Z</time>
      </trkpt>
      <trkpt lat="45.86013" lon="5.76835">
        <ele>815.34</ele>
        <time>2012-04-09T07:54:33Z</time>
      </trkpt>
      <trkpt lat="45.86013" lon="5.76839">
        <ele>815.82</ele>
        <time>2012-04-09T07:54:35Z</time>
      </trkpt>
      <trkpt lat="45.86015" lon="5.76842">
        <ele>816.3</ele>
        <time>2012-04-09T07:54:37Z</time>
      </trkpt>
      <trkpt lat="45.86017" lon="5.76841">
        <ele>816.78</ele>
        <time>2012-04-09T07:54:39Z</time>
      </trkpt>
      <trkpt lat="45.86019" lon="5.76838">
        <ele>817.74</ele>
        <time>2012-04-09T07:54:41Z</time>
      </trkpt>
      <trkpt lat="45.86019" lon="5.76836">
        <ele>818.22</ele>
        <time>2012-04-09T07:54:43Z</time>
      </trkpt>
      <trkpt lat="45.86019" lon="5.76836">
        <ele>818.7</ele>
        <time>2012-04-09T07:54:45Z</time>
      </trkpt>
      <trkpt lat="45.86019" lon="5.76834">
        <ele>819.18</ele>
        <time>2012-04-09T07:54:47Z</time>
      </trkpt>
      <trkpt lat="45.86019" lon="5.76832">
        <ele>819.18</ele>
        <time>2012-04-09T07:54:49Z</time>
      </trkpt>
      <trkpt lat="45.86019" lon="5.7683">
        <ele>819.66</ele>
        <time>2012-04-09T07:54:51Z</time>
      </trkpt>
      <trkpt lat="45.86019" lon="5.76826">
        <ele>820.14</ele>
        <time>2012-04-09T07:54:53Z</time>
      </trkpt>
      <trkpt lat="45.86019" lon="5.76823">
        <ele>820.62</ele>
        <time>2012-04-09T07:54:55Z</time>
      </trkpt>
      <trkpt lat="45.8602" lon="5.76818">
        <ele>821.1</ele>
        <time>2012-04-09T07:54:57Z</time>
      </trkpt>
      <trkpt lat="45.8602" lon="5.76812">
        <ele>821.1</ele>
        <time>2012-04-09T07:54:59Z</time>
      </trkpt>
      <trkpt lat="45.86021" lon="5.76808">
        <ele>821.58</ele>
        <time>2012-04-09T07:55:01Z</time>
      </trkpt>
      <trkpt lat="45.8602" lon="5.76804">
        <ele>822.06</ele>
        <time>2012-04-09T07:55:03Z</time>
      </trkpt>
      <trkpt lat="45.8602" lon="5.76799">
        <ele>822.55</ele>
        <time>2012-04-09T07:55:05Z</time>
      </trkpt>
      <trkpt lat="45.86019" lon="5.76794">
        <ele>822.55</ele>
        <time>2012-04-09T07:55:07Z</time>
      </trkpt>
      <trkpt lat="45.8602" lon="5.76788">
        <ele>823.03</ele>
        <time>2012-04-09T07:55:09Z</time>
      </trkpt>
      <trkpt lat="45.8602" lon="5.76783">
        <ele>823.51</ele>
        <time>2012-04-09T07:55:11Z</time>
      </trkpt>
      <trkpt lat="45.86019" lon="5.76779">
        <ele>823.99</ele>
        <time>2012-04-09T07:55:13Z</time>
      </trkpt>
      <trkpt lat="45.86019" lon="5.76775">
        <ele>824.47</ele>
        <time>2012-04-09T07:55:15Z</time>
      </trkpt>
      <trkpt lat="45.86018" lon="5.7677">
        <ele>824.95</ele>
        <time>2012-04-09T07:55:17Z</time>
      </trkpt>
      <trkpt lat="45.86018" lon="5.76766">
        <ele>825.43</ele>
        <time>2012-04-09T07:55:19Z</time>
      </trkpt>
      <trkpt lat="45.86017" lon="5.76762">
        <ele>825.91</ele>
        <time>2012-04-09T07:55:21Z</time>
      </trkpt>
      <trkpt lat="45.86019" lon="5.76758">
        <ele>826.39</ele>
        <time>2012-04-09T07:55:23Z</time>
      </trkpt>
      <trkpt lat="45.86019" lon="5.76752">
        <ele>826.87</ele>
        <time>2012-04-09T07:55:25Z</time>
      </trkpt>
      <trkpt lat="45.8602" lon="5.76747">
        <ele>827.35</ele>
        <time>2012-04-09T07:55:27Z</time>
      </trkpt>
      <trkpt lat="45.86021" lon="5.76742">
        <ele>827.83</ele>
        <time>2012-04-09T07:55:29Z</time>
      </trkpt>
      <trkpt lat="45.86022" lon="5.76735">
        <ele>828.31</ele>
        <time>2012-04-09T07:55:31Z</time>
      </trkpt>
      <trkpt lat="45.86023" lon="5.76728">
        <ele>828.79</ele>
        <time>2012-04-09T07:55:33Z</time>
      </trkpt>
      <trkpt lat="45.86023" lon="5.76723">
        <ele>828.79</ele>
        <time>2012-04-09T07:55:35Z</time>
      </trkpt>
      <trkpt lat="45.86024" lon="5.76719">
        <ele>829.76</ele>
        <time>2012-04-09T07:55:37Z</time>
      </trkpt>
      <trkpt lat="45.86025" lon="5.76714">
        <ele>829.76</ele>
        <time>2012-04-09T07:55:39Z</time>
      </trkpt>
      <trkpt lat="45.86026" lon="5.76709">
        <ele>829.76</ele>
        <time>2012-04-09T07:55:41Z</time>
      </trkpt>
      <trkpt lat="45.86028" lon="5.76704">
        <ele>830.72</ele>
        <time>2012-04-09T07:55:43Z</time>
      </trkpt>
      <trkpt lat="45.86028" lon="5.767">
        <ele>831.2</ele>
        <time>2012-04-09T07:55:45Z</time>
      </trkpt>
      <trkpt lat="45.86027" lon="5.76696">
        <ele>831.68</ele>
        <time>2012-04-09T07:55:47Z</time>
      </trkpt>
      <trkpt lat="45.86028" lon="5.76693">
        <ele>832.16</ele>
        <time>2012-04-09T07:55:49Z</time>
      </trkpt>
      <trkpt lat="45.86029" lon="5.76689">
        <ele>832.64</ele>
        <time>2012-04-09T07:55:51Z</time>
      </trkpt>
      <trkpt lat="45.8603" lon="5.76686">
        <ele>832.64</ele>
        <time>2012-04-09T07:55:53Z</time>
      </trkpt>
      <trkpt lat="45.86034" lon="5.76682">
        <ele>833.6</ele>
        <time>2012-04-09T07:55:55Z</time>
      </trkpt>
      <trkpt lat="45.86036" lon="5.76681">
        <ele>834.08</ele>
        <time>2012-04-09T07:55:57Z</time>
      </trkpt>
      <trkpt lat="45.86038" lon="5.76681">
        <ele>834.08</ele>
        <time>2012-04-09T07:55:59Z</time>
      </trkpt>
      <trkpt lat="45.86038" lon="5.76682">
        <ele>834.56</ele>
        <time>2012-04-09T07:56:01Z</time>
      </trkpt>
      <trkpt lat="45.86038" lon="5.76683">
        <ele>835.04</ele>
        <time>2012-04-09T07:56:03Z</time>
      </trkpt>
      <trkpt lat="45.86038" lon="5.76683">
        <ele>835.52</ele>
        <time>2012-04-09T07:56:05Z</time>
      </trkpt>
      <trkpt lat="45.86039" lon="5.76687">
        <ele>835.52</ele>
        <time>2012-04-09T07:56:07Z</time>
      </trkpt>
      <trkpt lat="45.86041" lon="5.76691">
        <ele>836.48</ele>
        <time>2012-04-09T07:56:09Z</time>
      </trkpt>
      <trkpt lat="45.86042" lon="5.76695">
        <ele>836.96</ele>
        <time>2012-04-09T07:56:11Z</time>
      </trkpt>
      <trkpt lat="45.86043" lon="5.76699">
        <ele>837.45</ele>
        <time>2012-04-09T07:56:13Z</time>
      </trkpt>
      <trkpt lat="45.86044" lon="5.76703">
        <ele>837.45</ele>
        <time>2012-04-09T07:56:15Z</time>
      </trkpt>
      <trkpt lat="45.86044" lon="5.76708">
        <ele>838.41</ele>
        <time>2012-04-09T07:56:17Z</time>
      </trkpt>
      <trkpt lat="45.86044" lon="5.76712">
        <ele>838.89</ele>
        <time>2012-04-09T07:56:19Z</time>
      </trkpt>
      <trkpt lat="45.86044" lon="5.76717">
        <ele>839.37</ele>
        <time>2012-04-09T07:56:21Z</time>
      </trkpt>
      <trkpt lat="45.86044" lon="5.76721">
        <ele>839.85</ele>
        <time>2012-04-09T07:56:23Z</time>
      </trkpt>
      <trkpt lat="45.86045" lon="5.76725">
        <ele>839.85</ele>
        <time>2012-04-09T07:56:25Z</time>
      </trkpt>
      <trkpt lat="45.86046" lon="5.76728">
        <ele>840.33</ele>
        <time>2012-04-09T07:56:27Z</time>
      </trkpt>
      <trkpt lat="45.86046" lon="5.76732">
        <ele>840.81</ele>
        <time>2012-04-09T07:56:29Z</time>
      </trkpt>
      <trkpt lat="45.86046" lon="5.76737">
        <ele>841.29</ele>
        <time>2012-04-09T07:56:31Z</time>
      </trkpt>
      <trkpt lat="45.86046" lon="5.76743">
        <ele>842.25</ele>
        <time>2012-04-09T07:56:33Z</time>
      </trkpt>
      <trkpt lat="45.86047" lon="5.76748">
        <ele>842.25</ele>
        <time>2012-04-09T07:56:35Z</time>
      </trkpt>
      <trkpt lat="45.86048" lon="5.76753">
        <ele>843.21</ele>
        <time>2012-04-09T07:56:37Z</time>
      </trkpt>
      <trkpt lat="45.86049" lon="5.76758">
        <ele>843.21</ele>
        <time>2012-04-09T07:56:39Z</time>
      </trkpt>
      <trkpt lat="45.8605" lon="5.76762">
        <ele>844.18</ele>
        <time>2012-04-09T07:56:41Z</time>
      </trkpt>
      <trkpt lat="45.86051" lon="5.76767">
        <ele>844.18</ele>
        <time>2012-04-09T07:56:43Z</time>
      </trkpt>
      <trkpt lat="45.86053" lon="5.76771">
        <ele>844.66</ele>
        <time>2012-04-09T07:56:45Z</time>
      </trkpt>
      <trkpt lat="45.86054" lon="5.76777">
        <ele>844.66</ele>
        <time>2012-04-09T07:56:47Z</time>
      </trkpt>
      <trkpt lat="45.86056" lon="5.76782">
        <ele>845.14</ele>
        <time>2012-04-09T07:56:49Z</time>
      </trkpt>
      <trkpt lat="45.86056" lon="5.76787">
        <ele>846.1</ele>
        <time>2012-04-09T07:56:51Z</time>
      </trkpt>
      <trkpt lat="45.86058" lon="5.76791">
        <ele>845.62</ele>
        <time>2012-04-09T07:56:53Z</time>
      </trkpt>
      <trkpt lat="45.86058" lon="5.76795">
        <ele>846.58</ele>
        <time>2012-04-09T07:56:55Z</time>
      </trkpt>
      <trkpt lat="45.86058" lon="5.76799">
        <ele>847.06</ele>
        <time>2012-04-09T07:56:57Z</time>
      </trkpt>
      <trkpt lat="45.86059" lon="5.76804">
        <ele>847.54</ele>
        <time>2012-04-09T07:56:59Z</time>
      </trkpt>
      <trkpt lat="45.8606" lon="5.76809">
        <ele>848.02</ele>
        <time>2012-04-09T07:57:01Z</time>
      </trkpt>
      <trkpt lat="45.86061" lon="5.76815">
        <ele>848.02</ele>
        <time>2012-04-09T07:57:03Z</time>
      </trkpt>
      <trkpt lat="45.86062" lon="5.7682">
        <ele>849.46</ele>
        <time>2012-04-09T07:57:05Z</time>
      </trkpt>
      <trkpt lat="45.86063" lon="5.76824">
        <ele>849.46</ele>
        <time>2012-04-09T07:57:07Z</time>
      </trkpt>
      <trkpt lat="45.86064" lon="5.76829">
        <ele>849.94</ele>
        <time>2012-04-09T07:57:09Z</time>
      </trkpt>
      <trkpt lat="45.86065" lon="5.76834">
        <ele>850.42</ele>
        <time>2012-04-09T07:57:11Z</time>
      </trkpt>
      <trkpt lat="45.86065" lon="5.76838">
        <ele>850.9</ele>
        <time>2012-04-09T07:57:13Z</time>
      </trkpt>
      <trkpt lat="45.86066" lon="5.76844">
        <ele>851.38</ele>
        <time>2012-04-09T07:57:15Z</time>
      </trkpt>
      <trkpt lat="45.86067" lon="5.7685">
        <ele>851.87</ele>
        <time>2012-04-09T07:57:17Z</time>
      </trkpt>
      <trkpt lat="45.86067" lon="5.76854">
        <ele>852.35</ele>
        <time>2012-04-09T07:57:19Z</time>
      </trkpt>
      <trkpt lat="45.86069" lon="5.76859">
        <ele>852.83</ele>
        <time>2012-04-09T07:57:21Z</time>
      </trkpt>
      <trkpt lat="45.8607" lon="5.76864">
        <ele>853.79</ele>
        <time>2012-04-09T07:57:23Z</time>
      </trkpt>
      <trkpt lat="45.86072" lon="5.76869">
        <ele>853.31</ele>
        <time>2012-04-09T07:57:25Z</time>
      </trkpt>
      <trkpt lat="45.86074" lon="5.76874">
        <ele>853.79</ele>
        <time>2012-04-09T07:57:27Z</time>
      </trkpt>
      <trkpt lat="45.86075" lon="5.76878">
        <ele>854.75</ele>
        <time>2012-04-09T07:57:29Z</time>
      </trkpt>
      <trkpt lat="45.86076" lon="5.76883">
        <ele>855.23</ele>
        <time>2012-04-09T07:57:31Z</time>
      </trkpt>
      <trkpt lat="45.86076" lon="5.76888">
        <ele>855.71</ele>
        <time>2012-04-09T07:57:33Z</time>
      </trkpt>
      <trkpt lat="45.86077" lon="5.76892">
        <ele>856.67</ele>
        <time>2012-04-09T07:57:35Z</time>
      </trkpt>
      <trkpt lat="45.86077" lon="5.76898">
        <ele>857.15</ele>
        <time>2012-04-09T07:57:37Z</time>
      </trkpt>
      <trkpt lat="45.86078" lon="5.76903">
        <ele>857.63</ele>
        <time>2012-04-09T07:57:39Z</time>
      </trkpt>
      <trkpt lat="45.86078" lon="5.76908">
        <ele>858.11</ele>
        <time>2012-04-09T07:57:41Z</time>
      </trkpt>
      <trkpt lat="45.8608" lon="5.76912">
        <ele>858.59</ele>
        <time>2012-04-09T07:57:43Z</time>
      </trkpt>
      <trkpt lat="45.86081" lon="5.76915">
        <ele>859.08</ele>
        <time>2012-04-09T07:57:45Z</time>
      </trkpt>
      <trkpt lat="45.86082" lon="5.76921">
        <ele>859.08</ele>
        <time>2012-04-09T07:57:47Z</time>
      </trkpt>
      <trkpt lat="45.86083" lon="5.76925">
        <ele>860.04</ele>
        <time>2012-04-09T07:57:49Z</time>
      </trkpt>
      <trkpt lat="45.86084" lon="5.76929">
        <ele>860.04</ele>
        <time>2012-04-09T07:57:51Z</time>
      </trkpt>
      <trkpt lat="45.86085" lon="5.76933">
        <ele>860.52</ele>
        <time>2012-04-09T07:57:53Z</time>
      </trkpt>
      <trkpt lat="45.86085" lon="5.76937">
        <ele>861</ele>
        <time>2012-04-09T07:57:55Z</time>
      </trkpt>
      <trkpt lat="45.86086" lon="5.7694">
        <ele>861.96</ele>
        <time>2012-04-09T07:57:57Z</time>
      </trkpt>
      <trkpt lat="45.86086" lon="5.76944">
        <ele>862.44</ele>
        <time>2012-04-09T07:57:59Z</time>
      </trkpt>
      <trkpt lat="45.86086" lon="5.76948">
        <ele>862.44</ele>
        <time>2012-04-09T07:58:01Z</time>
      </trkpt>
      <trkpt lat="45.86087" lon="5.76953">
        <ele>862.92</ele>
        <time>2012-04-09T07:58:03Z</time>
      </trkpt>
      <trkpt lat="45.86088" lon="5.76957">
        <ele>862.92</ele>
        <time>2012-04-09T07:58:05Z</time>
      </trkpt>
      <trkpt lat="45.86089" lon="5.76961">
        <ele>863.4</ele>
        <time>2012-04-09T07:58:07Z</time>
      </trkpt>
      <trkpt lat="45.86091" lon="5.76965">
        <ele>863.88</ele>
        <time>2012-04-09T07:58:09Z</time>
      </trkpt>
      <trkpt lat="45.86092" lon="5.76969">
        <ele>864.36</ele>
        <time>2012-04-09T07:58:11Z</time>
      </trkpt>
      <trkpt lat="45.86094" lon="5.76974">
        <ele>864.84</ele>
        <time>2012-04-09T07:58:13Z</time>
      </trkpt>
      <trkpt lat="45.86096" lon="5.76979">
        <ele>864.84</ele>
        <time>2012-04-09T07:58:15Z</time>
      </trkpt>
      <trkpt lat="45.86096" lon="5.76984">
        <ele>865.8</ele>
        <time>2012-04-09T07:58:17Z</time>
      </trkpt>
      <trkpt lat="45.86096" lon="5.76989">
        <ele>866.29</ele>
        <time>2012-04-09T07:58:19Z</time>
      </trkpt>
      <trkpt lat="45.86098" lon="5.76993">
        <ele>866.77</ele>
        <time>2012-04-09T07:58:21Z</time>
      </trkpt>
      <trkpt lat="45.86099" lon="5.76996">
        <ele>866.77</ele>
        <time>2012-04-09T07:58:23Z</time>
      </trkpt>
      <trkpt lat="45.86099" lon="5.77">
        <ele>866.77</ele>
        <time>2012-04-09T07:58:25Z</time>
      </trkpt>
      <trkpt lat="45.861" lon="5.77006">
        <ele>867.73</ele>
        <time>2012-04-09T07:58:27Z</time>
      </trkpt>
      <trkpt lat="45.861" lon="5.77012">
        <ele>867.73</ele>
        <time>2012-04-09T07:58:29Z</time>
      </trkpt>
      <trkpt lat="45.86101" lon="5.77017">
        <ele>868.21</ele>
        <time>2012-04-09T07:58:31Z</time>
      </trkpt>
      <trkpt lat="45.86102" lon="5.77023">
        <ele>869.17</ele>
        <time>2012-04-09T07:58:33Z</time>
      </trkpt>
      <trkpt lat="45.86103" lon="5.77027">
        <ele>869.17</ele>
        <time>2012-04-09T07:58:35Z</time>
      </trkpt>
      <trkpt lat="45.86103" lon="5.77031">
        <ele>869.65</ele>
        <time>2012-04-09T07:58:37Z</time>
      </trkpt>
      <trkpt lat="45.86104" lon="5.77035">
        <ele>870.13</ele>
        <time>2012-04-09T07:58:39Z</time>
      </trkpt>
      <trkpt lat="45.86105" lon="5.77039">
        <ele>870.61</ele>
        <time>2012-04-09T07:58:41Z</time>
      </trkpt>
      <trkpt lat="45.86105" lon="5.77044">
        <ele>871.09</ele>
        <time>2012-04-09T07:58:43Z</time>
      </trkpt>
      <trkpt lat="45.86107" lon="5.77049">
        <ele>871.57</ele>
        <time>2012-04-09T07:58:45Z</time>
      </trkpt>
      <trkpt lat="45.86108" lon="5.77053">
        <ele>871.57</ele>
        <time>2012-04-09T07:58:47Z</time>
      </trkpt>
      <trkpt lat="45.8611" lon="5.77058">
        <ele>872.05</ele>
        <time>2012-04-09T07:58:49Z</time>
      </trkpt>
      <trkpt lat="45.86112" lon="5.77061">
        <ele>873.01</ele>
        <time>2012-04-09T07:58:51Z</time>
      </trkpt>
      <trkpt lat="45.86114" lon="5.77066">
        <ele>873.01</ele>
        <time>2012-04-09T07:58:53Z</time>
      </trkpt>
      <trkpt lat="45.86115" lon="5.7707">
        <ele>873.5</ele>
        <time>2012-04-09T07:58:55Z</time>
      </trkpt>
      <trkpt lat="45.86116" lon="5.77074">
        <ele>873.5</ele>
        <time>2012-04-09T07:58:57Z</time>
      </trkpt>
      <trkpt lat="45.86118" lon="5.77077">
        <ele>873.98</ele>
        <time>2012-04-09T07:58:59Z</time>
      </trkpt>
      <trkpt lat="45.86119" lon="5.77082">
        <ele>874.94</ele>
        <time>2012-04-09T07:59:01Z</time>
      </trkpt>
      <trkpt lat="45.8612" lon="5.77086">
        <ele>874.94</ele>
        <time>2012-04-09T07:59:03Z</time>
      </trkpt>
      <trkpt lat="45.86121" lon="5.77091">
        <ele>875.42</ele>
        <time>2012-04-09T07:59:05Z</time>
      </trkpt>
      <trkpt lat="45.86123" lon="5.77095">
        <ele>875.9</ele>
        <time>2012-04-09T07:59:07Z</time>
      </trkpt>
      <trkpt lat="45.86124" lon="5.77098">
        <ele>876.38</ele>
        <time>2012-04-09T07:59:09Z</time>
      </trkpt>
      <trkpt lat="45.86125" lon="5.77102">
        <ele>876.86</ele>
        <time>2012-04-09T07:59:11Z</time>
      </trkpt>
      <trkpt lat="45.86126" lon="5.77106">
        <ele>876.86</ele>
        <time>2012-04-09T07:59:13Z</time>
      </trkpt>
      <trkpt lat="45.86127" lon="5.77111">
        <ele>877.34</ele>
        <time>2012-04-09T07:59:15Z</time>
      </trkpt>
      <trkpt lat="45.86129" lon="5.77115">
        <ele>878.3</ele>
        <time>2012-04-09T07:59:17Z</time>
      </trkpt>
      <trkpt lat="45.86129" lon="5.77119">
        <ele>878.78</ele>
        <time>2012-04-09T07:59:19Z</time>
      </trkpt>
      <trkpt lat="45.86129" lon="5.77123">
        <ele>879.26</ele>
        <time>2012-04-09T07:59:21Z</time>
      </trkpt>
      <trkpt lat="45.8613" lon="5.77127">
        <ele>879.74</ele>
        <time>2012-04-09T07:59:23Z</time>
      </trkpt>
      <trkpt lat="45.86132" lon="5.77131">
        <ele>880.71</ele>
        <time>2012-04-09T07:59:25Z</time>
      </trkpt>
      <trkpt lat="45.86133" lon="5.77136">
        <ele>880.71</ele>
        <time>2012-04-09T07:59:27Z</time>
      </trkpt>
      <trkpt lat="45.86134" lon="5.77142">
        <ele>881.19</ele>
        <time>2012-04-09T07:59:29Z</time>
      </trkpt>
      <trkpt lat="45.86136" lon="5.77146">
        <ele>881.67</ele>
        <time>2012-04-09T07:59:31Z</time>
      </trkpt>
      <trkpt lat="45.86138" lon="5.77148">
        <ele>882.15</ele>
        <time>2012-04-09T07:59:33Z</time>
      </trkpt>
      <trkpt lat="45.8614" lon="5.77147">
        <ele>883.11</ele>
        <time>2012-04-09T07:59:35Z</time>
      </trkpt>
      <trkpt lat="45.8614" lon="5.77146">
        <ele>883.11</ele>
        <time>2012-04-09T07:59:37Z</time>
      </trkpt>
      <trkpt lat="45.8614" lon="5.77144">
        <ele>883.59</ele>
        <time>2012-04-09T07:59:39Z</time>
      </trkpt>
      <trkpt lat="45.86141" lon="5.77143">
        <ele>884.55</ele>
        <time>2012-04-09T07:59:41Z</time>
      </trkpt>
      <trkpt lat="45.86141" lon="5.77139">
        <ele>885.03</ele>
        <time>2012-04-09T07:59:43Z</time>
      </trkpt>
      <trkpt lat="45.8614" lon="5.77136">
        <ele>885.51</ele>
        <time>2012-04-09T07:59:45Z</time>
      </trkpt>
      <trkpt lat="45.8614" lon="5.77133">
        <ele>885.51</ele>
        <time>2012-04-09T07:59:47Z</time>
      </trkpt>
      <trkpt lat="45.86139" lon="5.7713">
        <ele>886.47</ele>
        <time>2012-04-09T07:59:49Z</time>
      </trkpt>
      <trkpt lat="45.86139" lon="5.77126">
        <ele>886.47</ele>
        <time>2012-04-09T07:59:51Z</time>
      </trkpt>
      <trkpt lat="45.86139" lon="5.77122">
        <ele>887.43</ele>
        <time>2012-04-09T07:59:53Z</time>
      </trkpt>
      <trkpt lat="45.86138" lon="5.77117">
        <ele>887.43</ele>
        <time>2012-04-09T07:59:55Z</time>
      </trkpt>
      <trkpt lat="45.86138" lon="5.77113">
        <ele>887.91</ele>
        <time>2012-04-09T07:59:57Z</time>
      </trkpt>
      <trkpt lat="45.86137" lon="5.77111">
        <ele>887.91</ele>
        <time>2012-04-09T07:59:59Z</time>
      </trkpt>
      <trkpt lat="45.86136" lon="5.77107">
        <ele>888.88</ele>
        <time>2012-04-09T08:00:01Z</time>
      </trkpt>
      <trkpt lat="45.86136" lon="5.77102">
        <ele>888.88</ele>
        <time>2012-04-09T08:00:03Z</time>
      </trkpt>
      <trkpt lat="45.86135" lon="5.77096">
        <ele>889.84</ele>
        <time>2012-04-09T08:00:05Z</time>
      </trkpt>
      <trkpt lat="45.86135" lon="5.77092">
        <ele>889.84</ele>
        <time>2012-04-09T08:00:07Z</time>
      </trkpt>
      <trkpt lat="45.86134" lon="5.77089">
        <ele>890.32</ele>
        <time>2012-04-09T08:00:09Z</time>
      </trkpt>
      <trkpt lat="45.86134" lon="5.77085">
        <ele>890.8</ele>
        <time>2012-04-09T08:00:11Z</time>
      </trkpt>
      <trkpt lat="45.86133" lon="5.77078">
        <ele>891.28</ele>
        <time>2012-04-09T08:00:13Z</time>
      </trkpt>
      <trkpt lat="45.86132" lon="5.77072">
        <ele>891.28</ele>
        <time>2012-04-09T08:00:15Z</time>
      </trkpt>
      <trkpt lat="45.86132" lon="5.77066">
        <ele>891.76</ele>
        <time>2012-04-09T08:00:17Z</time>
      </trkpt>
      <trkpt lat="45.86132" lon="5.77063">
        <ele>892.24</ele>
        <time>2012-04-09T08:00:19Z</time>
      </trkpt>
      <trkpt lat="45.86132" lon="5.77061">
        <ele>892.72</ele>
        <time>2012-04-09T08:00:21Z</time>
      </trkpt>
      <trkpt lat="45.86132" lon="5.77053">
        <ele>893.2</ele>
        <time>2012-04-09T08:00:23Z</time>
      </trkpt>
      <trkpt lat="45.86133" lon="5.77047">
        <ele>893.2</ele>
        <time>2012-04-09T08:00:25Z</time>
      </trkpt>
      <trkpt lat="45.86134" lon="5.7704">
        <ele>893.68</ele>
        <time>2012-04-09T08:00:27Z</time>
      </trkpt>
      <trkpt lat="45.86136" lon="5.77033">
        <ele>894.64</ele>
        <time>2012-04-09T08:00:29Z</time>
      </trkpt>
      <trkpt lat="45.86137" lon="5.77028">
        <ele>894.64</ele>
        <time>2012-04-09T08:00:31Z</time>
      </trkpt>
      <trkpt lat="45.86138" lon="5.77023">
        <ele>895.12</ele>
        <time>2012-04-09T08:00:33Z</time>
      </trkpt>
      <trkpt lat="45.86139" lon="5.77017">
        <ele>895.61</ele>
        <time>2012-04-09T08:00:35Z</time>
      </trkpt>
      <trkpt lat="45.86139" lon="5.77011">
        <ele>896.09</ele>
        <time>2012-04-09T08:00:37Z</time>
      </trkpt>
      <trkpt lat="45.8614" lon="5.77006">
        <ele>896.09</ele>
        <time>2012-04-09T08:00:39Z</time>
      </trkpt>
      <trkpt lat="45.8614" lon="5.77002">
        <ele>896.57</ele>
        <time>2012-04-09T08:00:41Z</time>
      </trkpt>
      <trkpt lat="45.86141" lon="5.76998">
        <ele>897.53</ele>
        <time>2012-04-09T08:00:43Z</time>
      </trkpt>
      <trkpt lat="45.86141" lon="5.76994">
        <ele>898.49</ele>
        <time>2012-04-09T08:00:45Z</time>
      </trkpt>
      <trkpt lat="45.8614" lon="5.7699">
        <ele>898.01</ele>
        <time>2012-04-09T08:00:47Z</time>
      </trkpt>
      <trkpt lat="45.86142" lon="5.76984">
        <ele>898.49</ele>
        <time>2012-04-09T08:00:49Z</time>
      </trkpt>
      <trkpt lat="45.86143" lon="5.76978">
        <ele>899.45</ele>
        <time>2012-04-09T08:00:51Z</time>
      </trkpt>
      <trkpt lat="45.86146" lon="5.76973">
        <ele>899.93</ele>
        <time>2012-04-09T08:00:53Z</time>
      </trkpt>
      <trkpt lat="45.86147" lon="5.7697">
        <ele>900.41</ele>
        <time>2012-04-09T08:00:55Z</time>
      </trkpt>
      <trkpt lat="45.86147" lon="5.76965">
        <ele>900.41</ele>
        <time>2012-04-09T08:00:57Z</time>
      </trkpt>
      <trkpt lat="45.86147" lon="5.76959">
        <ele>900.89</ele>
        <time>2012-04-09T08:00:59Z</time>
      </trkpt>
      <trkpt lat="45.86146" lon="5.76954">
        <ele>901.37</ele>
        <time>2012-04-09T08:01:01Z</time>
      </trkpt>
      <trkpt lat="45.86146" lon="5.7695">
        <ele>901.85</ele>
        <time>2012-04-09T08:01:03Z</time>
      </trkpt>
      <trkpt lat="45.86144" lon="5.76948">
        <ele>901.85</ele>
        <time>2012-04-09T08:01:05Z</time>
      </trkpt>
      <trkpt lat="45.86143" lon="5.76945">
        <ele>902.33</ele>
        <time>2012-04-09T08:01:07Z</time>
      </trkpt>
      <trkpt lat="45.86143" lon="5.76942">
        <ele>902.82</ele>
        <time>2012-04-09T08:01:09Z</time>
      </trkpt>
      <trkpt lat="45.86142" lon="5.76939">
        <ele>903.3</ele>
        <time>2012-04-09T08:01:11Z</time>
      </trkpt>
      <trkpt lat="45.86142" lon="5.76936">
        <ele>903.3</ele>
        <time>2012-04-09T08:01:13Z</time>
      </trkpt>
      <trkpt lat="45.86141" lon="5.76932">
        <ele>903.78</ele>
        <time>2012-04-09T08:01:15Z</time>
      </trkpt>
      <trkpt lat="45.86141" lon="5.7693">
        <ele>903.78</ele>
        <time>2012-04-09T08:01:17Z</time>
      </trkpt>
      <trkpt lat="45.8614" lon="5.76926">
        <ele>904.26</ele>
        <time>2012-04-09T08:01:19Z</time>
      </trkpt>
      <trkpt lat="45.86141" lon="5.76922">
        <ele>903.78</ele>
        <time>2012-04-09T08:01:21Z</time>
      </trkpt>
      <trkpt lat="45.8614" lon="5.76919">
        <ele>904.26</ele>
        <time>2012-04-09T08:01:23Z</time>
      </trkpt>
      <trkpt lat="45.8614" lon="5.76917">
        <ele>903.78</ele>
        <time>2012-04-09T08:01:25Z</time>
      </trkpt>
      <trkpt lat="45.86141" lon="5.76913">
        <ele>905.22</ele>
        <time>2012-04-09T08:01:27Z</time>
      </trkpt>
      <trkpt lat="45.86142" lon="5.76909">
        <ele>905.7</ele>
        <time>2012-04-09T08:01:29Z</time>
      </trkpt>
      <trkpt lat="45.86142" lon="5.76907">
        <ele>905.7</ele>
        <time>2012-04-09T08:01:31Z</time>
      </trkpt>
      <trkpt lat="45.86142" lon="5.76907">
        <ele>904.74</ele>
        <time>2012-04-09T08:01:33Z</time>
      </trkpt>
      <trkpt lat="45.86141" lon="5.76907">
        <ele>906.18</ele>
        <time>2012-04-09T08:01:35Z</time>
      </trkpt>
      <trkpt lat="45.86141" lon="5.76907">
        <ele>905.7</ele>
        <time>2012-04-09T08:01:37Z</time>
      </trkpt>
      <trkpt lat="45.86141" lon="5.76907">
        <ele>906.66</ele>
        <time>2012-04-09T08:01:39Z</time>
      </trkpt>
      <trkpt lat="45.86141" lon="5.76907">
        <ele>906.66</ele>
        <time>2012-04-09T08:01:41Z</time>
      </trkpt>
      <trkpt lat="45.86141" lon="5.76907">
        <ele>906.18</ele>
        <time>2012-04-09T08:01:43Z</time>
      </trkpt>
      <trkpt lat="45.86141" lon="5.76904">
        <ele>906.18</ele>
        <time>2012-04-09T08:01:45Z</time>
      </trkpt>
      <trkpt lat="45.86141" lon="5.76903">
        <ele>907.62</ele>
        <time>2012-04-09T08:01:47Z</time>
      </trkpt>
      <trkpt lat="45.8614" lon="5.769">
        <ele>906.66</ele>
        <time>2012-04-09T08:01:49Z</time>
      </trkpt>
      <trkpt lat="45.86141" lon="5.76897">
        <ele>906.18</ele>
        <time>2012-04-09T08:01:51Z</time>
      </trkpt>
      <trkpt lat="45.86141" lon="5.76895">
        <ele>907.62</ele>
        <time>2012-04-09T08:01:53Z</time>
      </trkpt>
      <trkpt lat="45.86141" lon="5.76893">
        <ele>907.62</ele>
        <time>2012-04-09T08:01:55Z</time>
      </trkpt>
      <trkpt lat="45.86141" lon="5.76891">
        <ele>907.62</ele>
        <time>2012-04-09T08:01:57Z</time>
      </trkpt>
      <trkpt lat="45.86142" lon="5.76888">
        <ele>908.1</ele>
        <time>2012-04-09T08:01:59Z</time>
      </trkpt>
      <trkpt lat="45.86142" lon="5.76886">
        <ele>907.62</ele>
        <time>2012-04-09T08:02:01Z</time>
      </trkpt>
      <trkpt lat="45.86143" lon="5.76885">
        <ele>907.62</ele>
        <time>2012-04-09T08:02:03Z</time>
      </trkpt>
      <trkpt lat="45.86145" lon="5.76881">
        <ele>909.06</ele>
        <time>2012-04-09T08:02:05Z</time>
      </trkpt>
      <trkpt lat="45.86147" lon="5.76877">
        <ele>908.58</ele>
        <time>2012-04-09T08:02:07Z</time>
      </trkpt>
      <trkpt lat="45.86152" lon="5.76866">
        <ele>909.06</ele>
        <time>2012-04-09T08:02:09Z</time>
      </trkpt>
      <trkpt lat="45.86154" lon="5.76861">
        <ele>909.54</ele>
        <time>2012-04-09T08:02:11Z</time>
      </trkpt>
      <trkpt lat="45.86157" lon="5.76857">
        <ele>909.54</ele>
        <time>2012-04-09T08:02:13Z</time>
      </trkpt>
      <trkpt lat="45.86158" lon="5.76852">
        <ele>910.51</ele>
        <time>2012-04-09T08:02:15Z</time>
      </trkpt>
      <trkpt lat="45.86158" lon="5.76848">
        <ele>910.99</ele>
        <time>2012-04-09T08:02:17Z</time>
      </trkpt>
      <trkpt lat="45.86161" lon="5.76844">
        <ele>910.99</ele>
        <time>2012-04-09T08:02:19Z</time>
      </trkpt>
      <trkpt lat="45.86162" lon="5.76838">
        <ele>911.95</ele>
        <time>2012-04-09T08:02:21Z</time>
      </trkpt>
      <trkpt lat="45.86163" lon="5.76832">
        <ele>912.43</ele>
        <time>2012-04-09T08:02:23Z</time>
      </trkpt>
      <trkpt lat="45.86164" lon="5.76827">
        <ele>912.43</ele>
        <time>2012-04-09T08:02:25Z</time>
      </trkpt>
      <trkpt lat="45.86164" lon="5.76824">
        <ele>912.91</ele>
        <time>2012-04-09T08:02:27Z</time>
      </trkpt>
      <trkpt lat="45.86164" lon="5.7682">
        <ele>913.39</ele>
        <time>2012-04-09T08:02:29Z</time>
      </trkpt>
      <trkpt lat="45.86164" lon="5.76816">
        <ele>913.87</ele>
        <time>2012-04-09T08:02:31Z</time>
      </trkpt>
      <trkpt lat="45.86166" lon="5.76811">
        <ele>913.87</ele>
        <time>2012-04-09T08:02:33Z</time>
      </trkpt>
      <trkpt lat="45.86167" lon="5.76806">
        <ele>914.83</ele>
        <time>2012-04-09T08:02:35Z</time>
      </trkpt>
      <trkpt lat="45.86168" lon="5.76802">
        <ele>915.31</ele>
        <time>2012-04-09T08:02:37Z</time>
      </trkpt>
      <trkpt lat="45.86169" lon="5.76797">
        <ele>915.79</ele>
        <time>2012-04-09T08:02:39Z</time>
      </trkpt>
      <trkpt lat="45.86171" lon="5.76793">
        <ele>916.75</ele>
        <time>2012-04-09T08:02:41Z</time>
      </trkpt>
      <trkpt lat="45.86173" lon="5.76789">
        <ele>917.24</ele>
        <time>2012-04-09T08:02:43Z</time>
      </trkpt>
      <trkpt lat="45.86174" lon="5.76785">
        <ele>917.72</ele>
        <time>2012-04-09T08:02:45Z</time>
      </trkpt>
      <trkpt lat="45.86177" lon="5.76781">
        <ele>918.2</ele>
        <time>2012-04-09T08:02:47Z</time>
      </trkpt>
      <trkpt lat="45.86178" lon="5.76775">
        <ele>918.68</ele>
        <time>2012-04-09T08:02:49Z</time>
      </trkpt>
      <trkpt lat="45.86182" lon="5.7677">
        <ele>919.16</ele>
        <time>2012-04-09T08:02:51Z</time>
      </trkpt>
      <trkpt lat="45.86186" lon="5.76771">
        <ele>919.64</ele>
        <time>2012-04-09T08:02:53Z</time>
      </trkpt>
      <trkpt lat="45.86188" lon="5.76772">
        <ele>920.6</ele>
        <time>2012-04-09T08:02:55Z</time>
      </trkpt>
      <trkpt lat="45.86189" lon="5.76774">
        <ele>921.08</ele>
        <time>2012-04-09T08:02:57Z</time>
      </trkpt>
      <trkpt lat="45.86189" lon="5.76776">
        <ele>922.04</ele>
        <time>2012-04-09T08:02:59Z</time>
      </trkpt>
      <trkpt lat="45.86189" lon="5.76778">
        <ele>922.52</ele>
        <time>2012-04-09T08:03:01Z</time>
      </trkpt>
      <trkpt lat="45.86188" lon="5.76781">
        <ele>923</ele>
        <time>2012-04-09T08:03:03Z</time>
      </trkpt>
      <trkpt lat="45.86188" lon="5.76785">
        <ele>923</ele>
        <time>2012-04-09T08:03:05Z</time>
      </trkpt>
      <trkpt lat="45.86188" lon="5.76789">
        <ele>923.48</ele>
        <time>2012-04-09T08:03:07Z</time>
      </trkpt>
      <trkpt lat="45.86188" lon="5.76794">
        <ele>923.48</ele>
        <time>2012-04-09T08:03:09Z</time>
      </trkpt>
      <trkpt lat="45.86188" lon="5.76797">
        <ele>924.45</ele>
        <time>2012-04-09T08:03:11Z</time>
      </trkpt>
      <trkpt lat="45.86188" lon="5.76802">
        <ele>924.93</ele>
        <time>2012-04-09T08:03:13Z</time>
      </trkpt>
      <trkpt lat="45.86188" lon="5.76805">
        <ele>924.93</ele>
        <time>2012-04-09T08:03:15Z</time>
      </trkpt>
      <trkpt lat="45.86188" lon="5.7681">
        <ele>925.41</ele>
        <time>2012-04-09T08:03:17Z</time>
      </trkpt>
      <trkpt lat="45.86189" lon="5.76815">
        <ele>925.89</ele>
        <time>2012-04-09T08:03:19Z</time>
      </trkpt>
      <trkpt lat="45.86189" lon="5.76819">
        <ele>926.37</ele>
        <time>2012-04-09T08:03:21Z</time>
      </trkpt>
      <trkpt lat="45.86189" lon="5.76824">
        <ele>926.37</ele>
        <time>2012-04-09T08:03:23Z</time>
      </trkpt>
      <trkpt lat="45.86189" lon="5.76828">
        <ele>926.85</ele>
        <time>2012-04-09T08:03:25Z</time>
      </trkpt>
      <trkpt lat="45.86189" lon="5.76832">
        <ele>927.81</ele>
        <time>2012-04-09T08:03:27Z</time>
      </trkpt>
      <trkpt lat="45.8619" lon="5.76837">
        <ele>927.81</ele>
        <time>2012-04-09T08:03:29Z</time>
      </trkpt>
      <trkpt lat="45.86189" lon="5.76843">
        <ele>928.77</ele>
        <time>2012-04-09T08:03:31Z</time>
      </trkpt>
      <trkpt lat="45.86188" lon="5.76848">
        <ele>928.77</ele>
        <time>2012-04-09T08:03:33Z</time>
      </trkpt>
      <trkpt lat="45.86187" lon="5.76851">
        <ele>929.25</ele>
        <time>2012-04-09T08:03:35Z</time>
      </trkpt>
      <trkpt lat="45.86186" lon="5.76856">
        <ele>929.73</ele>
        <time>2012-04-09T08:03:37Z</time>
      </trkpt>
      <trkpt lat="45.86186" lon="5.76861">
        <ele>930.21</ele>
        <time>2012-04-09T08:03:39Z</time>
      </trkpt>
      <trkpt lat="45.86186" lon="5.76866">
        <ele>930.21</ele>
        <time>2012-04-09T08:03:41Z</time>
      </trkpt>
      <trkpt lat="45.86185" lon="5.7687">
        <ele>931.17</ele>
        <time>2012-04-09T08:03:43Z</time>
      </trkpt>
      <trkpt lat="45.86185" lon="5.76871">
        <ele>931.17</ele>
        <time>2012-04-09T08:03:45Z</time>
      </trkpt>
      <trkpt lat="45.86186" lon="5.76875">
        <ele>931.65</ele>
        <time>2012-04-09T08:03:47Z</time>
      </trkpt>
      <trkpt lat="45.86186" lon="5.7688">
        <ele>932.62</ele>
        <time>2012-04-09T08:03:49Z</time>
      </trkpt>
      <trkpt lat="45.86187" lon="5.76885">
        <ele>932.62</ele>
        <time>2012-04-09T08:03:51Z</time>
      </trkpt>
      <trkpt lat="45.86187" lon="5.7689">
        <ele>932.62</ele>
        <time>2012-04-09T08:03:53Z</time>
      </trkpt>
      <trkpt lat="45.86186" lon="5.76893">
        <ele>933.58</ele>
        <time>2012-04-09T08:03:55Z</time>
      </trkpt>
      <trkpt lat="45.86186" lon="5.76897">
        <ele>933.58</ele>
        <time>2012-04-09T08:03:57Z</time>
      </trkpt>
      <trkpt lat="45.86186" lon="5.76902">
        <ele>934.06</ele>
        <time>2012-04-09T08:03:59Z</time>
      </trkpt>
      <trkpt lat="45.86186" lon="5.76906">
        <ele>934.54</ele>
        <time>2012-04-09T08:04:01Z</time>
      </trkpt>
      <trkpt lat="45.86188" lon="5.76912">
        <ele>935.5</ele>
        <time>2012-04-09T08:04:03Z</time>
      </trkpt>
      <trkpt lat="45.86189" lon="5.76917">
        <ele>935.5</ele>
        <time>2012-04-09T08:04:05Z</time>
      </trkpt>
      <trkpt lat="45.8619" lon="5.76922">
        <ele>935.98</ele>
        <time>2012-04-09T08:04:07Z</time>
      </trkpt>
      <trkpt lat="45.86191" lon="5.7693">
        <ele>936.94</ele>
        <time>2012-04-09T08:04:09Z</time>
      </trkpt>
      <trkpt lat="45.86191" lon="5.76937">
        <ele>936.94</ele>
        <time>2012-04-09T08:04:11Z</time>
      </trkpt>
      <trkpt lat="45.86192" lon="5.76941">
        <ele>937.42</ele>
        <time>2012-04-09T08:04:13Z</time>
      </trkpt>
      <trkpt lat="45.86193" lon="5.76945">
        <ele>938.38</ele>
        <time>2012-04-09T08:04:15Z</time>
      </trkpt>
      <trkpt lat="45.86193" lon="5.7695">
        <ele>938.38</ele>
        <time>2012-04-09T08:04:17Z</time>
      </trkpt>
      <trkpt lat="45.86194" lon="5.76956">
        <ele>938.86</ele>
        <time>2012-04-09T08:04:19Z</time>
      </trkpt>
      <trkpt lat="45.86194" lon="5.76961">
        <ele>939.35</ele>
        <time>2012-04-09T08:04:21Z</time>
      </trkpt>
      <trkpt lat="45.86195" lon="5.76966">
        <ele>939.83</ele>
        <time>2012-04-09T08:04:23Z</time>
      </trkpt>
      <trkpt lat="45.86196" lon="5.7697">
        <ele>940.79</ele>
        <time>2012-04-09T08:04:25Z</time>
      </trkpt>
      <trkpt lat="45.86197" lon="5.76973">
        <ele>940.79</ele>
        <time>2012-04-09T08:04:27Z</time>
      </trkpt>
      <trkpt lat="45.86198" lon="5.76978">
        <ele>941.75</ele>
        <time>2012-04-09T08:04:29Z</time>
      </trkpt>
      <trkpt lat="45.86199" lon="5.76983">
        <ele>941.75</ele>
        <time>2012-04-09T08:04:31Z</time>
      </trkpt>
      <trkpt lat="45.86199" lon="5.76989">
        <ele>942.23</ele>
        <time>2012-04-09T08:04:33Z</time>
      </trkpt>
      <trkpt lat="45.862" lon="5.76993">
        <ele>942.71</ele>
        <time>2012-04-09T08:04:35Z</time>
      </trkpt>
      <trkpt lat="45.862" lon="5.76998">
        <ele>943.19</ele>
        <time>2012-04-09T08:04:37Z</time>
      </trkpt>
      <trkpt lat="45.86201" lon="5.77001">
        <ele>943.67</ele>
        <time>2012-04-09T08:04:39Z</time>
      </trkpt>
      <trkpt lat="45.86201" lon="5.77004">
        <ele>943.67</ele>
        <time>2012-04-09T08:04:41Z</time>
      </trkpt>
      <trkpt lat="45.86201" lon="5.77007">
        <ele>944.63</ele>
        <time>2012-04-09T08:04:43Z</time>
      </trkpt>
      <trkpt lat="45.86202" lon="5.77012">
        <ele>945.11</ele>
        <time>2012-04-09T08:04:45Z</time>
      </trkpt>
      <trkpt lat="45.86202" lon="5.77016">
        <ele>945.11</ele>
        <time>2012-04-09T08:04:47Z</time>
      </trkpt>
      <trkpt lat="45.86204" lon="5.7702">
        <ele>945.59</ele>
        <time>2012-04-09T08:04:49Z</time>
      </trkpt>
      <trkpt lat="45.86203" lon="5.77024">
        <ele>946.56</ele>
        <time>2012-04-09T08:04:51Z</time>
      </trkpt>
      <trkpt lat="45.86202" lon="5.77028">
        <ele>946.56</ele>
        <time>2012-04-09T08:04:53Z</time>
      </trkpt>
      <trkpt lat="45.86202" lon="5.77034">
        <ele>947.52</ele>
        <time>2012-04-09T08:04:55Z</time>
      </trkpt>
      <trkpt lat="45.86202" lon="5.7704">
        <ele>948</ele>
        <time>2012-04-09T08:04:57Z</time>
      </trkpt>
      <trkpt lat="45.86202" lon="5.77047">
        <ele>948.48</ele>
        <time>2012-04-09T08:04:59Z</time>
      </trkpt>
      <trkpt lat="45.86202" lon="5.77051">
        <ele>948.96</ele>
        <time>2012-04-09T08:05:01Z</time>
      </trkpt>
      <trkpt lat="45.86201" lon="5.77055">
        <ele>948.96</ele>
        <time>2012-04-09T08:05:03Z</time>
      </trkpt>
      <trkpt lat="45.86202" lon="5.7706">
        <ele>949.92</ele>
        <time>2012-04-09T08:05:05Z</time>
      </trkpt>
      <trkpt lat="45.86203" lon="5.77066">
        <ele>950.4</ele>
        <time>2012-04-09T08:05:07Z</time>
      </trkpt>
      <trkpt lat="45.86204" lon="5.77071">
        <ele>950.88</ele>
        <time>2012-04-09T08:05:09Z</time>
      </trkpt>
      <trkpt lat="45.86205" lon="5.77076">
        <ele>951.36</ele>
        <time>2012-04-09T08:05:11Z</time>
      </trkpt>
      <trkpt lat="45.86205" lon="5.77081">
        <ele>951.84</ele>
        <time>2012-04-09T08:05:13Z</time>
      </trkpt>
      <trkpt lat="45.86205" lon="5.77085">
        <ele>951.84</ele>
        <time>2012-04-09T08:05:15Z</time>
      </trkpt>
      <trkpt lat="45.86206" lon="5.7709">
        <ele>952.32</ele>
        <time>2012-04-09T08:05:17Z</time>
      </trkpt>
      <trkpt lat="45.86206" lon="5.77097">
        <ele>953.28</ele>
        <time>2012-04-09T08:05:19Z</time>
      </trkpt>
      <trkpt lat="45.86207" lon="5.77102">
        <ele>953.28</ele>
        <time>2012-04-09T08:05:21Z</time>
      </trkpt>
      <trkpt lat="45.86207" lon="5.77108">
        <ele>954.25</ele>
        <time>2012-04-09T08:05:23Z</time>
      </trkpt>
      <trkpt lat="45.86206" lon="5.77113">
        <ele>954.25</ele>
        <time>2012-04-09T08:05:25Z</time>
      </trkpt>
      <trkpt lat="45.86206" lon="5.77117">
        <ele>955.21</ele>
        <time>2012-04-09T08:05:27Z</time>
      </trkpt>
      <trkpt lat="45.86206" lon="5.77122">
        <ele>955.69</ele>
        <time>2012-04-09T08:05:29Z</time>
      </trkpt>
      <trkpt lat="45.86206" lon="5.77127">
        <ele>956.17</ele>
        <time>2012-04-09T08:05:31Z</time>
      </trkpt>
      <trkpt lat="45.86208" lon="5.77131">
        <ele>957.13</ele>
        <time>2012-04-09T08:05:33Z</time>
      </trkpt>
      <trkpt lat="45.86211" lon="5.77133">
        <ele>958.09</ele>
        <time>2012-04-09T08:05:35Z</time>
      </trkpt>
      <trkpt lat="45.86214" lon="5.77133">
        <ele>958.57</ele>
        <time>2012-04-09T08:05:37Z</time>
      </trkpt>
      <trkpt lat="45.86215" lon="5.77132">
        <ele>959.05</ele>
        <time>2012-04-09T08:05:39Z</time>
      </trkpt>
      <trkpt lat="45.86217" lon="5.7713">
        <ele>959.53</ele>
        <time>2012-04-09T08:05:41Z</time>
      </trkpt>
      <trkpt lat="45.86217" lon="5.77129">
        <ele>959.53</ele>
        <time>2012-04-09T08:05:43Z</time>
      </trkpt>
      <trkpt lat="45.86218" lon="5.77126">
        <ele>960.49</ele>
        <time>2012-04-09T08:05:45Z</time>
      </trkpt>
      <trkpt lat="45.86219" lon="5.77124">
        <ele>960.98</ele>
        <time>2012-04-09T08:05:47Z</time>
      </trkpt>
      <trkpt lat="45.86218" lon="5.77121">
        <ele>960.98</ele>
        <time>2012-04-09T08:05:49Z</time>
      </trkpt>
      <trkpt lat="45.86218" lon="5.77118">
        <ele>961.46</ele>
        <time>2012-04-09T08:05:51Z</time>
      </trkpt>
      <trkpt lat="45.86217" lon="5.77114">
        <ele>961.46</ele>
        <time>2012-04-09T08:05:53Z</time>
      </trkpt>
      <trkpt lat="45.86218" lon="5.77111">
        <ele>961.94</ele>
        <time>2012-04-09T08:05:55Z</time>
      </trkpt>
      <trkpt lat="45.86218" lon="5.77106">
        <ele>962.42</ele>
        <time>2012-04-09T08:05:57Z</time>
      </trkpt>
      <trkpt lat="45.86219" lon="5.77101">
        <ele>962.9</ele>
        <time>2012-04-09T08:05:59Z</time>
      </trkpt>
      <trkpt lat="45.86219" lon="5.77095">
        <ele>962.9</ele>
        <time>2012-04-09T08:06:01Z</time>
      </trkpt>
      <trkpt lat="45.8622" lon="5.77088">
        <ele>962.9</ele>
        <time>2012-04-09T08:06:03Z</time>
      </trkpt>
      <trkpt lat="45.8622" lon="5.77082">
        <ele>963.38</ele>
        <time>2012-04-09T08:06:05Z</time>
      </trkpt>
      <trkpt lat="45.8622" lon="5.77078">
        <ele>964.34</ele>
        <time>2012-04-09T08:06:07Z</time>
      </trkpt>
      <trkpt lat="45.86219" lon="5.77074">
        <ele>964.82</ele>
        <time>2012-04-09T08:06:09Z</time>
      </trkpt>
      <trkpt lat="45.86219" lon="5.77069">
        <ele>964.82</ele>
        <time>2012-04-09T08:06:11Z</time>
      </trkpt>
      <trkpt lat="45.8622" lon="5.77065">
        <ele>965.3</ele>
        <time>2012-04-09T08:06:13Z</time>
      </trkpt>
      <trkpt lat="45.8622" lon="5.7706">
        <ele>965.78</ele>
        <time>2012-04-09T08:06:15Z</time>
      </trkpt>
      <trkpt lat="45.86222" lon="5.77055">
        <ele>966.74</ele>
        <time>2012-04-09T08:06:17Z</time>
      </trkpt>
      <trkpt lat="45.86223" lon="5.77049">
        <ele>966.74</ele>
        <time>2012-04-09T08:06:19Z</time>
      </trkpt>
      <trkpt lat="45.86224" lon="5.77046">
        <ele>967.22</ele>
        <time>2012-04-09T08:06:21Z</time>
      </trkpt>
      <trkpt lat="45.86226" lon="5.77041">
        <ele>967.22</ele>
        <time>2012-04-09T08:06:23Z</time>
      </trkpt>
      <trkpt lat="45.86227" lon="5.77038">
        <ele>967.7</ele>
        <time>2012-04-09T08:06:25Z</time>
      </trkpt>
      <trkpt lat="45.86228" lon="5.77035">
        <ele>968.67</ele>
        <time>2012-04-09T08:06:27Z</time>
      </trkpt>
      <trkpt lat="45.8623" lon="5.77031">
        <ele>968.67</ele>
        <time>2012-04-09T08:06:29Z</time>
      </trkpt>
      <trkpt lat="45.86231" lon="5.77027">
        <ele>969.15</ele>
        <time>2012-04-09T08:06:31Z</time>
      </trkpt>
      <trkpt lat="45.86232" lon="5.77024">
        <ele>969.15</ele>
        <time>2012-04-09T08:06:33Z</time>
      </trkpt>
      <trkpt lat="45.86234" lon="5.77019">
        <ele>969.63</ele>
        <time>2012-04-09T08:06:35Z</time>
      </trkpt>
      <trkpt lat="45.86235" lon="5.77015">
        <ele>970.11</ele>
        <time>2012-04-09T08:06:37Z</time>
      </trkpt>
      <trkpt lat="45.86236" lon="5.7701">
        <ele>970.59</ele>
        <time>2012-04-09T08:06:39Z</time>
      </trkpt>
      <trkpt lat="45.86238" lon="5.77005">
        <ele>971.07</ele>
        <time>2012-04-09T08:06:41Z</time>
      </trkpt>
      <trkpt lat="45.86239" lon="5.76999">
        <ele>971.55</ele>
        <time>2012-04-09T08:06:43Z</time>
      </trkpt>
      <trkpt lat="45.86241" lon="5.76995">
        <ele>972.03</ele>
        <time>2012-04-09T08:06:45Z</time>
      </trkpt>
      <trkpt lat="45.86241" lon="5.76991">
        <ele>972.51</ele>
        <time>2012-04-09T08:06:47Z</time>
      </trkpt>
      <trkpt lat="45.86243" lon="5.76987">
        <ele>972.99</ele>
        <time>2012-04-09T08:06:49Z</time>
      </trkpt>
      <trkpt lat="45.86244" lon="5.76984">
        <ele>973.47</ele>
        <time>2012-04-09T08:06:51Z</time>
      </trkpt>
      <trkpt lat="45.86244" lon="5.76981">
        <ele>973.95</ele>
        <time>2012-04-09T08:06:53Z</time>
      </trkpt>
      <trkpt lat="45.86245" lon="5.76978">
        <ele>974.43</ele>
        <time>2012-04-09T08:06:55Z</time>
      </trkpt>
      <trkpt lat="45.86245" lon="5.76976">
        <ele>974.91</ele>
        <time>2012-04-09T08:06:57Z</time>
      </trkpt>
      <trkpt lat="45.86246" lon="5.76971">
        <ele>975.39</ele>
        <time>2012-04-09T08:06:59Z</time>
      </trkpt>
      <trkpt lat="45.86246" lon="5.76967">
        <ele>975.39</ele>
        <time>2012-04-09T08:07:01Z</time>
      </trkpt>
      <trkpt lat="45.86246" lon="5.76963">
        <ele>975.39</ele>
        <time>2012-04-09T08:07:03Z</time>
      </trkpt>
      <trkpt lat="45.86246" lon="5.76958">
        <ele>976.36</ele>
        <time>2012-04-09T08:07:05Z</time>
      </trkpt>
      <trkpt lat="45.86247" lon="5.76954">
        <ele>976.84</ele>
        <time>2012-04-09T08:07:07Z</time>
      </trkpt>
      <trkpt lat="45.86248" lon="5.76949">
        <ele>977.32</ele>
        <time>2012-04-09T08:07:09Z</time>
      </trkpt>
      <trkpt lat="45.86249" lon="5.76944">
        <ele>977.32</ele>
        <time>2012-04-09T08:07:11Z</time>
      </trkpt>
      <trkpt lat="45.86249" lon="5.76939">
        <ele>978.28</ele>
        <time>2012-04-09T08:07:13Z</time>
      </trkpt>
      <trkpt lat="45.8625" lon="5.76934">
        <ele>977.8</ele>
        <time>2012-04-09T08:07:15Z</time>
      </trkpt>
      <trkpt lat="45.86251" lon="5.76931">
        <ele>978.76</ele>
        <time>2012-04-09T08:07:17Z</time>
      </trkpt>
      <trkpt lat="45.86251" lon="5.7693">
        <ele>978.76</ele>
        <time>2012-04-09T08:07:19Z</time>
      </trkpt>
      <trkpt lat="45.86252" lon="5.76925">
        <ele>979.24</ele>
        <time>2012-04-09T08:07:21Z</time>
      </trkpt>
      <trkpt lat="45.86254" lon="5.7692">
        <ele>979.72</ele>
        <time>2012-04-09T08:07:23Z</time>
      </trkpt>
      <trkpt lat="45.86254" lon="5.76915">
        <ele>979.72</ele>
        <time>2012-04-09T08:07:25Z</time>
      </trkpt>
      <trkpt lat="45.86256" lon="5.7691">
        <ele>980.68</ele>
        <time>2012-04-09T08:07:27Z</time>
      </trkpt>
      <trkpt lat="45.86257" lon="5.76906">
        <ele>981.16</ele>
        <time>2012-04-09T08:07:29Z</time>
      </trkpt>
      <trkpt lat="45.86256" lon="5.76902">
        <ele>981.16</ele>
        <time>2012-04-09T08:07:31Z</time>
      </trkpt>
      <trkpt lat="45.86256" lon="5.76895">
        <ele>982.12</ele>
        <time>2012-04-09T08:07:33Z</time>
      </trkpt>
      <trkpt lat="45.86256" lon="5.7689">
        <ele>982.12</ele>
        <time>2012-04-09T08:07:35Z</time>
      </trkpt>
      <trkpt lat="45.86257" lon="5.76886">
        <ele>982.6</ele>
        <time>2012-04-09T08:07:37Z</time>
      </trkpt>
      <trkpt lat="45.8626" lon="5.76883">
        <ele>983.09</ele>
        <time>2012-04-09T08:07:39Z</time>
      </trkpt>
      <trkpt lat="45.86261" lon="5.7688">
        <ele>983.09</ele>
        <time>2012-04-09T08:07:41Z</time>
      </trkpt>
      <trkpt lat="45.86262" lon="5.76876">
        <ele>983.57</ele>
        <time>2012-04-09T08:07:43Z</time>
      </trkpt>
      <trkpt lat="45.86262" lon="5.76871">
        <ele>984.05</ele>
        <time>2012-04-09T08:07:45Z</time>
      </trkpt>
      <trkpt lat="45.86263" lon="5.76867">
        <ele>984.05</ele>
        <time>2012-04-09T08:07:47Z</time>
      </trkpt>
      <trkpt lat="45.86264" lon="5.76862">
        <ele>985.01</ele>
        <time>2012-04-09T08:07:49Z</time>
      </trkpt>
      <trkpt lat="45.86265" lon="5.76858">
        <ele>985.49</ele>
        <time>2012-04-09T08:07:51Z</time>
      </trkpt>
      <trkpt lat="45.86267" lon="5.76853">
        <ele>985.97</ele>
        <time>2012-04-09T08:07:53Z</time>
      </trkpt>
      <trkpt lat="45.86268" lon="5.76849">
        <ele>986.45</ele>
        <time>2012-04-09T08:07:55Z</time>
      </trkpt>
      <trkpt lat="45.86269" lon="5.76844">
        <ele>986.45</ele>
        <time>2012-04-09T08:07:57Z</time>
      </trkpt>
      <trkpt lat="45.8627" lon="5.76841">
        <ele>987.41</ele>
        <time>2012-04-09T08:07:59Z</time>
      </trkpt>
      <trkpt lat="45.86272" lon="5.76836">
        <ele>987.89</ele>
        <time>2012-04-09T08:08:01Z</time>
      </trkpt>
      <trkpt lat="45.86274" lon="5.76834">
        <ele>988.37</ele>
        <time>2012-04-09T08:08:03Z</time>
      </trkpt>
      <trkpt lat="45.86278" lon="5.7683">
        <ele>988.85</ele>
        <time>2012-04-09T08:08:05Z</time>
      </trkpt>
      <trkpt lat="45.86281" lon="5.7683">
        <ele>989.81</ele>
        <time>2012-04-09T08:08:07Z</time>
      </trkpt>
      <trkpt lat="45.86282" lon="5.76829">
        <ele>990.3</ele>
        <time>2012-04-09T08:08:09Z</time>
      </trkpt>
      <trkpt lat="45.86283" lon="5.76827">
        <ele>990.78</ele>
        <time>2012-04-09T08:08:11Z</time>
      </trkpt>
      <trkpt lat="45.86283" lon="5.76828">
        <ele>991.26</ele>
        <time>2012-04-09T08:08:13Z</time>
      </trkpt>
      <trkpt lat="45.86282" lon="5.7683">
        <ele>991.26</ele>
        <time>2012-04-09T08:08:15Z</time>
      </trkpt>
      <trkpt lat="45.86281" lon="5.76833">
        <ele>991.74</ele>
        <time>2012-04-09T08:08:17Z</time>
      </trkpt>
      <trkpt lat="45.8628" lon="5.76836">
        <ele>992.22</ele>
        <time>2012-04-09T08:08:19Z</time>
      </trkpt>
      <trkpt lat="45.86279" lon="5.7684">
        <ele>992.7</ele>
        <time>2012-04-09T08:08:21Z</time>
      </trkpt>
      <trkpt lat="45.86278" lon="5.76844">
        <ele>993.18</ele>
        <time>2012-04-09T08:08:23Z</time>
      </trkpt>
      <trkpt lat="45.86277" lon="5.76847">
        <ele>993.18</ele>
        <time>2012-04-09T08:08:25Z</time>
      </trkpt>
      <trkpt lat="45.86276" lon="5.76852">
        <ele>994.14</ele>
        <time>2012-04-09T08:08:27Z</time>
      </trkpt>
      <trkpt lat="45.86274" lon="5.76856">
        <ele>994.62</ele>
        <time>2012-04-09T08:08:29Z</time>
      </trkpt>
      <trkpt lat="45.86272" lon="5.76862">
        <ele>995.1</ele>
        <time>2012-04-09T08:08:31Z</time>
      </trkpt>
      <trkpt lat="45.86274" lon="5.76867">
        <ele>995.58</ele>
        <time>2012-04-09T08:08:33Z</time>
      </trkpt>
      <trkpt lat="45.86274" lon="5.76872">
        <ele>995.58</ele>
        <time>2012-04-09T08:08:35Z</time>
      </trkpt>
      <trkpt lat="45.86275" lon="5.76877">
        <ele>996.06</ele>
        <time>2012-04-09T08:08:37Z</time>
      </trkpt>
      <trkpt lat="45.86274" lon="5.76883">
        <ele>996.54</ele>
        <time>2012-04-09T08:08:39Z</time>
      </trkpt>
      <trkpt lat="45.86272" lon="5.76888">
        <ele>997.51</ele>
        <time>2012-04-09T08:08:41Z</time>
      </trkpt>
      <trkpt lat="45.86271" lon="5.76892">
        <ele>997.51</ele>
        <time>2012-04-09T08:08:43Z</time>
      </trkpt>
      <trkpt lat="45.86271" lon="5.76892">
        <ele>997.99</ele>
        <time>2012-04-09T08:08:45Z</time>
      </trkpt>
      <trkpt lat="45.86271" lon="5.76892">
        <ele>997.51</ele>
        <time>2012-04-09T08:08:47Z</time>
      </trkpt>
      <trkpt lat="45.86271" lon="5.76892">
        <ele>997.51</ele>
        <time>2012-04-09T08:08:49Z</time>
      </trkpt>
      <trkpt lat="45.86271" lon="5.76895">
        <ele>998.47</ele>
        <time>2012-04-09T08:08:51Z</time>
      </trkpt>
      <trkpt lat="45.86271" lon="5.76898">
        <ele>998.47</ele>
        <time>2012-04-09T08:08:53Z</time>
      </trkpt>
      <trkpt lat="45.8627" lon="5.76902">
        <ele>998.47</ele>
        <time>2012-04-09T08:08:55Z</time>
      </trkpt>
      <trkpt lat="45.86271" lon="5.76907">
        <ele>998.95</ele>
        <time>2012-04-09T08:08:57Z</time>
      </trkpt>
      <trkpt lat="45.86272" lon="5.76911">
        <ele>998.95</ele>
        <time>2012-04-09T08:08:59Z</time>
      </trkpt>
      <trkpt lat="45.86272" lon="5.76915">
        <ele>999.43</ele>
        <time>2012-04-09T08:09:01Z</time>
      </trkpt>
      <trkpt lat="45.86274" lon="5.76919">
        <ele>999.43</ele>
        <time>2012-04-09T08:09:03Z</time>
      </trkpt>
      <trkpt lat="45.86275" lon="5.76922">
        <ele>1000.39</ele>
        <time>2012-04-09T08:09:05Z</time>
      </trkpt>
      <trkpt lat="45.86274" lon="5.76926">
        <ele>1000.87</ele>
        <time>2012-04-09T08:09:07Z</time>
      </trkpt>
      <trkpt lat="45.86274" lon="5.76928">
        <ele>1001.35</ele>
        <time>2012-04-09T08:09:08Z</time>
      </trkpt>
      <trkpt lat="45.86274" lon="5.76933">
        <ele>1001.83</ele>
        <time>2012-04-09T08:09:10Z</time>
      </trkpt>
      <trkpt lat="45.86275" lon="5.76938">
        <ele>1001.83</ele>
        <time>2012-04-09T08:09:12Z</time>
      </trkpt>
      <trkpt lat="45.86274" lon="5.76944">
        <ele>1002.31</ele>
        <time>2012-04-09T08:09:14Z</time>
      </trkpt>
      <trkpt lat="45.86276" lon="5.76951">
        <ele>1003.27</ele>
        <time>2012-04-09T08:09:16Z</time>
      </trkpt>
      <trkpt lat="45.86279" lon="5.76953">
        <ele>1004.23</ele>
        <time>2012-04-09T08:09:18Z</time>
      </trkpt>
      <trkpt lat="45.8628" lon="5.76953">
        <ele>1004.72</ele>
        <time>2012-04-09T08:09:20Z</time>
      </trkpt>
      <trkpt lat="45.86279" lon="5.76954">
        <ele>1005.2</ele>
        <time>2012-04-09T08:09:22Z</time>
      </trkpt>
      <trkpt lat="45.86279" lon="5.76955">
        <ele>1006.16</ele>
        <time>2012-04-09T08:09:24Z</time>
      </trkpt>
      <trkpt lat="45.86281" lon="5.76953">
        <ele>1006.16</ele>
        <time>2012-04-09T08:09:26Z</time>
      </trkpt>
      <trkpt lat="45.86282" lon="5.76951">
        <ele>1006.64</ele>
        <time>2012-04-09T08:09:28Z</time>
      </trkpt>
      <trkpt lat="45.86283" lon="5.76947">
        <ele>1007.12</ele>
        <time>2012-04-09T08:09:30Z</time>
      </trkpt>
      <trkpt lat="45.86285" lon="5.76943">
        <ele>1007.12</ele>
        <time>2012-04-09T08:09:32Z</time>
      </trkpt>
      <trkpt lat="45.86285" lon="5.76938">
        <ele>1007.6</ele>
        <time>2012-04-09T08:09:34Z</time>
      </trkpt>
      <trkpt lat="45.86285" lon="5.76934">
        <ele>1008.08</ele>
        <time>2012-04-09T08:09:36Z</time>
      </trkpt>
      <trkpt lat="45.86286" lon="5.76929">
        <ele>1009.04</ele>
        <time>2012-04-09T08:09:38Z</time>
      </trkpt>
      <trkpt lat="45.86287" lon="5.76925">
        <ele>1009.52</ele>
        <time>2012-04-09T08:09:40Z</time>
      </trkpt>
      <trkpt lat="45.86288" lon="5.76921">
        <ele>1009.52</ele>
        <time>2012-04-09T08:09:42Z</time>
      </trkpt>
      <trkpt lat="45.86289" lon="5.76917">
        <ele>1010.48</ele>
        <time>2012-04-09T08:09:44Z</time>
      </trkpt>
      <trkpt lat="45.8629" lon="5.76913">
        <ele>1010.96</ele>
        <time>2012-04-09T08:09:46Z</time>
      </trkpt>
      <trkpt lat="45.86291" lon="5.76909">
        <ele>1010.48</ele>
        <time>2012-04-09T08:09:48Z</time>
      </trkpt>
      <trkpt lat="45.86293" lon="5.76905">
        <ele>1011.44</ele>
        <time>2012-04-09T08:09:50Z</time>
      </trkpt>
      <trkpt lat="45.86294" lon="5.769">
        <ele>1011.93</ele>
        <time>2012-04-09T08:09:52Z</time>
      </trkpt>
      <trkpt lat="45.86295" lon="5.76894">
        <ele>1012.41</ele>
        <time>2012-04-09T08:09:54Z</time>
      </trkpt>
      <trkpt lat="45.86296" lon="5.7689">
        <ele>1012.89</ele>
        <time>2012-04-09T08:09:56Z</time>
      </trkpt>
      <trkpt lat="45.86297" lon="5.76885">
        <ele>1013.37</ele>
        <time>2012-04-09T08:09:58Z</time>
      </trkpt>
      <trkpt lat="45.86298" lon="5.7688">
        <ele>1013.37</ele>
        <time>2012-04-09T08:10:00Z</time>
      </trkpt>
      <trkpt lat="45.863" lon="5.76876">
        <ele>1014.33</ele>
        <time>2012-04-09T08:10:02Z</time>
      </trkpt>
      <trkpt lat="45.86301" lon="5.76873">
        <ele>1014.81</ele>
        <time>2012-04-09T08:10:04Z</time>
      </trkpt>
      <trkpt lat="45.86302" lon="5.7687">
        <ele>1014.81</ele>
        <time>2012-04-09T08:10:06Z</time>
      </trkpt>
      <trkpt lat="45.86305" lon="5.76867">
        <ele>1015.77</ele>
        <time>2012-04-09T08:10:08Z</time>
      </trkpt>
      <trkpt lat="45.86308" lon="5.76866">
        <ele>1016.73</ele>
        <time>2012-04-09T08:10:10Z</time>
      </trkpt>
      <trkpt lat="45.86309" lon="5.76867">
        <ele>1016.73</ele>
        <time>2012-04-09T08:10:12Z</time>
      </trkpt>
      <trkpt lat="45.86309" lon="5.76868">
        <ele>1017.21</ele>
        <time>2012-04-09T08:10:14Z</time>
      </trkpt>
      <trkpt lat="45.86309" lon="5.76868">
        <ele>1017.69</ele>
        <time>2012-04-09T08:10:16Z</time>
      </trkpt>
      <trkpt lat="45.8631" lon="5.7687">
        <ele>1018.17</ele>
        <time>2012-04-09T08:10:18Z</time>
      </trkpt>
      <trkpt lat="45.86309" lon="5.76873">
        <ele>1018.65</ele>
        <time>2012-04-09T08:10:20Z</time>
      </trkpt>
      <trkpt lat="45.86309" lon="5.76875">
        <ele>1019.13</ele>
        <time>2012-04-09T08:10:22Z</time>
      </trkpt>
      <trkpt lat="45.86308" lon="5.76877">
        <ele>1020.1</ele>
        <time>2012-04-09T08:10:24Z</time>
      </trkpt>
      <trkpt lat="45.86309" lon="5.7688">
        <ele>1020.1</ele>
        <time>2012-04-09T08:10:26Z</time>
      </trkpt>
      <trkpt lat="45.86309" lon="5.76882">
        <ele>1020.58</ele>
        <time>2012-04-09T08:10:28Z</time>
      </trkpt>
      <trkpt lat="45.86309" lon="5.76884">
        <ele>1021.06</ele>
        <time>2012-04-09T08:10:30Z</time>
      </trkpt>
      <trkpt lat="45.86309" lon="5.76888">
        <ele>1021.54</ele>
        <time>2012-04-09T08:10:32Z</time>
      </trkpt>
      <trkpt lat="45.86309" lon="5.76891">
        <ele>1022.5</ele>
        <time>2012-04-09T08:10:34Z</time>
      </trkpt>
      <trkpt lat="45.86309" lon="5.76894">
        <ele>1022.5</ele>
        <time>2012-04-09T08:10:36Z</time>
      </trkpt>
      <trkpt lat="45.86309" lon="5.76898">
        <ele>1022.98</ele>
        <time>2012-04-09T08:10:38Z</time>
      </trkpt>
      <trkpt lat="45.86308" lon="5.76902">
        <ele>1023.94</ele>
        <time>2012-04-09T08:10:40Z</time>
      </trkpt>
      <trkpt lat="45.86308" lon="5.76906">
        <ele>1023.94</ele>
        <time>2012-04-09T08:10:42Z</time>
      </trkpt>
      <trkpt lat="45.86308" lon="5.7691">
        <ele>1024.9</ele>
        <time>2012-04-09T08:10:44Z</time>
      </trkpt>
      <trkpt lat="45.86308" lon="5.76914">
        <ele>1025.38</ele>
        <time>2012-04-09T08:10:46Z</time>
      </trkpt>
      <trkpt lat="45.8631" lon="5.76916">
        <ele>1026.34</ele>
        <time>2012-04-09T08:10:48Z</time>
      </trkpt>
      <trkpt lat="45.86311" lon="5.76916">
        <ele>1026.83</ele>
        <time>2012-04-09T08:10:50Z</time>
      </trkpt>
      <trkpt lat="45.86311" lon="5.76915">
        <ele>1027.31</ele>
        <time>2012-04-09T08:10:52Z</time>
      </trkpt>
      <trkpt lat="45.86312" lon="5.76915">
        <ele>1027.79</ele>
        <time>2012-04-09T08:10:54Z</time>
      </trkpt>
      <trkpt lat="45.86312" lon="5.76914">
        <ele>1028.27</ele>
        <time>2012-04-09T08:10:56Z</time>
      </trkpt>
      <trkpt lat="45.86312" lon="5.76911">
        <ele>1028.27</ele>
        <time>2012-04-09T08:10:58Z</time>
      </trkpt>
      <trkpt lat="45.86312" lon="5.76909">
        <ele>1028.75</ele>
        <time>2012-04-09T08:11:00Z</time>
      </trkpt>
      <trkpt lat="45.86312" lon="5.76906">
        <ele>1028.75</ele>
        <time>2012-04-09T08:11:02Z</time>
      </trkpt>
      <trkpt lat="45.86312" lon="5.76902">
        <ele>1029.23</ele>
        <time>2012-04-09T08:11:04Z</time>
      </trkpt>
      <trkpt lat="45.86312" lon="5.76899">
        <ele>1029.71</ele>
        <time>2012-04-09T08:11:06Z</time>
      </trkpt>
      <trkpt lat="45.86312" lon="5.76897">
        <ele>1030.19</ele>
        <time>2012-04-09T08:11:08Z</time>
      </trkpt>
      <trkpt lat="45.86314" lon="5.76894">
        <ele>1030.19</ele>
        <time>2012-04-09T08:11:10Z</time>
      </trkpt>
      <trkpt lat="45.86315" lon="5.7689">
        <ele>1030.67</ele>
        <time>2012-04-09T08:11:12Z</time>
      </trkpt>
      <trkpt lat="45.86317" lon="5.76885">
        <ele>1031.63</ele>
        <time>2012-04-09T08:11:14Z</time>
      </trkpt>
      <trkpt lat="45.86319" lon="5.76881">
        <ele>1031.63</ele>
        <time>2012-04-09T08:11:16Z</time>
      </trkpt>
      <trkpt lat="45.8632" lon="5.76876">
        <ele>1032.11</ele>
        <time>2012-04-09T08:11:18Z</time>
      </trkpt>
      <trkpt lat="45.86323" lon="5.76873">
        <ele>1033.07</ele>
        <time>2012-04-09T08:11:20Z</time>
      </trkpt>
      <trkpt lat="45.86326" lon="5.7687">
        <ele>1033.55</ele>
        <time>2012-04-09T08:11:22Z</time>
      </trkpt>
      <trkpt lat="45.8633" lon="5.76868">
        <ele>1034.52</ele>
        <time>2012-04-09T08:11:24Z</time>
      </trkpt>
      <trkpt lat="45.86332" lon="5.7687">
        <ele>1035.48</ele>
        <time>2012-04-09T08:11:26Z</time>
      </trkpt>
      <trkpt lat="45.86332" lon="5.76871">
        <ele>1035.96</ele>
        <time>2012-04-09T08:11:28Z</time>
      </trkpt>
      <trkpt lat="45.86331" lon="5.76873">
        <ele>1036.44</ele>
        <time>2012-04-09T08:11:30Z</time>
      </trkpt>
      <trkpt lat="45.8633" lon="5.76875">
        <ele>1036.92</ele>
        <time>2012-04-09T08:11:32Z</time>
      </trkpt>
      <trkpt lat="45.86329" lon="5.76876">
        <ele>1037.4</ele>
        <time>2012-04-09T08:11:34Z</time>
      </trkpt>
      <trkpt lat="45.86328" lon="5.76878">
        <ele>1037.4</ele>
        <time>2012-04-09T08:11:36Z</time>
      </trkpt>
      <trkpt lat="45.86326" lon="5.76882">
        <ele>1037.4</ele>
        <time>2012-04-09T08:11:38Z</time>
      </trkpt>
      <trkpt lat="45.86326" lon="5.76886">
        <ele>1038.36</ele>
        <time>2012-04-09T08:11:40Z</time>
      </trkpt>
      <trkpt lat="45.86327" lon="5.7689">
        <ele>1038.36</ele>
        <time>2012-04-09T08:11:42Z</time>
      </trkpt>
      <trkpt lat="45.86326" lon="5.76895">
        <ele>1038.84</ele>
        <time>2012-04-09T08:11:44Z</time>
      </trkpt>
      <trkpt lat="45.86325" lon="5.769">
        <ele>1039.32</ele>
        <time>2012-04-09T08:11:46Z</time>
      </trkpt>
      <trkpt lat="45.86324" lon="5.76904">
        <ele>1039.8</ele>
        <time>2012-04-09T08:11:48Z</time>
      </trkpt>
      <trkpt lat="45.86324" lon="5.76908">
        <ele>1040.28</ele>
        <time>2012-04-09T08:11:50Z</time>
      </trkpt>
      <trkpt lat="45.86324" lon="5.76913">
        <ele>1040.76</ele>
        <time>2012-04-09T08:11:52Z</time>
      </trkpt>
      <trkpt lat="45.86322" lon="5.76916">
        <ele>1041.25</ele>
        <time>2012-04-09T08:11:54Z</time>
      </trkpt>
      <trkpt lat="45.86322" lon="5.76919">
        <ele>1041.73</ele>
        <time>2012-04-09T08:11:56Z</time>
      </trkpt>
      <trkpt lat="45.86321" lon="5.76923">
        <ele>1042.21</ele>
        <time>2012-04-09T08:11:58Z</time>
      </trkpt>
      <trkpt lat="45.8632" lon="5.76927">
        <ele>1042.21</ele>
        <time>2012-04-09T08:12:00Z</time>
      </trkpt>
      <trkpt lat="45.8632" lon="5.76933">
        <ele>1043.17</ele>
        <time>2012-04-09T08:12:02Z</time>
      </trkpt>
      <trkpt lat="45.8632" lon="5.76938">
        <ele>1044.13</ele>
        <time>2012-04-09T08:12:04Z</time>
      </trkpt>
      <trkpt lat="45.8632" lon="5.76942">
        <ele>1044.13</ele>
        <time>2012-04-09T08:12:06Z</time>
      </trkpt>
      <trkpt lat="45.8632" lon="5.76947">
        <ele>1044.61</ele>
        <time>2012-04-09T08:12:08Z</time>
      </trkpt>
      <trkpt lat="45.86321" lon="5.76953">
        <ele>1045.09</ele>
        <time>2012-04-09T08:12:10Z</time>
      </trkpt>
      <trkpt lat="45.86321" lon="5.7696">
        <ele>1045.57</ele>
        <time>2012-04-09T08:12:12Z</time>
      </trkpt>
      <trkpt lat="45.86322" lon="5.76966">
        <ele>1046.05</ele>
        <time>2012-04-09T08:12:14Z</time>
      </trkpt>
      <trkpt lat="45.86324" lon="5.76974">
        <ele>1046.53</ele>
        <time>2012-04-09T08:12:16Z</time>
      </trkpt>
      <trkpt lat="45.86324" lon="5.76978">
        <ele>1046.53</ele>
        <time>2012-04-09T08:12:18Z</time>
      </trkpt>
      <trkpt lat="45.86321" lon="5.76983">
        <ele>1047.01</ele>
        <time>2012-04-09T08:12:20Z</time>
      </trkpt>
      <trkpt lat="45.86322" lon="5.76989">
        <ele>1047.49</ele>
        <time>2012-04-09T08:12:22Z</time>
      </trkpt>
      <trkpt lat="45.86323" lon="5.76994">
        <ele>1047.97</ele>
        <time>2012-04-09T08:12:24Z</time>
      </trkpt>
      <trkpt lat="45.86323" lon="5.76999">
        <ele>1048.45</ele>
        <time>2012-04-09T08:12:26Z</time>
      </trkpt>
      <trkpt lat="45.86323" lon="5.77002">
        <ele>1048.94</ele>
        <time>2012-04-09T08:12:28Z</time>
      </trkpt>
      <trkpt lat="45.86322" lon="5.77006">
        <ele>1049.42</ele>
        <time>2012-04-09T08:12:30Z</time>
      </trkpt>
      <trkpt lat="45.86321" lon="5.7701">
        <ele>1049.42</ele>
        <time>2012-04-09T08:12:32Z</time>
      </trkpt>
      <trkpt lat="45.86321" lon="5.77014">
        <ele>1049.9</ele>
        <time>2012-04-09T08:12:34Z</time>
      </trkpt>
      <trkpt lat="45.86321" lon="5.77019">
        <ele>1050.38</ele>
        <time>2012-04-09T08:12:36Z</time>
      </trkpt>
      <trkpt lat="45.86321" lon="5.77021">
        <ele>1050.38</ele>
        <time>2012-04-09T08:12:38Z</time>
      </trkpt>
      <trkpt lat="45.86322" lon="5.77022">
        <ele>1051.34</ele>
        <time>2012-04-09T08:12:40Z</time>
      </trkpt>
      <trkpt lat="45.86322" lon="5.77024">
        <ele>1051.82</ele>
        <time>2012-04-09T08:12:42Z</time>
      </trkpt>
      <trkpt lat="45.86322" lon="5.77028">
        <ele>1052.3</ele>
        <time>2012-04-09T08:12:44Z</time>
      </trkpt>
      <trkpt lat="45.86321" lon="5.77032">
        <ele>1052.78</ele>
        <time>2012-04-09T08:12:46Z</time>
      </trkpt>
      <trkpt lat="45.86319" lon="5.77034">
        <ele>1052.78</ele>
        <time>2012-04-09T08:12:48Z</time>
      </trkpt>
      <trkpt lat="45.86317" lon="5.77037">
        <ele>1053.74</ele>
        <time>2012-04-09T08:12:50Z</time>
      </trkpt>
      <trkpt lat="45.86316" lon="5.7704">
        <ele>1054.22</ele>
        <time>2012-04-09T08:12:52Z</time>
      </trkpt>
      <trkpt lat="45.86314" lon="5.77043">
        <ele>1054.7</ele>
        <time>2012-04-09T08:12:54Z</time>
      </trkpt>
      <trkpt lat="45.86312" lon="5.77044">
        <ele>1055.18</ele>
        <time>2012-04-09T08:12:56Z</time>
      </trkpt>
      <trkpt lat="45.86311" lon="5.77044">
        <ele>1055.67</ele>
        <time>2012-04-09T08:12:58Z</time>
      </trkpt>
      <trkpt lat="45.86307" lon="5.77048">
        <ele>1056.15</ele>
        <time>2012-04-09T08:13:00Z</time>
      </trkpt>
      <trkpt lat="45.86305" lon="5.77052">
        <ele>1056.63</ele>
        <time>2012-04-09T08:13:02Z</time>
      </trkpt>
      <trkpt lat="45.86303" lon="5.77053">
        <ele>1056.63</ele>
        <time>2012-04-09T08:13:04Z</time>
      </trkpt>
      <trkpt lat="45.86303" lon="5.77054">
        <ele>1057.59</ele>
        <time>2012-04-09T08:13:06Z</time>
      </trkpt>
      <trkpt lat="45.86302" lon="5.77055">
        <ele>1057.11</ele>
        <time>2012-04-09T08:13:08Z</time>
      </trkpt>
      <trkpt lat="45.86302" lon="5.77055">
        <ele>1057.59</ele>
        <time>2012-04-09T08:13:10Z</time>
      </trkpt>
      <trkpt lat="45.86302" lon="5.77055">
        <ele>1057.59</ele>
        <time>2012-04-09T08:13:12Z</time>
      </trkpt>
      <trkpt lat="45.86302" lon="5.77055">
        <ele>1057.59</ele>
        <time>2012-04-09T08:13:14Z</time>
      </trkpt>
      <trkpt lat="45.86302" lon="5.77055">
        <ele>1057.59</ele>
        <time>2012-04-09T08:13:16Z</time>
      </trkpt>
      <trkpt lat="45.86302" lon="5.77055">
        <ele>1057.59</ele>
        <time>2012-04-09T08:13:18Z</time>
      </trkpt>
      <trkpt lat="45.86302" lon="5.77055">
        <ele>1057.11</ele>
        <time>2012-04-09T08:13:20Z</time>
      </trkpt>
      <trkpt lat="45.86302" lon="5.77055">
        <ele>1057.11</ele>
        <time>2012-04-09T08:13:22Z</time>
      </trkpt>
      <trkpt lat="45.86302" lon="5.77055">
        <ele>1058.07</ele>
        <time>2012-04-09T08:13:24Z</time>
      </trkpt>
      <trkpt lat="45.86302" lon="5.77055">
        <ele>1057.59</ele>
        <time>2012-04-09T08:13:26Z</time>
      </trkpt>
      <trkpt lat="45.86302" lon="5.77055">
        <ele>1057.59</ele>
        <time>2012-04-09T08:13:28Z</time>
      </trkpt>
      <trkpt lat="45.86302" lon="5.77055">
        <ele>1057.59</ele>
        <time>2012-04-09T08:13:30Z</time>
      </trkpt>
      <trkpt lat="45.86302" lon="5.77055">
        <ele>1057.59</ele>
        <time>2012-04-09T08:13:32Z</time>
      </trkpt>
      <trkpt lat="45.86302" lon="5.77055">
        <ele>1058.07</ele>
        <time>2012-04-09T08:13:34Z</time>
      </trkpt>
      <trkpt lat="45.86302" lon="5.77055">
        <ele>1057.59</ele>
        <time>2012-04-09T08:13:36Z</time>
      </trkpt>
      <trkpt lat="45.86302" lon="5.77055">
        <ele>1058.07</ele>
        <time>2012-04-09T08:13:38Z</time>
      </trkpt>
      <trkpt lat="45.86302" lon="5.77055">
        <ele>1057.59</ele>
        <time>2012-04-09T08:13:40Z</time>
      </trkpt>
      <trkpt lat="45.86302" lon="5.77055">
        <ele>1057.59</ele>
        <time>2012-04-09T08:13:42Z</time>
      </trkpt>
      <trkpt lat="45.86302" lon="5.77055">
        <ele>1057.59</ele>
        <time>2012-04-09T08:13:44Z</time>
      </trkpt>
      <trkpt lat="45.86302" lon="5.77056">
        <ele>1057.59</ele>
        <time>2012-04-09T08:13:46Z</time>
      </trkpt>
      <trkpt lat="45.86302" lon="5.77056">
        <ele>1058.07</ele>
        <time>2012-04-09T08:13:48Z</time>
      </trkpt>
      <trkpt lat="45.86302" lon="5.77056">
        <ele>1058.55</ele>
        <time>2012-04-09T08:13:50Z</time>
      </trkpt>
      <trkpt lat="45.86302" lon="5.77056">
        <ele>1058.55</ele>
        <time>2012-04-09T08:13:52Z</time>
      </trkpt>
      <trkpt lat="45.86302" lon="5.77056">
        <ele>1058.07</ele>
        <time>2012-04-09T08:13:54Z</time>
      </trkpt>
      <trkpt lat="45.86302" lon="5.77056">
        <ele>1057.59</ele>
        <time>2012-04-09T08:13:56Z</time>
      </trkpt>
      <trkpt lat="45.86302" lon="5.77056">
        <ele>1058.07</ele>
        <time>2012-04-09T08:13:58Z</time>
      </trkpt>
      <trkpt lat="45.86302" lon="5.77056">
        <ele>1058.55</ele>
        <time>2012-04-09T08:14:00Z</time>
      </trkpt>
      <trkpt lat="45.86302" lon="5.77056">
        <ele>1058.07</ele>
        <time>2012-04-09T08:14:02Z</time>
      </trkpt>
      <trkpt lat="45.86302" lon="5.77056">
        <ele>1058.07</ele>
        <time>2012-04-09T08:14:04Z</time>
      </trkpt>
      <trkpt lat="45.86302" lon="5.77056">
        <ele>1058.07</ele>
        <time>2012-04-09T08:14:06Z</time>
      </trkpt>
      <trkpt lat="45.86302" lon="5.77056">
        <ele>1058.07</ele>
        <time>2012-04-09T08:14:08Z</time>
      </trkpt>
      <trkpt lat="45.86302" lon="5.77056">
        <ele>1058.55</ele>
        <time>2012-04-09T08:14:10Z</time>
      </trkpt>
      <trkpt lat="45.86302" lon="5.77056">
        <ele>1057.59</ele>
        <time>2012-04-09T08:14:12Z</time>
      </trkpt>
      <trkpt lat="45.86302" lon="5.77056">
        <ele>1058.07</ele>
        <time>2012-04-09T08:14:14Z</time>
      </trkpt>
      <trkpt lat="45.86302" lon="5.77056">
        <ele>1058.07</ele>
        <time>2012-04-09T08:14:16Z</time>
      </trkpt>
      <trkpt lat="45.86302" lon="5.77056">
        <ele>1058.07</ele>
        <time>2012-04-09T08:14:18Z</time>
      </trkpt>
      <trkpt lat="45.86302" lon="5.77056">
        <ele>1058.07</ele>
        <time>2012-04-09T08:14:20Z</time>
      </trkpt>
      <trkpt lat="45.86302" lon="5.77056">
        <ele>1058.07</ele>
        <time>2012-04-09T08:14:22Z</time>
      </trkpt>
      <trkpt lat="45.86302" lon="5.77056">
        <ele>1058.07</ele>
        <time>2012-04-09T08:14:24Z</time>
      </trkpt>
      <trkpt lat="45.86305" lon="5.77054">
        <ele>1058.07</ele>
        <time>2012-04-09T08:14:26Z</time>
      </trkpt>
      <trkpt lat="45.86305" lon="5.77054">
        <ele>1058.55</ele>
        <time>2012-04-09T08:14:28Z</time>
      </trkpt>
      <trkpt lat="45.86305" lon="5.77054">
        <ele>1058.07</ele>
        <time>2012-04-09T08:14:30Z</time>
      </trkpt>
      <trkpt lat="45.86305" lon="5.77054">
        <ele>1058.07</ele>
        <time>2012-04-09T08:14:32Z</time>
      </trkpt>
      <trkpt lat="45.86305" lon="5.77054">
        <ele>1058.55</ele>
        <time>2012-04-09T08:14:34Z</time>
      </trkpt>
      <trkpt lat="45.86305" lon="5.77054">
        <ele>1058.55</ele>
        <time>2012-04-09T08:14:36Z</time>
      </trkpt>
      <trkpt lat="45.86305" lon="5.77054">
        <ele>1058.07</ele>
        <time>2012-04-09T08:14:38Z</time>
      </trkpt>
      <trkpt lat="45.86305" lon="5.77054">
        <ele>1058.55</ele>
        <time>2012-04-09T08:14:40Z</time>
      </trkpt>
      <trkpt lat="45.86305" lon="5.77054">
        <ele>1058.07</ele>
        <time>2012-04-09T08:14:42Z</time>
      </trkpt>
      <trkpt lat="45.86305" lon="5.77054">
        <ele>1058.07</ele>
        <time>2012-04-09T08:14:44Z</time>
      </trkpt>
      <trkpt lat="45.86305" lon="5.77054">
        <ele>1058.07</ele>
        <time>2012-04-09T08:14:46Z</time>
      </trkpt>
      <trkpt lat="45.86305" lon="5.77054">
        <ele>1058.07</ele>
        <time>2012-04-09T08:14:48Z</time>
      </trkpt>
      <trkpt lat="45.86305" lon="5.77054">
        <ele>1058.07</ele>
        <time>2012-04-09T08:14:50Z</time>
      </trkpt>
      <trkpt lat="45.86305" lon="5.77054">
        <ele>1058.55</ele>
        <time>2012-04-09T08:14:52Z</time>
      </trkpt>
      <trkpt lat="45.86305" lon="5.77054">
        <ele>1058.07</ele>
        <time>2012-04-09T08:14:54Z</time>
      </trkpt>
      <trkpt lat="45.86305" lon="5.77054">
        <ele>1058.55</ele>
        <time>2012-04-09T08:14:56Z</time>
      </trkpt>
      <trkpt lat="45.86305" lon="5.77054">
        <ele>1058.07</ele>
        <time>2012-04-09T08:14:58Z</time>
      </trkpt>
      <trkpt lat="45.86308" lon="5.77054">
        <ele>1058.55</ele>
        <time>2012-04-09T08:15:00Z</time>
      </trkpt>
      <trkpt lat="45.8631" lon="5.77057">
        <ele>1059.03</ele>
        <time>2012-04-09T08:15:02Z</time>
      </trkpt>
      <trkpt lat="45.8631" lon="5.7706">
        <ele>1058.55</ele>
        <time>2012-04-09T08:15:04Z</time>
      </trkpt>
      <trkpt lat="45.8631" lon="5.77063">
        <ele>1059.51</ele>
        <time>2012-04-09T08:15:06Z</time>
      </trkpt>
      <trkpt lat="45.8631" lon="5.77067">
        <ele>1059.51</ele>
        <time>2012-04-09T08:15:08Z</time>
      </trkpt>
      <trkpt lat="45.8631" lon="5.77072">
        <ele>1059.99</ele>
        <time>2012-04-09T08:15:10Z</time>
      </trkpt>
      <trkpt lat="45.86309" lon="5.77076">
        <ele>1059.99</ele>
        <time>2012-04-09T08:15:12Z</time>
      </trkpt>
      <trkpt lat="45.86308" lon="5.77081">
        <ele>1060.47</ele>
        <time>2012-04-09T08:15:14Z</time>
      </trkpt>
      <trkpt lat="45.86308" lon="5.77088">
        <ele>1061.43</ele>
        <time>2012-04-09T08:15:16Z</time>
      </trkpt>
      <trkpt lat="45.86308" lon="5.77094">
        <ele>1061.43</ele>
        <time>2012-04-09T08:15:18Z</time>
      </trkpt>
      <trkpt lat="45.86308" lon="5.771">
        <ele>1062.39</ele>
        <time>2012-04-09T08:15:20Z</time>
      </trkpt>
      <trkpt lat="45.86308" lon="5.77107">
        <ele>1063.36</ele>
        <time>2012-04-09T08:15:22Z</time>
      </trkpt>
      <trkpt lat="45.86309" lon="5.77113">
        <ele>1063.36</ele>
        <time>2012-04-09T08:15:24Z</time>
      </trkpt>
      <trkpt lat="45.86311" lon="5.77118">
        <ele>1063.84</ele>
        <time>2012-04-09T08:15:26Z</time>
      </trkpt>
      <trkpt lat="45.86312" lon="5.77124">
        <ele>1064.32</ele>
        <time>2012-04-09T08:15:28Z</time>
      </trkpt>
      <trkpt lat="45.86313" lon="5.77131">
        <ele>1065.28</ele>
        <time>2012-04-09T08:15:30Z</time>
      </trkpt>
      <trkpt lat="45.86315" lon="5.77136">
        <ele>1065.76</ele>
        <time>2012-04-09T08:15:32Z</time>
      </trkpt>
      <trkpt lat="45.86316" lon="5.7714">
        <ele>1066.72</ele>
        <time>2012-04-09T08:15:34Z</time>
      </trkpt>
      <trkpt lat="45.86317" lon="5.77145">
        <ele>1066.72</ele>
        <time>2012-04-09T08:15:36Z</time>
      </trkpt>
      <trkpt lat="45.86319" lon="5.77149">
        <ele>1067.2</ele>
        <time>2012-04-09T08:15:38Z</time>
      </trkpt>
      <trkpt lat="45.86319" lon="5.77152">
        <ele>1067.68</ele>
        <time>2012-04-09T08:15:40Z</time>
      </trkpt>
      <trkpt lat="45.86319" lon="5.77155">
        <ele>1068.16</ele>
        <time>2012-04-09T08:15:42Z</time>
      </trkpt>
      <trkpt lat="45.8632" lon="5.77157">
        <ele>1069.12</ele>
        <time>2012-04-09T08:15:44Z</time>
      </trkpt>
      <trkpt lat="45.8632" lon="5.77162">
        <ele>1069.6</ele>
        <time>2012-04-09T08:15:46Z</time>
      </trkpt>
      <trkpt lat="45.86321" lon="5.77167">
        <ele>1070.08</ele>
        <time>2012-04-09T08:15:48Z</time>
      </trkpt>
      <trkpt lat="45.8632" lon="5.77172">
        <ele>1070.57</ele>
        <time>2012-04-09T08:15:50Z</time>
      </trkpt>
      <trkpt lat="45.86319" lon="5.77177">
        <ele>1071.05</ele>
        <time>2012-04-09T08:15:52Z</time>
      </trkpt>
      <trkpt lat="45.86319" lon="5.7718">
        <ele>1071.05</ele>
        <time>2012-04-09T08:15:54Z</time>
      </trkpt>
      <trkpt lat="45.8632" lon="5.77184">
        <ele>1071.53</ele>
        <time>2012-04-09T08:15:56Z</time>
      </trkpt>
      <trkpt lat="45.86321" lon="5.77187">
        <ele>1072.01</ele>
        <time>2012-04-09T08:15:58Z</time>
      </trkpt>
      <trkpt lat="45.86322" lon="5.7719">
        <ele>1072.49</ele>
        <time>2012-04-09T08:16:00Z</time>
      </trkpt>
      <trkpt lat="45.86323" lon="5.77195">
        <ele>1073.45</ele>
        <time>2012-04-09T08:16:02Z</time>
      </trkpt>
      <trkpt lat="45.86325" lon="5.77199">
        <ele>1072.97</ele>
        <time>2012-04-09T08:16:04Z</time>
      </trkpt>
      <trkpt lat="45.86325" lon="5.77202">
        <ele>1073.45</ele>
        <time>2012-04-09T08:16:06Z</time>
      </trkpt>
      <trkpt lat="45.86325" lon="5.77206">
        <ele>1073.93</ele>
        <time>2012-04-09T08:16:08Z</time>
      </trkpt>
      <trkpt lat="45.86325" lon="5.77208">
        <ele>1073.93</ele>
        <time>2012-04-09T08:16:10Z</time>
      </trkpt>
      <trkpt lat="45.86324" lon="5.77211">
        <ele>1074.89</ele>
        <time>2012-04-09T08:16:12Z</time>
      </trkpt>
      <trkpt lat="45.86325" lon="5.77217">
        <ele>1075.37</ele>
        <time>2012-04-09T08:16:14Z</time>
      </trkpt>
      <trkpt lat="45.86327" lon="5.77222">
        <ele>1075.37</ele>
        <time>2012-04-09T08:16:16Z</time>
      </trkpt>
      <trkpt lat="45.86328" lon="5.77228">
        <ele>1076.33</ele>
        <time>2012-04-09T08:16:18Z</time>
      </trkpt>
      <trkpt lat="45.86329" lon="5.77232">
        <ele>1076.81</ele>
        <time>2012-04-09T08:16:20Z</time>
      </trkpt>
      <trkpt lat="45.86331" lon="5.77237">
        <ele>1077.29</ele>
        <time>2012-04-09T08:16:22Z</time>
      </trkpt>
      <trkpt lat="45.86333" lon="5.77242">
        <ele>1077.78</ele>
        <time>2012-04-09T08:16:24Z</time>
      </trkpt>
      <trkpt lat="45.86335" lon="5.77247">
        <ele>1077.78</ele>
        <time>2012-04-09T08:16:26Z</time>
      </trkpt>
      <trkpt lat="45.86337" lon="5.7725">
        <ele>1078.26</ele>
        <time>2012-04-09T08:16:28Z</time>
      </trkpt>
      <trkpt lat="45.86338" lon="5.77255">
        <ele>1078.74</ele>
        <time>2012-04-09T08:16:30Z</time>
      </trkpt>
      <trkpt lat="45.8634" lon="5.7726">
        <ele>1079.22</ele>
        <time>2012-04-09T08:16:32Z</time>
      </trkpt>
      <trkpt lat="45.86341" lon="5.77264">
        <ele>1079.7</ele>
        <time>2012-04-09T08:16:34Z</time>
      </trkpt>
      <trkpt lat="45.86341" lon="5.77268">
        <ele>1080.18</ele>
        <time>2012-04-09T08:16:36Z</time>
      </trkpt>
      <trkpt lat="45.86342" lon="5.77273">
        <ele>1080.66</ele>
        <time>2012-04-09T08:16:38Z</time>
      </trkpt>
      <trkpt lat="45.86342" lon="5.77276">
        <ele>1081.14</ele>
        <time>2012-04-09T08:16:40Z</time>
      </trkpt>
      <trkpt lat="45.86345" lon="5.77282">
        <ele>1082.1</ele>
        <time>2012-04-09T08:16:42Z</time>
      </trkpt>
      <trkpt lat="45.86346" lon="5.77287">
        <ele>1082.58</ele>
        <time>2012-04-09T08:16:44Z</time>
      </trkpt>
      <trkpt lat="45.86345" lon="5.7729">
        <ele>1082.58</ele>
        <time>2012-04-09T08:16:46Z</time>
      </trkpt>
      <trkpt lat="45.86345" lon="5.77296">
        <ele>1083.06</ele>
        <time>2012-04-09T08:16:48Z</time>
      </trkpt>
      <trkpt lat="45.86344" lon="5.77304">
        <ele>1083.54</ele>
        <time>2012-04-09T08:16:50Z</time>
      </trkpt>
      <trkpt lat="45.86345" lon="5.7731">
        <ele>1084.02</ele>
        <time>2012-04-09T08:16:52Z</time>
      </trkpt>
      <trkpt lat="45.86345" lon="5.77317">
        <ele>1084.5</ele>
        <time>2012-04-09T08:16:54Z</time>
      </trkpt>
      <trkpt lat="45.86346" lon="5.77322">
        <ele>1084.99</ele>
        <time>2012-04-09T08:16:56Z</time>
      </trkpt>
      <trkpt lat="45.86346" lon="5.77328">
        <ele>1085.47</ele>
        <time>2012-04-09T08:16:58Z</time>
      </trkpt>
      <trkpt lat="45.86345" lon="5.77333">
        <ele>1085.95</ele>
        <time>2012-04-09T08:17:00Z</time>
      </trkpt>
      <trkpt lat="45.86345" lon="5.7734">
        <ele>1086.43</ele>
        <time>2012-04-09T08:17:02Z</time>
      </trkpt>
      <trkpt lat="45.86344" lon="5.77346">
        <ele>1086.43</ele>
        <time>2012-04-09T08:17:04Z</time>
      </trkpt>
      <trkpt lat="45.86344" lon="5.77351">
        <ele>1086.91</ele>
        <time>2012-04-09T08:17:06Z</time>
      </trkpt>
      <trkpt lat="45.86345" lon="5.77356">
        <ele>1087.39</ele>
        <time>2012-04-09T08:17:08Z</time>
      </trkpt>
      <trkpt lat="45.86346" lon="5.7736">
        <ele>1087.87</ele>
        <time>2012-04-09T08:17:10Z</time>
      </trkpt>
      <trkpt lat="45.86347" lon="5.77364">
        <ele>1088.83</ele>
        <time>2012-04-09T08:17:12Z</time>
      </trkpt>
      <trkpt lat="45.86348" lon="5.77367">
        <ele>1088.83</ele>
        <time>2012-04-09T08:17:14Z</time>
      </trkpt>
      <trkpt lat="45.86349" lon="5.77369">
        <ele>1089.31</ele>
        <time>2012-04-09T08:17:16Z</time>
      </trkpt>
      <trkpt lat="45.8635" lon="5.77374">
        <ele>1089.79</ele>
        <time>2012-04-09T08:17:18Z</time>
      </trkpt>
      <trkpt lat="45.86351" lon="5.77379">
        <ele>1090.27</ele>
        <time>2012-04-09T08:17:20Z</time>
      </trkpt>
      <trkpt lat="45.86353" lon="5.77384">
        <ele>1091.23</ele>
        <time>2012-04-09T08:17:22Z</time>
      </trkpt>
      <trkpt lat="45.86354" lon="5.77389">
        <ele>1091.23</ele>
        <time>2012-04-09T08:17:24Z</time>
      </trkpt>
      <trkpt lat="45.86355" lon="5.77395">
        <ele>1091.71</ele>
        <time>2012-04-09T08:17:26Z</time>
      </trkpt>
      <trkpt lat="45.86357" lon="5.77401">
        <ele>1092.2</ele>
        <time>2012-04-09T08:17:28Z</time>
      </trkpt>
      <trkpt lat="45.86359" lon="5.77404">
        <ele>1092.68</ele>
        <time>2012-04-09T08:17:30Z</time>
      </trkpt>
      <trkpt lat="45.86361" lon="5.77408">
        <ele>1093.16</ele>
        <time>2012-04-09T08:17:32Z</time>
      </trkpt>
      <trkpt lat="45.86362" lon="5.77412">
        <ele>1093.64</ele>
        <time>2012-04-09T08:17:34Z</time>
      </trkpt>
      <trkpt lat="45.86363" lon="5.77416">
        <ele>1093.64</ele>
        <time>2012-04-09T08:17:36Z</time>
      </trkpt>
      <trkpt lat="45.86364" lon="5.77419">
        <ele>1094.12</ele>
        <time>2012-04-09T08:17:38Z</time>
      </trkpt>
      <trkpt lat="45.86365" lon="5.77423">
        <ele>1094.6</ele>
        <time>2012-04-09T08:17:40Z</time>
      </trkpt>
      <trkpt lat="45.86366" lon="5.77427">
        <ele>1095.08</ele>
        <time>2012-04-09T08:17:42Z</time>
      </trkpt>
      <trkpt lat="45.86368" lon="5.7743">
        <ele>1095.56</ele>
        <time>2012-04-09T08:17:44Z</time>
      </trkpt>
      <trkpt lat="45.8637" lon="5.77434">
        <ele>1095.56</ele>
        <time>2012-04-09T08:17:46Z</time>
      </trkpt>
      <trkpt lat="45.86371" lon="5.77438">
        <ele>1096.04</ele>
        <time>2012-04-09T08:17:48Z</time>
      </trkpt>
      <trkpt lat="45.86373" lon="5.77442">
        <ele>1096.52</ele>
        <time>2012-04-09T08:17:50Z</time>
      </trkpt>
      <trkpt lat="45.86375" lon="5.77446">
        <ele>1097</ele>
        <time>2012-04-09T08:17:52Z</time>
      </trkpt>
      <trkpt lat="45.86377" lon="5.77447">
        <ele>1097.96</ele>
        <time>2012-04-09T08:17:54Z</time>
      </trkpt>
      <trkpt lat="45.86378" lon="5.7745">
        <ele>1097.48</ele>
        <time>2012-04-09T08:17:56Z</time>
      </trkpt>
      <trkpt lat="45.8638" lon="5.77452">
        <ele>1098.92</ele>
        <time>2012-04-09T08:17:58Z</time>
      </trkpt>
      <trkpt lat="45.86381" lon="5.77456">
        <ele>1098.44</ele>
        <time>2012-04-09T08:18:00Z</time>
      </trkpt>
      <trkpt lat="45.86382" lon="5.77462">
        <ele>1099.4</ele>
        <time>2012-04-09T08:18:02Z</time>
      </trkpt>
      <trkpt lat="45.86384" lon="5.77465">
        <ele>1099.4</ele>
        <time>2012-04-09T08:18:04Z</time>
      </trkpt>
      <trkpt lat="45.86386" lon="5.77469">
        <ele>1099.4</ele>
        <time>2012-04-09T08:18:06Z</time>
      </trkpt>
      <trkpt lat="45.86388" lon="5.77475">
        <ele>1100.37</ele>
        <time>2012-04-09T08:18:08Z</time>
      </trkpt>
      <trkpt lat="45.8639" lon="5.7748">
        <ele>1100.85</ele>
        <time>2012-04-09T08:18:10Z</time>
      </trkpt>
      <trkpt lat="45.86392" lon="5.77483">
        <ele>1100.85</ele>
        <time>2012-04-09T08:18:12Z</time>
      </trkpt>
      <trkpt lat="45.86392" lon="5.77485">
        <ele>1101.33</ele>
        <time>2012-04-09T08:18:14Z</time>
      </trkpt>
      <trkpt lat="45.86392" lon="5.77487">
        <ele>1102.29</ele>
        <time>2012-04-09T08:18:16Z</time>
      </trkpt>
      <trkpt lat="45.86393" lon="5.77491">
        <ele>1102.29</ele>
        <time>2012-04-09T08:18:18Z</time>
      </trkpt>
      <trkpt lat="45.86394" lon="5.77495">
        <ele>1102.29</ele>
        <time>2012-04-09T08:18:20Z</time>
      </trkpt>
      <trkpt lat="45.86395" lon="5.775">
        <ele>1102.77</ele>
        <time>2012-04-09T08:18:22Z</time>
      </trkpt>
      <trkpt lat="45.86398" lon="5.77504">
        <ele>1102.77</ele>
        <time>2012-04-09T08:18:24Z</time>
      </trkpt>
      <trkpt lat="45.86399" lon="5.77508">
        <ele>1103.73</ele>
        <time>2012-04-09T08:18:26Z</time>
      </trkpt>
      <trkpt lat="45.864" lon="5.77513">
        <ele>1103.73</ele>
        <time>2012-04-09T08:18:28Z</time>
      </trkpt>
      <trkpt lat="45.86401" lon="5.77519">
        <ele>1104.21</ele>
        <time>2012-04-09T08:18:30Z</time>
      </trkpt>
      <trkpt lat="45.86402" lon="5.77523">
        <ele>1104.21</ele>
        <time>2012-04-09T08:18:32Z</time>
      </trkpt>
      <trkpt lat="45.86403" lon="5.77527">
        <ele>1104.69</ele>
        <time>2012-04-09T08:18:34Z</time>
      </trkpt>
      <trkpt lat="45.86403" lon="5.7753">
        <ele>1105.17</ele>
        <time>2012-04-09T08:18:36Z</time>
      </trkpt>
      <trkpt lat="45.86404" lon="5.77534">
        <ele>1105.17</ele>
        <time>2012-04-09T08:18:38Z</time>
      </trkpt>
      <trkpt lat="45.86404" lon="5.77537">
        <ele>1106.13</ele>
        <time>2012-04-09T08:18:40Z</time>
      </trkpt>
      <trkpt lat="45.86405" lon="5.7754">
        <ele>1106.61</ele>
        <time>2012-04-09T08:18:42Z</time>
      </trkpt>
      <trkpt lat="45.86406" lon="5.77544">
        <ele>1106.61</ele>
        <time>2012-04-09T08:18:44Z</time>
      </trkpt>
      <trkpt lat="45.86408" lon="5.77549">
        <ele>1107.58</ele>
        <time>2012-04-09T08:18:46Z</time>
      </trkpt>
      <trkpt lat="45.86409" lon="5.77553">
        <ele>1108.06</ele>
        <time>2012-04-09T08:18:48Z</time>
      </trkpt>
      <trkpt lat="45.86411" lon="5.77557">
        <ele>1108.54</ele>
        <time>2012-04-09T08:18:50Z</time>
      </trkpt>
      <trkpt lat="45.86411" lon="5.77561">
        <ele>1109.02</ele>
        <time>2012-04-09T08:18:52Z</time>
      </trkpt>
      <trkpt lat="45.86414" lon="5.77565">
        <ele>1109.5</ele>
        <time>2012-04-09T08:18:54Z</time>
      </trkpt>
      <trkpt lat="45.86414" lon="5.77569">
        <ele>1109.98</ele>
        <time>2012-04-09T08:18:56Z</time>
      </trkpt>
      <trkpt lat="45.86415" lon="5.77573">
        <ele>1110.46</ele>
        <time>2012-04-09T08:18:58Z</time>
      </trkpt>
      <trkpt lat="45.86417" lon="5.77577">
        <ele>1111.42</ele>
        <time>2012-04-09T08:19:00Z</time>
      </trkpt>
      <trkpt lat="45.8642" lon="5.7758">
        <ele>1111.42</ele>
        <time>2012-04-09T08:19:02Z</time>
      </trkpt>
      <trkpt lat="45.86421" lon="5.77583">
        <ele>1112.38</ele>
        <time>2012-04-09T08:19:04Z</time>
      </trkpt>
      <trkpt lat="45.86422" lon="5.77586">
        <ele>1112.38</ele>
        <time>2012-04-09T08:19:06Z</time>
      </trkpt>
      <trkpt lat="45.86423" lon="5.77588">
        <ele>1112.86</ele>
        <time>2012-04-09T08:19:08Z</time>
      </trkpt>
      <trkpt lat="45.86425" lon="5.77593">
        <ele>1113.34</ele>
        <time>2012-04-09T08:19:10Z</time>
      </trkpt>
      <trkpt lat="45.86427" lon="5.77596">
        <ele>1113.82</ele>
        <time>2012-04-09T08:19:12Z</time>
      </trkpt>
      <trkpt lat="45.86428" lon="5.77601">
        <ele>1114.31</ele>
        <time>2012-04-09T08:19:14Z</time>
      </trkpt>
      <trkpt lat="45.8643" lon="5.77606">
        <ele>1115.27</ele>
        <time>2012-04-09T08:19:16Z</time>
      </trkpt>
      <trkpt lat="45.86431" lon="5.7761">
        <ele>1115.27</ele>
        <time>2012-04-09T08:19:18Z</time>
      </trkpt>
      <trkpt lat="45.86431" lon="5.77613">
        <ele>1115.75</ele>
        <time>2012-04-09T08:19:20Z</time>
      </trkpt>
      <trkpt lat="45.86434" lon="5.77617">
        <ele>1116.71</ele>
        <time>2012-04-09T08:19:22Z</time>
      </trkpt>
      <trkpt lat="45.86435" lon="5.77622">
        <ele>1116.71</ele>
        <time>2012-04-09T08:19:24Z</time>
      </trkpt>
      <trkpt lat="45.86437" lon="5.77626">
        <ele>1116.71</ele>
        <time>2012-04-09T08:19:26Z</time>
      </trkpt>
      <trkpt lat="45.86438" lon="5.77631">
        <ele>1117.67</ele>
        <time>2012-04-09T08:19:28Z</time>
      </trkpt>
      <trkpt lat="45.86438" lon="5.77633">
        <ele>1118.15</ele>
        <time>2012-04-09T08:19:30Z</time>
      </trkpt>
      <trkpt lat="45.86439" lon="5.77636">
        <ele>1119.11</ele>
        <time>2012-04-09T08:19:32Z</time>
      </trkpt>
      <trkpt lat="45.86441" lon="5.77638">
        <ele>1119.11</ele>
        <time>2012-04-09T08:19:34Z</time>
      </trkpt>
      <trkpt lat="45.86441" lon="5.77641">
        <ele>1119.11</ele>
        <time>2012-04-09T08:19:36Z</time>
      </trkpt>
      <trkpt lat="45.86441" lon="5.77647">
        <ele>1119.59</ele>
        <time>2012-04-09T08:19:38Z</time>
      </trkpt>
      <trkpt lat="45.86443" lon="5.77652">
        <ele>1120.07</ele>
        <time>2012-04-09T08:19:40Z</time>
      </trkpt>
      <trkpt lat="45.86443" lon="5.77657">
        <ele>1120.07</ele>
        <time>2012-04-09T08:19:42Z</time>
      </trkpt>
      <trkpt lat="45.86444" lon="5.77661">
        <ele>1121.03</ele>
        <time>2012-04-09T08:19:44Z</time>
      </trkpt>
      <trkpt lat="45.86444" lon="5.77667">
        <ele>1121.52</ele>
        <time>2012-04-09T08:19:46Z</time>
      </trkpt>
      <trkpt lat="45.86445" lon="5.77672">
        <ele>1122.48</ele>
        <time>2012-04-09T08:19:48Z</time>
      </trkpt>
      <trkpt lat="45.86445" lon="5.77675">
        <ele>1122.48</ele>
        <time>2012-04-09T08:19:50Z</time>
      </trkpt>
      <trkpt lat="45.86442" lon="5.77679">
        <ele>1122.96</ele>
        <time>2012-04-09T08:19:52Z</time>
      </trkpt>
      <trkpt lat="45.86441" lon="5.77682">
        <ele>1122.96</ele>
        <time>2012-04-09T08:19:54Z</time>
      </trkpt>
      <trkpt lat="45.86441" lon="5.77685">
        <ele>1123.92</ele>
        <time>2012-04-09T08:19:56Z</time>
      </trkpt>
      <trkpt lat="45.8644" lon="5.77689">
        <ele>1124.4</ele>
        <time>2012-04-09T08:19:58Z</time>
      </trkpt>
      <trkpt lat="45.8644" lon="5.77693">
        <ele>1124.88</ele>
        <time>2012-04-09T08:20:00Z</time>
      </trkpt>
      <trkpt lat="45.86441" lon="5.77698">
        <ele>1125.36</ele>
        <time>2012-04-09T08:20:02Z</time>
      </trkpt>
      <trkpt lat="45.86441" lon="5.77702">
        <ele>1125.84</ele>
        <time>2012-04-09T08:20:04Z</time>
      </trkpt>
      <trkpt lat="45.86443" lon="5.77706">
        <ele>1125.84</ele>
        <time>2012-04-09T08:20:06Z</time>
      </trkpt>
      <trkpt lat="45.86444" lon="5.77709">
        <ele>1126.32</ele>
        <time>2012-04-09T08:20:08Z</time>
      </trkpt>
      <trkpt lat="45.86447" lon="5.77716">
        <ele>1126.8</ele>
        <time>2012-04-09T08:20:10Z</time>
      </trkpt>
      <trkpt lat="45.86451" lon="5.77723">
        <ele>1126.8</ele>
        <time>2012-04-09T08:20:12Z</time>
      </trkpt>
      <trkpt lat="45.86453" lon="5.77727">
        <ele>1127.28</ele>
        <time>2012-04-09T08:20:14Z</time>
      </trkpt>
      <trkpt lat="45.86455" lon="5.7773">
        <ele>1127.28</ele>
        <time>2012-04-09T08:20:16Z</time>
      </trkpt>
      <trkpt lat="45.86456" lon="5.77734">
        <ele>1127.76</ele>
        <time>2012-04-09T08:20:18Z</time>
      </trkpt>
      <trkpt lat="45.86459" lon="5.77739">
        <ele>1128.73</ele>
        <time>2012-04-09T08:20:20Z</time>
      </trkpt>
      <trkpt lat="45.86461" lon="5.77744">
        <ele>1128.73</ele>
        <time>2012-04-09T08:20:22Z</time>
      </trkpt>
      <trkpt lat="45.86464" lon="5.77748">
        <ele>1129.21</ele>
        <time>2012-04-09T08:20:24Z</time>
      </trkpt>
      <trkpt lat="45.86466" lon="5.77752">
        <ele>1130.17</ele>
        <time>2012-04-09T08:20:26Z</time>
      </trkpt>
      <trkpt lat="45.86468" lon="5.77756">
        <ele>1130.17</ele>
        <time>2012-04-09T08:20:28Z</time>
      </trkpt>
      <trkpt lat="45.8647" lon="5.77761">
        <ele>1130.65</ele>
        <time>2012-04-09T08:20:30Z</time>
      </trkpt>
      <trkpt lat="45.8647" lon="5.77765">
        <ele>1131.61</ele>
        <time>2012-04-09T08:20:32Z</time>
      </trkpt>
      <trkpt lat="45.86471" lon="5.77769">
        <ele>1131.61</ele>
        <time>2012-04-09T08:20:34Z</time>
      </trkpt>
      <trkpt lat="45.86472" lon="5.77773">
        <ele>1132.09</ele>
        <time>2012-04-09T08:20:36Z</time>
      </trkpt>
      <trkpt lat="45.86473" lon="5.77779">
        <ele>1133.05</ele>
        <time>2012-04-09T08:20:38Z</time>
      </trkpt>
      <trkpt lat="45.86474" lon="5.77783">
        <ele>1132.57</ele>
        <time>2012-04-09T08:20:40Z</time>
      </trkpt>
      <trkpt lat="45.86474" lon="5.77784">
        <ele>1133.53</ele>
        <time>2012-04-09T08:20:42Z</time>
      </trkpt>
      <trkpt lat="45.86475" lon="5.77789">
        <ele>1133.53</ele>
        <time>2012-04-09T08:20:44Z</time>
      </trkpt>
      <trkpt lat="45.86478" lon="5.77794">
        <ele>1134.01</ele>
        <time>2012-04-09T08:20:46Z</time>
      </trkpt>
      <trkpt lat="45.86482" lon="5.77799">
        <ele>1134.49</ele>
        <time>2012-04-09T08:20:48Z</time>
      </trkpt>
      <trkpt lat="45.86484" lon="5.77803">
        <ele>1134.97</ele>
        <time>2012-04-09T08:20:50Z</time>
      </trkpt>
      <trkpt lat="45.86486" lon="5.77808">
        <ele>1135.94</ele>
        <time>2012-04-09T08:20:52Z</time>
      </trkpt>
      <trkpt lat="45.86489" lon="5.77811">
        <ele>1135.94</ele>
        <time>2012-04-09T08:20:54Z</time>
      </trkpt>
      <trkpt lat="45.8649" lon="5.77813">
        <ele>1136.42</ele>
        <time>2012-04-09T08:20:56Z</time>
      </trkpt>
      <trkpt lat="45.86491" lon="5.77815">
        <ele>1136.9</ele>
        <time>2012-04-09T08:20:58Z</time>
      </trkpt>
      <trkpt lat="45.86492" lon="5.77818">
        <ele>1137.38</ele>
        <time>2012-04-09T08:21:00Z</time>
      </trkpt>
      <trkpt lat="45.86494" lon="5.77821">
        <ele>1137.86</ele>
        <time>2012-04-09T08:21:02Z</time>
      </trkpt>
      <trkpt lat="45.86496" lon="5.77824">
        <ele>1137.86</ele>
        <time>2012-04-09T08:21:04Z</time>
      </trkpt>
      <trkpt lat="45.86497" lon="5.77826">
        <ele>1138.34</ele>
        <time>2012-04-09T08:21:06Z</time>
      </trkpt>
      <trkpt lat="45.865" lon="5.77829">
        <ele>1138.82</ele>
        <time>2012-04-09T08:21:08Z</time>
      </trkpt>
      <trkpt lat="45.86502" lon="5.77833">
        <ele>1139.3</ele>
        <time>2012-04-09T08:21:10Z</time>
      </trkpt>
      <trkpt lat="45.86506" lon="5.77836">
        <ele>1139.3</ele>
        <time>2012-04-09T08:21:12Z</time>
      </trkpt>
      <trkpt lat="45.86508" lon="5.7784">
        <ele>1139.78</ele>
        <time>2012-04-09T08:21:14Z</time>
      </trkpt>
      <trkpt lat="45.8651" lon="5.77843">
        <ele>1140.26</ele>
        <time>2012-04-09T08:21:16Z</time>
      </trkpt>
      <trkpt lat="45.86511" lon="5.77848">
        <ele>1141.22</ele>
        <time>2012-04-09T08:21:18Z</time>
      </trkpt>
      <trkpt lat="45.86514" lon="5.77851">
        <ele>1141.22</ele>
        <time>2012-04-09T08:21:20Z</time>
      </trkpt>
      <trkpt lat="45.86516" lon="5.77855">
        <ele>1141.7</ele>
        <time>2012-04-09T08:21:22Z</time>
      </trkpt>
      <trkpt lat="45.86518" lon="5.77858">
        <ele>1141.7</ele>
        <time>2012-04-09T08:21:24Z</time>
      </trkpt>
      <trkpt lat="45.86519" lon="5.77861">
        <ele>1142.66</ele>
        <time>2012-04-09T08:21:26Z</time>
      </trkpt>
      <trkpt lat="45.8652" lon="5.77863">
        <ele>1143.14</ele>
        <time>2012-04-09T08:21:28Z</time>
      </trkpt>
      <trkpt lat="45.8652" lon="5.77866">
        <ele>1143.63</ele>
        <time>2012-04-09T08:21:30Z</time>
      </trkpt>
      <trkpt lat="45.86522" lon="5.77869">
        <ele>1144.11</ele>
        <time>2012-04-09T08:21:32Z</time>
      </trkpt>
      <trkpt lat="45.86525" lon="5.77871">
        <ele>1144.59</ele>
        <time>2012-04-09T08:21:34Z</time>
      </trkpt>
      <trkpt lat="45.86527" lon="5.77874">
        <ele>1145.55</ele>
        <time>2012-04-09T08:21:36Z</time>
      </trkpt>
      <trkpt lat="45.8653" lon="5.77877">
        <ele>1145.55</ele>
        <time>2012-04-09T08:21:38Z</time>
      </trkpt>
      <trkpt lat="45.86535" lon="5.77882">
        <ele>1145.55</ele>
        <time>2012-04-09T08:21:40Z</time>
      </trkpt>
      <trkpt lat="45.86538" lon="5.77887">
        <ele>1146.51</ele>
        <time>2012-04-09T08:21:42Z</time>
      </trkpt>
      <trkpt lat="45.86541" lon="5.77891">
        <ele>1146.51</ele>
        <time>2012-04-09T08:21:44Z</time>
      </trkpt>
      <trkpt lat="45.86544" lon="5.77896">
        <ele>1146.99</ele>
        <time>2012-04-09T08:21:46Z</time>
      </trkpt>
      <trkpt lat="45.86547" lon="5.779">
        <ele>1147.95</ele>
        <time>2012-04-09T08:21:48Z</time>
      </trkpt>
      <trkpt lat="45.86551" lon="5.77904">
        <ele>1147.95</ele>
        <time>2012-04-09T08:21:50Z</time>
      </trkpt>
      <trkpt lat="45.86555" lon="5.77908">
        <ele>1148.91</ele>
        <time>2012-04-09T08:21:52Z</time>
      </trkpt>
      <trkpt lat="45.86558" lon="5.77912">
        <ele>1149.87</ele>
        <time>2012-04-09T08:21:54Z</time>
      </trkpt>
      <trkpt lat="45.86562" lon="5.77914">
        <ele>1150.35</ele>
        <time>2012-04-09T08:21:56Z</time>
      </trkpt>
      <trkpt lat="45.86566" lon="5.77916">
        <ele>1150.84</ele>
        <time>2012-04-09T08:21:58Z</time>
      </trkpt>
      <trkpt lat="45.8657" lon="5.77919">
        <ele>1151.32</ele>
        <time>2012-04-09T08:22:00Z</time>
      </trkpt>
      <trkpt lat="45.86575" lon="5.77922">
        <ele>1151.8</ele>
        <time>2012-04-09T08:22:02Z</time>
      </trkpt>
      <trkpt lat="45.86579" lon="5.77924">
        <ele>1152.28</ele>
        <time>2012-04-09T08:22:04Z</time>
      </trkpt>
      <trkpt lat="45.86584" lon="5.77926">
        <ele>1152.28</ele>
        <time>2012-04-09T08:22:06Z</time>
      </trkpt>
      <trkpt lat="45.86587" lon="5.77928">
        <ele>1153.24</ele>
        <time>2012-04-09T08:22:08Z</time>
      </trkpt>
      <trkpt lat="45.8659" lon="5.7793">
        <ele>1153.72</ele>
        <time>2012-04-09T08:22:10Z</time>
      </trkpt>
      <trkpt lat="45.86593" lon="5.77932">
        <ele>1154.2</ele>
        <time>2012-04-09T08:22:12Z</time>
      </trkpt>
      <trkpt lat="45.86595" lon="5.77933">
        <ele>1154.68</ele>
        <time>2012-04-09T08:22:14Z</time>
      </trkpt>
      <trkpt lat="45.86599" lon="5.77933">
        <ele>1155.16</ele>
        <time>2012-04-09T08:22:16Z</time>
      </trkpt>
      <trkpt lat="45.86603" lon="5.77931">
        <ele>1155.16</ele>
        <time>2012-04-09T08:22:18Z</time>
      </trkpt>
      <trkpt lat="45.86607" lon="5.7793">
        <ele>1156.12</ele>
        <time>2012-04-09T08:22:20Z</time>
      </trkpt>
      <trkpt lat="45.8661" lon="5.77929">
        <ele>1156.12</ele>
        <time>2012-04-09T08:22:22Z</time>
      </trkpt>
      <trkpt lat="45.86613" lon="5.77927">
        <ele>1156.6</ele>
        <time>2012-04-09T08:22:24Z</time>
      </trkpt>
      <trkpt lat="45.86616" lon="5.77925">
        <ele>1156.6</ele>
        <time>2012-04-09T08:22:26Z</time>
      </trkpt>
      <trkpt lat="45.8662" lon="5.77925">
        <ele>1157.08</ele>
        <time>2012-04-09T08:22:28Z</time>
      </trkpt>
      <trkpt lat="45.86623" lon="5.77924">
        <ele>1157.56</ele>
        <time>2012-04-09T08:22:30Z</time>
      </trkpt>
      <trkpt lat="45.86625" lon="5.77921">
        <ele>1158.53</ele>
        <time>2012-04-09T08:22:32Z</time>
      </trkpt>
      <trkpt lat="45.86627" lon="5.77919">
        <ele>1158.53</ele>
        <time>2012-04-09T08:22:34Z</time>
      </trkpt>
      <trkpt lat="45.8663" lon="5.77916">
        <ele>1159.01</ele>
        <time>2012-04-09T08:22:36Z</time>
      </trkpt>
      <trkpt lat="45.86633" lon="5.77913">
        <ele>1159.49</ele>
        <time>2012-04-09T08:22:38Z</time>
      </trkpt>
      <trkpt lat="45.86637" lon="5.7791">
        <ele>1159.97</ele>
        <time>2012-04-09T08:22:40Z</time>
      </trkpt>
      <trkpt lat="45.86641" lon="5.77906">
        <ele>1160.45</ele>
        <time>2012-04-09T08:22:42Z</time>
      </trkpt>
      <trkpt lat="45.86645" lon="5.77904">
        <ele>1160.93</ele>
        <time>2012-04-09T08:22:44Z</time>
      </trkpt>
      <trkpt lat="45.86649" lon="5.77901">
        <ele>1160.93</ele>
        <time>2012-04-09T08:22:46Z</time>
      </trkpt>
      <trkpt lat="45.86652" lon="5.77898">
        <ele>1161.41</ele>
        <time>2012-04-09T08:22:48Z</time>
      </trkpt>
      <trkpt lat="45.86655" lon="5.77895">
        <ele>1161.89</ele>
        <time>2012-04-09T08:22:50Z</time>
      </trkpt>
      <trkpt lat="45.86657" lon="5.77894">
        <ele>1162.37</ele>
        <time>2012-04-09T08:22:52Z</time>
      </trkpt>
      <trkpt lat="45.8666" lon="5.77893">
        <ele>1162.85</ele>
        <time>2012-04-09T08:22:54Z</time>
      </trkpt>
      <trkpt lat="45.86663" lon="5.77892">
        <ele>1163.33</ele>
        <time>2012-04-09T08:22:56Z</time>
      </trkpt>
      <trkpt lat="45.86665" lon="5.77892">
        <ele>1163.81</ele>
        <time>2012-04-09T08:22:58Z</time>
      </trkpt>
      <trkpt lat="45.86666" lon="5.77891">
        <ele>1164.29</ele>
        <time>2012-04-09T08:23:00Z</time>
      </trkpt>
      <trkpt lat="45.86668" lon="5.77888">
        <ele>1164.77</ele>
        <time>2012-04-09T08:23:02Z</time>
      </trkpt>
      <trkpt lat="45.86669" lon="5.77885">
        <ele>1165.26</ele>
        <time>2012-04-09T08:23:04Z</time>
      </trkpt>
      <trkpt lat="45.86672" lon="5.77884">
        <ele>1166.22</ele>
        <time>2012-04-09T08:23:06Z</time>
      </trkpt>
      <trkpt lat="45.86675" lon="5.77882">
        <ele>1166.22</ele>
        <time>2012-04-09T08:23:08Z</time>
      </trkpt>
      <trkpt lat="45.86678" lon="5.77882">
        <ele>1167.18</ele>
        <time>2012-04-09T08:23:10Z</time>
      </trkpt>
      <trkpt lat="45.86679" lon="5.77883">
        <ele>1167.18</ele>
        <time>2012-04-09T08:23:12Z</time>
      </trkpt>
      <trkpt lat="45.86683" lon="5.77882">
        <ele>1167.66</ele>
        <time>2012-04-09T08:23:14Z</time>
      </trkpt>
      <trkpt lat="45.86687" lon="5.7788">
        <ele>1168.14</ele>
        <time>2012-04-09T08:23:16Z</time>
      </trkpt>
      <trkpt lat="45.86691" lon="5.77878">
        <ele>1168.62</ele>
        <time>2012-04-09T08:23:18Z</time>
      </trkpt>
      <trkpt lat="45.86694" lon="5.77877">
        <ele>1169.1</ele>
        <time>2012-04-09T08:23:20Z</time>
      </trkpt>
      <trkpt lat="45.86698" lon="5.77875">
        <ele>1169.58</ele>
        <time>2012-04-09T08:23:22Z</time>
      </trkpt>
      <trkpt lat="45.86701" lon="5.77873">
        <ele>1170.06</ele>
        <time>2012-04-09T08:23:24Z</time>
      </trkpt>
      <trkpt lat="45.86704" lon="5.77872">
        <ele>1170.54</ele>
        <time>2012-04-09T08:23:26Z</time>
      </trkpt>
      <trkpt lat="45.86707" lon="5.77871">
        <ele>1171.02</ele>
        <time>2012-04-09T08:23:28Z</time>
      </trkpt>
      <trkpt lat="45.86711" lon="5.7787">
        <ele>1171.5</ele>
        <time>2012-04-09T08:23:30Z</time>
      </trkpt>
      <trkpt lat="45.86714" lon="5.77868">
        <ele>1171.98</ele>
        <time>2012-04-09T08:23:32Z</time>
      </trkpt>
      <trkpt lat="45.86717" lon="5.77866">
        <ele>1172.47</ele>
        <time>2012-04-09T08:23:34Z</time>
      </trkpt>
      <trkpt lat="45.8672" lon="5.77866">
        <ele>1172.95</ele>
        <time>2012-04-09T08:23:36Z</time>
      </trkpt>
      <trkpt lat="45.86723" lon="5.77864">
        <ele>1173.43</ele>
        <time>2012-04-09T08:23:38Z</time>
      </trkpt>
      <trkpt lat="45.86727" lon="5.77862">
        <ele>1173.91</ele>
        <time>2012-04-09T08:23:40Z</time>
      </trkpt>
      <trkpt lat="45.86729" lon="5.7786">
        <ele>1173.91</ele>
        <time>2012-04-09T08:23:42Z</time>
      </trkpt>
      <trkpt lat="45.86731" lon="5.77858">
        <ele>1173.91</ele>
        <time>2012-04-09T08:23:44Z</time>
      </trkpt>
      <trkpt lat="45.86732" lon="5.77856">
        <ele>1175.35</ele>
        <time>2012-04-09T08:23:46Z</time>
      </trkpt>
      <trkpt lat="45.86733" lon="5.77853">
        <ele>1175.83</ele>
        <time>2012-04-09T08:23:48Z</time>
      </trkpt>
      <trkpt lat="45.86735" lon="5.77851">
        <ele>1174.87</ele>
        <time>2012-04-09T08:23:50Z</time>
      </trkpt>
      <trkpt lat="45.86735" lon="5.77849">
        <ele>1176.79</ele>
        <time>2012-04-09T08:23:52Z</time>
      </trkpt>
      <trkpt lat="45.86734" lon="5.77848">
        <ele>1176.31</ele>
        <time>2012-04-09T08:23:54Z</time>
      </trkpt>
      <trkpt lat="45.86733" lon="5.77846">
        <ele>1176.31</ele>
        <time>2012-04-09T08:23:56Z</time>
      </trkpt>
      <trkpt lat="45.86733" lon="5.77846">
        <ele>1171.5</ele>
        <time>2012-04-09T08:23:58Z</time>
      </trkpt>
      <trkpt lat="45.86733" lon="5.77846">
        <ele>1176.31</ele>
        <time>2012-04-09T08:24:00Z</time>
      </trkpt>
      <trkpt lat="45.86733" lon="5.77846">
        <ele>1176.79</ele>
        <time>2012-04-09T08:24:02Z</time>
      </trkpt>
      <trkpt lat="45.86733" lon="5.77846">
        <ele>1176.31</ele>
        <time>2012-04-09T08:24:04Z</time>
      </trkpt>
      <trkpt lat="45.86733" lon="5.77846">
        <ele>1173.43</ele>
        <time>2012-04-09T08:24:06Z</time>
      </trkpt>
      <trkpt lat="45.86733" lon="5.77846">
        <ele>1176.31</ele>
        <time>2012-04-09T08:24:08Z</time>
      </trkpt>
      <trkpt lat="45.86733" lon="5.77846">
        <ele>1176.31</ele>
        <time>2012-04-09T08:24:10Z</time>
      </trkpt>
      <trkpt lat="45.86733" lon="5.77846">
        <ele>1176.31</ele>
        <time>2012-04-09T08:24:12Z</time>
      </trkpt>
      <trkpt lat="45.86733" lon="5.77846">
        <ele>1176.31</ele>
        <time>2012-04-09T08:24:14Z</time>
      </trkpt>
      <trkpt lat="45.86733" lon="5.77846">
        <ele>1175.83</ele>
        <time>2012-04-09T08:24:16Z</time>
      </trkpt>
      <trkpt lat="45.86733" lon="5.77846">
        <ele>1175.83</ele>
        <time>2012-04-09T08:24:18Z</time>
      </trkpt>
      <trkpt lat="45.86733" lon="5.77846">
        <ele>1175.83</ele>
        <time>2012-04-09T08:24:20Z</time>
      </trkpt>
      <trkpt lat="45.86733" lon="5.77846">
        <ele>1174.87</ele>
        <time>2012-04-09T08:24:22Z</time>
      </trkpt>
      <trkpt lat="45.86733" lon="5.77846">
        <ele>1175.83</ele>
        <time>2012-04-09T08:24:24Z</time>
      </trkpt>
      <trkpt lat="45.86733" lon="5.77846">
        <ele>1176.31</ele>
        <time>2012-04-09T08:24:26Z</time>
      </trkpt>
      <trkpt lat="45.86733" lon="5.77846">
        <ele>1175.83</ele>
        <time>2012-04-09T08:24:28Z</time>
      </trkpt>
      <trkpt lat="45.86733" lon="5.77846">
        <ele>1176.31</ele>
        <time>2012-04-09T08:24:30Z</time>
      </trkpt>
      <trkpt lat="45.86733" lon="5.77846">
        <ele>1175.83</ele>
        <time>2012-04-09T08:24:32Z</time>
      </trkpt>
      <trkpt lat="45.86733" lon="5.77846">
        <ele>1175.83</ele>
        <time>2012-04-09T08:24:34Z</time>
      </trkpt>
      <trkpt lat="45.86732" lon="5.77846">
        <ele>1174.87</ele>
        <time>2012-04-09T08:24:36Z</time>
      </trkpt>
      <trkpt lat="45.86732" lon="5.77845">
        <ele>1176.31</ele>
        <time>2012-04-09T08:24:38Z</time>
      </trkpt>
      <trkpt lat="45.8673" lon="5.77843">
        <ele>1176.31</ele>
        <time>2012-04-09T08:24:40Z</time>
      </trkpt>
      <trkpt lat="45.86728" lon="5.77843">
        <ele>1175.83</ele>
        <time>2012-04-09T08:24:42Z</time>
      </trkpt>
      <trkpt lat="45.86728" lon="5.77842">
        <ele>1176.31</ele>
        <time>2012-04-09T08:24:44Z</time>
      </trkpt>
      <trkpt lat="45.86728" lon="5.77841">
        <ele>1176.79</ele>
        <time>2012-04-09T08:24:46Z</time>
      </trkpt>
      <trkpt lat="45.86726" lon="5.7784">
        <ele>1176.79</ele>
        <time>2012-04-09T08:24:48Z</time>
      </trkpt>
      <trkpt lat="45.86725" lon="5.77837">
        <ele>1177.27</ele>
        <time>2012-04-09T08:24:50Z</time>
      </trkpt>
      <trkpt lat="45.86723" lon="5.77837">
        <ele>1177.75</ele>
        <time>2012-04-09T08:24:52Z</time>
      </trkpt>
      <trkpt lat="45.8672" lon="5.77836">
        <ele>1178.71</ele>
        <time>2012-04-09T08:24:54Z</time>
      </trkpt>
      <trkpt lat="45.86718" lon="5.77835">
        <ele>1179.67</ele>
        <time>2012-04-09T08:24:56Z</time>
      </trkpt>
      <trkpt lat="45.86714" lon="5.77834">
        <ele>1179.19</ele>
        <time>2012-04-09T08:24:58Z</time>
      </trkpt>
      <trkpt lat="45.8671" lon="5.77832">
        <ele>1180.16</ele>
        <time>2012-04-09T08:25:00Z</time>
      </trkpt>
      <trkpt lat="45.86706" lon="5.77831">
        <ele>1181.12</ele>
        <time>2012-04-09T08:25:02Z</time>
      </trkpt>
      <trkpt lat="45.86702" lon="5.7783">
        <ele>1181.12</ele>
        <time>2012-04-09T08:25:04Z</time>
      </trkpt>
      <trkpt lat="45.86698" lon="5.77829">
        <ele>1182.08</ele>
        <time>2012-04-09T08:25:06Z</time>
      </trkpt>
      <trkpt lat="45.86696" lon="5.77826">
        <ele>1182.56</ele>
        <time>2012-04-09T08:25:08Z</time>
      </trkpt>
      <trkpt lat="45.86694" lon="5.77823">
        <ele>1183.04</ele>
        <time>2012-04-09T08:25:10Z</time>
      </trkpt>
      <trkpt lat="45.86693" lon="5.77822">
        <ele>1183.04</ele>
        <time>2012-04-09T08:25:12Z</time>
      </trkpt>
      <trkpt lat="45.8669" lon="5.7782">
        <ele>1184</ele>
        <time>2012-04-09T08:25:14Z</time>
      </trkpt>
      <trkpt lat="45.86688" lon="5.77817">
        <ele>1184</ele>
        <time>2012-04-09T08:25:16Z</time>
      </trkpt>
      <trkpt lat="45.86685" lon="5.77815">
        <ele>1184.96</ele>
        <time>2012-04-09T08:25:18Z</time>
      </trkpt>
      <trkpt lat="45.86683" lon="5.77812">
        <ele>1185.92</ele>
        <time>2012-04-09T08:25:20Z</time>
      </trkpt>
      <trkpt lat="45.86682" lon="5.77807">
        <ele>1186.4</ele>
        <time>2012-04-09T08:25:22Z</time>
      </trkpt>
      <trkpt lat="45.86682" lon="5.77802">
        <ele>1186.88</ele>
        <time>2012-04-09T08:25:24Z</time>
      </trkpt>
      <trkpt lat="45.86681" lon="5.77797">
        <ele>1186.88</ele>
        <time>2012-04-09T08:25:26Z</time>
      </trkpt>
      <trkpt lat="45.86678" lon="5.77791">
        <ele>1187.37</ele>
        <time>2012-04-09T08:25:28Z</time>
      </trkpt>
      <trkpt lat="45.86676" lon="5.77786">
        <ele>1187.85</ele>
        <time>2012-04-09T08:25:30Z</time>
      </trkpt>
      <trkpt lat="45.86673" lon="5.77782">
        <ele>1187.85</ele>
        <time>2012-04-09T08:25:32Z</time>
      </trkpt>
      <trkpt lat="45.8667" lon="5.77781">
        <ele>1188.81</ele>
        <time>2012-04-09T08:25:34Z</time>
      </trkpt>
      <trkpt lat="45.8667" lon="5.7778">
        <ele>1189.77</ele>
        <time>2012-04-09T08:25:36Z</time>
      </trkpt>
      <trkpt lat="45.86671" lon="5.77776">
        <ele>1190.25</ele>
        <time>2012-04-09T08:25:38Z</time>
      </trkpt>
      <trkpt lat="45.86672" lon="5.77772">
        <ele>1190.73</ele>
        <time>2012-04-09T08:25:40Z</time>
      </trkpt>
      <trkpt lat="45.86673" lon="5.7777">
        <ele>1190.73</ele>
        <time>2012-04-09T08:25:42Z</time>
      </trkpt>
      <trkpt lat="45.86674" lon="5.77768">
        <ele>1190.73</ele>
        <time>2012-04-09T08:25:44Z</time>
      </trkpt>
      <trkpt lat="45.86671" lon="5.77763">
        <ele>1191.69</ele>
        <time>2012-04-09T08:25:46Z</time>
      </trkpt>
      <trkpt lat="45.86669" lon="5.77758">
        <ele>1191.21</ele>
        <time>2012-04-09T08:25:48Z</time>
      </trkpt>
      <trkpt lat="45.86669" lon="5.77755">
        <ele>1192.17</ele>
        <time>2012-04-09T08:25:50Z</time>
      </trkpt>
      <trkpt lat="45.8667" lon="5.77753">
        <ele>1192.65</ele>
        <time>2012-04-09T08:25:52Z</time>
      </trkpt>
      <trkpt lat="45.86671" lon="5.77753">
        <ele>1193.13</ele>
        <time>2012-04-09T08:25:54Z</time>
      </trkpt>
      <trkpt lat="45.86671" lon="5.77752">
        <ele>1193.13</ele>
        <time>2012-04-09T08:25:56Z</time>
      </trkpt>
      <trkpt lat="45.86672" lon="5.77751">
        <ele>1194.09</ele>
        <time>2012-04-09T08:25:58Z</time>
      </trkpt>
      <trkpt lat="45.86673" lon="5.77751">
        <ele>1194.09</ele>
        <time>2012-04-09T08:26:00Z</time>
      </trkpt>
      <trkpt lat="45.86675" lon="5.77749">
        <ele>1195.06</ele>
        <time>2012-04-09T08:26:02Z</time>
      </trkpt>
      <trkpt lat="45.86676" lon="5.77747">
        <ele>1195.06</ele>
        <time>2012-04-09T08:26:04Z</time>
      </trkpt>
      <trkpt lat="45.86676" lon="5.77743">
        <ele>1195.06</ele>
        <time>2012-04-09T08:26:06Z</time>
      </trkpt>
      <trkpt lat="45.86677" lon="5.77741">
        <ele>1195.54</ele>
        <time>2012-04-09T08:26:08Z</time>
      </trkpt>
      <trkpt lat="45.86677" lon="5.77739">
        <ele>1196.02</ele>
        <time>2012-04-09T08:26:10Z</time>
      </trkpt>
      <trkpt lat="45.86677" lon="5.77733">
        <ele>1196.5</ele>
        <time>2012-04-09T08:26:12Z</time>
      </trkpt>
      <trkpt lat="45.86676" lon="5.77729">
        <ele>1196.98</ele>
        <time>2012-04-09T08:26:14Z</time>
      </trkpt>
      <trkpt lat="45.86674" lon="5.77727">
        <ele>1197.46</ele>
        <time>2012-04-09T08:26:16Z</time>
      </trkpt>
      <trkpt lat="45.86672" lon="5.77726">
        <ele>1198.42</ele>
        <time>2012-04-09T08:26:18Z</time>
      </trkpt>
      <trkpt lat="45.86671" lon="5.77725">
        <ele>1197.94</ele>
        <time>2012-04-09T08:26:20Z</time>
      </trkpt>
      <trkpt lat="45.86668" lon="5.7772">
        <ele>1198.9</ele>
        <time>2012-04-09T08:26:22Z</time>
      </trkpt>
      <trkpt lat="45.86667" lon="5.77714">
        <ele>1199.38</ele>
        <time>2012-04-09T08:26:24Z</time>
      </trkpt>
      <trkpt lat="45.86665" lon="5.7771">
        <ele>1200.34</ele>
        <time>2012-04-09T08:26:26Z</time>
      </trkpt>
      <trkpt lat="45.86663" lon="5.77706">
        <ele>1200.82</ele>
        <time>2012-04-09T08:26:28Z</time>
      </trkpt>
      <trkpt lat="45.86662" lon="5.77701">
        <ele>1200.82</ele>
        <time>2012-04-09T08:26:30Z</time>
      </trkpt>
      <trkpt lat="45.86661" lon="5.77697">
        <ele>1201.3</ele>
        <time>2012-04-09T08:26:32Z</time>
      </trkpt>
      <trkpt lat="45.86659" lon="5.77694">
        <ele>1202.75</ele>
        <time>2012-04-09T08:26:34Z</time>
      </trkpt>
      <trkpt lat="45.86657" lon="5.77691">
        <ele>1202.75</ele>
        <time>2012-04-09T08:26:36Z</time>
      </trkpt>
      <trkpt lat="45.86655" lon="5.77688">
        <ele>1203.23</ele>
        <time>2012-04-09T08:26:38Z</time>
      </trkpt>
      <trkpt lat="45.86653" lon="5.77684">
        <ele>1203.71</ele>
        <time>2012-04-09T08:26:40Z</time>
      </trkpt>
      <trkpt lat="45.86652" lon="5.7768">
        <ele>1204.67</ele>
        <time>2012-04-09T08:26:42Z</time>
      </trkpt>
      <trkpt lat="45.86652" lon="5.77675">
        <ele>1205.15</ele>
        <time>2012-04-09T08:26:44Z</time>
      </trkpt>
      <trkpt lat="45.86651" lon="5.77672">
        <ele>1205.15</ele>
        <time>2012-04-09T08:26:46Z</time>
      </trkpt>
      <trkpt lat="45.86648" lon="5.77669">
        <ele>1205.63</ele>
        <time>2012-04-09T08:26:48Z</time>
      </trkpt>
      <trkpt lat="45.86646" lon="5.77665">
        <ele>1206.11</ele>
        <time>2012-04-09T08:26:50Z</time>
      </trkpt>
      <trkpt lat="45.86645" lon="5.7766">
        <ele>1206.59</ele>
        <time>2012-04-09T08:26:52Z</time>
      </trkpt>
      <trkpt lat="45.86643" lon="5.77655">
        <ele>1207.07</ele>
        <time>2012-04-09T08:26:54Z</time>
      </trkpt>
      <trkpt lat="45.86641" lon="5.7765">
        <ele>1207.07</ele>
        <time>2012-04-09T08:26:56Z</time>
      </trkpt>
      <trkpt lat="45.86637" lon="5.77648">
        <ele>1207.55</ele>
        <time>2012-04-09T08:26:58Z</time>
      </trkpt>
      <trkpt lat="45.86634" lon="5.77646">
        <ele>1209</ele>
        <time>2012-04-09T08:27:00Z</time>
      </trkpt>
      <trkpt lat="45.86632" lon="5.77642">
        <ele>1209.48</ele>
        <time>2012-04-09T08:27:02Z</time>
      </trkpt>
      <trkpt lat="45.8663" lon="5.77636">
        <ele>1209.96</ele>
        <time>2012-04-09T08:27:04Z</time>
      </trkpt>
      <trkpt lat="45.86628" lon="5.77634">
        <ele>1210.44</ele>
        <time>2012-04-09T08:27:06Z</time>
      </trkpt>
      <trkpt lat="45.86627" lon="5.77629">
        <ele>1210.92</ele>
        <time>2012-04-09T08:27:08Z</time>
      </trkpt>
      <trkpt lat="45.86625" lon="5.77625">
        <ele>1210.92</ele>
        <time>2012-04-09T08:27:10Z</time>
      </trkpt>
      <trkpt lat="45.86623" lon="5.77621">
        <ele>1211.4</ele>
        <time>2012-04-09T08:27:12Z</time>
      </trkpt>
      <trkpt lat="45.86621" lon="5.77618">
        <ele>1211.88</ele>
        <time>2012-04-09T08:27:14Z</time>
      </trkpt>
      <trkpt lat="45.86619" lon="5.77616">
        <ele>1211.88</ele>
        <time>2012-04-09T08:27:16Z</time>
      </trkpt>
      <trkpt lat="45.86617" lon="5.77613">
        <ele>1212.84</ele>
        <time>2012-04-09T08:27:18Z</time>
      </trkpt>
      <trkpt lat="45.86616" lon="5.77611">
        <ele>1212.84</ele>
        <time>2012-04-09T08:27:20Z</time>
      </trkpt>
      <trkpt lat="45.86614" lon="5.77608">
        <ele>1213.8</ele>
        <time>2012-04-09T08:27:22Z</time>
      </trkpt>
      <trkpt lat="45.86612" lon="5.77604">
        <ele>1213.8</ele>
        <time>2012-04-09T08:27:24Z</time>
      </trkpt>
      <trkpt lat="45.86612" lon="5.77598">
        <ele>1214.28</ele>
        <time>2012-04-09T08:27:26Z</time>
      </trkpt>
      <trkpt lat="45.86612" lon="5.77593">
        <ele>1214.76</ele>
        <time>2012-04-09T08:27:28Z</time>
      </trkpt>
      <trkpt lat="45.86612" lon="5.77588">
        <ele>1215.24</ele>
        <time>2012-04-09T08:27:30Z</time>
      </trkpt>
      <trkpt lat="45.86611" lon="5.77585">
        <ele>1216.21</ele>
        <time>2012-04-09T08:27:32Z</time>
      </trkpt>
      <trkpt lat="45.8661" lon="5.77582">
        <ele>1216.69</ele>
        <time>2012-04-09T08:27:34Z</time>
      </trkpt>
      <trkpt lat="45.8661" lon="5.77582">
        <ele>1217.17</ele>
        <time>2012-04-09T08:27:36Z</time>
      </trkpt>
      <trkpt lat="45.86612" lon="5.77579">
        <ele>1218.13</ele>
        <time>2012-04-09T08:27:38Z</time>
      </trkpt>
      <trkpt lat="45.86611" lon="5.77575">
        <ele>1218.61</ele>
        <time>2012-04-09T08:27:40Z</time>
      </trkpt>
      <trkpt lat="45.8661" lon="5.77569">
        <ele>1218.61</ele>
        <time>2012-04-09T08:27:42Z</time>
      </trkpt>
      <trkpt lat="45.86609" lon="5.77567">
        <ele>1219.09</ele>
        <time>2012-04-09T08:27:44Z</time>
      </trkpt>
      <trkpt lat="45.8661" lon="5.77558">
        <ele>1219.57</ele>
        <time>2012-04-09T08:27:46Z</time>
      </trkpt>
      <trkpt lat="45.86609" lon="5.77551">
        <ele>1220.05</ele>
        <time>2012-04-09T08:27:48Z</time>
      </trkpt>
      <trkpt lat="45.86607" lon="5.77546">
        <ele>1220.53</ele>
        <time>2012-04-09T08:27:50Z</time>
      </trkpt>
      <trkpt lat="45.86605" lon="5.77542">
        <ele>1221.01</ele>
        <time>2012-04-09T08:27:52Z</time>
      </trkpt>
      <trkpt lat="45.86602" lon="5.77539">
        <ele>1221.01</ele>
        <time>2012-04-09T08:27:54Z</time>
      </trkpt>
      <trkpt lat="45.866" lon="5.77534">
        <ele>1221.49</ele>
        <time>2012-04-09T08:27:56Z</time>
      </trkpt>
      <trkpt lat="45.86598" lon="5.7753">
        <ele>1221.97</ele>
        <time>2012-04-09T08:27:58Z</time>
      </trkpt>
      <trkpt lat="45.86596" lon="5.77525">
        <ele>1222.45</ele>
        <time>2012-04-09T08:28:00Z</time>
      </trkpt>
      <trkpt lat="45.86596" lon="5.7752">
        <ele>1223.42</ele>
        <time>2012-04-09T08:28:02Z</time>
      </trkpt>
      <trkpt lat="45.86594" lon="5.77514">
        <ele>1224.38</ele>
        <time>2012-04-09T08:28:04Z</time>
      </trkpt>
      <trkpt lat="45.86593" lon="5.77509">
        <ele>1224.38</ele>
        <time>2012-04-09T08:28:06Z</time>
      </trkpt>
      <trkpt lat="45.86592" lon="5.77507">
        <ele>1224.86</ele>
        <time>2012-04-09T08:28:08Z</time>
      </trkpt>
      <trkpt lat="45.86589" lon="5.77504">
        <ele>1224.86</ele>
        <time>2012-04-09T08:28:10Z</time>
      </trkpt>
      <trkpt lat="45.86588" lon="5.77501">
        <ele>1225.82</ele>
        <time>2012-04-09T08:28:12Z</time>
      </trkpt>
      <trkpt lat="45.86586" lon="5.77498">
        <ele>1226.3</ele>
        <time>2012-04-09T08:28:14Z</time>
      </trkpt>
      <trkpt lat="45.86585" lon="5.77495">
        <ele>1226.3</ele>
        <time>2012-04-09T08:28:16Z</time>
      </trkpt>
      <trkpt lat="45.8658" lon="5.77492">
        <ele>1226.78</ele>
        <time>2012-04-09T08:28:18Z</time>
      </trkpt>
      <trkpt lat="45.86578" lon="5.77492">
        <ele>1226.78</ele>
        <time>2012-04-09T08:28:20Z</time>
      </trkpt>
      <trkpt lat="45.86578" lon="5.77492">
        <ele>1226.78</ele>
        <time>2012-04-09T08:28:22Z</time>
      </trkpt>
      <trkpt lat="45.86578" lon="5.77492">
        <ele>1226.3</ele>
        <time>2012-04-09T08:28:24Z</time>
      </trkpt>
      <trkpt lat="45.86578" lon="5.77492">
        <ele>1225.82</ele>
        <time>2012-04-09T08:28:26Z</time>
      </trkpt>
      <trkpt lat="45.86578" lon="5.77492">
        <ele>1225.82</ele>
        <time>2012-04-09T08:28:28Z</time>
      </trkpt>
      <trkpt lat="45.86578" lon="5.77492">
        <ele>1226.78</ele>
        <time>2012-04-09T08:28:30Z</time>
      </trkpt>
      <trkpt lat="45.86578" lon="5.77492">
        <ele>1227.26</ele>
        <time>2012-04-09T08:28:32Z</time>
      </trkpt>
      <trkpt lat="45.86579" lon="5.77491">
        <ele>1226.3</ele>
        <time>2012-04-09T08:28:34Z</time>
      </trkpt>
      <trkpt lat="45.86579" lon="5.77491">
        <ele>1226.78</ele>
        <time>2012-04-09T08:28:36Z</time>
      </trkpt>
      <trkpt lat="45.86581" lon="5.77486">
        <ele>1226.78</ele>
        <time>2012-04-09T08:28:38Z</time>
      </trkpt>
      <trkpt lat="45.86582" lon="5.77479">
        <ele>1226.3</ele>
        <time>2012-04-09T08:28:40Z</time>
      </trkpt>
      <trkpt lat="45.86579" lon="5.77475">
        <ele>1226.78</ele>
        <time>2012-04-09T08:28:42Z</time>
      </trkpt>
      <trkpt lat="45.86574" lon="5.77471">
        <ele>1226.78</ele>
        <time>2012-04-09T08:28:44Z</time>
      </trkpt>
      <trkpt lat="45.86572" lon="5.77465">
        <ele>1226.78</ele>
        <time>2012-04-09T08:28:46Z</time>
      </trkpt>
      <trkpt lat="45.86571" lon="5.77461">
        <ele>1227.74</ele>
        <time>2012-04-09T08:28:48Z</time>
      </trkpt>
      <trkpt lat="45.86571" lon="5.77457">
        <ele>1226.78</ele>
        <time>2012-04-09T08:28:50Z</time>
      </trkpt>
      <trkpt lat="45.8657" lon="5.77453">
        <ele>1227.74</ele>
        <time>2012-04-09T08:28:52Z</time>
      </trkpt>
      <trkpt lat="45.86569" lon="5.77449">
        <ele>1227.74</ele>
        <time>2012-04-09T08:28:54Z</time>
      </trkpt>
      <trkpt lat="45.86569" lon="5.77444">
        <ele>1227.26</ele>
        <time>2012-04-09T08:28:56Z</time>
      </trkpt>
      <trkpt lat="45.86568" lon="5.77438">
        <ele>1227.74</ele>
        <time>2012-04-09T08:28:58Z</time>
      </trkpt>
      <trkpt lat="45.86566" lon="5.77435">
        <ele>1228.22</ele>
        <time>2012-04-09T08:29:00Z</time>
      </trkpt>
      <trkpt lat="45.86559" lon="5.77427">
        <ele>1228.22</ele>
        <time>2012-04-09T08:29:02Z</time>
      </trkpt>
      <trkpt lat="45.86553" lon="5.77422">
        <ele>1227.74</ele>
        <time>2012-04-09T08:29:04Z</time>
      </trkpt>
      <trkpt lat="45.8655" lon="5.77415">
        <ele>1227.74</ele>
        <time>2012-04-09T08:29:06Z</time>
      </trkpt>
      <trkpt lat="45.86547" lon="5.77411">
        <ele>1227.26</ele>
        <time>2012-04-09T08:29:08Z</time>
      </trkpt>
      <trkpt lat="45.86544" lon="5.77408">
        <ele>1227.26</ele>
        <time>2012-04-09T08:29:10Z</time>
      </trkpt>
      <trkpt lat="45.86543" lon="5.77404">
        <ele>1227.74</ele>
        <time>2012-04-09T08:29:12Z</time>
      </trkpt>
      <trkpt lat="45.86542" lon="5.77401">
        <ele>1227.74</ele>
        <time>2012-04-09T08:29:14Z</time>
      </trkpt>
      <trkpt lat="45.86541" lon="5.774">
        <ele>1227.74</ele>
        <time>2012-04-09T08:29:16Z</time>
      </trkpt>
      <trkpt lat="45.86542" lon="5.77402">
        <ele>1227.26</ele>
        <time>2012-04-09T08:29:18Z</time>
      </trkpt>
      <trkpt lat="45.86542" lon="5.77405">
        <ele>1227.74</ele>
        <time>2012-04-09T08:29:20Z</time>
      </trkpt>
      <trkpt lat="45.86546" lon="5.77411">
        <ele>1227.26</ele>
        <time>2012-04-09T08:29:22Z</time>
      </trkpt>
      <trkpt lat="45.86549" lon="5.77416">
        <ele>1227.26</ele>
        <time>2012-04-09T08:29:24Z</time>
      </trkpt>
      <trkpt lat="45.86552" lon="5.77423">
        <ele>1227.26</ele>
        <time>2012-04-09T08:29:26Z</time>
      </trkpt>
      <trkpt lat="45.86554" lon="5.7743">
        <ele>1227.74</ele>
        <time>2012-04-09T08:29:28Z</time>
      </trkpt>
      <trkpt lat="45.86556" lon="5.77437">
        <ele>1227.74</ele>
        <time>2012-04-09T08:29:30Z</time>
      </trkpt>
      <trkpt lat="45.86559" lon="5.77445">
        <ele>1227.26</ele>
        <time>2012-04-09T08:29:32Z</time>
      </trkpt>
      <trkpt lat="45.86562" lon="5.77451">
        <ele>1226.3</ele>
        <time>2012-04-09T08:29:34Z</time>
      </trkpt>
      <trkpt lat="45.86566" lon="5.77456">
        <ele>1226.78</ele>
        <time>2012-04-09T08:29:36Z</time>
      </trkpt>
      <trkpt lat="45.86569" lon="5.77459">
        <ele>1226.78</ele>
        <time>2012-04-09T08:29:38Z</time>
      </trkpt>
      <trkpt lat="45.86573" lon="5.7746">
        <ele>1227.26</ele>
        <time>2012-04-09T08:29:40Z</time>
      </trkpt>
      <trkpt lat="45.86578" lon="5.77461">
        <ele>1227.74</ele>
        <time>2012-04-09T08:29:42Z</time>
      </trkpt>
      <trkpt lat="45.86582" lon="5.77462">
        <ele>1227.74</ele>
        <time>2012-04-09T08:29:44Z</time>
      </trkpt>
      <trkpt lat="45.86586" lon="5.7746">
        <ele>1228.22</ele>
        <time>2012-04-09T08:29:46Z</time>
      </trkpt>
      <trkpt lat="45.86591" lon="5.77459">
        <ele>1229.18</ele>
        <time>2012-04-09T08:29:47Z</time>
      </trkpt>
      <trkpt lat="45.86596" lon="5.7746">
        <ele>1229.18</ele>
        <time>2012-04-09T08:29:49Z</time>
      </trkpt>
      <trkpt lat="45.866" lon="5.77462">
        <ele>1228.7</ele>
        <time>2012-04-09T08:29:51Z</time>
      </trkpt>
      <trkpt lat="45.86604" lon="5.77463">
        <ele>1228.7</ele>
        <time>2012-04-09T08:29:53Z</time>
      </trkpt>
      <trkpt lat="45.86605" lon="5.77464">
        <ele>1228.7</ele>
        <time>2012-04-09T08:29:55Z</time>
      </trkpt>
      <trkpt lat="45.86606" lon="5.77464">
        <ele>1228.7</ele>
        <time>2012-04-09T08:29:57Z</time>
      </trkpt>
      <trkpt lat="45.86608" lon="5.77464">
        <ele>1228.7</ele>
        <time>2012-04-09T08:29:59Z</time>
      </trkpt>
      <trkpt lat="45.8661" lon="5.77463">
        <ele>1229.18</ele>
        <time>2012-04-09T08:30:01Z</time>
      </trkpt>
      <trkpt lat="45.86611" lon="5.7746">
        <ele>1228.7</ele>
        <time>2012-04-09T08:30:03Z</time>
      </trkpt>
      <trkpt lat="45.86612" lon="5.77459">
        <ele>1229.66</ele>
        <time>2012-04-09T08:30:05Z</time>
      </trkpt>
      <trkpt lat="45.86613" lon="5.77457">
        <ele>1229.66</ele>
        <time>2012-04-09T08:30:07Z</time>
      </trkpt>
      <trkpt lat="45.86613" lon="5.77457">
        <ele>1229.18</ele>
        <time>2012-04-09T08:30:09Z</time>
      </trkpt>
      <trkpt lat="45.86613" lon="5.77457">
        <ele>1230.62</ele>
        <time>2012-04-09T08:30:11Z</time>
      </trkpt>
      <trkpt lat="45.86613" lon="5.77457">
        <ele>1229.18</ele>
        <time>2012-04-09T08:30:13Z</time>
      </trkpt>
      <trkpt lat="45.86614" lon="5.77456">
        <ele>1229.18</ele>
        <time>2012-04-09T08:30:15Z</time>
      </trkpt>
      <trkpt lat="45.86615" lon="5.77454">
        <ele>1229.66</ele>
        <time>2012-04-09T08:30:17Z</time>
      </trkpt>
      <trkpt lat="45.86615" lon="5.77452">
        <ele>1229.66</ele>
        <time>2012-04-09T08:30:19Z</time>
      </trkpt>
      <trkpt lat="45.86615" lon="5.77452">
        <ele>1229.66</ele>
        <time>2012-04-09T08:30:21Z</time>
      </trkpt>
      <trkpt lat="45.86615" lon="5.77452">
        <ele>1230.14</ele>
        <time>2012-04-09T08:30:23Z</time>
      </trkpt>
      <trkpt lat="45.86615" lon="5.77452">
        <ele>1229.66</ele>
        <time>2012-04-09T08:30:25Z</time>
      </trkpt>
      <trkpt lat="45.86615" lon="5.77452">
        <ele>1229.66</ele>
        <time>2012-04-09T08:30:27Z</time>
      </trkpt>
      <trkpt lat="45.86615" lon="5.77452">
        <ele>1230.14</ele>
        <time>2012-04-09T08:30:29Z</time>
      </trkpt>
      <trkpt lat="45.86615" lon="5.77452">
        <ele>1230.14</ele>
        <time>2012-04-09T08:30:31Z</time>
      </trkpt>
      <trkpt lat="45.86615" lon="5.77452">
        <ele>1230.14</ele>
        <time>2012-04-09T08:30:33Z</time>
      </trkpt>
      <trkpt lat="45.86615" lon="5.77452">
        <ele>1229.66</ele>
        <time>2012-04-09T08:30:35Z</time>
      </trkpt>
      <trkpt lat="45.86615" lon="5.77452">
        <ele>1229.66</ele>
        <time>2012-04-09T08:30:37Z</time>
      </trkpt>
      <trkpt lat="45.86615" lon="5.77452">
        <ele>1230.14</ele>
        <time>2012-04-09T08:30:39Z</time>
      </trkpt>
      <trkpt lat="45.86615" lon="5.77452">
        <ele>1229.66</ele>
        <time>2012-04-09T08:30:41Z</time>
      </trkpt>
      <trkpt lat="45.86615" lon="5.77452">
        <ele>1230.14</ele>
        <time>2012-04-09T08:30:43Z</time>
      </trkpt>
      <trkpt lat="45.86615" lon="5.77452">
        <ele>1229.66</ele>
        <time>2012-04-09T08:30:45Z</time>
      </trkpt>
      <trkpt lat="45.86615" lon="5.77452">
        <ele>1229.66</ele>
        <time>2012-04-09T08:30:47Z</time>
      </trkpt>
      <trkpt lat="45.86615" lon="5.77452">
        <ele>1229.66</ele>
        <time>2012-04-09T08:30:49Z</time>
      </trkpt>
      <trkpt lat="45.86615" lon="5.77452">
        <ele>1229.66</ele>
        <time>2012-04-09T08:30:51Z</time>
      </trkpt>
      <trkpt lat="45.86615" lon="5.77452">
        <ele>1229.66</ele>
        <time>2012-04-09T08:30:53Z</time>
      </trkpt>
      <trkpt lat="45.86615" lon="5.77452">
        <ele>1229.66</ele>
        <time>2012-04-09T08:30:55Z</time>
      </trkpt>
      <trkpt lat="45.86615" lon="5.77452">
        <ele>1229.18</ele>
        <time>2012-04-09T08:30:57Z</time>
      </trkpt>
      <trkpt lat="45.86615" lon="5.77453">
        <ele>1229.18</ele>
        <time>2012-04-09T08:30:59Z</time>
      </trkpt>
      <trkpt lat="45.86616" lon="5.7745">
        <ele>1229.18</ele>
        <time>2012-04-09T08:31:01Z</time>
      </trkpt>
      <trkpt lat="45.86617" lon="5.77447">
        <ele>1229.66</ele>
        <time>2012-04-09T08:31:03Z</time>
      </trkpt>
      <trkpt lat="45.86619" lon="5.77444">
        <ele>1229.66</ele>
        <time>2012-04-09T08:31:05Z</time>
      </trkpt>
      <trkpt lat="45.8662" lon="5.77441">
        <ele>1230.14</ele>
        <time>2012-04-09T08:31:07Z</time>
      </trkpt>
      <trkpt lat="45.8662" lon="5.77438">
        <ele>1230.62</ele>
        <time>2012-04-09T08:31:09Z</time>
      </trkpt>
      <trkpt lat="45.86619" lon="5.77435">
        <ele>1231.11</ele>
        <time>2012-04-09T08:31:11Z</time>
      </trkpt>
      <trkpt lat="45.86619" lon="5.77432">
        <ele>1232.07</ele>
        <time>2012-04-09T08:31:13Z</time>
      </trkpt>
      <trkpt lat="45.86619" lon="5.7743">
        <ele>1232.55</ele>
        <time>2012-04-09T08:31:15Z</time>
      </trkpt>
      <trkpt lat="45.86619" lon="5.77427">
        <ele>1233.03</ele>
        <time>2012-04-09T08:31:17Z</time>
      </trkpt>
      <trkpt lat="45.86619" lon="5.77425">
        <ele>1233.51</ele>
        <time>2012-04-09T08:31:19Z</time>
      </trkpt>
      <trkpt lat="45.86619" lon="5.77421">
        <ele>1233.99</ele>
        <time>2012-04-09T08:31:21Z</time>
      </trkpt>
      <trkpt lat="45.86621" lon="5.77415">
        <ele>1233.99</ele>
        <time>2012-04-09T08:31:23Z</time>
      </trkpt>
      <trkpt lat="45.86623" lon="5.77408">
        <ele>1234.47</ele>
        <time>2012-04-09T08:31:25Z</time>
      </trkpt>
      <trkpt lat="45.86627" lon="5.77399">
        <ele>1234.95</ele>
        <time>2012-04-09T08:31:27Z</time>
      </trkpt>
      <trkpt lat="45.86629" lon="5.7739">
        <ele>1235.91</ele>
        <time>2012-04-09T08:31:29Z</time>
      </trkpt>
      <trkpt lat="45.8663" lon="5.77384">
        <ele>1235.91</ele>
        <time>2012-04-09T08:31:31Z</time>
      </trkpt>
      <trkpt lat="45.86631" lon="5.77379">
        <ele>1235.91</ele>
        <time>2012-04-09T08:31:33Z</time>
      </trkpt>
      <trkpt lat="45.86632" lon="5.77373">
        <ele>1236.39</ele>
        <time>2012-04-09T08:31:35Z</time>
      </trkpt>
      <trkpt lat="45.86632" lon="5.7737">
        <ele>1236.87</ele>
        <time>2012-04-09T08:31:37Z</time>
      </trkpt>
      <trkpt lat="45.86634" lon="5.77367">
        <ele>1237.35</ele>
        <time>2012-04-09T08:31:39Z</time>
      </trkpt>
      <trkpt lat="45.86635" lon="5.77364">
        <ele>1237.83</ele>
        <time>2012-04-09T08:31:41Z</time>
      </trkpt>
      <trkpt lat="45.86637" lon="5.77362">
        <ele>1237.83</ele>
        <time>2012-04-09T08:31:43Z</time>
      </trkpt>
      <trkpt lat="45.8664" lon="5.7736">
        <ele>1238.8</ele>
        <time>2012-04-09T08:31:45Z</time>
      </trkpt>
      <trkpt lat="45.86643" lon="5.77355">
        <ele>1239.76</ele>
        <time>2012-04-09T08:31:47Z</time>
      </trkpt>
      <trkpt lat="45.86645" lon="5.77348">
        <ele>1240.72</ele>
        <time>2012-04-09T08:31:49Z</time>
      </trkpt>
      <trkpt lat="45.86648" lon="5.77343">
        <ele>1240.72</ele>
        <time>2012-04-09T08:31:51Z</time>
      </trkpt>
      <trkpt lat="45.8665" lon="5.77341">
        <ele>1241.2</ele>
        <time>2012-04-09T08:31:53Z</time>
      </trkpt>
      <trkpt lat="45.86653" lon="5.77338">
        <ele>1241.68</ele>
        <time>2012-04-09T08:31:55Z</time>
      </trkpt>
      <trkpt lat="45.86655" lon="5.77333">
        <ele>1241.68</ele>
        <time>2012-04-09T08:31:57Z</time>
      </trkpt>
      <trkpt lat="45.86657" lon="5.7733">
        <ele>1242.16</ele>
        <time>2012-04-09T08:31:59Z</time>
      </trkpt>
      <trkpt lat="45.86661" lon="5.77327">
        <ele>1243.6</ele>
        <time>2012-04-09T08:32:01Z</time>
      </trkpt>
      <trkpt lat="45.86662" lon="5.77324">
        <ele>1243.6</ele>
        <time>2012-04-09T08:32:03Z</time>
      </trkpt>
      <trkpt lat="45.86665" lon="5.77322">
        <ele>1244.56</ele>
        <time>2012-04-09T08:32:05Z</time>
      </trkpt>
      <trkpt lat="45.86669" lon="5.77322">
        <ele>1244.56</ele>
        <time>2012-04-09T08:32:07Z</time>
      </trkpt>
      <trkpt lat="45.86673" lon="5.77321">
        <ele>1245.04</ele>
        <time>2012-04-09T08:32:09Z</time>
      </trkpt>
      <trkpt lat="45.86676" lon="5.7732">
        <ele>1245.53</ele>
        <time>2012-04-09T08:32:11Z</time>
      </trkpt>
      <trkpt lat="45.86679" lon="5.77319">
        <ele>1246.01</ele>
        <time>2012-04-09T08:32:13Z</time>
      </trkpt>
      <trkpt lat="45.86681" lon="5.77317">
        <ele>1246.49</ele>
        <time>2012-04-09T08:32:15Z</time>
      </trkpt>
      <trkpt lat="45.86684" lon="5.77315">
        <ele>1246.97</ele>
        <time>2012-04-09T08:32:17Z</time>
      </trkpt>
      <trkpt lat="45.86688" lon="5.77312">
        <ele>1247.45</ele>
        <time>2012-04-09T08:32:19Z</time>
      </trkpt>
      <trkpt lat="45.86691" lon="5.77309">
        <ele>1247.93</ele>
        <time>2012-04-09T08:32:21Z</time>
      </trkpt>
      <trkpt lat="45.86695" lon="5.77306">
        <ele>1247.93</ele>
        <time>2012-04-09T08:32:23Z</time>
      </trkpt>
      <trkpt lat="45.86699" lon="5.77302">
        <ele>1248.41</ele>
        <time>2012-04-09T08:32:25Z</time>
      </trkpt>
      <trkpt lat="45.86703" lon="5.77299">
        <ele>1248.41</ele>
        <time>2012-04-09T08:32:27Z</time>
      </trkpt>
      <trkpt lat="45.86705" lon="5.77296">
        <ele>1248.41</ele>
        <time>2012-04-09T08:32:29Z</time>
      </trkpt>
      <trkpt lat="45.86708" lon="5.77295">
        <ele>1248.89</ele>
        <time>2012-04-09T08:32:31Z</time>
      </trkpt>
      <trkpt lat="45.86708" lon="5.77295">
        <ele>1249.37</ele>
        <time>2012-04-09T08:32:33Z</time>
      </trkpt>
      <trkpt lat="45.86708" lon="5.77295">
        <ele>1249.85</ele>
        <time>2012-04-09T08:32:35Z</time>
      </trkpt>
      <trkpt lat="45.86708" lon="5.77295">
        <ele>1249.37</ele>
        <time>2012-04-09T08:32:37Z</time>
      </trkpt>
      <trkpt lat="45.86708" lon="5.77295">
        <ele>1249.85</ele>
        <time>2012-04-09T08:32:39Z</time>
      </trkpt>
      <trkpt lat="45.86708" lon="5.77295">
        <ele>1249.85</ele>
        <time>2012-04-09T08:32:41Z</time>
      </trkpt>
      <trkpt lat="45.86708" lon="5.77295">
        <ele>1248.89</ele>
        <time>2012-04-09T08:32:43Z</time>
      </trkpt>
      <trkpt lat="45.86708" lon="5.77295">
        <ele>1249.85</ele>
        <time>2012-04-09T08:32:45Z</time>
      </trkpt>
      <trkpt lat="45.86707" lon="5.77293">
        <ele>1250.81</ele>
        <time>2012-04-09T08:32:47Z</time>
      </trkpt>
      <trkpt lat="45.86706" lon="5.7729">
        <ele>1250.81</ele>
        <time>2012-04-09T08:32:49Z</time>
      </trkpt>
      <trkpt lat="45.86707" lon="5.77284">
        <ele>1250.81</ele>
        <time>2012-04-09T08:32:51Z</time>
      </trkpt>
      <trkpt lat="45.86709" lon="5.77278">
        <ele>1250.33</ele>
        <time>2012-04-09T08:32:53Z</time>
      </trkpt>
      <trkpt lat="45.86712" lon="5.77271">
        <ele>1250.81</ele>
        <time>2012-04-09T08:32:55Z</time>
      </trkpt>
      <trkpt lat="45.86717" lon="5.77263">
        <ele>1250.81</ele>
        <time>2012-04-09T08:32:57Z</time>
      </trkpt>
      <trkpt lat="45.8672" lon="5.77256">
        <ele>1251.29</ele>
        <time>2012-04-09T08:32:59Z</time>
      </trkpt>
      <trkpt lat="45.86722" lon="5.77251">
        <ele>1252.25</ele>
        <time>2012-04-09T08:33:01Z</time>
      </trkpt>
      <trkpt lat="45.86725" lon="5.77247">
        <ele>1254.18</ele>
        <time>2012-04-09T08:33:03Z</time>
      </trkpt>
      <trkpt lat="45.86728" lon="5.77245">
        <ele>1253.22</ele>
        <time>2012-04-09T08:33:05Z</time>
      </trkpt>
      <trkpt lat="45.86732" lon="5.77242">
        <ele>1253.22</ele>
        <time>2012-04-09T08:33:07Z</time>
      </trkpt>
      <trkpt lat="45.86737" lon="5.77242">
        <ele>1253.7</ele>
        <time>2012-04-09T08:33:09Z</time>
      </trkpt>
      <trkpt lat="45.86741" lon="5.77244">
        <ele>1253.7</ele>
        <time>2012-04-09T08:33:11Z</time>
      </trkpt>
      <trkpt lat="45.86745" lon="5.77246">
        <ele>1253.7</ele>
        <time>2012-04-09T08:33:13Z</time>
      </trkpt>
      <trkpt lat="45.86753" lon="5.77245">
        <ele>1253.7</ele>
        <time>2012-04-09T08:33:15Z</time>
      </trkpt>
      <trkpt lat="45.8676" lon="5.77242">
        <ele>1254.18</ele>
        <time>2012-04-09T08:33:17Z</time>
      </trkpt>
      <trkpt lat="45.86766" lon="5.77241">
        <ele>1254.18</ele>
        <time>2012-04-09T08:33:19Z</time>
      </trkpt>
      <trkpt lat="45.8677" lon="5.77242">
        <ele>1254.18</ele>
        <time>2012-04-09T08:33:21Z</time>
      </trkpt>
      <trkpt lat="45.86775" lon="5.77243">
        <ele>1254.66</ele>
        <time>2012-04-09T08:33:23Z</time>
      </trkpt>
      <trkpt lat="45.86781" lon="5.77244">
        <ele>1254.18</ele>
        <time>2012-04-09T08:33:25Z</time>
      </trkpt>
      <trkpt lat="45.86786" lon="5.77246">
        <ele>1254.18</ele>
        <time>2012-04-09T08:33:27Z</time>
      </trkpt>
      <trkpt lat="45.86792" lon="5.77246">
        <ele>1254.18</ele>
        <time>2012-04-09T08:33:29Z</time>
      </trkpt>
      <trkpt lat="45.86796" lon="5.77247">
        <ele>1253.7</ele>
        <time>2012-04-09T08:33:31Z</time>
      </trkpt>
      <trkpt lat="45.86805" lon="5.77248">
        <ele>1254.18</ele>
        <time>2012-04-09T08:33:33Z</time>
      </trkpt>
      <trkpt lat="45.86812" lon="5.77249">
        <ele>1254.18</ele>
        <time>2012-04-09T08:33:35Z</time>
      </trkpt>
      <trkpt lat="45.86818" lon="5.77249">
        <ele>1254.18</ele>
        <time>2012-04-09T08:33:37Z</time>
      </trkpt>
      <trkpt lat="45.86821" lon="5.77251">
        <ele>1254.66</ele>
        <time>2012-04-09T08:33:39Z</time>
      </trkpt>
      <trkpt lat="45.86821" lon="5.77254">
        <ele>1254.18</ele>
        <time>2012-04-09T08:33:41Z</time>
      </trkpt>
      <trkpt lat="45.86823" lon="5.77259">
        <ele>1254.18</ele>
        <time>2012-04-09T08:33:43Z</time>
      </trkpt>
      <trkpt lat="45.86824" lon="5.77263">
        <ele>1253.22</ele>
        <time>2012-04-09T08:33:45Z</time>
      </trkpt>
      <trkpt lat="45.86826" lon="5.77267">
        <ele>1253.22</ele>
        <time>2012-04-09T08:33:47Z</time>
      </trkpt>
      <trkpt lat="45.86828" lon="5.77271">
        <ele>1253.7</ele>
        <time>2012-04-09T08:33:49Z</time>
      </trkpt>
      <trkpt lat="45.86828" lon="5.77277">
        <ele>1253.7</ele>
        <time>2012-04-09T08:33:51Z</time>
      </trkpt>
      <trkpt lat="45.86825" lon="5.77282">
        <ele>1253.22</ele>
        <time>2012-04-09T08:33:53Z</time>
      </trkpt>
      <trkpt lat="45.86822" lon="5.77288">
        <ele>1253.7</ele>
        <time>2012-04-09T08:33:55Z</time>
      </trkpt>
      <trkpt lat="45.86819" lon="5.77295">
        <ele>1253.22</ele>
        <time>2012-04-09T08:33:57Z</time>
      </trkpt>
      <trkpt lat="45.86817" lon="5.77303">
        <ele>1254.18</ele>
        <time>2012-04-09T08:33:59Z</time>
      </trkpt>
      <trkpt lat="45.86816" lon="5.77307">
        <ele>1254.18</ele>
        <time>2012-04-09T08:34:01Z</time>
      </trkpt>
      <trkpt lat="45.86813" lon="5.77307">
        <ele>1253.7</ele>
        <time>2012-04-09T08:34:03Z</time>
      </trkpt>
      <trkpt lat="45.86812" lon="5.77308">
        <ele>1253.7</ele>
        <time>2012-04-09T08:34:05Z</time>
      </trkpt>
      <trkpt lat="45.86812" lon="5.77308">
        <ele>1253.22</ele>
        <time>2012-04-09T08:34:07Z</time>
      </trkpt>
      <trkpt lat="45.86814" lon="5.77308">
        <ele>1254.18</ele>
        <time>2012-04-09T08:34:09Z</time>
      </trkpt>
      <trkpt lat="45.86817" lon="5.77308">
        <ele>1253.7</ele>
        <time>2012-04-09T08:34:11Z</time>
      </trkpt>
      <trkpt lat="45.86819" lon="5.77308">
        <ele>1254.66</ele>
        <time>2012-04-09T08:34:13Z</time>
      </trkpt>
      <trkpt lat="45.86822" lon="5.77309">
        <ele>1254.18</ele>
        <time>2012-04-09T08:34:15Z</time>
      </trkpt>
      <trkpt lat="45.86824" lon="5.7731">
        <ele>1255.14</ele>
        <time>2012-04-09T08:34:17Z</time>
      </trkpt>
      <trkpt lat="45.86826" lon="5.7731">
        <ele>1255.14</ele>
        <time>2012-04-09T08:34:19Z</time>
      </trkpt>
      <trkpt lat="45.8683" lon="5.77311">
        <ele>1255.14</ele>
        <time>2012-04-09T08:34:21Z</time>
      </trkpt>
      <trkpt lat="45.86835" lon="5.7731">
        <ele>1255.62</ele>
        <time>2012-04-09T08:34:23Z</time>
      </trkpt>
      <trkpt lat="45.86841" lon="5.77309">
        <ele>1256.1</ele>
        <time>2012-04-09T08:34:25Z</time>
      </trkpt>
      <trkpt lat="45.86846" lon="5.77305">
        <ele>1255.62</ele>
        <time>2012-04-09T08:34:27Z</time>
      </trkpt>
      <trkpt lat="45.86851" lon="5.77302">
        <ele>1256.1</ele>
        <time>2012-04-09T08:34:29Z</time>
      </trkpt>
      <trkpt lat="45.86857" lon="5.77299">
        <ele>1256.58</ele>
        <time>2012-04-09T08:34:31Z</time>
      </trkpt>
      <trkpt lat="45.86861" lon="5.77299">
        <ele>1257.06</ele>
        <time>2012-04-09T08:34:33Z</time>
      </trkpt>
      <trkpt lat="45.86862" lon="5.77299">
        <ele>1257.06</ele>
        <time>2012-04-09T08:34:35Z</time>
      </trkpt>
      <trkpt lat="45.86862" lon="5.77299">
        <ele>1257.06</ele>
        <time>2012-04-09T08:34:37Z</time>
      </trkpt>
      <trkpt lat="45.86862" lon="5.77299">
        <ele>1256.58</ele>
        <time>2012-04-09T08:34:39Z</time>
      </trkpt>
      <trkpt lat="45.86863" lon="5.77299">
        <ele>1256.58</ele>
        <time>2012-04-09T08:34:41Z</time>
      </trkpt>
      <trkpt lat="45.86867" lon="5.773">
        <ele>1256.1</ele>
        <time>2012-04-09T08:34:43Z</time>
      </trkpt>
      <trkpt lat="45.86871" lon="5.77302">
        <ele>1258.02</ele>
        <time>2012-04-09T08:34:45Z</time>
      </trkpt>
      <trkpt lat="45.86875" lon="5.77304">
        <ele>1258.5</ele>
        <time>2012-04-09T08:34:47Z</time>
      </trkpt>
      <trkpt lat="45.8688" lon="5.77307">
        <ele>1258.98</ele>
        <time>2012-04-09T08:34:49Z</time>
      </trkpt>
      <trkpt lat="45.86884" lon="5.77311">
        <ele>1258.98</ele>
        <time>2012-04-09T08:34:51Z</time>
      </trkpt>
      <trkpt lat="45.86887" lon="5.77314">
        <ele>1259.46</ele>
        <time>2012-04-09T08:34:53Z</time>
      </trkpt>
      <trkpt lat="45.86891" lon="5.77316">
        <ele>1259.94</ele>
        <time>2012-04-09T08:34:55Z</time>
      </trkpt>
      <trkpt lat="45.86894" lon="5.77319">
        <ele>1260.43</ele>
        <time>2012-04-09T08:34:57Z</time>
      </trkpt>
      <trkpt lat="45.86898" lon="5.77321">
        <ele>1261.39</ele>
        <time>2012-04-09T08:34:59Z</time>
      </trkpt>
      <trkpt lat="45.86901" lon="5.77324">
        <ele>1261.39</ele>
        <time>2012-04-09T08:35:01Z</time>
      </trkpt>
      <trkpt lat="45.86905" lon="5.77327">
        <ele>1262.35</ele>
        <time>2012-04-09T08:35:03Z</time>
      </trkpt>
      <trkpt lat="45.86909" lon="5.77329">
        <ele>1262.35</ele>
        <time>2012-04-09T08:35:05Z</time>
      </trkpt>
      <trkpt lat="45.86913" lon="5.77331">
        <ele>1263.31</ele>
        <time>2012-04-09T08:35:07Z</time>
      </trkpt>
      <trkpt lat="45.86918" lon="5.77334">
        <ele>1263.79</ele>
        <time>2012-04-09T08:35:09Z</time>
      </trkpt>
      <trkpt lat="45.86922" lon="5.77336">
        <ele>1264.27</ele>
        <time>2012-04-09T08:35:11Z</time>
      </trkpt>
      <trkpt lat="45.86926" lon="5.77338">
        <ele>1264.27</ele>
        <time>2012-04-09T08:35:13Z</time>
      </trkpt>
      <trkpt lat="45.8693" lon="5.7734">
        <ele>1264.75</ele>
        <time>2012-04-09T08:35:15Z</time>
      </trkpt>
      <trkpt lat="45.86933" lon="5.77341">
        <ele>1265.23</ele>
        <time>2012-04-09T08:35:17Z</time>
      </trkpt>
      <trkpt lat="45.86938" lon="5.77342">
        <ele>1265.23</ele>
        <time>2012-04-09T08:35:19Z</time>
      </trkpt>
      <trkpt lat="45.86942" lon="5.77343">
        <ele>1265.23</ele>
        <time>2012-04-09T08:35:21Z</time>
      </trkpt>
      <trkpt lat="45.86946" lon="5.77344">
        <ele>1265.71</ele>
        <time>2012-04-09T08:35:23Z</time>
      </trkpt>
      <trkpt lat="45.8695" lon="5.77345">
        <ele>1266.19</ele>
        <time>2012-04-09T08:35:25Z</time>
      </trkpt>
      <trkpt lat="45.86954" lon="5.77346">
        <ele>1266.19</ele>
        <time>2012-04-09T08:35:27Z</time>
      </trkpt>
      <trkpt lat="45.86959" lon="5.77347">
        <ele>1266.67</ele>
        <time>2012-04-09T08:35:29Z</time>
      </trkpt>
      <trkpt lat="45.86962" lon="5.77348">
        <ele>1266.67</ele>
        <time>2012-04-09T08:35:31Z</time>
      </trkpt>
      <trkpt lat="45.86966" lon="5.77349">
        <ele>1267.16</ele>
        <time>2012-04-09T08:35:33Z</time>
      </trkpt>
      <trkpt lat="45.86969" lon="5.7735">
        <ele>1267.16</ele>
        <time>2012-04-09T08:35:35Z</time>
      </trkpt>
      <trkpt lat="45.86972" lon="5.77352">
        <ele>1267.64</ele>
        <time>2012-04-09T08:35:37Z</time>
      </trkpt>
      <trkpt lat="45.86976" lon="5.77354">
        <ele>1267.64</ele>
        <time>2012-04-09T08:35:39Z</time>
      </trkpt>
      <trkpt lat="45.8698" lon="5.77355">
        <ele>1267.64</ele>
        <time>2012-04-09T08:35:41Z</time>
      </trkpt>
      <trkpt lat="45.86984" lon="5.77356">
        <ele>1268.12</ele>
        <time>2012-04-09T08:35:43Z</time>
      </trkpt>
      <trkpt lat="45.86988" lon="5.77357">
        <ele>1268.12</ele>
        <time>2012-04-09T08:35:45Z</time>
      </trkpt>
      <trkpt lat="45.86992" lon="5.77359">
        <ele>1268.6</ele>
        <time>2012-04-09T08:35:47Z</time>
      </trkpt>
      <trkpt lat="45.86998" lon="5.7736">
        <ele>1268.12</ele>
        <time>2012-04-09T08:35:49Z</time>
      </trkpt>
      <trkpt lat="45.87004" lon="5.77361">
        <ele>1269.08</ele>
        <time>2012-04-09T08:35:51Z</time>
      </trkpt>
      <trkpt lat="45.87009" lon="5.77361">
        <ele>1269.08</ele>
        <time>2012-04-09T08:35:53Z</time>
      </trkpt>
      <trkpt lat="45.87013" lon="5.77363">
        <ele>1269.08</ele>
        <time>2012-04-09T08:35:55Z</time>
      </trkpt>
      <trkpt lat="45.87018" lon="5.77366">
        <ele>1269.08</ele>
        <time>2012-04-09T08:35:57Z</time>
      </trkpt>
      <trkpt lat="45.87022" lon="5.77366">
        <ele>1269.56</ele>
        <time>2012-04-09T08:35:59Z</time>
      </trkpt>
      <trkpt lat="45.87028" lon="5.77369">
        <ele>1269.56</ele>
        <time>2012-04-09T08:36:01Z</time>
      </trkpt>
      <trkpt lat="45.87033" lon="5.7737">
        <ele>1270.04</ele>
        <time>2012-04-09T08:36:03Z</time>
      </trkpt>
      <trkpt lat="45.87036" lon="5.77371">
        <ele>1269.56</ele>
        <time>2012-04-09T08:36:05Z</time>
      </trkpt>
      <trkpt lat="45.8704" lon="5.77372">
        <ele>1270.04</ele>
        <time>2012-04-09T08:36:07Z</time>
      </trkpt>
      <trkpt lat="45.87044" lon="5.77373">
        <ele>1270.04</ele>
        <time>2012-04-09T08:36:09Z</time>
      </trkpt>
      <trkpt lat="45.87049" lon="5.77374">
        <ele>1270.52</ele>
        <time>2012-04-09T08:36:11Z</time>
      </trkpt>
      <trkpt lat="45.87053" lon="5.77375">
        <ele>1271</ele>
        <time>2012-04-09T08:36:13Z</time>
      </trkpt>
      <trkpt lat="45.87058" lon="5.77375">
        <ele>1271</ele>
        <time>2012-04-09T08:36:15Z</time>
      </trkpt>
      <trkpt lat="45.87061" lon="5.77375">
        <ele>1271.48</ele>
        <time>2012-04-09T08:36:17Z</time>
      </trkpt>
      <trkpt lat="45.87064" lon="5.77376">
        <ele>1271.48</ele>
        <time>2012-04-09T08:36:19Z</time>
      </trkpt>
      <trkpt lat="45.87068" lon="5.77378">
        <ele>1271.96</ele>
        <time>2012-04-09T08:36:21Z</time>
      </trkpt>
      <trkpt lat="45.87073" lon="5.7738">
        <ele>1272.44</ele>
        <time>2012-04-09T08:36:23Z</time>
      </trkpt>
      <trkpt lat="45.87077" lon="5.77382">
        <ele>1272.92</ele>
        <time>2012-04-09T08:36:25Z</time>
      </trkpt>
      <trkpt lat="45.8708" lon="5.77387">
        <ele>1272.92</ele>
        <time>2012-04-09T08:36:27Z</time>
      </trkpt>
      <trkpt lat="45.87082" lon="5.77391">
        <ele>1273.4</ele>
        <time>2012-04-09T08:36:29Z</time>
      </trkpt>
      <trkpt lat="45.87084" lon="5.77394">
        <ele>1273.88</ele>
        <time>2012-04-09T08:36:31Z</time>
      </trkpt>
      <trkpt lat="45.87087" lon="5.77396">
        <ele>1273.88</ele>
        <time>2012-04-09T08:36:33Z</time>
      </trkpt>
      <trkpt lat="45.8709" lon="5.77399">
        <ele>1274.36</ele>
        <time>2012-04-09T08:36:35Z</time>
      </trkpt>
      <trkpt lat="45.87095" lon="5.77402">
        <ele>1274.36</ele>
        <time>2012-04-09T08:36:37Z</time>
      </trkpt>
      <trkpt lat="45.871" lon="5.77405">
        <ele>1274.85</ele>
        <time>2012-04-09T08:36:39Z</time>
      </trkpt>
      <trkpt lat="45.87101" lon="5.77406">
        <ele>1274.85</ele>
        <time>2012-04-09T08:36:41Z</time>
      </trkpt>
      <trkpt lat="45.87103" lon="5.77405">
        <ele>1275.33</ele>
        <time>2012-04-09T08:36:43Z</time>
      </trkpt>
      <trkpt lat="45.87104" lon="5.77401">
        <ele>1275.33</ele>
        <time>2012-04-09T08:36:45Z</time>
      </trkpt>
      <trkpt lat="45.87103" lon="5.77394">
        <ele>1275.33</ele>
        <time>2012-04-09T08:36:47Z</time>
      </trkpt>
      <trkpt lat="45.87102" lon="5.77388">
        <ele>1275.33</ele>
        <time>2012-04-09T08:36:49Z</time>
      </trkpt>
      <trkpt lat="45.87101" lon="5.77383">
        <ele>1274.85</ele>
        <time>2012-04-09T08:36:51Z</time>
      </trkpt>
      <trkpt lat="45.87099" lon="5.77379">
        <ele>1274.85</ele>
        <time>2012-04-09T08:36:53Z</time>
      </trkpt>
      <trkpt lat="45.87098" lon="5.77374">
        <ele>1274.85</ele>
        <time>2012-04-09T08:36:55Z</time>
      </trkpt>
      <trkpt lat="45.87097" lon="5.77371">
        <ele>1275.33</ele>
        <time>2012-04-09T08:36:57Z</time>
      </trkpt>
      <trkpt lat="45.87095" lon="5.77366">
        <ele>1275.81</ele>
        <time>2012-04-09T08:36:59Z</time>
      </trkpt>
      <trkpt lat="45.87093" lon="5.77362">
        <ele>1275.81</ele>
        <time>2012-04-09T08:37:01Z</time>
      </trkpt>
      <trkpt lat="45.87091" lon="5.77358">
        <ele>1275.81</ele>
        <time>2012-04-09T08:37:03Z</time>
      </trkpt>
      <trkpt lat="45.8709" lon="5.77353">
        <ele>1276.29</ele>
        <time>2012-04-09T08:37:05Z</time>
      </trkpt>
      <trkpt lat="45.87089" lon="5.77349">
        <ele>1276.77</ele>
        <time>2012-04-09T08:37:07Z</time>
      </trkpt>
      <trkpt lat="45.87089" lon="5.77343">
        <ele>1277.25</ele>
        <time>2012-04-09T08:37:09Z</time>
      </trkpt>
      <trkpt lat="45.87087" lon="5.77336">
        <ele>1277.73</ele>
        <time>2012-04-09T08:37:11Z</time>
      </trkpt>
      <trkpt lat="45.87087" lon="5.77328">
        <ele>1277.73</ele>
        <time>2012-04-09T08:37:13Z</time>
      </trkpt>
      <trkpt lat="45.87089" lon="5.77319">
        <ele>1278.69</ele>
        <time>2012-04-09T08:37:15Z</time>
      </trkpt>
      <trkpt lat="45.87092" lon="5.77312">
        <ele>1279.17</ele>
        <time>2012-04-09T08:37:17Z</time>
      </trkpt>
      <trkpt lat="45.87092" lon="5.77307">
        <ele>1279.17</ele>
        <time>2012-04-09T08:37:19Z</time>
      </trkpt>
      <trkpt lat="45.87092" lon="5.77302">
        <ele>1279.65</ele>
        <time>2012-04-09T08:37:21Z</time>
      </trkpt>
      <trkpt lat="45.87092" lon="5.77297">
        <ele>1280.61</ele>
        <time>2012-04-09T08:37:23Z</time>
      </trkpt>
      <trkpt lat="45.87092" lon="5.77292">
        <ele>1281.09</ele>
        <time>2012-04-09T08:37:25Z</time>
      </trkpt>
      <trkpt lat="45.87093" lon="5.77288">
        <ele>1281.09</ele>
        <time>2012-04-09T08:37:27Z</time>
      </trkpt>
      <trkpt lat="45.87093" lon="5.77284">
        <ele>1281.09</ele>
        <time>2012-04-09T08:37:29Z</time>
      </trkpt>
      <trkpt lat="45.87094" lon="5.77281">
        <ele>1282.06</ele>
        <time>2012-04-09T08:37:31Z</time>
      </trkpt>
      <trkpt lat="45.87096" lon="5.77278">
        <ele>1282.54</ele>
        <time>2012-04-09T08:37:33Z</time>
      </trkpt>
      <trkpt lat="45.87097" lon="5.77274">
        <ele>1283.02</ele>
        <time>2012-04-09T08:37:35Z</time>
      </trkpt>
      <trkpt lat="45.87098" lon="5.77269">
        <ele>1283.98</ele>
        <time>2012-04-09T08:37:37Z</time>
      </trkpt>
      <trkpt lat="45.87099" lon="5.77266">
        <ele>1284.46</ele>
        <time>2012-04-09T08:37:39Z</time>
      </trkpt>
      <trkpt lat="45.87099" lon="5.77262">
        <ele>1284.94</ele>
        <time>2012-04-09T08:37:41Z</time>
      </trkpt>
      <trkpt lat="45.87099" lon="5.77259">
        <ele>1285.42</ele>
        <time>2012-04-09T08:37:43Z</time>
      </trkpt>
      <trkpt lat="45.87099" lon="5.77256">
        <ele>1285.9</ele>
        <time>2012-04-09T08:37:45Z</time>
      </trkpt>
      <trkpt lat="45.871" lon="5.77253">
        <ele>1285.9</ele>
        <time>2012-04-09T08:37:47Z</time>
      </trkpt>
      <trkpt lat="45.87101" lon="5.7725">
        <ele>1286.38</ele>
        <time>2012-04-09T08:37:49Z</time>
      </trkpt>
      <trkpt lat="45.87101" lon="5.77246">
        <ele>1287.34</ele>
        <time>2012-04-09T08:37:51Z</time>
      </trkpt>
      <trkpt lat="45.87102" lon="5.77243">
        <ele>1287.82</ele>
        <time>2012-04-09T08:37:53Z</time>
      </trkpt>
      <trkpt lat="45.87103" lon="5.77239">
        <ele>1288.78</ele>
        <time>2012-04-09T08:37:55Z</time>
      </trkpt>
      <trkpt lat="45.87102" lon="5.77234">
        <ele>1289.27</ele>
        <time>2012-04-09T08:37:57Z</time>
      </trkpt>
      <trkpt lat="45.87102" lon="5.77229">
        <ele>1289.75</ele>
        <time>2012-04-09T08:37:59Z</time>
      </trkpt>
      <trkpt lat="45.87101" lon="5.77225">
        <ele>1289.75</ele>
        <time>2012-04-09T08:38:01Z</time>
      </trkpt>
      <trkpt lat="45.871" lon="5.77221">
        <ele>1290.71</ele>
        <time>2012-04-09T08:38:03Z</time>
      </trkpt>
      <trkpt lat="45.87101" lon="5.77215">
        <ele>1290.23</ele>
        <time>2012-04-09T08:38:05Z</time>
      </trkpt>
      <trkpt lat="45.871" lon="5.77211">
        <ele>1291.19</ele>
        <time>2012-04-09T08:38:07Z</time>
      </trkpt>
      <trkpt lat="45.87101" lon="5.77208">
        <ele>1291.19</ele>
        <time>2012-04-09T08:38:09Z</time>
      </trkpt>
      <trkpt lat="45.87103" lon="5.77205">
        <ele>1291.67</ele>
        <time>2012-04-09T08:38:11Z</time>
      </trkpt>
      <trkpt lat="45.87106" lon="5.77201">
        <ele>1292.63</ele>
        <time>2012-04-09T08:38:13Z</time>
      </trkpt>
      <trkpt lat="45.87107" lon="5.77198">
        <ele>1293.59</ele>
        <time>2012-04-09T08:38:15Z</time>
      </trkpt>
      <trkpt lat="45.87106" lon="5.77195">
        <ele>1293.59</ele>
        <time>2012-04-09T08:38:17Z</time>
      </trkpt>
      <trkpt lat="45.87107" lon="5.7719">
        <ele>1293.59</ele>
        <time>2012-04-09T08:38:19Z</time>
      </trkpt>
      <trkpt lat="45.87109" lon="5.77186">
        <ele>1294.55</ele>
        <time>2012-04-09T08:38:21Z</time>
      </trkpt>
      <trkpt lat="45.87109" lon="5.77183">
        <ele>1295.03</ele>
        <time>2012-04-09T08:38:23Z</time>
      </trkpt>
      <trkpt lat="45.87109" lon="5.77179">
        <ele>1295.51</ele>
        <time>2012-04-09T08:38:25Z</time>
      </trkpt>
      <trkpt lat="45.87109" lon="5.77173">
        <ele>1295.99</ele>
        <time>2012-04-09T08:38:27Z</time>
      </trkpt>
      <trkpt lat="45.8711" lon="5.77167">
        <ele>1296.48</ele>
        <time>2012-04-09T08:38:29Z</time>
      </trkpt>
      <trkpt lat="45.8711" lon="5.77161">
        <ele>1297.44</ele>
        <time>2012-04-09T08:38:31Z</time>
      </trkpt>
      <trkpt lat="45.87109" lon="5.77158">
        <ele>1297.92</ele>
        <time>2012-04-09T08:38:33Z</time>
      </trkpt>
      <trkpt lat="45.87107" lon="5.77155">
        <ele>1298.4</ele>
        <time>2012-04-09T08:38:35Z</time>
      </trkpt>
      <trkpt lat="45.87105" lon="5.77153">
        <ele>1298.4</ele>
        <time>2012-04-09T08:38:37Z</time>
      </trkpt>
      <trkpt lat="45.87104" lon="5.77151">
        <ele>1299.36</ele>
        <time>2012-04-09T08:38:39Z</time>
      </trkpt>
      <trkpt lat="45.87102" lon="5.77149">
        <ele>1299.36</ele>
        <time>2012-04-09T08:38:41Z</time>
      </trkpt>
      <trkpt lat="45.87101" lon="5.77146">
        <ele>1299.84</ele>
        <time>2012-04-09T08:38:43Z</time>
      </trkpt>
      <trkpt lat="45.871" lon="5.77143">
        <ele>1300.8</ele>
        <time>2012-04-09T08:38:45Z</time>
      </trkpt>
      <trkpt lat="45.87099" lon="5.77141">
        <ele>1301.28</ele>
        <time>2012-04-09T08:38:47Z</time>
      </trkpt>
      <trkpt lat="45.87098" lon="5.77136">
        <ele>1301.28</ele>
        <time>2012-04-09T08:38:49Z</time>
      </trkpt>
      <trkpt lat="45.87097" lon="5.7713">
        <ele>1302.24</ele>
        <time>2012-04-09T08:38:51Z</time>
      </trkpt>
      <trkpt lat="45.87095" lon="5.77124">
        <ele>1302.72</ele>
        <time>2012-04-09T08:38:53Z</time>
      </trkpt>
      <trkpt lat="45.87092" lon="5.77122">
        <ele>1303.2</ele>
        <time>2012-04-09T08:38:55Z</time>
      </trkpt>
      <trkpt lat="45.87089" lon="5.77121">
        <ele>1303.2</ele>
        <time>2012-04-09T08:38:57Z</time>
      </trkpt>
      <trkpt lat="45.87085" lon="5.77119">
        <ele>1304.17</ele>
        <time>2012-04-09T08:38:59Z</time>
      </trkpt>
      <trkpt lat="45.87081" lon="5.77118">
        <ele>1304.17</ele>
        <time>2012-04-09T08:39:01Z</time>
      </trkpt>
      <trkpt lat="45.87078" lon="5.77116">
        <ele>1305.13</ele>
        <time>2012-04-09T08:39:03Z</time>
      </trkpt>
      <trkpt lat="45.87075" lon="5.77115">
        <ele>1305.61</ele>
        <time>2012-04-09T08:39:05Z</time>
      </trkpt>
      <trkpt lat="45.87079" lon="5.77112">
        <ele>1306.09</ele>
        <time>2012-04-09T08:39:07Z</time>
      </trkpt>
      <trkpt lat="45.87077" lon="5.7711">
        <ele>1307.05</ele>
        <time>2012-04-09T08:39:09Z</time>
      </trkpt>
      <trkpt lat="45.87078" lon="5.77109">
        <ele>1307.53</ele>
        <time>2012-04-09T08:39:11Z</time>
      </trkpt>
      <trkpt lat="45.87082" lon="5.77107">
        <ele>1307.53</ele>
        <time>2012-04-09T08:39:13Z</time>
      </trkpt>
      <trkpt lat="45.87088" lon="5.77107">
        <ele>1308.49</ele>
        <time>2012-04-09T08:39:15Z</time>
      </trkpt>
      <trkpt lat="45.87092" lon="5.77105">
        <ele>1308.01</ele>
        <time>2012-04-09T08:39:17Z</time>
      </trkpt>
      <trkpt lat="45.87097" lon="5.77101">
        <ele>1308.97</ele>
        <time>2012-04-09T08:39:19Z</time>
      </trkpt>
      <trkpt lat="45.87102" lon="5.77099">
        <ele>1308.97</ele>
        <time>2012-04-09T08:39:21Z</time>
      </trkpt>
      <trkpt lat="45.87106" lon="5.77097">
        <ele>1309.45</ele>
        <time>2012-04-09T08:39:23Z</time>
      </trkpt>
      <trkpt lat="45.87109" lon="5.77096">
        <ele>1309.93</ele>
        <time>2012-04-09T08:39:25Z</time>
      </trkpt>
      <trkpt lat="45.87111" lon="5.77095">
        <ele>1310.41</ele>
        <time>2012-04-09T08:39:27Z</time>
      </trkpt>
      <trkpt lat="45.87114" lon="5.77096">
        <ele>1310.9</ele>
        <time>2012-04-09T08:39:29Z</time>
      </trkpt>
      <trkpt lat="45.87117" lon="5.77095">
        <ele>1310.9</ele>
        <time>2012-04-09T08:39:31Z</time>
      </trkpt>
      <trkpt lat="45.87121" lon="5.77093">
        <ele>1311.38</ele>
        <time>2012-04-09T08:39:33Z</time>
      </trkpt>
      <trkpt lat="45.87124" lon="5.77093">
        <ele>1311.86</ele>
        <time>2012-04-09T08:39:35Z</time>
      </trkpt>
      <trkpt lat="45.87128" lon="5.7709">
        <ele>1312.34</ele>
        <time>2012-04-09T08:39:37Z</time>
      </trkpt>
      <trkpt lat="45.87131" lon="5.77088">
        <ele>1312.34</ele>
        <time>2012-04-09T08:39:39Z</time>
      </trkpt>
      <trkpt lat="45.87135" lon="5.77086">
        <ele>1312.82</ele>
        <time>2012-04-09T08:39:41Z</time>
      </trkpt>
      <trkpt lat="45.87139" lon="5.77085">
        <ele>1313.3</ele>
        <time>2012-04-09T08:39:43Z</time>
      </trkpt>
      <trkpt lat="45.87143" lon="5.77083">
        <ele>1313.3</ele>
        <time>2012-04-09T08:39:45Z</time>
      </trkpt>
      <trkpt lat="45.87145" lon="5.77082">
        <ele>1314.74</ele>
        <time>2012-04-09T08:39:47Z</time>
      </trkpt>
      <trkpt lat="45.87147" lon="5.7708">
        <ele>1314.74</ele>
        <time>2012-04-09T08:39:49Z</time>
      </trkpt>
      <trkpt lat="45.87149" lon="5.77079">
        <ele>1315.7</ele>
        <time>2012-04-09T08:39:51Z</time>
      </trkpt>
      <trkpt lat="45.87151" lon="5.77077">
        <ele>1315.7</ele>
        <time>2012-04-09T08:39:53Z</time>
      </trkpt>
      <trkpt lat="45.87152" lon="5.77074">
        <ele>1316.18</ele>
        <time>2012-04-09T08:39:55Z</time>
      </trkpt>
      <trkpt lat="45.87152" lon="5.77071">
        <ele>1317.14</ele>
        <time>2012-04-09T08:39:57Z</time>
      </trkpt>
      <trkpt lat="45.87152" lon="5.77068">
        <ele>1317.62</ele>
        <time>2012-04-09T08:39:59Z</time>
      </trkpt>
      <trkpt lat="45.87152" lon="5.77065">
        <ele>1318.1</ele>
        <time>2012-04-09T08:40:01Z</time>
      </trkpt>
      <trkpt lat="45.87151" lon="5.77063">
        <ele>1318.59</ele>
        <time>2012-04-09T08:40:03Z</time>
      </trkpt>
      <trkpt lat="45.87151" lon="5.77061">
        <ele>1319.07</ele>
        <time>2012-04-09T08:40:05Z</time>
      </trkpt>
      <trkpt lat="45.87151" lon="5.77058">
        <ele>1319.55</ele>
        <time>2012-04-09T08:40:07Z</time>
      </trkpt>
      <trkpt lat="45.8715" lon="5.77056">
        <ele>1320.03</ele>
        <time>2012-04-09T08:40:09Z</time>
      </trkpt>
      <trkpt lat="45.87149" lon="5.77052">
        <ele>1320.51</ele>
        <time>2012-04-09T08:40:11Z</time>
      </trkpt>
      <trkpt lat="45.87149" lon="5.77048">
        <ele>1320.99</ele>
        <time>2012-04-09T08:40:13Z</time>
      </trkpt>
      <trkpt lat="45.87149" lon="5.77045">
        <ele>1320.99</ele>
        <time>2012-04-09T08:40:15Z</time>
      </trkpt>
      <trkpt lat="45.87148" lon="5.77041">
        <ele>1321.95</ele>
        <time>2012-04-09T08:40:17Z</time>
      </trkpt>
      <trkpt lat="45.87156" lon="5.77029">
        <ele>1322.43</ele>
        <time>2012-04-09T08:40:19Z</time>
      </trkpt>
      <trkpt lat="45.8716" lon="5.77021">
        <ele>1322.91</ele>
        <time>2012-04-09T08:40:21Z</time>
      </trkpt>
      <trkpt lat="45.87158" lon="5.77018">
        <ele>1323.87</ele>
        <time>2012-04-09T08:40:23Z</time>
      </trkpt>
      <trkpt lat="45.87155" lon="5.77018">
        <ele>1323.87</ele>
        <time>2012-04-09T08:40:25Z</time>
      </trkpt>
      <trkpt lat="45.87152" lon="5.77017">
        <ele>1324.83</ele>
        <time>2012-04-09T08:40:27Z</time>
      </trkpt>
      <trkpt lat="45.8715" lon="5.77017">
        <ele>1325.31</ele>
        <time>2012-04-09T08:40:29Z</time>
      </trkpt>
      <trkpt lat="45.87148" lon="5.77017">
        <ele>1325.31</ele>
        <time>2012-04-09T08:40:31Z</time>
      </trkpt>
      <trkpt lat="45.87145" lon="5.77016">
        <ele>1325.8</ele>
        <time>2012-04-09T08:40:33Z</time>
      </trkpt>
      <trkpt lat="45.87142" lon="5.77014">
        <ele>1326.28</ele>
        <time>2012-04-09T08:40:35Z</time>
      </trkpt>
      <trkpt lat="45.87139" lon="5.77012">
        <ele>1326.76</ele>
        <time>2012-04-09T08:40:37Z</time>
      </trkpt>
      <trkpt lat="45.87135" lon="5.7701">
        <ele>1327.24</ele>
        <time>2012-04-09T08:40:39Z</time>
      </trkpt>
      <trkpt lat="45.87132" lon="5.77008">
        <ele>1327.72</ele>
        <time>2012-04-09T08:40:41Z</time>
      </trkpt>
      <trkpt lat="45.87131" lon="5.77006">
        <ele>1327.72</ele>
        <time>2012-04-09T08:40:43Z</time>
      </trkpt>
      <trkpt lat="45.87132" lon="5.77004">
        <ele>1328.2</ele>
        <time>2012-04-09T08:40:45Z</time>
      </trkpt>
      <trkpt lat="45.87132" lon="5.77003">
        <ele>1328.68</ele>
        <time>2012-04-09T08:40:47Z</time>
      </trkpt>
      <trkpt lat="45.87132" lon="5.77003">
        <ele>1328.68</ele>
        <time>2012-04-09T08:40:49Z</time>
      </trkpt>
      <trkpt lat="45.87133" lon="5.77003">
        <ele>1328.68</ele>
        <time>2012-04-09T08:40:51Z</time>
      </trkpt>
      <trkpt lat="45.87133" lon="5.77003">
        <ele>1329.16</ele>
        <time>2012-04-09T08:40:53Z</time>
      </trkpt>
      <trkpt lat="45.87133" lon="5.77003">
        <ele>1328.68</ele>
        <time>2012-04-09T08:40:55Z</time>
      </trkpt>
      <trkpt lat="45.87133" lon="5.77003">
        <ele>1328.68</ele>
        <time>2012-04-09T08:40:57Z</time>
      </trkpt>
      <trkpt lat="45.87133" lon="5.77003">
        <ele>1329.16</ele>
        <time>2012-04-09T08:40:59Z</time>
      </trkpt>
      <trkpt lat="45.87132" lon="5.77004">
        <ele>1329.64</ele>
        <time>2012-04-09T08:41:01Z</time>
      </trkpt>
      <trkpt lat="45.87133" lon="5.77005">
        <ele>1330.12</ele>
        <time>2012-04-09T08:41:03Z</time>
      </trkpt>
      <trkpt lat="45.87134" lon="5.77007">
        <ele>1330.12</ele>
        <time>2012-04-09T08:41:05Z</time>
      </trkpt>
      <trkpt lat="45.87136" lon="5.77005">
        <ele>1330.6</ele>
        <time>2012-04-09T08:41:07Z</time>
      </trkpt>
      <trkpt lat="45.87137" lon="5.77004">
        <ele>1330.6</ele>
        <time>2012-04-09T08:41:09Z</time>
      </trkpt>
      <trkpt lat="45.87138" lon="5.77004">
        <ele>1331.08</ele>
        <time>2012-04-09T08:41:11Z</time>
      </trkpt>
      <trkpt lat="45.87138" lon="5.77004">
        <ele>1331.08</ele>
        <time>2012-04-09T08:41:13Z</time>
      </trkpt>
      <trkpt lat="45.87138" lon="5.77004">
        <ele>1331.56</ele>
        <time>2012-04-09T08:41:15Z</time>
      </trkpt>
      <trkpt lat="45.87138" lon="5.77004">
        <ele>1331.56</ele>
        <time>2012-04-09T08:41:17Z</time>
      </trkpt>
      <trkpt lat="45.87139" lon="5.77004">
        <ele>1331.56</ele>
        <time>2012-04-09T08:41:19Z</time>
      </trkpt>
      <trkpt lat="45.8714" lon="5.77003">
        <ele>1332.04</ele>
        <time>2012-04-09T08:41:21Z</time>
      </trkpt>
      <trkpt lat="45.87141" lon="5.77004">
        <ele>1332.52</ele>
        <time>2012-04-09T08:41:23Z</time>
      </trkpt>
      <trkpt lat="45.87143" lon="5.77002">
        <ele>1333.01</ele>
        <time>2012-04-09T08:41:25Z</time>
      </trkpt>
      <trkpt lat="45.87145" lon="5.77001">
        <ele>1333.49</ele>
        <time>2012-04-09T08:41:27Z</time>
      </trkpt>
      <trkpt lat="45.87149" lon="5.76999">
        <ele>1333.97</ele>
        <time>2012-04-09T08:41:29Z</time>
      </trkpt>
      <trkpt lat="45.87151" lon="5.76997">
        <ele>1334.45</ele>
        <time>2012-04-09T08:41:31Z</time>
      </trkpt>
      <trkpt lat="45.87153" lon="5.76996">
        <ele>1334.93</ele>
        <time>2012-04-09T08:41:33Z</time>
      </trkpt>
      <trkpt lat="45.87155" lon="5.76995">
        <ele>1334.93</ele>
        <time>2012-04-09T08:41:35Z</time>
      </trkpt>
      <trkpt lat="45.87156" lon="5.76994">
        <ele>1335.41</ele>
        <time>2012-04-09T08:41:37Z</time>
      </trkpt>
      <trkpt lat="45.87157" lon="5.76994">
        <ele>1336.37</ele>
        <time>2012-04-09T08:41:39Z</time>
      </trkpt>
      <trkpt lat="45.87162" lon="5.76991">
        <ele>1336.85</ele>
        <time>2012-04-09T08:41:41Z</time>
      </trkpt>
      <trkpt lat="45.87164" lon="5.76991">
        <ele>1336.85</ele>
        <time>2012-04-09T08:41:43Z</time>
      </trkpt>
      <trkpt lat="45.87166" lon="5.76991">
        <ele>1336.85</ele>
        <time>2012-04-09T08:41:45Z</time>
      </trkpt>
      <trkpt lat="45.87167" lon="5.76988">
        <ele>1337.81</ele>
        <time>2012-04-09T08:41:47Z</time>
      </trkpt>
      <trkpt lat="45.8717" lon="5.76985">
        <ele>1337.81</ele>
        <time>2012-04-09T08:41:49Z</time>
      </trkpt>
      <trkpt lat="45.87171" lon="5.76985">
        <ele>1339.25</ele>
        <time>2012-04-09T08:41:51Z</time>
      </trkpt>
      <trkpt lat="45.87179" lon="5.76979">
        <ele>1339.25</ele>
        <time>2012-04-09T08:41:53Z</time>
      </trkpt>
      <trkpt lat="45.87181" lon="5.76977">
        <ele>1340.22</ele>
        <time>2012-04-09T08:41:55Z</time>
      </trkpt>
      <trkpt lat="45.87183" lon="5.76973">
        <ele>1341.18</ele>
        <time>2012-04-09T08:41:57Z</time>
      </trkpt>
      <trkpt lat="45.87183" lon="5.76968">
        <ele>1341.66</ele>
        <time>2012-04-09T08:41:59Z</time>
      </trkpt>
      <trkpt lat="45.87184" lon="5.76963">
        <ele>1342.14</ele>
        <time>2012-04-09T08:42:01Z</time>
      </trkpt>
      <trkpt lat="45.87183" lon="5.76959">
        <ele>1342.14</ele>
        <time>2012-04-09T08:42:03Z</time>
      </trkpt>
      <trkpt lat="45.87184" lon="5.76952">
        <ele>1342.62</ele>
        <time>2012-04-09T08:42:05Z</time>
      </trkpt>
      <trkpt lat="45.8719" lon="5.76944">
        <ele>1343.58</ele>
        <time>2012-04-09T08:42:07Z</time>
      </trkpt>
      <trkpt lat="45.87191" lon="5.7694">
        <ele>1344.06</ele>
        <time>2012-04-09T08:42:09Z</time>
      </trkpt>
      <trkpt lat="45.87195" lon="5.76935">
        <ele>1344.06</ele>
        <time>2012-04-09T08:42:11Z</time>
      </trkpt>
      <trkpt lat="45.87198" lon="5.76927">
        <ele>1344.54</ele>
        <time>2012-04-09T08:42:13Z</time>
      </trkpt>
      <trkpt lat="45.87199" lon="5.76922">
        <ele>1345.98</ele>
        <time>2012-04-09T08:42:15Z</time>
      </trkpt>
      <trkpt lat="45.87198" lon="5.76918">
        <ele>1345.98</ele>
        <time>2012-04-09T08:42:17Z</time>
      </trkpt>
      <trkpt lat="45.87197" lon="5.76915">
        <ele>1346.46</ele>
        <time>2012-04-09T08:42:19Z</time>
      </trkpt>
      <trkpt lat="45.87194" lon="5.7691">
        <ele>1346.94</ele>
        <time>2012-04-09T08:42:21Z</time>
      </trkpt>
      <trkpt lat="45.87193" lon="5.76906">
        <ele>1347.91</ele>
        <time>2012-04-09T08:42:23Z</time>
      </trkpt>
      <trkpt lat="45.87197" lon="5.76897">
        <ele>1348.39</ele>
        <time>2012-04-09T08:42:25Z</time>
      </trkpt>
      <trkpt lat="45.872" lon="5.76888">
        <ele>1348.87</ele>
        <time>2012-04-09T08:42:27Z</time>
      </trkpt>
      <trkpt lat="45.872" lon="5.76884">
        <ele>1348.87</ele>
        <time>2012-04-09T08:42:29Z</time>
      </trkpt>
      <trkpt lat="45.87202" lon="5.76878">
        <ele>1349.83</ele>
        <time>2012-04-09T08:42:31Z</time>
      </trkpt>
      <trkpt lat="45.87204" lon="5.76871">
        <ele>1349.83</ele>
        <time>2012-04-09T08:42:33Z</time>
      </trkpt>
      <trkpt lat="45.87204" lon="5.76866">
        <ele>1350.79</ele>
        <time>2012-04-09T08:42:35Z</time>
      </trkpt>
      <trkpt lat="45.87203" lon="5.76861">
        <ele>1351.27</ele>
        <time>2012-04-09T08:42:37Z</time>
      </trkpt>
      <trkpt lat="45.87204" lon="5.76856">
        <ele>1351.27</ele>
        <time>2012-04-09T08:42:39Z</time>
      </trkpt>
      <trkpt lat="45.87205" lon="5.76852">
        <ele>1352.23</ele>
        <time>2012-04-09T08:42:41Z</time>
      </trkpt>
      <trkpt lat="45.87205" lon="5.76848">
        <ele>1352.71</ele>
        <time>2012-04-09T08:42:43Z</time>
      </trkpt>
      <trkpt lat="45.87204" lon="5.76845">
        <ele>1353.19</ele>
        <time>2012-04-09T08:42:45Z</time>
      </trkpt>
      <trkpt lat="45.87205" lon="5.76842">
        <ele>1353.19</ele>
        <time>2012-04-09T08:42:47Z</time>
      </trkpt>
      <trkpt lat="45.87204" lon="5.7684">
        <ele>1353.19</ele>
        <time>2012-04-09T08:42:49Z</time>
      </trkpt>
      <trkpt lat="45.87205" lon="5.76838">
        <ele>1354.15</ele>
        <time>2012-04-09T08:42:51Z</time>
      </trkpt>
      <trkpt lat="45.87205" lon="5.76835">
        <ele>1354.63</ele>
        <time>2012-04-09T08:42:53Z</time>
      </trkpt>
      <trkpt lat="45.87205" lon="5.76832">
        <ele>1354.63</ele>
        <time>2012-04-09T08:42:55Z</time>
      </trkpt>
      <trkpt lat="45.87205" lon="5.76829">
        <ele>1354.63</ele>
        <time>2012-04-09T08:42:57Z</time>
      </trkpt>
      <trkpt lat="45.87206" lon="5.76826">
        <ele>1355.12</ele>
        <time>2012-04-09T08:42:59Z</time>
      </trkpt>
      <trkpt lat="45.87211" lon="5.76823">
        <ele>1355.12</ele>
        <time>2012-04-09T08:43:01Z</time>
      </trkpt>
      <trkpt lat="45.87213" lon="5.76819">
        <ele>1355.12</ele>
        <time>2012-04-09T08:43:03Z</time>
      </trkpt>
      <trkpt lat="45.87214" lon="5.76814">
        <ele>1355.6</ele>
        <time>2012-04-09T08:43:05Z</time>
      </trkpt>
      <trkpt lat="45.87215" lon="5.76809">
        <ele>1355.6</ele>
        <time>2012-04-09T08:43:07Z</time>
      </trkpt>
      <trkpt lat="45.87218" lon="5.76804">
        <ele>1355.6</ele>
        <time>2012-04-09T08:43:09Z</time>
      </trkpt>
      <trkpt lat="45.8722" lon="5.768">
        <ele>1356.08</ele>
        <time>2012-04-09T08:43:11Z</time>
      </trkpt>
      <trkpt lat="45.8722" lon="5.76796">
        <ele>1356.56</ele>
        <time>2012-04-09T08:43:13Z</time>
      </trkpt>
      <trkpt lat="45.87221" lon="5.76792">
        <ele>1357.04</ele>
        <time>2012-04-09T08:43:15Z</time>
      </trkpt>
      <trkpt lat="45.87222" lon="5.76787">
        <ele>1357.52</ele>
        <time>2012-04-09T08:43:17Z</time>
      </trkpt>
      <trkpt lat="45.87222" lon="5.76781">
        <ele>1357.52</ele>
        <time>2012-04-09T08:43:19Z</time>
      </trkpt>
      <trkpt lat="45.87222" lon="5.76775">
        <ele>1358.48</ele>
        <time>2012-04-09T08:43:21Z</time>
      </trkpt>
      <trkpt lat="45.87223" lon="5.76768">
        <ele>1358.96</ele>
        <time>2012-04-09T08:43:23Z</time>
      </trkpt>
      <trkpt lat="45.87222" lon="5.76762">
        <ele>1359.92</ele>
        <time>2012-04-09T08:43:25Z</time>
      </trkpt>
      <trkpt lat="45.87222" lon="5.76753">
        <ele>1359.44</ele>
        <time>2012-04-09T08:43:27Z</time>
      </trkpt>
      <trkpt lat="45.87222" lon="5.76746">
        <ele>1359.92</ele>
        <time>2012-04-09T08:43:29Z</time>
      </trkpt>
      <trkpt lat="45.87221" lon="5.76738">
        <ele>1359.92</ele>
        <time>2012-04-09T08:43:31Z</time>
      </trkpt>
      <trkpt lat="45.8722" lon="5.76731">
        <ele>1360.4</ele>
        <time>2012-04-09T08:43:33Z</time>
      </trkpt>
      <trkpt lat="45.87218" lon="5.76724">
        <ele>1360.4</ele>
        <time>2012-04-09T08:43:35Z</time>
      </trkpt>
      <trkpt lat="45.87217" lon="5.76716">
        <ele>1360.88</ele>
        <time>2012-04-09T08:43:37Z</time>
      </trkpt>
      <trkpt lat="45.87215" lon="5.76708">
        <ele>1360.88</ele>
        <time>2012-04-09T08:43:39Z</time>
      </trkpt>
      <trkpt lat="45.87215" lon="5.767">
        <ele>1361.36</ele>
        <time>2012-04-09T08:43:41Z</time>
      </trkpt>
      <trkpt lat="45.87215" lon="5.76693">
        <ele>1361.36</ele>
        <time>2012-04-09T08:43:43Z</time>
      </trkpt>
      <trkpt lat="45.87216" lon="5.76686">
        <ele>1361.36</ele>
        <time>2012-04-09T08:43:45Z</time>
      </trkpt>
      <trkpt lat="45.87218" lon="5.76679">
        <ele>1361.84</ele>
        <time>2012-04-09T08:43:47Z</time>
      </trkpt>
      <trkpt lat="45.8722" lon="5.76672">
        <ele>1362.33</ele>
        <time>2012-04-09T08:43:49Z</time>
      </trkpt>
      <trkpt lat="45.87222" lon="5.76665">
        <ele>1362.33</ele>
        <time>2012-04-09T08:43:51Z</time>
      </trkpt>
      <trkpt lat="45.87224" lon="5.76659">
        <ele>1361.84</ele>
        <time>2012-04-09T08:43:53Z</time>
      </trkpt>
      <trkpt lat="45.87227" lon="5.76656">
        <ele>1362.33</ele>
        <time>2012-04-09T08:43:55Z</time>
      </trkpt>
      <trkpt lat="45.8723" lon="5.76654">
        <ele>1362.81</ele>
        <time>2012-04-09T08:43:57Z</time>
      </trkpt>
      <trkpt lat="45.87233" lon="5.76652">
        <ele>1362.81</ele>
        <time>2012-04-09T08:43:59Z</time>
      </trkpt>
      <trkpt lat="45.87236" lon="5.7665">
        <ele>1362.33</ele>
        <time>2012-04-09T08:44:01Z</time>
      </trkpt>
      <trkpt lat="45.8724" lon="5.76646">
        <ele>1362.81</ele>
        <time>2012-04-09T08:44:03Z</time>
      </trkpt>
      <trkpt lat="45.87244" lon="5.76643">
        <ele>1362.81</ele>
        <time>2012-04-09T08:44:05Z</time>
      </trkpt>
      <trkpt lat="45.87248" lon="5.7664">
        <ele>1362.81</ele>
        <time>2012-04-09T08:44:07Z</time>
      </trkpt>
      <trkpt lat="45.87252" lon="5.76636">
        <ele>1362.33</ele>
        <time>2012-04-09T08:44:09Z</time>
      </trkpt>
      <trkpt lat="45.87257" lon="5.76632">
        <ele>1362.33</ele>
        <time>2012-04-09T08:44:11Z</time>
      </trkpt>
      <trkpt lat="45.87261" lon="5.76628">
        <ele>1362.81</ele>
        <time>2012-04-09T08:44:13Z</time>
      </trkpt>
      <trkpt lat="45.87266" lon="5.76626">
        <ele>1362.81</ele>
        <time>2012-04-09T08:44:15Z</time>
      </trkpt>
      <trkpt lat="45.8727" lon="5.76623">
        <ele>1363.77</ele>
        <time>2012-04-09T08:44:17Z</time>
      </trkpt>
      <trkpt lat="45.87275" lon="5.76621">
        <ele>1363.29</ele>
        <time>2012-04-09T08:44:19Z</time>
      </trkpt>
      <trkpt lat="45.87279" lon="5.76618">
        <ele>1363.29</ele>
        <time>2012-04-09T08:44:21Z</time>
      </trkpt>
      <trkpt lat="45.87284" lon="5.76615">
        <ele>1363.77</ele>
        <time>2012-04-09T08:44:23Z</time>
      </trkpt>
      <trkpt lat="45.87289" lon="5.76612">
        <ele>1363.77</ele>
        <time>2012-04-09T08:44:25Z</time>
      </trkpt>
      <trkpt lat="45.87293" lon="5.7661">
        <ele>1363.77</ele>
        <time>2012-04-09T08:44:27Z</time>
      </trkpt>
      <trkpt lat="45.87297" lon="5.76608">
        <ele>1364.25</ele>
        <time>2012-04-09T08:44:29Z</time>
      </trkpt>
      <trkpt lat="45.87302" lon="5.76605">
        <ele>1363.77</ele>
        <time>2012-04-09T08:44:31Z</time>
      </trkpt>
      <trkpt lat="45.87307" lon="5.76602">
        <ele>1364.25</ele>
        <time>2012-04-09T08:44:33Z</time>
      </trkpt>
      <trkpt lat="45.87311" lon="5.76599">
        <ele>1364.25</ele>
        <time>2012-04-09T08:44:35Z</time>
      </trkpt>
      <trkpt lat="45.87316" lon="5.76597">
        <ele>1364.25</ele>
        <time>2012-04-09T08:44:37Z</time>
      </trkpt>
      <trkpt lat="45.87321" lon="5.76595">
        <ele>1363.77</ele>
        <time>2012-04-09T08:44:39Z</time>
      </trkpt>
      <trkpt lat="45.87326" lon="5.76592">
        <ele>1363.77</ele>
        <time>2012-04-09T08:44:41Z</time>
      </trkpt>
      <trkpt lat="45.8733" lon="5.76588">
        <ele>1363.29</ele>
        <time>2012-04-09T08:44:43Z</time>
      </trkpt>
      <trkpt lat="45.87334" lon="5.76585">
        <ele>1363.29</ele>
        <time>2012-04-09T08:44:45Z</time>
      </trkpt>
      <trkpt lat="45.87338" lon="5.76582">
        <ele>1363.29</ele>
        <time>2012-04-09T08:44:47Z</time>
      </trkpt>
      <trkpt lat="45.87342" lon="5.76579">
        <ele>1363.29</ele>
        <time>2012-04-09T08:44:49Z</time>
      </trkpt>
      <trkpt lat="45.87347" lon="5.76575">
        <ele>1362.81</ele>
        <time>2012-04-09T08:44:51Z</time>
      </trkpt>
      <trkpt lat="45.87351" lon="5.76572">
        <ele>1362.81</ele>
        <time>2012-04-09T08:44:53Z</time>
      </trkpt>
      <trkpt lat="45.87355" lon="5.76568">
        <ele>1362.33</ele>
        <time>2012-04-09T08:44:55Z</time>
      </trkpt>
      <trkpt lat="45.8736" lon="5.76565">
        <ele>1362.33</ele>
        <time>2012-04-09T08:44:57Z</time>
      </trkpt>
      <trkpt lat="45.87364" lon="5.76563">
        <ele>1362.33</ele>
        <time>2012-04-09T08:44:59Z</time>
      </trkpt>
      <trkpt lat="45.87368" lon="5.7656">
        <ele>1361.84</ele>
        <time>2012-04-09T08:45:01Z</time>
      </trkpt>
      <trkpt lat="45.87372" lon="5.76558">
        <ele>1360.88</ele>
        <time>2012-04-09T08:45:03Z</time>
      </trkpt>
      <trkpt lat="45.87378" lon="5.76556">
        <ele>1360.88</ele>
        <time>2012-04-09T08:45:05Z</time>
      </trkpt>
      <trkpt lat="45.87382" lon="5.76554">
        <ele>1360.88</ele>
        <time>2012-04-09T08:45:07Z</time>
      </trkpt>
      <trkpt lat="45.87387" lon="5.76552">
        <ele>1360.4</ele>
        <time>2012-04-09T08:45:09Z</time>
      </trkpt>
      <trkpt lat="45.87392" lon="5.7655">
        <ele>1359.92</ele>
        <time>2012-04-09T08:45:11Z</time>
      </trkpt>
      <trkpt lat="45.87398" lon="5.76546">
        <ele>1359.92</ele>
        <time>2012-04-09T08:45:13Z</time>
      </trkpt>
      <trkpt lat="45.87403" lon="5.76544">
        <ele>1359.44</ele>
        <time>2012-04-09T08:45:15Z</time>
      </trkpt>
      <trkpt lat="45.87407" lon="5.76542">
        <ele>1359.44</ele>
        <time>2012-04-09T08:45:17Z</time>
      </trkpt>
      <trkpt lat="45.87413" lon="5.76541">
        <ele>1358.96</ele>
        <time>2012-04-09T08:45:19Z</time>
      </trkpt>
      <trkpt lat="45.87418" lon="5.7654">
        <ele>1359.44</ele>
        <time>2012-04-09T08:45:21Z</time>
      </trkpt>
      <trkpt lat="45.87424" lon="5.76539">
        <ele>1358.96</ele>
        <time>2012-04-09T08:45:23Z</time>
      </trkpt>
      <trkpt lat="45.87428" lon="5.76538">
        <ele>1358.96</ele>
        <time>2012-04-09T08:45:25Z</time>
      </trkpt>
      <trkpt lat="45.87433" lon="5.76537">
        <ele>1358.96</ele>
        <time>2012-04-09T08:45:27Z</time>
      </trkpt>
      <trkpt lat="45.87436" lon="5.76536">
        <ele>1359.44</ele>
        <time>2012-04-09T08:45:29Z</time>
      </trkpt>
      <trkpt lat="45.87441" lon="5.76534">
        <ele>1359.44</ele>
        <time>2012-04-09T08:45:31Z</time>
      </trkpt>
      <trkpt lat="45.87446" lon="5.76533">
        <ele>1358.96</ele>
        <time>2012-04-09T08:45:33Z</time>
      </trkpt>
      <trkpt lat="45.87451" lon="5.76532">
        <ele>1358.48</ele>
        <time>2012-04-09T08:45:35Z</time>
      </trkpt>
      <trkpt lat="45.87456" lon="5.76529">
        <ele>1358.48</ele>
        <time>2012-04-09T08:45:37Z</time>
      </trkpt>
      <trkpt lat="45.8746" lon="5.76525">
        <ele>1358.48</ele>
        <time>2012-04-09T08:45:39Z</time>
      </trkpt>
      <trkpt lat="45.87465" lon="5.76522">
        <ele>1358.48</ele>
        <time>2012-04-09T08:45:41Z</time>
      </trkpt>
      <trkpt lat="45.87469" lon="5.76519">
        <ele>1358.96</ele>
        <time>2012-04-09T08:45:43Z</time>
      </trkpt>
      <trkpt lat="45.87472" lon="5.76515">
        <ele>1358.96</ele>
        <time>2012-04-09T08:45:45Z</time>
      </trkpt>
      <trkpt lat="45.87476" lon="5.76511">
        <ele>1358.96</ele>
        <time>2012-04-09T08:45:47Z</time>
      </trkpt>
      <trkpt lat="45.87479" lon="5.76507">
        <ele>1358.96</ele>
        <time>2012-04-09T08:45:49Z</time>
      </trkpt>
      <trkpt lat="45.87482" lon="5.76501">
        <ele>1358.96</ele>
        <time>2012-04-09T08:45:51Z</time>
      </trkpt>
      <trkpt lat="45.87485" lon="5.76497">
        <ele>1358.48</ele>
        <time>2012-04-09T08:45:53Z</time>
      </trkpt>
      <trkpt lat="45.87488" lon="5.76493">
        <ele>1358.48</ele>
        <time>2012-04-09T08:45:55Z</time>
      </trkpt>
      <trkpt lat="45.87492" lon="5.7649">
        <ele>1359.44</ele>
        <time>2012-04-09T08:45:57Z</time>
      </trkpt>
      <trkpt lat="45.87497" lon="5.76488">
        <ele>1358.96</ele>
        <time>2012-04-09T08:45:59Z</time>
      </trkpt>
      <trkpt lat="45.87499" lon="5.76487">
        <ele>1358.96</ele>
        <time>2012-04-09T08:46:01Z</time>
      </trkpt>
      <trkpt lat="45.87503" lon="5.76487">
        <ele>1359.44</ele>
        <time>2012-04-09T08:46:03Z</time>
      </trkpt>
      <trkpt lat="45.87507" lon="5.76488">
        <ele>1359.92</ele>
        <time>2012-04-09T08:46:05Z</time>
      </trkpt>
      <trkpt lat="45.87512" lon="5.76486">
        <ele>1360.4</ele>
        <time>2012-04-09T08:46:07Z</time>
      </trkpt>
      <trkpt lat="45.87517" lon="5.76485">
        <ele>1360.4</ele>
        <time>2012-04-09T08:46:09Z</time>
      </trkpt>
      <trkpt lat="45.87521" lon="5.76482">
        <ele>1360.4</ele>
        <time>2012-04-09T08:46:11Z</time>
      </trkpt>
      <trkpt lat="45.87526" lon="5.76481">
        <ele>1360.88</ele>
        <time>2012-04-09T08:46:13Z</time>
      </trkpt>
      <trkpt lat="45.87532" lon="5.76479">
        <ele>1360.88</ele>
        <time>2012-04-09T08:46:15Z</time>
      </trkpt>
      <trkpt lat="45.87536" lon="5.76476">
        <ele>1360.88</ele>
        <time>2012-04-09T08:46:17Z</time>
      </trkpt>
      <trkpt lat="45.87541" lon="5.76474">
        <ele>1361.36</ele>
        <time>2012-04-09T08:46:19Z</time>
      </trkpt>
      <trkpt lat="45.87545" lon="5.76472">
        <ele>1361.36</ele>
        <time>2012-04-09T08:46:21Z</time>
      </trkpt>
      <trkpt lat="45.8755" lon="5.76468">
        <ele>1361.84</ele>
        <time>2012-04-09T08:46:23Z</time>
      </trkpt>
      <trkpt lat="45.87554" lon="5.76464">
        <ele>1361.84</ele>
        <time>2012-04-09T08:46:25Z</time>
      </trkpt>
      <trkpt lat="45.87559" lon="5.7646">
        <ele>1361.36</ele>
        <time>2012-04-09T08:46:27Z</time>
      </trkpt>
      <trkpt lat="45.87563" lon="5.76457">
        <ele>1361.36</ele>
        <time>2012-04-09T08:46:29Z</time>
      </trkpt>
      <trkpt lat="45.87568" lon="5.76456">
        <ele>1360.88</ele>
        <time>2012-04-09T08:46:31Z</time>
      </trkpt>
      <trkpt lat="45.87572" lon="5.76455">
        <ele>1360.88</ele>
        <time>2012-04-09T08:46:33Z</time>
      </trkpt>
      <trkpt lat="45.87577" lon="5.76453">
        <ele>1360.88</ele>
        <time>2012-04-09T08:46:35Z</time>
      </trkpt>
      <trkpt lat="45.87582" lon="5.7645">
        <ele>1360.4</ele>
        <time>2012-04-09T08:46:37Z</time>
      </trkpt>
      <trkpt lat="45.87586" lon="5.76447">
        <ele>1360.4</ele>
        <time>2012-04-09T08:46:39Z</time>
      </trkpt>
      <trkpt lat="45.87592" lon="5.76444">
        <ele>1360.4</ele>
        <time>2012-04-09T08:46:41Z</time>
      </trkpt>
      <trkpt lat="45.87597" lon="5.76441">
        <ele>1359.44</ele>
        <time>2012-04-09T08:46:43Z</time>
      </trkpt>
      <trkpt lat="45.87602" lon="5.76439">
        <ele>1359.44</ele>
        <time>2012-04-09T08:46:45Z</time>
      </trkpt>
      <trkpt lat="45.87606" lon="5.76436">
        <ele>1358.48</ele>
        <time>2012-04-09T08:46:47Z</time>
      </trkpt>
      <trkpt lat="45.87611" lon="5.76431">
        <ele>1358.48</ele>
        <time>2012-04-09T08:46:49Z</time>
      </trkpt>
      <trkpt lat="45.87615" lon="5.76426">
        <ele>1358</ele>
        <time>2012-04-09T08:46:51Z</time>
      </trkpt>
      <trkpt lat="45.87618" lon="5.76419">
        <ele>1357.52</ele>
        <time>2012-04-09T08:46:53Z</time>
      </trkpt>
      <trkpt lat="45.87621" lon="5.76411">
        <ele>1357.52</ele>
        <time>2012-04-09T08:46:55Z</time>
      </trkpt>
      <trkpt lat="45.87624" lon="5.76404">
        <ele>1357.04</ele>
        <time>2012-04-09T08:46:57Z</time>
      </trkpt>
      <trkpt lat="45.87627" lon="5.76397">
        <ele>1356.56</ele>
        <time>2012-04-09T08:46:59Z</time>
      </trkpt>
      <trkpt lat="45.8763" lon="5.76391">
        <ele>1356.56</ele>
        <time>2012-04-09T08:47:01Z</time>
      </trkpt>
      <trkpt lat="45.87633" lon="5.76385">
        <ele>1356.08</ele>
        <time>2012-04-09T08:47:03Z</time>
      </trkpt>
      <trkpt lat="45.87637" lon="5.76378">
        <ele>1355.6</ele>
        <time>2012-04-09T08:47:05Z</time>
      </trkpt>
      <trkpt lat="45.8764" lon="5.76372">
        <ele>1355.6</ele>
        <time>2012-04-09T08:47:07Z</time>
      </trkpt>
      <trkpt lat="45.87644" lon="5.76368">
        <ele>1355.12</ele>
        <time>2012-04-09T08:47:09Z</time>
      </trkpt>
      <trkpt lat="45.87649" lon="5.76363">
        <ele>1355.12</ele>
        <time>2012-04-09T08:47:11Z</time>
      </trkpt>
      <trkpt lat="45.87652" lon="5.76357">
        <ele>1355.12</ele>
        <time>2012-04-09T08:47:13Z</time>
      </trkpt>
      <trkpt lat="45.87655" lon="5.76349">
        <ele>1355.12</ele>
        <time>2012-04-09T08:47:15Z</time>
      </trkpt>
      <trkpt lat="45.87657" lon="5.76342">
        <ele>1354.63</ele>
        <time>2012-04-09T08:47:17Z</time>
      </trkpt>
      <trkpt lat="45.87659" lon="5.76336">
        <ele>1354.63</ele>
        <time>2012-04-09T08:47:19Z</time>
      </trkpt>
      <trkpt lat="45.87662" lon="5.7633">
        <ele>1355.12</ele>
        <time>2012-04-09T08:47:21Z</time>
      </trkpt>
      <trkpt lat="45.87664" lon="5.76324">
        <ele>1355.12</ele>
        <time>2012-04-09T08:47:23Z</time>
      </trkpt>
      <trkpt lat="45.87667" lon="5.76318">
        <ele>1355.6</ele>
        <time>2012-04-09T08:47:25Z</time>
      </trkpt>
      <trkpt lat="45.8767" lon="5.76312">
        <ele>1355.6</ele>
        <time>2012-04-09T08:47:27Z</time>
      </trkpt>
      <trkpt lat="45.87673" lon="5.76307">
        <ele>1355.12</ele>
        <time>2012-04-09T08:47:29Z</time>
      </trkpt>
      <trkpt lat="45.87676" lon="5.76303">
        <ele>1356.08</ele>
        <time>2012-04-09T08:47:31Z</time>
      </trkpt>
      <trkpt lat="45.8768" lon="5.76299">
        <ele>1356.56</ele>
        <time>2012-04-09T08:47:33Z</time>
      </trkpt>
      <trkpt lat="45.87683" lon="5.76297">
        <ele>1356.08</ele>
        <time>2012-04-09T08:47:35Z</time>
      </trkpt>
      <trkpt lat="45.87687" lon="5.76294">
        <ele>1356.08</ele>
        <time>2012-04-09T08:47:37Z</time>
      </trkpt>
      <trkpt lat="45.8769" lon="5.76292">
        <ele>1356.56</ele>
        <time>2012-04-09T08:47:39Z</time>
      </trkpt>
      <trkpt lat="45.87696" lon="5.76291">
        <ele>1356.56</ele>
        <time>2012-04-09T08:47:41Z</time>
      </trkpt>
      <trkpt lat="45.87701" lon="5.7629">
        <ele>1356.56</ele>
        <time>2012-04-09T08:47:43Z</time>
      </trkpt>
      <trkpt lat="45.87705" lon="5.76289">
        <ele>1357.04</ele>
        <time>2012-04-09T08:47:45Z</time>
      </trkpt>
      <trkpt lat="45.87711" lon="5.76288">
        <ele>1356.56</ele>
        <time>2012-04-09T08:47:47Z</time>
      </trkpt>
      <trkpt lat="45.87716" lon="5.76286">
        <ele>1357.04</ele>
        <time>2012-04-09T08:47:49Z</time>
      </trkpt>
      <trkpt lat="45.87722" lon="5.76286">
        <ele>1357.04</ele>
        <time>2012-04-09T08:47:51Z</time>
      </trkpt>
      <trkpt lat="45.87727" lon="5.76284">
        <ele>1356.56</ele>
        <time>2012-04-09T08:47:53Z</time>
      </trkpt>
      <trkpt lat="45.87731" lon="5.76284">
        <ele>1357.04</ele>
        <time>2012-04-09T08:47:55Z</time>
      </trkpt>
      <trkpt lat="45.87736" lon="5.76283">
        <ele>1356.56</ele>
        <time>2012-04-09T08:47:57Z</time>
      </trkpt>
      <trkpt lat="45.87741" lon="5.76284">
        <ele>1357.04</ele>
        <time>2012-04-09T08:47:59Z</time>
      </trkpt>
      <trkpt lat="45.87746" lon="5.76283">
        <ele>1356.56</ele>
        <time>2012-04-09T08:48:01Z</time>
      </trkpt>
      <trkpt lat="45.87752" lon="5.76282">
        <ele>1357.04</ele>
        <time>2012-04-09T08:48:03Z</time>
      </trkpt>
      <trkpt lat="45.87757" lon="5.76282">
        <ele>1357.04</ele>
        <time>2012-04-09T08:48:05Z</time>
      </trkpt>
      <trkpt lat="45.87762" lon="5.76282">
        <ele>1357.04</ele>
        <time>2012-04-09T08:48:07Z</time>
      </trkpt>
      <trkpt lat="45.87766" lon="5.76283">
        <ele>1357.04</ele>
        <time>2012-04-09T08:48:09Z</time>
      </trkpt>
      <trkpt lat="45.87771" lon="5.76285">
        <ele>1357.04</ele>
        <time>2012-04-09T08:48:11Z</time>
      </trkpt>
      <trkpt lat="45.87776" lon="5.76287">
        <ele>1356.56</ele>
        <time>2012-04-09T08:48:13Z</time>
      </trkpt>
      <trkpt lat="45.8778" lon="5.76289">
        <ele>1357.04</ele>
        <time>2012-04-09T08:48:15Z</time>
      </trkpt>
      <trkpt lat="45.87784" lon="5.76289">
        <ele>1357.04</ele>
        <time>2012-04-09T08:48:17Z</time>
      </trkpt>
      <trkpt lat="45.87788" lon="5.76287">
        <ele>1357.52</ele>
        <time>2012-04-09T08:48:19Z</time>
      </trkpt>
      <trkpt lat="45.87792" lon="5.76285">
        <ele>1357.04</ele>
        <time>2012-04-09T08:48:21Z</time>
      </trkpt>
      <trkpt lat="45.87797" lon="5.76285">
        <ele>1357.04</ele>
        <time>2012-04-09T08:48:23Z</time>
      </trkpt>
      <trkpt lat="45.87802" lon="5.76284">
        <ele>1356.56</ele>
        <time>2012-04-09T08:48:25Z</time>
      </trkpt>
      <trkpt lat="45.87807" lon="5.76284">
        <ele>1357.04</ele>
        <time>2012-04-09T08:48:27Z</time>
      </trkpt>
      <trkpt lat="45.87812" lon="5.76284">
        <ele>1357.04</ele>
        <time>2012-04-09T08:48:29Z</time>
      </trkpt>
      <trkpt lat="45.87817" lon="5.76284">
        <ele>1356.56</ele>
        <time>2012-04-09T08:48:31Z</time>
      </trkpt>
      <trkpt lat="45.87822" lon="5.76284">
        <ele>1356.08</ele>
        <time>2012-04-09T08:48:33Z</time>
      </trkpt>
      <trkpt lat="45.87827" lon="5.76283">
        <ele>1356.08</ele>
        <time>2012-04-09T08:48:35Z</time>
      </trkpt>
      <trkpt lat="45.87832" lon="5.76282">
        <ele>1356.08</ele>
        <time>2012-04-09T08:48:37Z</time>
      </trkpt>
      <trkpt lat="45.87837" lon="5.76281">
        <ele>1355.6</ele>
        <time>2012-04-09T08:48:39Z</time>
      </trkpt>
      <trkpt lat="45.87841" lon="5.7628">
        <ele>1355.6</ele>
        <time>2012-04-09T08:48:41Z</time>
      </trkpt>
      <trkpt lat="45.87847" lon="5.7628">
        <ele>1355.6</ele>
        <time>2012-04-09T08:48:43Z</time>
      </trkpt>
      <trkpt lat="45.87851" lon="5.76279">
        <ele>1355.12</ele>
        <time>2012-04-09T08:48:45Z</time>
      </trkpt>
      <trkpt lat="45.87856" lon="5.76279">
        <ele>1354.15</ele>
        <time>2012-04-09T08:48:47Z</time>
      </trkpt>
      <trkpt lat="45.87861" lon="5.7628">
        <ele>1354.15</ele>
        <time>2012-04-09T08:48:49Z</time>
      </trkpt>
      <trkpt lat="45.87866" lon="5.76281">
        <ele>1353.19</ele>
        <time>2012-04-09T08:48:51Z</time>
      </trkpt>
      <trkpt lat="45.87871" lon="5.7628">
        <ele>1352.71</ele>
        <time>2012-04-09T08:48:53Z</time>
      </trkpt>
      <trkpt lat="45.87876" lon="5.76281">
        <ele>1351.75</ele>
        <time>2012-04-09T08:48:55Z</time>
      </trkpt>
      <trkpt lat="45.87881" lon="5.76282">
        <ele>1351.27</ele>
        <time>2012-04-09T08:48:57Z</time>
      </trkpt>
      <trkpt lat="45.87887" lon="5.76283">
        <ele>1351.27</ele>
        <time>2012-04-09T08:48:59Z</time>
      </trkpt>
      <trkpt lat="45.87893" lon="5.76282">
        <ele>1350.79</ele>
        <time>2012-04-09T08:49:01Z</time>
      </trkpt>
      <trkpt lat="45.87898" lon="5.76282">
        <ele>1350.31</ele>
        <time>2012-04-09T08:49:03Z</time>
      </trkpt>
      <trkpt lat="45.87903" lon="5.76282">
        <ele>1349.83</ele>
        <time>2012-04-09T08:49:05Z</time>
      </trkpt>
      <trkpt lat="45.87908" lon="5.76282">
        <ele>1349.83</ele>
        <time>2012-04-09T08:49:07Z</time>
      </trkpt>
      <trkpt lat="45.87912" lon="5.76282">
        <ele>1349.35</ele>
        <time>2012-04-09T08:49:09Z</time>
      </trkpt>
      <trkpt lat="45.87918" lon="5.76283">
        <ele>1348.87</ele>
        <time>2012-04-09T08:49:11Z</time>
      </trkpt>
      <trkpt lat="45.87924" lon="5.76284">
        <ele>1348.39</ele>
        <time>2012-04-09T08:49:13Z</time>
      </trkpt>
      <trkpt lat="45.8793" lon="5.76284">
        <ele>1347.91</ele>
        <time>2012-04-09T08:49:15Z</time>
      </trkpt>
      <trkpt lat="45.87935" lon="5.76285">
        <ele>1347.91</ele>
        <time>2012-04-09T08:49:17Z</time>
      </trkpt>
      <trkpt lat="45.8794" lon="5.76285">
        <ele>1346.94</ele>
        <time>2012-04-09T08:49:19Z</time>
      </trkpt>
      <trkpt lat="45.87945" lon="5.76285">
        <ele>1346.94</ele>
        <time>2012-04-09T08:49:21Z</time>
      </trkpt>
      <trkpt lat="45.87949" lon="5.76284">
        <ele>1346.94</ele>
        <time>2012-04-09T08:49:23Z</time>
      </trkpt>
      <trkpt lat="45.87954" lon="5.76283">
        <ele>1346.94</ele>
        <time>2012-04-09T08:49:25Z</time>
      </trkpt>
      <trkpt lat="45.87959" lon="5.76283">
        <ele>1346.94</ele>
        <time>2012-04-09T08:49:27Z</time>
      </trkpt>
      <trkpt lat="45.87964" lon="5.76283">
        <ele>1347.91</ele>
        <time>2012-04-09T08:49:29Z</time>
      </trkpt>
      <trkpt lat="45.87968" lon="5.76281">
        <ele>1347.91</ele>
        <time>2012-04-09T08:49:31Z</time>
      </trkpt>
      <trkpt lat="45.87973" lon="5.76279">
        <ele>1347.91</ele>
        <time>2012-04-09T08:49:33Z</time>
      </trkpt>
      <trkpt lat="45.87977" lon="5.76277">
        <ele>1348.39</ele>
        <time>2012-04-09T08:49:35Z</time>
      </trkpt>
      <trkpt lat="45.87981" lon="5.76277">
        <ele>1348.87</ele>
        <time>2012-04-09T08:49:37Z</time>
      </trkpt>
      <trkpt lat="45.87985" lon="5.76276">
        <ele>1349.83</ele>
        <time>2012-04-09T08:49:39Z</time>
      </trkpt>
      <trkpt lat="45.87988" lon="5.76276">
        <ele>1349.83</ele>
        <time>2012-04-09T08:49:41Z</time>
      </trkpt>
      <trkpt lat="45.87991" lon="5.76276">
        <ele>1351.27</ele>
        <time>2012-04-09T08:49:43Z</time>
      </trkpt>
      <trkpt lat="45.87995" lon="5.76277">
        <ele>1351.75</ele>
        <time>2012-04-09T08:49:45Z</time>
      </trkpt>
      <trkpt lat="45.87999" lon="5.76276">
        <ele>1352.23</ele>
        <time>2012-04-09T08:49:47Z</time>
      </trkpt>
      <trkpt lat="45.88004" lon="5.76276">
        <ele>1352.71</ele>
        <time>2012-04-09T08:49:49Z</time>
      </trkpt>
      <trkpt lat="45.88009" lon="5.76276">
        <ele>1352.71</ele>
        <time>2012-04-09T08:49:51Z</time>
      </trkpt>
      <trkpt lat="45.88013" lon="5.76277">
        <ele>1352.71</ele>
        <time>2012-04-09T08:49:53Z</time>
      </trkpt>
      <trkpt lat="45.88016" lon="5.76277">
        <ele>1353.19</ele>
        <time>2012-04-09T08:49:55Z</time>
      </trkpt>
      <trkpt lat="45.8802" lon="5.76277">
        <ele>1353.67</ele>
        <time>2012-04-09T08:49:57Z</time>
      </trkpt>
      <trkpt lat="45.88024" lon="5.76277">
        <ele>1353.67</ele>
        <time>2012-04-09T08:49:59Z</time>
      </trkpt>
      <trkpt lat="45.88027" lon="5.76277">
        <ele>1354.63</ele>
        <time>2012-04-09T08:50:01Z</time>
      </trkpt>
      <trkpt lat="45.88031" lon="5.76277">
        <ele>1355.12</ele>
        <time>2012-04-09T08:50:03Z</time>
      </trkpt>
      <trkpt lat="45.88034" lon="5.76277">
        <ele>1355.6</ele>
        <time>2012-04-09T08:50:05Z</time>
      </trkpt>
      <trkpt lat="45.88037" lon="5.76278">
        <ele>1355.6</ele>
        <time>2012-04-09T08:50:07Z</time>
      </trkpt>
      <trkpt lat="45.8804" lon="5.76277">
        <ele>1356.08</ele>
        <time>2012-04-09T08:50:09Z</time>
      </trkpt>
      <trkpt lat="45.88044" lon="5.76278">
        <ele>1356.08</ele>
        <time>2012-04-09T08:50:11Z</time>
      </trkpt>
      <trkpt lat="45.88049" lon="5.76277">
        <ele>1356.56</ele>
        <time>2012-04-09T08:50:13Z</time>
      </trkpt>
      <trkpt lat="45.88053" lon="5.76278">
        <ele>1357.04</ele>
        <time>2012-04-09T08:50:15Z</time>
      </trkpt>
      <trkpt lat="45.88058" lon="5.76277">
        <ele>1357.04</ele>
        <time>2012-04-09T08:50:17Z</time>
      </trkpt>
      <trkpt lat="45.88063" lon="5.76277">
        <ele>1357.52</ele>
        <time>2012-04-09T08:50:19Z</time>
      </trkpt>
      <trkpt lat="45.88067" lon="5.76276">
        <ele>1357.52</ele>
        <time>2012-04-09T08:50:21Z</time>
      </trkpt>
      <trkpt lat="45.8807" lon="5.76276">
        <ele>1357.52</ele>
        <time>2012-04-09T08:50:23Z</time>
      </trkpt>
      <trkpt lat="45.88073" lon="5.76276">
        <ele>1358</ele>
        <time>2012-04-09T08:50:25Z</time>
      </trkpt>
      <trkpt lat="45.88075" lon="5.76276">
        <ele>1358</ele>
        <time>2012-04-09T08:50:27Z</time>
      </trkpt>
      <trkpt lat="45.88077" lon="5.76275">
        <ele>1358</ele>
        <time>2012-04-09T08:50:29Z</time>
      </trkpt>
      <trkpt lat="45.8808" lon="5.76275">
        <ele>1358.48</ele>
        <time>2012-04-09T08:50:31Z</time>
      </trkpt>
      <trkpt lat="45.88082" lon="5.76275">
        <ele>1358.96</ele>
        <time>2012-04-09T08:50:33Z</time>
      </trkpt>
      <trkpt lat="45.88084" lon="5.76274">
        <ele>1358.96</ele>
        <time>2012-04-09T08:50:35Z</time>
      </trkpt>
      <trkpt lat="45.88087" lon="5.76274">
        <ele>1359.44</ele>
        <time>2012-04-09T08:50:37Z</time>
      </trkpt>
      <trkpt lat="45.88091" lon="5.76273">
        <ele>1359.92</ele>
        <time>2012-04-09T08:50:39Z</time>
      </trkpt>
      <trkpt lat="45.88095" lon="5.76272">
        <ele>1359.92</ele>
        <time>2012-04-09T08:50:41Z</time>
      </trkpt>
      <trkpt lat="45.88098" lon="5.76271">
        <ele>1360.88</ele>
        <time>2012-04-09T08:50:43Z</time>
      </trkpt>
      <trkpt lat="45.88102" lon="5.7627">
        <ele>1361.36</ele>
        <time>2012-04-09T08:50:45Z</time>
      </trkpt>
      <trkpt lat="45.88105" lon="5.76269">
        <ele>1361.84</ele>
        <time>2012-04-09T08:50:47Z</time>
      </trkpt>
      <trkpt lat="45.88108" lon="5.76268">
        <ele>1362.33</ele>
        <time>2012-04-09T08:50:49Z</time>
      </trkpt>
      <trkpt lat="45.88111" lon="5.76266">
        <ele>1362.33</ele>
        <time>2012-04-09T08:50:51Z</time>
      </trkpt>
      <trkpt lat="45.88115" lon="5.76265">
        <ele>1362.33</ele>
        <time>2012-04-09T08:50:53Z</time>
      </trkpt>
      <trkpt lat="45.88118" lon="5.76264">
        <ele>1363.77</ele>
        <time>2012-04-09T08:50:55Z</time>
      </trkpt>
      <trkpt lat="45.88122" lon="5.76263">
        <ele>1363.29</ele>
        <time>2012-04-09T08:50:57Z</time>
      </trkpt>
      <trkpt lat="45.88124" lon="5.76262">
        <ele>1364.25</ele>
        <time>2012-04-09T08:50:59Z</time>
      </trkpt>
      <trkpt lat="45.88126" lon="5.76262">
        <ele>1364.25</ele>
        <time>2012-04-09T08:51:01Z</time>
      </trkpt>
      <trkpt lat="45.88127" lon="5.76262">
        <ele>1364.25</ele>
        <time>2012-04-09T08:51:03Z</time>
      </trkpt>
      <trkpt lat="45.88129" lon="5.76262">
        <ele>1364.25</ele>
        <time>2012-04-09T08:51:05Z</time>
      </trkpt>
      <trkpt lat="45.88133" lon="5.76259">
        <ele>1364.73</ele>
        <time>2012-04-09T08:51:07Z</time>
      </trkpt>
      <trkpt lat="45.88135" lon="5.76256">
        <ele>1364.73</ele>
        <time>2012-04-09T08:51:09Z</time>
      </trkpt>
      <trkpt lat="45.88139" lon="5.76257">
        <ele>1364.73</ele>
        <time>2012-04-09T08:51:11Z</time>
      </trkpt>
      <trkpt lat="45.88144" lon="5.76255">
        <ele>1365.21</ele>
        <time>2012-04-09T08:51:13Z</time>
      </trkpt>
      <trkpt lat="45.88149" lon="5.76253">
        <ele>1365.21</ele>
        <time>2012-04-09T08:51:15Z</time>
      </trkpt>
      <trkpt lat="45.88153" lon="5.7625">
        <ele>1365.69</ele>
        <time>2012-04-09T08:51:17Z</time>
      </trkpt>
      <trkpt lat="45.88158" lon="5.76247">
        <ele>1365.69</ele>
        <time>2012-04-09T08:51:19Z</time>
      </trkpt>
      <trkpt lat="45.88162" lon="5.76244">
        <ele>1365.69</ele>
        <time>2012-04-09T08:51:21Z</time>
      </trkpt>
      <trkpt lat="45.88167" lon="5.76242">
        <ele>1365.69</ele>
        <time>2012-04-09T08:51:23Z</time>
      </trkpt>
      <trkpt lat="45.88172" lon="5.76238">
        <ele>1366.17</ele>
        <time>2012-04-09T08:51:25Z</time>
      </trkpt>
      <trkpt lat="45.88175" lon="5.76236">
        <ele>1365.69</ele>
        <time>2012-04-09T08:51:27Z</time>
      </trkpt>
      <trkpt lat="45.88176" lon="5.76235">
        <ele>1365.21</ele>
        <time>2012-04-09T08:51:29Z</time>
      </trkpt>
      <trkpt lat="45.88176" lon="5.76234">
        <ele>1365.21</ele>
        <time>2012-04-09T08:51:31Z</time>
      </trkpt>
      <trkpt lat="45.88176" lon="5.76234">
        <ele>1365.69</ele>
        <time>2012-04-09T08:51:33Z</time>
      </trkpt>
      <trkpt lat="45.88176" lon="5.76234">
        <ele>1365.69</ele>
        <time>2012-04-09T08:51:35Z</time>
      </trkpt>
      <trkpt lat="45.88177" lon="5.76235">
        <ele>1365.21</ele>
        <time>2012-04-09T08:51:37Z</time>
      </trkpt>
      <trkpt lat="45.88178" lon="5.76236">
        <ele>1364.73</ele>
        <time>2012-04-09T08:51:39Z</time>
      </trkpt>
      <trkpt lat="45.88178" lon="5.76236">
        <ele>1366.17</ele>
        <time>2012-04-09T08:51:41Z</time>
      </trkpt>
      <trkpt lat="45.88178" lon="5.76236">
        <ele>1363.29</ele>
        <time>2012-04-09T08:51:43Z</time>
      </trkpt>
      <trkpt lat="45.88178" lon="5.76236">
        <ele>1365.69</ele>
        <time>2012-04-09T08:51:45Z</time>
      </trkpt>
      <trkpt lat="45.88178" lon="5.76236">
        <ele>1364.73</ele>
        <time>2012-04-09T08:51:47Z</time>
      </trkpt>
      <trkpt lat="45.88178" lon="5.76236">
        <ele>1365.21</ele>
        <time>2012-04-09T08:51:49Z</time>
      </trkpt>
      <trkpt lat="45.88178" lon="5.76236">
        <ele>1365.69</ele>
        <time>2012-04-09T08:51:51Z</time>
      </trkpt>
      <trkpt lat="45.88178" lon="5.76236">
        <ele>1365.21</ele>
        <time>2012-04-09T08:51:53Z</time>
      </trkpt>
      <trkpt lat="45.88178" lon="5.76236">
        <ele>1365.69</ele>
        <time>2012-04-09T08:51:55Z</time>
      </trkpt>
      <trkpt lat="45.88178" lon="5.76236">
        <ele>1361.84</ele>
        <time>2012-04-09T08:51:57Z</time>
      </trkpt>
      <trkpt lat="45.88178" lon="5.76236">
        <ele>1363.77</ele>
        <time>2012-04-09T08:51:59Z</time>
      </trkpt>
      <trkpt lat="45.88178" lon="5.76236">
        <ele>1364.25</ele>
        <time>2012-04-09T08:52:01Z</time>
      </trkpt>
      <trkpt lat="45.88178" lon="5.76236">
        <ele>1366.17</ele>
        <time>2012-04-09T08:52:03Z</time>
      </trkpt>
      <trkpt lat="45.88178" lon="5.76236">
        <ele>1365.69</ele>
        <time>2012-04-09T08:52:05Z</time>
      </trkpt>
      <trkpt lat="45.88178" lon="5.76236">
        <ele>1365.69</ele>
        <time>2012-04-09T08:52:07Z</time>
      </trkpt>
      <trkpt lat="45.88178" lon="5.76236">
        <ele>1364.25</ele>
        <time>2012-04-09T08:52:09Z</time>
      </trkpt>
      <trkpt lat="45.88178" lon="5.76236">
        <ele>1365.69</ele>
        <time>2012-04-09T08:52:12Z</time>
      </trkpt>
      <trkpt lat="45.88178" lon="5.76236">
        <ele>1365.69</ele>
        <time>2012-04-09T08:52:14Z</time>
      </trkpt>
      <trkpt lat="45.88178" lon="5.76236">
        <ele>1365.69</ele>
        <time>2012-04-09T08:52:16Z</time>
      </trkpt>
      <trkpt lat="45.88178" lon="5.76236">
        <ele>1363.29</ele>
        <time>2012-04-09T08:52:18Z</time>
      </trkpt>
      <trkpt lat="45.88178" lon="5.76236">
        <ele>1366.17</ele>
        <time>2012-04-09T08:52:20Z</time>
      </trkpt>
      <trkpt lat="45.88178" lon="5.76236">
        <ele>1363.77</ele>
        <time>2012-04-09T08:52:22Z</time>
      </trkpt>
      <trkpt lat="45.88178" lon="5.76236">
        <ele>1364.73</ele>
        <time>2012-04-09T08:52:24Z</time>
      </trkpt>
      <trkpt lat="45.88178" lon="5.76236">
        <ele>1365.69</ele>
        <time>2012-04-09T08:52:26Z</time>
      </trkpt>
      <trkpt lat="45.88178" lon="5.76236">
        <ele>1365.21</ele>
        <time>2012-04-09T08:52:28Z</time>
      </trkpt>
      <trkpt lat="45.88178" lon="5.76236">
        <ele>1365.21</ele>
        <time>2012-04-09T08:52:30Z</time>
      </trkpt>
      <trkpt lat="45.8818" lon="5.76233">
        <ele>1365.21</ele>
        <time>2012-04-09T08:52:32Z</time>
      </trkpt>
      <trkpt lat="45.88184" lon="5.76229">
        <ele>1366.17</ele>
        <time>2012-04-09T08:52:34Z</time>
      </trkpt>
      <trkpt lat="45.88188" lon="5.76225">
        <ele>1365.69</ele>
        <time>2012-04-09T08:52:36Z</time>
      </trkpt>
      <trkpt lat="45.88193" lon="5.7622">
        <ele>1366.17</ele>
        <time>2012-04-09T08:52:38Z</time>
      </trkpt>
      <trkpt lat="45.88197" lon="5.76215">
        <ele>1365.69</ele>
        <time>2012-04-09T08:52:40Z</time>
      </trkpt>
      <trkpt lat="45.88201" lon="5.76211">
        <ele>1366.17</ele>
        <time>2012-04-09T08:52:42Z</time>
      </trkpt>
      <trkpt lat="45.88204" lon="5.76206">
        <ele>1366.65</ele>
        <time>2012-04-09T08:52:44Z</time>
      </trkpt>
      <trkpt lat="45.88208" lon="5.76203">
        <ele>1367.13</ele>
        <time>2012-04-09T08:52:46Z</time>
      </trkpt>
      <trkpt lat="45.88212" lon="5.762">
        <ele>1367.61</ele>
        <time>2012-04-09T08:52:48Z</time>
      </trkpt>
      <trkpt lat="45.88216" lon="5.76197">
        <ele>1367.61</ele>
        <time>2012-04-09T08:52:50Z</time>
      </trkpt>
      <trkpt lat="45.88221" lon="5.76196">
        <ele>1367.61</ele>
        <time>2012-04-09T08:52:52Z</time>
      </trkpt>
      <trkpt lat="45.88226" lon="5.76193">
        <ele>1367.61</ele>
        <time>2012-04-09T08:52:54Z</time>
      </trkpt>
      <trkpt lat="45.8823" lon="5.7619">
        <ele>1368.57</ele>
        <time>2012-04-09T08:52:56Z</time>
      </trkpt>
      <trkpt lat="45.88235" lon="5.76187">
        <ele>1368.57</ele>
        <time>2012-04-09T08:52:58Z</time>
      </trkpt>
      <trkpt lat="45.88239" lon="5.76185">
        <ele>1369.05</ele>
        <time>2012-04-09T08:53:00Z</time>
      </trkpt>
      <trkpt lat="45.88243" lon="5.76183">
        <ele>1369.54</ele>
        <time>2012-04-09T08:53:02Z</time>
      </trkpt>
      <trkpt lat="45.88246" lon="5.76182">
        <ele>1369.54</ele>
        <time>2012-04-09T08:53:04Z</time>
      </trkpt>
      <trkpt lat="45.8825" lon="5.7618">
        <ele>1370.02</ele>
        <time>2012-04-09T08:53:06Z</time>
      </trkpt>
      <trkpt lat="45.88254" lon="5.76178">
        <ele>1370.02</ele>
        <time>2012-04-09T08:53:08Z</time>
      </trkpt>
      <trkpt lat="45.88258" lon="5.76177">
        <ele>1370.02</ele>
        <time>2012-04-09T08:53:10Z</time>
      </trkpt>
      <trkpt lat="45.88261" lon="5.76175">
        <ele>1370.98</ele>
        <time>2012-04-09T08:53:12Z</time>
      </trkpt>
      <trkpt lat="45.88265" lon="5.76173">
        <ele>1370.98</ele>
        <time>2012-04-09T08:53:14Z</time>
      </trkpt>
      <trkpt lat="45.88269" lon="5.76172">
        <ele>1371.46</ele>
        <time>2012-04-09T08:53:16Z</time>
      </trkpt>
      <trkpt lat="45.88273" lon="5.7617">
        <ele>1372.42</ele>
        <time>2012-04-09T08:53:18Z</time>
      </trkpt>
      <trkpt lat="45.88277" lon="5.76167">
        <ele>1372.42</ele>
        <time>2012-04-09T08:53:20Z</time>
      </trkpt>
      <trkpt lat="45.88282" lon="5.76165">
        <ele>1372.9</ele>
        <time>2012-04-09T08:53:22Z</time>
      </trkpt>
      <trkpt lat="45.88286" lon="5.76162">
        <ele>1373.38</ele>
        <time>2012-04-09T08:53:24Z</time>
      </trkpt>
      <trkpt lat="45.8829" lon="5.76159">
        <ele>1373.86</ele>
        <time>2012-04-09T08:53:26Z</time>
      </trkpt>
      <trkpt lat="45.88294" lon="5.76157">
        <ele>1374.34</ele>
        <time>2012-04-09T08:53:28Z</time>
      </trkpt>
      <trkpt lat="45.88297" lon="5.76154">
        <ele>1374.82</ele>
        <time>2012-04-09T08:53:30Z</time>
      </trkpt>
      <trkpt lat="45.88302" lon="5.76152">
        <ele>1374.82</ele>
        <time>2012-04-09T08:53:32Z</time>
      </trkpt>
      <trkpt lat="45.88305" lon="5.76149">
        <ele>1375.3</ele>
        <time>2012-04-09T08:53:34Z</time>
      </trkpt>
      <trkpt lat="45.88309" lon="5.76146">
        <ele>1375.78</ele>
        <time>2012-04-09T08:53:36Z</time>
      </trkpt>
      <trkpt lat="45.88312" lon="5.76143">
        <ele>1376.26</ele>
        <time>2012-04-09T08:53:38Z</time>
      </trkpt>
      <trkpt lat="45.88317" lon="5.76142">
        <ele>1376.26</ele>
        <time>2012-04-09T08:53:40Z</time>
      </trkpt>
      <trkpt lat="45.8832" lon="5.76139">
        <ele>1377.23</ele>
        <time>2012-04-09T08:53:42Z</time>
      </trkpt>
      <trkpt lat="45.88324" lon="5.76137">
        <ele>1377.71</ele>
        <time>2012-04-09T08:53:44Z</time>
      </trkpt>
      <trkpt lat="45.88328" lon="5.76134">
        <ele>1377.71</ele>
        <time>2012-04-09T08:53:46Z</time>
      </trkpt>
      <trkpt lat="45.88333" lon="5.76133">
        <ele>1378.19</ele>
        <time>2012-04-09T08:53:48Z</time>
      </trkpt>
      <trkpt lat="45.88337" lon="5.7613">
        <ele>1378.67</ele>
        <time>2012-04-09T08:53:50Z</time>
      </trkpt>
      <trkpt lat="45.88341" lon="5.76127">
        <ele>1379.15</ele>
        <time>2012-04-09T08:53:52Z</time>
      </trkpt>
      <trkpt lat="45.88344" lon="5.76124">
        <ele>1379.63</ele>
        <time>2012-04-09T08:53:54Z</time>
      </trkpt>
      <trkpt lat="45.88348" lon="5.76122">
        <ele>1379.63</ele>
        <time>2012-04-09T08:53:56Z</time>
      </trkpt>
      <trkpt lat="45.88352" lon="5.7612">
        <ele>1380.59</ele>
        <time>2012-04-09T08:53:58Z</time>
      </trkpt>
      <trkpt lat="45.88357" lon="5.76116">
        <ele>1381.07</ele>
        <time>2012-04-09T08:54:00Z</time>
      </trkpt>
      <trkpt lat="45.88361" lon="5.76112">
        <ele>1380.59</ele>
        <time>2012-04-09T08:54:02Z</time>
      </trkpt>
      <trkpt lat="45.88366" lon="5.76111">
        <ele>1381.07</ele>
        <time>2012-04-09T08:54:04Z</time>
      </trkpt>
      <trkpt lat="45.8837" lon="5.76108">
        <ele>1382.03</ele>
        <time>2012-04-09T08:54:06Z</time>
      </trkpt>
      <trkpt lat="45.88374" lon="5.76107">
        <ele>1382.51</ele>
        <time>2012-04-09T08:54:08Z</time>
      </trkpt>
      <trkpt lat="45.88378" lon="5.76105">
        <ele>1382.99</ele>
        <time>2012-04-09T08:54:10Z</time>
      </trkpt>
      <trkpt lat="45.88381" lon="5.76103">
        <ele>1383.47</ele>
        <time>2012-04-09T08:54:12Z</time>
      </trkpt>
      <trkpt lat="45.88385" lon="5.76102">
        <ele>1383.96</ele>
        <time>2012-04-09T08:54:14Z</time>
      </trkpt>
      <trkpt lat="45.88389" lon="5.76101">
        <ele>1383.96</ele>
        <time>2012-04-09T08:54:16Z</time>
      </trkpt>
      <trkpt lat="45.88392" lon="5.76099">
        <ele>1384.44</ele>
        <time>2012-04-09T08:54:18Z</time>
      </trkpt>
      <trkpt lat="45.88396" lon="5.76097">
        <ele>1384.92</ele>
        <time>2012-04-09T08:54:20Z</time>
      </trkpt>
      <trkpt lat="45.88399" lon="5.76096">
        <ele>1385.4</ele>
        <time>2012-04-09T08:54:22Z</time>
      </trkpt>
      <trkpt lat="45.88402" lon="5.76094">
        <ele>1385.88</ele>
        <time>2012-04-09T08:54:24Z</time>
      </trkpt>
      <trkpt lat="45.88406" lon="5.76093">
        <ele>1386.36</ele>
        <time>2012-04-09T08:54:26Z</time>
      </trkpt>
      <trkpt lat="45.88409" lon="5.76091">
        <ele>1386.36</ele>
        <time>2012-04-09T08:54:28Z</time>
      </trkpt>
      <trkpt lat="45.88413" lon="5.76089">
        <ele>1386.84</ele>
        <time>2012-04-09T08:54:30Z</time>
      </trkpt>
      <trkpt lat="45.88416" lon="5.76086">
        <ele>1387.32</ele>
        <time>2012-04-09T08:54:32Z</time>
      </trkpt>
      <trkpt lat="45.88419" lon="5.76085">
        <ele>1387.8</ele>
        <time>2012-04-09T08:54:34Z</time>
      </trkpt>
      <trkpt lat="45.88422" lon="5.76084">
        <ele>1387.8</ele>
        <time>2012-04-09T08:54:36Z</time>
      </trkpt>
      <trkpt lat="45.88425" lon="5.76083">
        <ele>1387.8</ele>
        <time>2012-04-09T08:54:38Z</time>
      </trkpt>
      <trkpt lat="45.88428" lon="5.76081">
        <ele>1388.76</ele>
        <time>2012-04-09T08:54:40Z</time>
      </trkpt>
      <trkpt lat="45.88432" lon="5.76079">
        <ele>1388.76</ele>
        <time>2012-04-09T08:54:42Z</time>
      </trkpt>
      <trkpt lat="45.88436" lon="5.76076">
        <ele>1388.76</ele>
        <time>2012-04-09T08:54:44Z</time>
      </trkpt>
      <trkpt lat="45.88439" lon="5.76075">
        <ele>1389.72</ele>
        <time>2012-04-09T08:54:46Z</time>
      </trkpt>
      <trkpt lat="45.88442" lon="5.76073">
        <ele>1390.2</ele>
        <time>2012-04-09T08:54:48Z</time>
      </trkpt>
      <trkpt lat="45.88445" lon="5.76072">
        <ele>1390.68</ele>
        <time>2012-04-09T08:54:50Z</time>
      </trkpt>
      <trkpt lat="45.88448" lon="5.7607">
        <ele>1390.68</ele>
        <time>2012-04-09T08:54:52Z</time>
      </trkpt>
      <trkpt lat="45.88452" lon="5.76068">
        <ele>1391.65</ele>
        <time>2012-04-09T08:54:54Z</time>
      </trkpt>
      <trkpt lat="45.88455" lon="5.76067">
        <ele>1391.65</ele>
        <time>2012-04-09T08:54:56Z</time>
      </trkpt>
      <trkpt lat="45.88459" lon="5.76067">
        <ele>1392.13</ele>
        <time>2012-04-09T08:54:58Z</time>
      </trkpt>
      <trkpt lat="45.88464" lon="5.76065">
        <ele>1392.61</ele>
        <time>2012-04-09T08:55:00Z</time>
      </trkpt>
      <trkpt lat="45.88468" lon="5.76065">
        <ele>1392.61</ele>
        <time>2012-04-09T08:55:02Z</time>
      </trkpt>
      <trkpt lat="45.88472" lon="5.76063">
        <ele>1393.09</ele>
        <time>2012-04-09T08:55:04Z</time>
      </trkpt>
      <trkpt lat="45.88476" lon="5.76062">
        <ele>1393.09</ele>
        <time>2012-04-09T08:55:06Z</time>
      </trkpt>
      <trkpt lat="45.88479" lon="5.76061">
        <ele>1393.57</ele>
        <time>2012-04-09T08:55:08Z</time>
      </trkpt>
      <trkpt lat="45.88484" lon="5.7606">
        <ele>1393.57</ele>
        <time>2012-04-09T08:55:10Z</time>
      </trkpt>
      <trkpt lat="45.88488" lon="5.76058">
        <ele>1393.57</ele>
        <time>2012-04-09T08:55:12Z</time>
      </trkpt>
      <trkpt lat="45.88493" lon="5.76057">
        <ele>1393.57</ele>
        <time>2012-04-09T08:55:14Z</time>
      </trkpt>
      <trkpt lat="45.88497" lon="5.76055">
        <ele>1393.57</ele>
        <time>2012-04-09T08:55:16Z</time>
      </trkpt>
      <trkpt lat="45.88502" lon="5.76054">
        <ele>1394.05</ele>
        <time>2012-04-09T08:55:18Z</time>
      </trkpt>
      <trkpt lat="45.88506" lon="5.76054">
        <ele>1394.05</ele>
        <time>2012-04-09T08:55:20Z</time>
      </trkpt>
      <trkpt lat="45.8851" lon="5.76053">
        <ele>1394.05</ele>
        <time>2012-04-09T08:55:22Z</time>
      </trkpt>
      <trkpt lat="45.88515" lon="5.76053">
        <ele>1394.53</ele>
        <time>2012-04-09T08:55:24Z</time>
      </trkpt>
      <trkpt lat="45.88519" lon="5.76052">
        <ele>1394.53</ele>
        <time>2012-04-09T08:55:26Z</time>
      </trkpt>
      <trkpt lat="45.88524" lon="5.76052">
        <ele>1394.05</ele>
        <time>2012-04-09T08:55:28Z</time>
      </trkpt>
      <trkpt lat="45.88529" lon="5.76052">
        <ele>1394.53</ele>
        <time>2012-04-09T08:55:30Z</time>
      </trkpt>
      <trkpt lat="45.88535" lon="5.76052">
        <ele>1394.53</ele>
        <time>2012-04-09T08:55:32Z</time>
      </trkpt>
      <trkpt lat="45.8854" lon="5.76051">
        <ele>1394.53</ele>
        <time>2012-04-09T08:55:34Z</time>
      </trkpt>
      <trkpt lat="45.88545" lon="5.76051">
        <ele>1395.01</ele>
        <time>2012-04-09T08:55:36Z</time>
      </trkpt>
      <trkpt lat="45.88549" lon="5.76051">
        <ele>1394.53</ele>
        <time>2012-04-09T08:55:38Z</time>
      </trkpt>
      <trkpt lat="45.88552" lon="5.76052">
        <ele>1394.53</ele>
        <time>2012-04-09T08:55:40Z</time>
      </trkpt>
      <trkpt lat="45.88555" lon="5.76051">
        <ele>1394.53</ele>
        <time>2012-04-09T08:55:42Z</time>
      </trkpt>
      <trkpt lat="45.88556" lon="5.7605">
        <ele>1394.53</ele>
        <time>2012-04-09T08:55:44Z</time>
      </trkpt>
      <trkpt lat="45.88557" lon="5.76049">
        <ele>1394.53</ele>
        <time>2012-04-09T08:55:46Z</time>
      </trkpt>
      <trkpt lat="45.88557" lon="5.76049">
        <ele>1394.05</ele>
        <time>2012-04-09T08:55:48Z</time>
      </trkpt>
      <trkpt lat="45.88557" lon="5.7605">
        <ele>1394.53</ele>
        <time>2012-04-09T08:55:50Z</time>
      </trkpt>
      <trkpt lat="45.88555" lon="5.76051">
        <ele>1394.53</ele>
        <time>2012-04-09T08:55:52Z</time>
      </trkpt>
      <trkpt lat="45.88555" lon="5.76051">
        <ele>1394.53</ele>
        <time>2012-04-09T08:55:54Z</time>
      </trkpt>
      <trkpt lat="45.88555" lon="5.76051">
        <ele>1394.05</ele>
        <time>2012-04-09T08:55:56Z</time>
      </trkpt>
      <trkpt lat="45.88555" lon="5.76051">
        <ele>1394.05</ele>
        <time>2012-04-09T08:55:58Z</time>
      </trkpt>
      <trkpt lat="45.88555" lon="5.76051">
        <ele>1394.53</ele>
        <time>2012-04-09T08:56:00Z</time>
      </trkpt>
      <trkpt lat="45.88556" lon="5.76051">
        <ele>1394.53</ele>
        <time>2012-04-09T08:56:02Z</time>
      </trkpt>
      <trkpt lat="45.88558" lon="5.76051">
        <ele>1394.05</ele>
        <time>2012-04-09T08:56:04Z</time>
      </trkpt>
      <trkpt lat="45.88561" lon="5.7605">
        <ele>1394.53</ele>
        <time>2012-04-09T08:56:06Z</time>
      </trkpt>
      <trkpt lat="45.88565" lon="5.76051">
        <ele>1394.53</ele>
        <time>2012-04-09T08:56:08Z</time>
      </trkpt>
      <trkpt lat="45.88571" lon="5.76051">
        <ele>1395.01</ele>
        <time>2012-04-09T08:56:10Z</time>
      </trkpt>
      <trkpt lat="45.88576" lon="5.76052">
        <ele>1395.01</ele>
        <time>2012-04-09T08:56:12Z</time>
      </trkpt>
      <trkpt lat="45.88581" lon="5.76052">
        <ele>1394.53</ele>
        <time>2012-04-09T08:56:14Z</time>
      </trkpt>
      <trkpt lat="45.88586" lon="5.76051">
        <ele>1395.01</ele>
        <time>2012-04-09T08:56:16Z</time>
      </trkpt>
      <trkpt lat="45.8859" lon="5.76052">
        <ele>1395.01</ele>
        <time>2012-04-09T08:56:18Z</time>
      </trkpt>
      <trkpt lat="45.88594" lon="5.76052">
        <ele>1395.01</ele>
        <time>2012-04-09T08:56:20Z</time>
      </trkpt>
      <trkpt lat="45.88599" lon="5.76053">
        <ele>1395.01</ele>
        <time>2012-04-09T08:56:22Z</time>
      </trkpt>
      <trkpt lat="45.88604" lon="5.76054">
        <ele>1395.01</ele>
        <time>2012-04-09T08:56:24Z</time>
      </trkpt>
      <trkpt lat="45.8861" lon="5.76054">
        <ele>1395.49</ele>
        <time>2012-04-09T08:56:26Z</time>
      </trkpt>
      <trkpt lat="45.88615" lon="5.76055">
        <ele>1395.01</ele>
        <time>2012-04-09T08:56:28Z</time>
      </trkpt>
      <trkpt lat="45.8862" lon="5.76055">
        <ele>1395.01</ele>
        <time>2012-04-09T08:56:30Z</time>
      </trkpt>
      <trkpt lat="45.88624" lon="5.76056">
        <ele>1395.49</ele>
        <time>2012-04-09T08:56:32Z</time>
      </trkpt>
      <trkpt lat="45.88629" lon="5.76057">
        <ele>1395.49</ele>
        <time>2012-04-09T08:56:34Z</time>
      </trkpt>
      <trkpt lat="45.88634" lon="5.76059">
        <ele>1395.97</ele>
        <time>2012-04-09T08:56:36Z</time>
      </trkpt>
      <trkpt lat="45.8864" lon="5.7606">
        <ele>1395.01</ele>
        <time>2012-04-09T08:56:38Z</time>
      </trkpt>
      <trkpt lat="45.88645" lon="5.76061">
        <ele>1395.49</ele>
        <time>2012-04-09T08:56:40Z</time>
      </trkpt>
      <trkpt lat="45.88649" lon="5.76062">
        <ele>1395.49</ele>
        <time>2012-04-09T08:56:42Z</time>
      </trkpt>
      <trkpt lat="45.88654" lon="5.76062">
        <ele>1395.49</ele>
        <time>2012-04-09T08:56:44Z</time>
      </trkpt>
      <trkpt lat="45.88659" lon="5.76062">
        <ele>1395.49</ele>
        <time>2012-04-09T08:56:46Z</time>
      </trkpt>
      <trkpt lat="45.88662" lon="5.76063">
        <ele>1395.97</ele>
        <time>2012-04-09T08:56:48Z</time>
      </trkpt>
      <trkpt lat="45.88667" lon="5.76063">
        <ele>1395.97</ele>
        <time>2012-04-09T08:56:50Z</time>
      </trkpt>
      <trkpt lat="45.88671" lon="5.76064">
        <ele>1395.97</ele>
        <time>2012-04-09T08:56:52Z</time>
      </trkpt>
      <trkpt lat="45.88675" lon="5.76065">
        <ele>1396.45</ele>
        <time>2012-04-09T08:56:54Z</time>
      </trkpt>
      <trkpt lat="45.8868" lon="5.76066">
        <ele>1395.97</ele>
        <time>2012-04-09T08:56:56Z</time>
      </trkpt>
      <trkpt lat="45.88685" lon="5.76067">
        <ele>1396.45</ele>
        <time>2012-04-09T08:56:58Z</time>
      </trkpt>
      <trkpt lat="45.8869" lon="5.76068">
        <ele>1395.97</ele>
        <time>2012-04-09T08:57:00Z</time>
      </trkpt>
      <trkpt lat="45.88694" lon="5.76069">
        <ele>1396.45</ele>
        <time>2012-04-09T08:57:02Z</time>
      </trkpt>
      <trkpt lat="45.88699" lon="5.7607">
        <ele>1395.49</ele>
        <time>2012-04-09T08:57:04Z</time>
      </trkpt>
      <trkpt lat="45.88703" lon="5.7607">
        <ele>1395.97</ele>
        <time>2012-04-09T08:57:06Z</time>
      </trkpt>
      <trkpt lat="45.88707" lon="5.76071">
        <ele>1395.97</ele>
        <time>2012-04-09T08:57:08Z</time>
      </trkpt>
      <trkpt lat="45.8871" lon="5.76072">
        <ele>1395.97</ele>
        <time>2012-04-09T08:57:10Z</time>
      </trkpt>
      <trkpt lat="45.88715" lon="5.76074">
        <ele>1395.97</ele>
        <time>2012-04-09T08:57:12Z</time>
      </trkpt>
      <trkpt lat="45.88719" lon="5.76075">
        <ele>1395.97</ele>
        <time>2012-04-09T08:57:14Z</time>
      </trkpt>
      <trkpt lat="45.88724" lon="5.76075">
        <ele>1395.49</ele>
        <time>2012-04-09T08:57:16Z</time>
      </trkpt>
      <trkpt lat="45.88731" lon="5.76074">
        <ele>1396.45</ele>
        <time>2012-04-09T08:57:18Z</time>
      </trkpt>
      <trkpt lat="45.88738" lon="5.76075">
        <ele>1396.45</ele>
        <time>2012-04-09T08:57:20Z</time>
      </trkpt>
      <trkpt lat="45.88744" lon="5.76076">
        <ele>1396.45</ele>
        <time>2012-04-09T08:57:22Z</time>
      </trkpt>
      <trkpt lat="45.88751" lon="5.76076">
        <ele>1396.45</ele>
        <time>2012-04-09T08:57:24Z</time>
      </trkpt>
      <trkpt lat="45.88757" lon="5.76075">
        <ele>1396.93</ele>
        <time>2012-04-09T08:57:26Z</time>
      </trkpt>
      <trkpt lat="45.88762" lon="5.76075">
        <ele>1394.53</ele>
        <time>2012-04-09T08:57:28Z</time>
      </trkpt>
      <trkpt lat="45.88767" lon="5.76076">
        <ele>1397.41</ele>
        <time>2012-04-09T08:57:30Z</time>
      </trkpt>
      <trkpt lat="45.88772" lon="5.76078">
        <ele>1398.37</ele>
        <time>2012-04-09T08:57:32Z</time>
      </trkpt>
      <trkpt lat="45.88776" lon="5.76079">
        <ele>1397.41</ele>
        <time>2012-04-09T08:57:34Z</time>
      </trkpt>
      <trkpt lat="45.8878" lon="5.76081">
        <ele>1398.37</ele>
        <time>2012-04-09T08:57:36Z</time>
      </trkpt>
      <trkpt lat="45.88784" lon="5.76082">
        <ele>1396.93</ele>
        <time>2012-04-09T08:57:38Z</time>
      </trkpt>
      <trkpt lat="45.88788" lon="5.76083">
        <ele>1397.41</ele>
        <time>2012-04-09T08:57:40Z</time>
      </trkpt>
      <trkpt lat="45.88792" lon="5.76085">
        <ele>1397.41</ele>
        <time>2012-04-09T08:57:42Z</time>
      </trkpt>
      <trkpt lat="45.88796" lon="5.76086">
        <ele>1391.65</ele>
        <time>2012-04-09T08:57:44Z</time>
      </trkpt>
      <trkpt lat="45.888" lon="5.76089">
        <ele>1396.45</ele>
        <time>2012-04-09T08:57:46Z</time>
      </trkpt>
      <trkpt lat="45.88804" lon="5.76091">
        <ele>1402.7</ele>
        <time>2012-04-09T08:57:48Z</time>
      </trkpt>
      <trkpt lat="45.88809" lon="5.76092">
        <ele>1396.93</ele>
        <time>2012-04-09T08:57:50Z</time>
      </trkpt>
      <trkpt lat="45.88814" lon="5.76091">
        <ele>1399.34</ele>
        <time>2012-04-09T08:57:52Z</time>
      </trkpt>
      <trkpt lat="45.88817" lon="5.7609">
        <ele>1398.37</ele>
        <time>2012-04-09T08:57:54Z</time>
      </trkpt>
      <trkpt lat="45.88821" lon="5.76091">
        <ele>1398.86</ele>
        <time>2012-04-09T08:57:56Z</time>
      </trkpt>
      <trkpt lat="45.88825" lon="5.76093">
        <ele>1399.34</ele>
        <time>2012-04-09T08:57:58Z</time>
      </trkpt>
      <trkpt lat="45.88829" lon="5.76094">
        <ele>1399.34</ele>
        <time>2012-04-09T08:58:00Z</time>
      </trkpt>
      <trkpt lat="45.88833" lon="5.76096">
        <ele>1399.34</ele>
        <time>2012-04-09T08:58:02Z</time>
      </trkpt>
      <trkpt lat="45.88838" lon="5.76096">
        <ele>1399.82</ele>
        <time>2012-04-09T08:58:04Z</time>
      </trkpt>
      <trkpt lat="45.88841" lon="5.76096">
        <ele>1400.3</ele>
        <time>2012-04-09T08:58:06Z</time>
      </trkpt>
      <trkpt lat="45.88846" lon="5.76098">
        <ele>1400.78</ele>
        <time>2012-04-09T08:58:08Z</time>
      </trkpt>
      <trkpt lat="45.88851" lon="5.76097">
        <ele>1400.78</ele>
        <time>2012-04-09T08:58:10Z</time>
      </trkpt>
      <trkpt lat="45.88856" lon="5.76098">
        <ele>1401.74</ele>
        <time>2012-04-09T08:58:12Z</time>
      </trkpt>
      <trkpt lat="45.8886" lon="5.76097">
        <ele>1401.74</ele>
        <time>2012-04-09T08:58:14Z</time>
      </trkpt>
      <trkpt lat="45.88865" lon="5.76099">
        <ele>1402.22</ele>
        <time>2012-04-09T08:58:16Z</time>
      </trkpt>
      <trkpt lat="45.88869" lon="5.76099">
        <ele>1402.7</ele>
        <time>2012-04-09T08:58:18Z</time>
      </trkpt>
      <trkpt lat="45.88874" lon="5.761">
        <ele>1402.7</ele>
        <time>2012-04-09T08:58:20Z</time>
      </trkpt>
      <trkpt lat="45.88878" lon="5.76102">
        <ele>1403.18</ele>
        <time>2012-04-09T08:58:22Z</time>
      </trkpt>
      <trkpt lat="45.88882" lon="5.76103">
        <ele>1403.66</ele>
        <time>2012-04-09T08:58:24Z</time>
      </trkpt>
      <trkpt lat="45.88885" lon="5.76103">
        <ele>1404.14</ele>
        <time>2012-04-09T08:58:26Z</time>
      </trkpt>
      <trkpt lat="45.88889" lon="5.76104">
        <ele>1404.14</ele>
        <time>2012-04-09T08:58:28Z</time>
      </trkpt>
      <trkpt lat="45.88893" lon="5.76105">
        <ele>1404.14</ele>
        <time>2012-04-09T08:58:30Z</time>
      </trkpt>
      <trkpt lat="45.88896" lon="5.76105">
        <ele>1404.14</ele>
        <time>2012-04-09T08:58:32Z</time>
      </trkpt>
      <trkpt lat="45.88897" lon="5.76105">
        <ele>1404.14</ele>
        <time>2012-04-09T08:58:34Z</time>
      </trkpt>
      <trkpt lat="45.88897" lon="5.76105">
        <ele>1404.14</ele>
        <time>2012-04-09T08:58:36Z</time>
      </trkpt>
      <trkpt lat="45.88897" lon="5.76105">
        <ele>1404.14</ele>
        <time>2012-04-09T08:58:38Z</time>
      </trkpt>
      <trkpt lat="45.88899" lon="5.76103">
        <ele>1404.62</ele>
        <time>2012-04-09T08:58:40Z</time>
      </trkpt>
      <trkpt lat="45.88899" lon="5.76103">
        <ele>1404.62</ele>
        <time>2012-04-09T08:58:42Z</time>
      </trkpt>
      <trkpt lat="45.88899" lon="5.76103">
        <ele>1404.62</ele>
        <time>2012-04-09T08:58:44Z</time>
      </trkpt>
      <trkpt lat="45.88899" lon="5.76103">
        <ele>1404.62</ele>
        <time>2012-04-09T08:58:46Z</time>
      </trkpt>
      <trkpt lat="45.88899" lon="5.76103">
        <ele>1404.62</ele>
        <time>2012-04-09T08:58:48Z</time>
      </trkpt>
      <trkpt lat="45.88899" lon="5.76103">
        <ele>1404.62</ele>
        <time>2012-04-09T08:58:50Z</time>
      </trkpt>
      <trkpt lat="45.88899" lon="5.76103">
        <ele>1404.62</ele>
        <time>2012-04-09T08:58:52Z</time>
      </trkpt>
      <trkpt lat="45.88902" lon="5.76104">
        <ele>1404.62</ele>
        <time>2012-04-09T08:58:54Z</time>
      </trkpt>
      <trkpt lat="45.88905" lon="5.76105">
        <ele>1404.62</ele>
        <time>2012-04-09T08:58:56Z</time>
      </trkpt>
      <trkpt lat="45.88908" lon="5.76105">
        <ele>1405.1</ele>
        <time>2012-04-09T08:58:58Z</time>
      </trkpt>
      <trkpt lat="45.88912" lon="5.76104">
        <ele>1405.1</ele>
        <time>2012-04-09T08:59:00Z</time>
      </trkpt>
      <trkpt lat="45.88916" lon="5.76105">
        <ele>1405.58</ele>
        <time>2012-04-09T08:59:02Z</time>
      </trkpt>
      <trkpt lat="45.88919" lon="5.76105">
        <ele>1405.58</ele>
        <time>2012-04-09T08:59:04Z</time>
      </trkpt>
      <trkpt lat="45.88921" lon="5.76103">
        <ele>1405.58</ele>
        <time>2012-04-09T08:59:06Z</time>
      </trkpt>
      <trkpt lat="45.88923" lon="5.76099">
        <ele>1406.55</ele>
        <time>2012-04-09T08:59:08Z</time>
      </trkpt>
      <trkpt lat="45.88926" lon="5.76098">
        <ele>1407.03</ele>
        <time>2012-04-09T08:59:10Z</time>
      </trkpt>
      <trkpt lat="45.88929" lon="5.76097">
        <ele>1408.47</ele>
        <time>2012-04-09T08:59:12Z</time>
      </trkpt>
      <trkpt lat="45.88933" lon="5.76095">
        <ele>1407.99</ele>
        <time>2012-04-09T08:59:14Z</time>
      </trkpt>
      <trkpt lat="45.88936" lon="5.76093">
        <ele>1409.43</ele>
        <time>2012-04-09T08:59:16Z</time>
      </trkpt>
      <trkpt lat="45.88939" lon="5.76091">
        <ele>1409.91</ele>
        <time>2012-04-09T08:59:18Z</time>
      </trkpt>
      <trkpt lat="45.88942" lon="5.76093">
        <ele>1410.39</ele>
        <time>2012-04-09T08:59:20Z</time>
      </trkpt>
      <trkpt lat="45.88945" lon="5.76092">
        <ele>1410.39</ele>
        <time>2012-04-09T08:59:22Z</time>
      </trkpt>
      <trkpt lat="45.88948" lon="5.7609">
        <ele>1411.35</ele>
        <time>2012-04-09T08:59:24Z</time>
      </trkpt>
      <trkpt lat="45.88951" lon="5.76088">
        <ele>1412.31</ele>
        <time>2012-04-09T08:59:26Z</time>
      </trkpt>
      <trkpt lat="45.88954" lon="5.76086">
        <ele>1412.79</ele>
        <time>2012-04-09T08:59:28Z</time>
      </trkpt>
      <trkpt lat="45.88957" lon="5.76086">
        <ele>1413.28</ele>
        <time>2012-04-09T08:59:30Z</time>
      </trkpt>
      <trkpt lat="45.8896" lon="5.76086">
        <ele>1413.76</ele>
        <time>2012-04-09T08:59:32Z</time>
      </trkpt>
      <trkpt lat="45.88964" lon="5.76086">
        <ele>1414.24</ele>
        <time>2012-04-09T08:59:34Z</time>
      </trkpt>
      <trkpt lat="45.88968" lon="5.76085">
        <ele>1415.68</ele>
        <time>2012-04-09T08:59:36Z</time>
      </trkpt>
      <trkpt lat="45.88972" lon="5.76084">
        <ele>1416.16</ele>
        <time>2012-04-09T08:59:38Z</time>
      </trkpt>
      <trkpt lat="45.88977" lon="5.76084">
        <ele>1416.16</ele>
        <time>2012-04-09T08:59:40Z</time>
      </trkpt>
      <trkpt lat="45.88979" lon="5.76082">
        <ele>1417.12</ele>
        <time>2012-04-09T08:59:42Z</time>
      </trkpt>
      <trkpt lat="45.88983" lon="5.76081">
        <ele>1417.6</ele>
        <time>2012-04-09T08:59:44Z</time>
      </trkpt>
      <trkpt lat="45.88987" lon="5.76078">
        <ele>1418.08</ele>
        <time>2012-04-09T08:59:46Z</time>
      </trkpt>
      <trkpt lat="45.88991" lon="5.76077">
        <ele>1418.56</ele>
        <time>2012-04-09T08:59:48Z</time>
      </trkpt>
      <trkpt lat="45.88995" lon="5.76076">
        <ele>1419.04</ele>
        <time>2012-04-09T08:59:50Z</time>
      </trkpt>
      <trkpt lat="45.88998" lon="5.76076">
        <ele>1419.04</ele>
        <time>2012-04-09T08:59:52Z</time>
      </trkpt>
      <trkpt lat="45.89002" lon="5.76076">
        <ele>1420</ele>
        <time>2012-04-09T08:59:54Z</time>
      </trkpt>
      <trkpt lat="45.89006" lon="5.76077">
        <ele>1419.52</ele>
        <time>2012-04-09T08:59:56Z</time>
      </trkpt>
      <trkpt lat="45.89009" lon="5.76076">
        <ele>1420.49</ele>
        <time>2012-04-09T08:59:58Z</time>
      </trkpt>
      <trkpt lat="45.89013" lon="5.76077">
        <ele>1421.45</ele>
        <time>2012-04-09T09:00:00Z</time>
      </trkpt>
      <trkpt lat="45.89016" lon="5.76075">
        <ele>1421.45</ele>
        <time>2012-04-09T09:00:02Z</time>
      </trkpt>
      <trkpt lat="45.89019" lon="5.76075">
        <ele>1421.93</ele>
        <time>2012-04-09T09:00:04Z</time>
      </trkpt>
      <trkpt lat="45.89023" lon="5.76075">
        <ele>1422.41</ele>
        <time>2012-04-09T09:00:06Z</time>
      </trkpt>
      <trkpt lat="45.89026" lon="5.76074">
        <ele>1422.89</ele>
        <time>2012-04-09T09:00:08Z</time>
      </trkpt>
      <trkpt lat="45.89029" lon="5.76073">
        <ele>1423.85</ele>
        <time>2012-04-09T09:00:10Z</time>
      </trkpt>
      <trkpt lat="45.89032" lon="5.76073">
        <ele>1423.85</ele>
        <time>2012-04-09T09:00:12Z</time>
      </trkpt>
      <trkpt lat="45.89037" lon="5.76073">
        <ele>1424.33</ele>
        <time>2012-04-09T09:00:14Z</time>
      </trkpt>
      <trkpt lat="45.8904" lon="5.76074">
        <ele>1424.81</ele>
        <time>2012-04-09T09:00:16Z</time>
      </trkpt>
      <trkpt lat="45.89044" lon="5.76074">
        <ele>1425.77</ele>
        <time>2012-04-09T09:00:18Z</time>
      </trkpt>
      <trkpt lat="45.89048" lon="5.76073">
        <ele>1426.25</ele>
        <time>2012-04-09T09:00:20Z</time>
      </trkpt>
      <trkpt lat="45.89051" lon="5.76071">
        <ele>1426.73</ele>
        <time>2012-04-09T09:00:22Z</time>
      </trkpt>
      <trkpt lat="45.89055" lon="5.7607">
        <ele>1426.73</ele>
        <time>2012-04-09T09:00:24Z</time>
      </trkpt>
      <trkpt lat="45.89059" lon="5.76069">
        <ele>1425.77</ele>
        <time>2012-04-09T09:00:26Z</time>
      </trkpt>
      <trkpt lat="45.89062" lon="5.76069">
        <ele>1426.25</ele>
        <time>2012-04-09T09:00:28Z</time>
      </trkpt>
      <trkpt lat="45.89067" lon="5.76069">
        <ele>1425.77</ele>
        <time>2012-04-09T09:00:30Z</time>
      </trkpt>
      <trkpt lat="45.89071" lon="5.76067">
        <ele>1425.77</ele>
        <time>2012-04-09T09:00:32Z</time>
      </trkpt>
      <trkpt lat="45.89075" lon="5.76066">
        <ele>1425.77</ele>
        <time>2012-04-09T09:00:34Z</time>
      </trkpt>
      <trkpt lat="45.8908" lon="5.76067">
        <ele>1425.29</ele>
        <time>2012-04-09T09:00:36Z</time>
      </trkpt>
      <trkpt lat="45.89085" lon="5.76069">
        <ele>1426.25</ele>
        <time>2012-04-09T09:00:38Z</time>
      </trkpt>
      <trkpt lat="45.89089" lon="5.76072">
        <ele>1426.73</ele>
        <time>2012-04-09T09:00:40Z</time>
      </trkpt>
      <trkpt lat="45.89093" lon="5.76072">
        <ele>1426.73</ele>
        <time>2012-04-09T09:00:42Z</time>
      </trkpt>
      <trkpt lat="45.89098" lon="5.76075">
        <ele>1427.21</ele>
        <time>2012-04-09T09:00:44Z</time>
      </trkpt>
      <trkpt lat="45.89102" lon="5.76073">
        <ele>1427.21</ele>
        <time>2012-04-09T09:00:46Z</time>
      </trkpt>
      <trkpt lat="45.89106" lon="5.76073">
        <ele>1426.73</ele>
        <time>2012-04-09T09:00:48Z</time>
      </trkpt>
      <trkpt lat="45.8911" lon="5.76072">
        <ele>1427.7</ele>
        <time>2012-04-09T09:00:50Z</time>
      </trkpt>
      <trkpt lat="45.89115" lon="5.76073">
        <ele>1427.21</ele>
        <time>2012-04-09T09:00:52Z</time>
      </trkpt>
      <trkpt lat="45.8912" lon="5.76075">
        <ele>1427.7</ele>
        <time>2012-04-09T09:00:54Z</time>
      </trkpt>
      <trkpt lat="45.89125" lon="5.76076">
        <ele>1428.18</ele>
        <time>2012-04-09T09:00:56Z</time>
      </trkpt>
      <trkpt lat="45.89129" lon="5.76076">
        <ele>1428.18</ele>
        <time>2012-04-09T09:00:58Z</time>
      </trkpt>
      <trkpt lat="45.89134" lon="5.76076">
        <ele>1428.66</ele>
        <time>2012-04-09T09:01:00Z</time>
      </trkpt>
      <trkpt lat="45.89139" lon="5.76076">
        <ele>1429.14</ele>
        <time>2012-04-09T09:01:02Z</time>
      </trkpt>
      <trkpt lat="45.89143" lon="5.76078">
        <ele>1429.14</ele>
        <time>2012-04-09T09:01:04Z</time>
      </trkpt>
      <trkpt lat="45.89147" lon="5.76079">
        <ele>1430.1</ele>
        <time>2012-04-09T09:01:06Z</time>
      </trkpt>
      <trkpt lat="45.89151" lon="5.7608">
        <ele>1430.1</ele>
        <time>2012-04-09T09:01:08Z</time>
      </trkpt>
      <trkpt lat="45.89155" lon="5.76082">
        <ele>1430.58</ele>
        <time>2012-04-09T09:01:10Z</time>
      </trkpt>
      <trkpt lat="45.89159" lon="5.76081">
        <ele>1431.06</ele>
        <time>2012-04-09T09:01:12Z</time>
      </trkpt>
      <trkpt lat="45.89163" lon="5.76081">
        <ele>1431.06</ele>
        <time>2012-04-09T09:01:14Z</time>
      </trkpt>
      <trkpt lat="45.89167" lon="5.76081">
        <ele>1432.02</ele>
        <time>2012-04-09T09:01:16Z</time>
      </trkpt>
      <trkpt lat="45.8917" lon="5.76081">
        <ele>1432.02</ele>
        <time>2012-04-09T09:01:18Z</time>
      </trkpt>
      <trkpt lat="45.89175" lon="5.76081">
        <ele>1432.02</ele>
        <time>2012-04-09T09:01:20Z</time>
      </trkpt>
      <trkpt lat="45.89178" lon="5.76082">
        <ele>1433.46</ele>
        <time>2012-04-09T09:01:22Z</time>
      </trkpt>
      <trkpt lat="45.89181" lon="5.76083">
        <ele>1432.98</ele>
        <time>2012-04-09T09:01:24Z</time>
      </trkpt>
      <trkpt lat="45.89185" lon="5.76083">
        <ele>1433.46</ele>
        <time>2012-04-09T09:01:26Z</time>
      </trkpt>
      <trkpt lat="45.89189" lon="5.76084">
        <ele>1433.46</ele>
        <time>2012-04-09T09:01:28Z</time>
      </trkpt>
      <trkpt lat="45.89193" lon="5.76084">
        <ele>1433.46</ele>
        <time>2012-04-09T09:01:30Z</time>
      </trkpt>
      <trkpt lat="45.89197" lon="5.76085">
        <ele>1433.94</ele>
        <time>2012-04-09T09:01:32Z</time>
      </trkpt>
      <trkpt lat="45.89202" lon="5.76088">
        <ele>1433.94</ele>
        <time>2012-04-09T09:01:34Z</time>
      </trkpt>
      <trkpt lat="45.89206" lon="5.7609">
        <ele>1434.42</ele>
        <time>2012-04-09T09:01:36Z</time>
      </trkpt>
      <trkpt lat="45.8921" lon="5.76092">
        <ele>1435.39</ele>
        <time>2012-04-09T09:01:38Z</time>
      </trkpt>
      <trkpt lat="45.89214" lon="5.76094">
        <ele>1434.91</ele>
        <time>2012-04-09T09:01:40Z</time>
      </trkpt>
      <trkpt lat="45.89218" lon="5.76096">
        <ele>1435.39</ele>
        <time>2012-04-09T09:01:42Z</time>
      </trkpt>
      <trkpt lat="45.89221" lon="5.76099">
        <ele>1434.91</ele>
        <time>2012-04-09T09:01:44Z</time>
      </trkpt>
      <trkpt lat="45.89224" lon="5.76101">
        <ele>1434.42</ele>
        <time>2012-04-09T09:01:46Z</time>
      </trkpt>
      <trkpt lat="45.89229" lon="5.76103">
        <ele>1435.39</ele>
        <time>2012-04-09T09:01:48Z</time>
      </trkpt>
      <trkpt lat="45.89233" lon="5.76102">
        <ele>1435.87</ele>
        <time>2012-04-09T09:01:50Z</time>
      </trkpt>
      <trkpt lat="45.89237" lon="5.76103">
        <ele>1435.87</ele>
        <time>2012-04-09T09:01:52Z</time>
      </trkpt>
      <trkpt lat="45.89241" lon="5.76103">
        <ele>1435.39</ele>
        <time>2012-04-09T09:01:54Z</time>
      </trkpt>
      <trkpt lat="45.89246" lon="5.76104">
        <ele>1436.35</ele>
        <time>2012-04-09T09:01:56Z</time>
      </trkpt>
      <trkpt lat="45.8925" lon="5.76104">
        <ele>1435.87</ele>
        <time>2012-04-09T09:01:58Z</time>
      </trkpt>
      <trkpt lat="45.89255" lon="5.76104">
        <ele>1436.83</ele>
        <time>2012-04-09T09:02:00Z</time>
      </trkpt>
      <trkpt lat="45.89259" lon="5.76106">
        <ele>1436.83</ele>
        <time>2012-04-09T09:02:02Z</time>
      </trkpt>
      <trkpt lat="45.89263" lon="5.76106">
        <ele>1436.83</ele>
        <time>2012-04-09T09:02:04Z</time>
      </trkpt>
      <trkpt lat="45.89267" lon="5.76107">
        <ele>1436.35</ele>
        <time>2012-04-09T09:02:06Z</time>
      </trkpt>
      <trkpt lat="45.89272" lon="5.76108">
        <ele>1436.83</ele>
        <time>2012-04-09T09:02:08Z</time>
      </trkpt>
      <trkpt lat="45.89277" lon="5.76109">
        <ele>1436.83</ele>
        <time>2012-04-09T09:02:10Z</time>
      </trkpt>
      <trkpt lat="45.89282" lon="5.7611">
        <ele>1436.83</ele>
        <time>2012-04-09T09:02:12Z</time>
      </trkpt>
      <trkpt lat="45.89287" lon="5.76112">
        <ele>1436.83</ele>
        <time>2012-04-09T09:02:14Z</time>
      </trkpt>
      <trkpt lat="45.89292" lon="5.76112">
        <ele>1436.83</ele>
        <time>2012-04-09T09:02:16Z</time>
      </trkpt>
      <trkpt lat="45.89296" lon="5.76113">
        <ele>1437.31</ele>
        <time>2012-04-09T09:02:18Z</time>
      </trkpt>
      <trkpt lat="45.89301" lon="5.76114">
        <ele>1437.31</ele>
        <time>2012-04-09T09:02:20Z</time>
      </trkpt>
      <trkpt lat="45.89306" lon="5.76115">
        <ele>1437.79</ele>
        <time>2012-04-09T09:02:22Z</time>
      </trkpt>
      <trkpt lat="45.8931" lon="5.76115">
        <ele>1437.79</ele>
        <time>2012-04-09T09:02:24Z</time>
      </trkpt>
      <trkpt lat="45.89314" lon="5.76113">
        <ele>1438.27</ele>
        <time>2012-04-09T09:02:26Z</time>
      </trkpt>
      <trkpt lat="45.89318" lon="5.76111">
        <ele>1438.27</ele>
        <time>2012-04-09T09:02:28Z</time>
      </trkpt>
      <trkpt lat="45.89322" lon="5.76108">
        <ele>1438.75</ele>
        <time>2012-04-09T09:02:30Z</time>
      </trkpt>
      <trkpt lat="45.89326" lon="5.76107">
        <ele>1439.23</ele>
        <time>2012-04-09T09:02:32Z</time>
      </trkpt>
      <trkpt lat="45.8933" lon="5.76106">
        <ele>1438.75</ele>
        <time>2012-04-09T09:02:34Z</time>
      </trkpt>
      <trkpt lat="45.89334" lon="5.76106">
        <ele>1439.71</ele>
        <time>2012-04-09T09:02:36Z</time>
      </trkpt>
      <trkpt lat="45.89337" lon="5.76105">
        <ele>1439.71</ele>
        <time>2012-04-09T09:02:38Z</time>
      </trkpt>
      <trkpt lat="45.89339" lon="5.76105">
        <ele>1439.71</ele>
        <time>2012-04-09T09:02:40Z</time>
      </trkpt>
      <trkpt lat="45.89339" lon="5.76105">
        <ele>1439.71</ele>
        <time>2012-04-09T09:02:42Z</time>
      </trkpt>
      <trkpt lat="45.89339" lon="5.76105">
        <ele>1439.71</ele>
        <time>2012-04-09T09:02:44Z</time>
      </trkpt>
      <trkpt lat="45.89339" lon="5.76105">
        <ele>1439.71</ele>
        <time>2012-04-09T09:02:46Z</time>
      </trkpt>
      <trkpt lat="45.89342" lon="5.76105">
        <ele>1439.71</ele>
        <time>2012-04-09T09:02:48Z</time>
      </trkpt>
      <trkpt lat="45.89345" lon="5.76106">
        <ele>1439.71</ele>
        <time>2012-04-09T09:02:50Z</time>
      </trkpt>
      <trkpt lat="45.89349" lon="5.76105">
        <ele>1440.19</ele>
        <time>2012-04-09T09:02:52Z</time>
      </trkpt>
      <trkpt lat="45.89354" lon="5.76105">
        <ele>1440.19</ele>
        <time>2012-04-09T09:02:54Z</time>
      </trkpt>
      <trkpt lat="45.89358" lon="5.76105">
        <ele>1440.67</ele>
        <time>2012-04-09T09:02:56Z</time>
      </trkpt>
      <trkpt lat="45.89363" lon="5.76105">
        <ele>1441.15</ele>
        <time>2012-04-09T09:02:58Z</time>
      </trkpt>
      <trkpt lat="45.89367" lon="5.76106">
        <ele>1440.67</ele>
        <time>2012-04-09T09:03:00Z</time>
      </trkpt>
      <trkpt lat="45.89371" lon="5.76108">
        <ele>1441.15</ele>
        <time>2012-04-09T09:03:02Z</time>
      </trkpt>
      <trkpt lat="45.89375" lon="5.76109">
        <ele>1441.63</ele>
        <time>2012-04-09T09:03:04Z</time>
      </trkpt>
      <trkpt lat="45.8938" lon="5.76112">
        <ele>1442.11</ele>
        <time>2012-04-09T09:03:06Z</time>
      </trkpt>
      <trkpt lat="45.89383" lon="5.76114">
        <ele>1442.6</ele>
        <time>2012-04-09T09:03:08Z</time>
      </trkpt>
      <trkpt lat="45.89388" lon="5.76116">
        <ele>1442.6</ele>
        <time>2012-04-09T09:03:10Z</time>
      </trkpt>
      <trkpt lat="45.89392" lon="5.76116">
        <ele>1443.08</ele>
        <time>2012-04-09T09:03:12Z</time>
      </trkpt>
      <trkpt lat="45.89397" lon="5.76117">
        <ele>1443.56</ele>
        <time>2012-04-09T09:03:14Z</time>
      </trkpt>
      <trkpt lat="45.89401" lon="5.76116">
        <ele>1443.56</ele>
        <time>2012-04-09T09:03:16Z</time>
      </trkpt>
      <trkpt lat="45.89406" lon="5.76117">
        <ele>1444.52</ele>
        <time>2012-04-09T09:03:18Z</time>
      </trkpt>
      <trkpt lat="45.8941" lon="5.76118">
        <ele>1444.04</ele>
        <time>2012-04-09T09:03:20Z</time>
      </trkpt>
      <trkpt lat="45.89414" lon="5.76118">
        <ele>1444.52</ele>
        <time>2012-04-09T09:03:22Z</time>
      </trkpt>
      <trkpt lat="45.89418" lon="5.76118">
        <ele>1445</ele>
        <time>2012-04-09T09:03:24Z</time>
      </trkpt>
      <trkpt lat="45.89421" lon="5.76117">
        <ele>1445</ele>
        <time>2012-04-09T09:03:26Z</time>
      </trkpt>
      <trkpt lat="45.89426" lon="5.76118">
        <ele>1445.96</ele>
        <time>2012-04-09T09:03:28Z</time>
      </trkpt>
      <trkpt lat="45.89429" lon="5.76116">
        <ele>1445.96</ele>
        <time>2012-04-09T09:03:30Z</time>
      </trkpt>
      <trkpt lat="45.89433" lon="5.76116">
        <ele>1446.92</ele>
        <time>2012-04-09T09:03:32Z</time>
      </trkpt>
      <trkpt lat="45.89436" lon="5.76115">
        <ele>1447.4</ele>
        <time>2012-04-09T09:03:34Z</time>
      </trkpt>
      <trkpt lat="45.8944" lon="5.76116">
        <ele>1447.4</ele>
        <time>2012-04-09T09:03:36Z</time>
      </trkpt>
      <trkpt lat="45.89444" lon="5.76116">
        <ele>1447.4</ele>
        <time>2012-04-09T09:03:38Z</time>
      </trkpt>
      <trkpt lat="45.89447" lon="5.76114">
        <ele>1448.36</ele>
        <time>2012-04-09T09:03:40Z</time>
      </trkpt>
      <trkpt lat="45.89451" lon="5.76113">
        <ele>1449.32</ele>
        <time>2012-04-09T09:03:42Z</time>
      </trkpt>
      <trkpt lat="45.89455" lon="5.76113">
        <ele>1449.32</ele>
        <time>2012-04-09T09:03:44Z</time>
      </trkpt>
      <trkpt lat="45.89458" lon="5.76114">
        <ele>1450.29</ele>
        <time>2012-04-09T09:03:46Z</time>
      </trkpt>
      <trkpt lat="45.8946" lon="5.76113">
        <ele>1450.29</ele>
        <time>2012-04-09T09:03:48Z</time>
      </trkpt>
      <trkpt lat="45.89462" lon="5.76112">
        <ele>1450.77</ele>
        <time>2012-04-09T09:03:50Z</time>
      </trkpt>
      <trkpt lat="45.89464" lon="5.7611">
        <ele>1451.25</ele>
        <time>2012-04-09T09:03:52Z</time>
      </trkpt>
      <trkpt lat="45.89466" lon="5.76112">
        <ele>1451.25</ele>
        <time>2012-04-09T09:03:54Z</time>
      </trkpt>
      <trkpt lat="45.89468" lon="5.76111">
        <ele>1452.21</ele>
        <time>2012-04-09T09:03:56Z</time>
      </trkpt>
      <trkpt lat="45.89468" lon="5.76109">
        <ele>1452.69</ele>
        <time>2012-04-09T09:03:58Z</time>
      </trkpt>
      <trkpt lat="45.8947" lon="5.76107">
        <ele>1453.17</ele>
        <time>2012-04-09T09:04:00Z</time>
      </trkpt>
      <trkpt lat="45.89472" lon="5.76105">
        <ele>1453.65</ele>
        <time>2012-04-09T09:04:02Z</time>
      </trkpt>
      <trkpt lat="45.89474" lon="5.76105">
        <ele>1454.13</ele>
        <time>2012-04-09T09:04:04Z</time>
      </trkpt>
      <trkpt lat="45.89477" lon="5.76103">
        <ele>1454.13</ele>
        <time>2012-04-09T09:04:06Z</time>
      </trkpt>
      <trkpt lat="45.89479" lon="5.76102">
        <ele>1455.09</ele>
        <time>2012-04-09T09:04:08Z</time>
      </trkpt>
      <trkpt lat="45.8948" lon="5.761">
        <ele>1455.57</ele>
        <time>2012-04-09T09:04:10Z</time>
      </trkpt>
      <trkpt lat="45.89481" lon="5.76099">
        <ele>1457.02</ele>
        <time>2012-04-09T09:04:12Z</time>
      </trkpt>
      <trkpt lat="45.89482" lon="5.76098">
        <ele>1457.02</ele>
        <time>2012-04-09T09:04:14Z</time>
      </trkpt>
      <trkpt lat="45.89484" lon="5.76097">
        <ele>1457.5</ele>
        <time>2012-04-09T09:04:16Z</time>
      </trkpt>
      <trkpt lat="45.89485" lon="5.76096">
        <ele>1458.46</ele>
        <time>2012-04-09T09:04:18Z</time>
      </trkpt>
      <trkpt lat="45.89486" lon="5.76095">
        <ele>1458.94</ele>
        <time>2012-04-09T09:04:20Z</time>
      </trkpt>
      <trkpt lat="45.89487" lon="5.76094">
        <ele>1459.42</ele>
        <time>2012-04-09T09:04:22Z</time>
      </trkpt>
      <trkpt lat="45.89488" lon="5.76092">
        <ele>1460.38</ele>
        <time>2012-04-09T09:04:24Z</time>
      </trkpt>
      <trkpt lat="45.89489" lon="5.7609">
        <ele>1460.38</ele>
        <time>2012-04-09T09:04:26Z</time>
      </trkpt>
      <trkpt lat="45.89489" lon="5.7609">
        <ele>1461.34</ele>
        <time>2012-04-09T09:04:28Z</time>
      </trkpt>
      <trkpt lat="45.89491" lon="5.76089">
        <ele>1461.34</ele>
        <time>2012-04-09T09:04:30Z</time>
      </trkpt>
      <trkpt lat="45.89493" lon="5.76088">
        <ele>1461.34</ele>
        <time>2012-04-09T09:04:32Z</time>
      </trkpt>
      <trkpt lat="45.89495" lon="5.76088">
        <ele>1461.82</ele>
        <time>2012-04-09T09:04:34Z</time>
      </trkpt>
      <trkpt lat="45.89497" lon="5.76088">
        <ele>1462.78</ele>
        <time>2012-04-09T09:04:36Z</time>
      </trkpt>
      <trkpt lat="45.89498" lon="5.76087">
        <ele>1462.78</ele>
        <time>2012-04-09T09:04:38Z</time>
      </trkpt>
      <trkpt lat="45.89499" lon="5.76087">
        <ele>1463.74</ele>
        <time>2012-04-09T09:04:40Z</time>
      </trkpt>
      <trkpt lat="45.89501" lon="5.76087">
        <ele>1464.23</ele>
        <time>2012-04-09T09:04:42Z</time>
      </trkpt>
      <trkpt lat="45.895" lon="5.76086">
        <ele>1464.71</ele>
        <time>2012-04-09T09:04:44Z</time>
      </trkpt>
      <trkpt lat="45.89501" lon="5.76085">
        <ele>1465.19</ele>
        <time>2012-04-09T09:04:46Z</time>
      </trkpt>
      <trkpt lat="45.89501" lon="5.76083">
        <ele>1465.67</ele>
        <time>2012-04-09T09:04:48Z</time>
      </trkpt>
      <trkpt lat="45.89501" lon="5.7608">
        <ele>1466.63</ele>
        <time>2012-04-09T09:04:50Z</time>
      </trkpt>
      <trkpt lat="45.89502" lon="5.76079">
        <ele>1467.11</ele>
        <time>2012-04-09T09:04:52Z</time>
      </trkpt>
      <trkpt lat="45.89504" lon="5.76077">
        <ele>1467.11</ele>
        <time>2012-04-09T09:04:54Z</time>
      </trkpt>
      <trkpt lat="45.89506" lon="5.76075">
        <ele>1468.07</ele>
        <time>2012-04-09T09:04:56Z</time>
      </trkpt>
      <trkpt lat="45.89507" lon="5.76074">
        <ele>1468.55</ele>
        <time>2012-04-09T09:04:58Z</time>
      </trkpt>
      <trkpt lat="45.89507" lon="5.76074">
        <ele>1468.55</ele>
        <time>2012-04-09T09:05:00Z</time>
      </trkpt>
      <trkpt lat="45.89507" lon="5.76074">
        <ele>1469.03</ele>
        <time>2012-04-09T09:05:02Z</time>
      </trkpt>
      <trkpt lat="45.89507" lon="5.76074">
        <ele>1468.55</ele>
        <time>2012-04-09T09:05:04Z</time>
      </trkpt>
      <trkpt lat="45.89507" lon="5.76074">
        <ele>1469.03</ele>
        <time>2012-04-09T09:05:06Z</time>
      </trkpt>
      <trkpt lat="45.89508" lon="5.76074">
        <ele>1469.03</ele>
        <time>2012-04-09T09:05:08Z</time>
      </trkpt>
      <trkpt lat="45.8951" lon="5.76075">
        <ele>1469.51</ele>
        <time>2012-04-09T09:05:10Z</time>
      </trkpt>
      <trkpt lat="45.89512" lon="5.76076">
        <ele>1470.47</ele>
        <time>2012-04-09T09:05:12Z</time>
      </trkpt>
      <trkpt lat="45.89514" lon="5.76076">
        <ele>1470.95</ele>
        <time>2012-04-09T09:05:14Z</time>
      </trkpt>
      <trkpt lat="45.89516" lon="5.76077">
        <ele>1471.92</ele>
        <time>2012-04-09T09:05:16Z</time>
      </trkpt>
      <trkpt lat="45.89518" lon="5.76076">
        <ele>1471.92</ele>
        <time>2012-04-09T09:05:18Z</time>
      </trkpt>
      <trkpt lat="45.8952" lon="5.76076">
        <ele>1471.92</ele>
        <time>2012-04-09T09:05:20Z</time>
      </trkpt>
      <trkpt lat="45.89523" lon="5.76076">
        <ele>1472.88</ele>
        <time>2012-04-09T09:05:22Z</time>
      </trkpt>
      <trkpt lat="45.89525" lon="5.76076">
        <ele>1472.88</ele>
        <time>2012-04-09T09:05:24Z</time>
      </trkpt>
      <trkpt lat="45.89527" lon="5.76075">
        <ele>1473.84</ele>
        <time>2012-04-09T09:05:26Z</time>
      </trkpt>
      <trkpt lat="45.89529" lon="5.76075">
        <ele>1473.84</ele>
        <time>2012-04-09T09:05:28Z</time>
      </trkpt>
      <trkpt lat="45.8953" lon="5.76075">
        <ele>1474.32</ele>
        <time>2012-04-09T09:05:30Z</time>
      </trkpt>
      <trkpt lat="45.89531" lon="5.76076">
        <ele>1474.32</ele>
        <time>2012-04-09T09:05:32Z</time>
      </trkpt>
      <trkpt lat="45.89532" lon="5.76079">
        <ele>1473.36</ele>
        <time>2012-04-09T09:05:34Z</time>
      </trkpt>
      <trkpt lat="45.89533" lon="5.7608">
        <ele>1472.4</ele>
        <time>2012-04-09T09:05:36Z</time>
      </trkpt>
      <trkpt lat="45.89535" lon="5.76082">
        <ele>1472.4</ele>
        <time>2012-04-09T09:05:38Z</time>
      </trkpt>
      <trkpt lat="45.89537" lon="5.76083">
        <ele>1472.4</ele>
        <time>2012-04-09T09:05:40Z</time>
      </trkpt>
      <trkpt lat="45.89539" lon="5.76083">
        <ele>1472.88</ele>
        <time>2012-04-09T09:05:42Z</time>
      </trkpt>
      <trkpt lat="45.8954" lon="5.76084">
        <ele>1472.88</ele>
        <time>2012-04-09T09:05:44Z</time>
      </trkpt>
      <trkpt lat="45.89541" lon="5.76087">
        <ele>1472.4</ele>
        <time>2012-04-09T09:05:46Z</time>
      </trkpt>
      <trkpt lat="45.89543" lon="5.76088">
        <ele>1471.92</ele>
        <time>2012-04-09T09:05:48Z</time>
      </trkpt>
      <trkpt lat="45.89545" lon="5.76089">
        <ele>1471.92</ele>
        <time>2012-04-09T09:05:50Z</time>
      </trkpt>
      <trkpt lat="45.89547" lon="5.76089">
        <ele>1471.92</ele>
        <time>2012-04-09T09:05:52Z</time>
      </trkpt>
      <trkpt lat="45.89548" lon="5.76089">
        <ele>1472.4</ele>
        <time>2012-04-09T09:05:54Z</time>
      </trkpt>
      <trkpt lat="45.8955" lon="5.7609">
        <ele>1471.92</ele>
        <time>2012-04-09T09:05:56Z</time>
      </trkpt>
      <trkpt lat="45.89552" lon="5.76092">
        <ele>1471.92</ele>
        <time>2012-04-09T09:05:58Z</time>
      </trkpt>
      <trkpt lat="45.89554" lon="5.76093">
        <ele>1471.92</ele>
        <time>2012-04-09T09:06:00Z</time>
      </trkpt>
      <trkpt lat="45.89556" lon="5.76092">
        <ele>1472.4</ele>
        <time>2012-04-09T09:06:02Z</time>
      </trkpt>
      <trkpt lat="45.89558" lon="5.7609">
        <ele>1472.88</ele>
        <time>2012-04-09T09:06:04Z</time>
      </trkpt>
      <trkpt lat="45.89559" lon="5.7609">
        <ele>1473.84</ele>
        <time>2012-04-09T09:06:06Z</time>
      </trkpt>
      <trkpt lat="45.8956" lon="5.76089">
        <ele>1474.32</ele>
        <time>2012-04-09T09:06:08Z</time>
      </trkpt>
      <trkpt lat="45.89562" lon="5.76089">
        <ele>1474.8</ele>
        <time>2012-04-09T09:06:10Z</time>
      </trkpt>
      <trkpt lat="45.89564" lon="5.76087">
        <ele>1475.76</ele>
        <time>2012-04-09T09:06:12Z</time>
      </trkpt>
      <trkpt lat="45.89565" lon="5.76086">
        <ele>1476.24</ele>
        <time>2012-04-09T09:06:14Z</time>
      </trkpt>
      <trkpt lat="45.89568" lon="5.76084">
        <ele>1476.72</ele>
        <time>2012-04-09T09:06:16Z</time>
      </trkpt>
      <trkpt lat="45.89569" lon="5.76084">
        <ele>1476.24</ele>
        <time>2012-04-09T09:06:18Z</time>
      </trkpt>
      <trkpt lat="45.8957" lon="5.76084">
        <ele>1476.72</ele>
        <time>2012-04-09T09:06:20Z</time>
      </trkpt>
      <trkpt lat="45.89571" lon="5.76085">
        <ele>1475.76</ele>
        <time>2012-04-09T09:06:22Z</time>
      </trkpt>
      <trkpt lat="45.89573" lon="5.76086">
        <ele>1476.24</ele>
        <time>2012-04-09T09:06:24Z</time>
      </trkpt>
      <trkpt lat="45.89574" lon="5.76087">
        <ele>1475.76</ele>
        <time>2012-04-09T09:06:26Z</time>
      </trkpt>
      <trkpt lat="45.89575" lon="5.76088">
        <ele>1474.8</ele>
        <time>2012-04-09T09:06:28Z</time>
      </trkpt>
      <trkpt lat="45.89575" lon="5.76088">
        <ele>1475.28</ele>
        <time>2012-04-09T09:06:30Z</time>
      </trkpt>
      <trkpt lat="45.89577" lon="5.76091">
        <ele>1474.32</ele>
        <time>2012-04-09T09:06:32Z</time>
      </trkpt>
      <trkpt lat="45.8958" lon="5.76093">
        <ele>1475.28</ele>
        <time>2012-04-09T09:06:34Z</time>
      </trkpt>
      <trkpt lat="45.89582" lon="5.76094">
        <ele>1476.24</ele>
        <time>2012-04-09T09:06:36Z</time>
      </trkpt>
      <trkpt lat="45.89582" lon="5.76094">
        <ele>1476.24</ele>
        <time>2012-04-09T09:06:38Z</time>
      </trkpt>
      <trkpt lat="45.89585" lon="5.76094">
        <ele>1476.72</ele>
        <time>2012-04-09T09:06:40Z</time>
      </trkpt>
      <trkpt lat="45.89587" lon="5.76094">
        <ele>1477.68</ele>
        <time>2012-04-09T09:06:42Z</time>
      </trkpt>
      <trkpt lat="45.89587" lon="5.76094">
        <ele>1478.16</ele>
        <time>2012-04-09T09:06:44Z</time>
      </trkpt>
      <trkpt lat="45.89587" lon="5.76094">
        <ele>1478.16</ele>
        <time>2012-04-09T09:06:46Z</time>
      </trkpt>
      <trkpt lat="45.89588" lon="5.76093">
        <ele>1478.16</ele>
        <time>2012-04-09T09:06:48Z</time>
      </trkpt>
      <trkpt lat="45.89589" lon="5.76092">
        <ele>1478.65</ele>
        <time>2012-04-09T09:06:50Z</time>
      </trkpt>
      <trkpt lat="45.8959" lon="5.76092">
        <ele>1478.16</ele>
        <time>2012-04-09T09:06:52Z</time>
      </trkpt>
      <trkpt lat="45.8959" lon="5.76094">
        <ele>1477.68</ele>
        <time>2012-04-09T09:06:54Z</time>
      </trkpt>
      <trkpt lat="45.8959" lon="5.76095">
        <ele>1477.2</ele>
        <time>2012-04-09T09:06:56Z</time>
      </trkpt>
      <trkpt lat="45.8959" lon="5.76096">
        <ele>1476.72</ele>
        <time>2012-04-09T09:06:58Z</time>
      </trkpt>
      <trkpt lat="45.8959" lon="5.76096">
        <ele>1476.72</ele>
        <time>2012-04-09T09:07:00Z</time>
      </trkpt>
      <trkpt lat="45.8959" lon="5.76096">
        <ele>1475.76</ele>
        <time>2012-04-09T09:07:02Z</time>
      </trkpt>
      <trkpt lat="45.8959" lon="5.76097">
        <ele>1475.28</ele>
        <time>2012-04-09T09:07:04Z</time>
      </trkpt>
      <trkpt lat="45.8959" lon="5.76097">
        <ele>1475.28</ele>
        <time>2012-04-09T09:07:06Z</time>
      </trkpt>
      <trkpt lat="45.8959" lon="5.76097">
        <ele>1475.28</ele>
        <time>2012-04-09T09:07:08Z</time>
      </trkpt>
      <trkpt lat="45.8959" lon="5.76097">
        <ele>1474.32</ele>
        <time>2012-04-09T09:07:10Z</time>
      </trkpt>
      <trkpt lat="45.89592" lon="5.76099">
        <ele>1473.84</ele>
        <time>2012-04-09T09:07:12Z</time>
      </trkpt>
      <trkpt lat="45.89593" lon="5.76101">
        <ele>1474.32</ele>
        <time>2012-04-09T09:07:14Z</time>
      </trkpt>
      <trkpt lat="45.89595" lon="5.76101">
        <ele>1475.28</ele>
        <time>2012-04-09T09:07:16Z</time>
      </trkpt>
      <trkpt lat="45.89597" lon="5.76101">
        <ele>1475.76</ele>
        <time>2012-04-09T09:07:18Z</time>
      </trkpt>
      <trkpt lat="45.89598" lon="5.76102">
        <ele>1476.24</ele>
        <time>2012-04-09T09:07:20Z</time>
      </trkpt>
      <trkpt lat="45.896" lon="5.76104">
        <ele>1476.24</ele>
        <time>2012-04-09T09:07:22Z</time>
      </trkpt>
      <trkpt lat="45.896" lon="5.76104">
        <ele>1476.72</ele>
        <time>2012-04-09T09:07:24Z</time>
      </trkpt>
      <trkpt lat="45.89603" lon="5.76105">
        <ele>1476.72</ele>
        <time>2012-04-09T09:07:26Z</time>
      </trkpt>
      <trkpt lat="45.89603" lon="5.76104">
        <ele>1476.72</ele>
        <time>2012-04-09T09:07:28Z</time>
      </trkpt>
      <trkpt lat="45.89605" lon="5.76104">
        <ele>1477.2</ele>
        <time>2012-04-09T09:07:30Z</time>
      </trkpt>
      <trkpt lat="45.89607" lon="5.76105">
        <ele>1478.16</ele>
        <time>2012-04-09T09:07:32Z</time>
      </trkpt>
      <trkpt lat="45.89608" lon="5.76104">
        <ele>1478.65</ele>
        <time>2012-04-09T09:07:34Z</time>
      </trkpt>
      <trkpt lat="45.8961" lon="5.76102">
        <ele>1479.13</ele>
        <time>2012-04-09T09:07:36Z</time>
      </trkpt>
      <trkpt lat="45.8961" lon="5.76102">
        <ele>1479.61</ele>
        <time>2012-04-09T09:07:38Z</time>
      </trkpt>
      <trkpt lat="45.89611" lon="5.761">
        <ele>1480.09</ele>
        <time>2012-04-09T09:07:40Z</time>
      </trkpt>
      <trkpt lat="45.89612" lon="5.76099">
        <ele>1481.05</ele>
        <time>2012-04-09T09:07:42Z</time>
      </trkpt>
      <trkpt lat="45.89613" lon="5.76098">
        <ele>1482.01</ele>
        <time>2012-04-09T09:07:44Z</time>
      </trkpt>
      <trkpt lat="45.89614" lon="5.76096">
        <ele>1482.49</ele>
        <time>2012-04-09T09:07:46Z</time>
      </trkpt>
      <trkpt lat="45.89614" lon="5.76095">
        <ele>1482.97</ele>
        <time>2012-04-09T09:07:48Z</time>
      </trkpt>
      <trkpt lat="45.89613" lon="5.76094">
        <ele>1483.45</ele>
        <time>2012-04-09T09:07:50Z</time>
      </trkpt>
      <trkpt lat="45.89613" lon="5.76094">
        <ele>1483.93</ele>
        <time>2012-04-09T09:07:52Z</time>
      </trkpt>
      <trkpt lat="45.89614" lon="5.76094">
        <ele>1484.41</ele>
        <time>2012-04-09T09:07:54Z</time>
      </trkpt>
      <trkpt lat="45.89615" lon="5.76092">
        <ele>1485.37</ele>
        <time>2012-04-09T09:07:56Z</time>
      </trkpt>
      <trkpt lat="45.89615" lon="5.76091">
        <ele>1485.85</ele>
        <time>2012-04-09T09:07:58Z</time>
      </trkpt>
      <trkpt lat="45.89615" lon="5.76089">
        <ele>1486.34</ele>
        <time>2012-04-09T09:08:00Z</time>
      </trkpt>
      <trkpt lat="45.89615" lon="5.76089">
        <ele>1487.3</ele>
        <time>2012-04-09T09:08:02Z</time>
      </trkpt>
      <trkpt lat="45.89615" lon="5.76089">
        <ele>1486.82</ele>
        <time>2012-04-09T09:08:04Z</time>
      </trkpt>
      <trkpt lat="45.89615" lon="5.76089">
        <ele>1486.82</ele>
        <time>2012-04-09T09:08:06Z</time>
      </trkpt>
      <trkpt lat="45.89616" lon="5.76089">
        <ele>1486.82</ele>
        <time>2012-04-09T09:08:08Z</time>
      </trkpt>
      <trkpt lat="45.89618" lon="5.76089">
        <ele>1487.3</ele>
        <time>2012-04-09T09:08:10Z</time>
      </trkpt>
      <trkpt lat="45.8962" lon="5.76089">
        <ele>1487.78</ele>
        <time>2012-04-09T09:08:12Z</time>
      </trkpt>
      <trkpt lat="45.89621" lon="5.76089">
        <ele>1488.74</ele>
        <time>2012-04-09T09:08:14Z</time>
      </trkpt>
      <trkpt lat="45.89623" lon="5.76089">
        <ele>1489.22</ele>
        <time>2012-04-09T09:08:16Z</time>
      </trkpt>
      <trkpt lat="45.89625" lon="5.76088">
        <ele>1489.7</ele>
        <time>2012-04-09T09:08:18Z</time>
      </trkpt>
      <trkpt lat="45.89626" lon="5.76086">
        <ele>1490.18</ele>
        <time>2012-04-09T09:08:20Z</time>
      </trkpt>
      <trkpt lat="45.89629" lon="5.76085">
        <ele>1490.66</ele>
        <time>2012-04-09T09:08:22Z</time>
      </trkpt>
      <trkpt lat="45.89631" lon="5.76084">
        <ele>1491.14</ele>
        <time>2012-04-09T09:08:24Z</time>
      </trkpt>
      <trkpt lat="45.89633" lon="5.76084">
        <ele>1491.62</ele>
        <time>2012-04-09T09:08:26Z</time>
      </trkpt>
      <trkpt lat="45.89636" lon="5.76086">
        <ele>1492.1</ele>
        <time>2012-04-09T09:08:28Z</time>
      </trkpt>
      <trkpt lat="45.89638" lon="5.76087">
        <ele>1492.1</ele>
        <time>2012-04-09T09:08:30Z</time>
      </trkpt>
      <trkpt lat="45.89641" lon="5.76086">
        <ele>1493.06</ele>
        <time>2012-04-09T09:08:32Z</time>
      </trkpt>
      <trkpt lat="45.89644" lon="5.76086">
        <ele>1493.55</ele>
        <time>2012-04-09T09:08:34Z</time>
      </trkpt>
      <trkpt lat="45.89646" lon="5.76087">
        <ele>1494.03</ele>
        <time>2012-04-09T09:08:36Z</time>
      </trkpt>
      <trkpt lat="45.89648" lon="5.76087">
        <ele>1494.03</ele>
        <time>2012-04-09T09:08:38Z</time>
      </trkpt>
      <trkpt lat="45.89651" lon="5.76086">
        <ele>1494.03</ele>
        <time>2012-04-09T09:08:40Z</time>
      </trkpt>
      <trkpt lat="45.89655" lon="5.76085">
        <ele>1494.51</ele>
        <time>2012-04-09T09:08:42Z</time>
      </trkpt>
      <trkpt lat="45.89658" lon="5.76085">
        <ele>1494.51</ele>
        <time>2012-04-09T09:08:44Z</time>
      </trkpt>
      <trkpt lat="45.89661" lon="5.76085">
        <ele>1494.99</ele>
        <time>2012-04-09T09:08:46Z</time>
      </trkpt>
      <trkpt lat="45.89664" lon="5.76086">
        <ele>1495.47</ele>
        <time>2012-04-09T09:08:48Z</time>
      </trkpt>
      <trkpt lat="45.89668" lon="5.76087">
        <ele>1495.95</ele>
        <time>2012-04-09T09:08:50Z</time>
      </trkpt>
      <trkpt lat="45.89671" lon="5.76089">
        <ele>1495.95</ele>
        <time>2012-04-09T09:08:52Z</time>
      </trkpt>
      <trkpt lat="45.89674" lon="5.76091">
        <ele>1495.95</ele>
        <time>2012-04-09T09:08:54Z</time>
      </trkpt>
      <trkpt lat="45.89677" lon="5.76094">
        <ele>1495.95</ele>
        <time>2012-04-09T09:08:56Z</time>
      </trkpt>
      <trkpt lat="45.8968" lon="5.76096">
        <ele>1496.43</ele>
        <time>2012-04-09T09:08:58Z</time>
      </trkpt>
      <trkpt lat="45.89684" lon="5.76096">
        <ele>1496.91</ele>
        <time>2012-04-09T09:09:00Z</time>
      </trkpt>
      <trkpt lat="45.89686" lon="5.76097">
        <ele>1496.91</ele>
        <time>2012-04-09T09:09:02Z</time>
      </trkpt>
      <trkpt lat="45.89689" lon="5.76098">
        <ele>1497.39</ele>
        <time>2012-04-09T09:09:04Z</time>
      </trkpt>
      <trkpt lat="45.89692" lon="5.76099">
        <ele>1497.39</ele>
        <time>2012-04-09T09:09:06Z</time>
      </trkpt>
      <trkpt lat="45.89695" lon="5.76098">
        <ele>1497.87</ele>
        <time>2012-04-09T09:09:08Z</time>
      </trkpt>
      <trkpt lat="45.89699" lon="5.76098">
        <ele>1498.35</ele>
        <time>2012-04-09T09:09:10Z</time>
      </trkpt>
      <trkpt lat="45.89703" lon="5.76098">
        <ele>1498.83</ele>
        <time>2012-04-09T09:09:12Z</time>
      </trkpt>
      <trkpt lat="45.89706" lon="5.76098">
        <ele>1499.31</ele>
        <time>2012-04-09T09:09:14Z</time>
      </trkpt>
      <trkpt lat="45.89709" lon="5.76099">
        <ele>1499.79</ele>
        <time>2012-04-09T09:09:16Z</time>
      </trkpt>
      <trkpt lat="45.89711" lon="5.76099">
        <ele>1500.76</ele>
        <time>2012-04-09T09:09:18Z</time>
      </trkpt>
      <trkpt lat="45.89713" lon="5.76099">
        <ele>1501.72</ele>
        <time>2012-04-09T09:09:20Z</time>
      </trkpt>
      <trkpt lat="45.89716" lon="5.761">
        <ele>1501.72</ele>
        <time>2012-04-09T09:09:22Z</time>
      </trkpt>
      <trkpt lat="45.89718" lon="5.76101">
        <ele>1502.2</ele>
        <time>2012-04-09T09:09:24Z</time>
      </trkpt>
      <trkpt lat="45.8972" lon="5.76101">
        <ele>1502.68</ele>
        <time>2012-04-09T09:09:26Z</time>
      </trkpt>
      <trkpt lat="45.8972" lon="5.76101">
        <ele>1503.16</ele>
        <time>2012-04-09T09:09:28Z</time>
      </trkpt>
      <trkpt lat="45.8972" lon="5.76101">
        <ele>1502.68</ele>
        <time>2012-04-09T09:09:30Z</time>
      </trkpt>
      <trkpt lat="45.89721" lon="5.761">
        <ele>1503.64</ele>
        <time>2012-04-09T09:09:32Z</time>
      </trkpt>
      <trkpt lat="45.89724" lon="5.761">
        <ele>1504.12</ele>
        <time>2012-04-09T09:09:34Z</time>
      </trkpt>
      <trkpt lat="45.89727" lon="5.761">
        <ele>1504.6</ele>
        <time>2012-04-09T09:09:36Z</time>
      </trkpt>
      <trkpt lat="45.89729" lon="5.76101">
        <ele>1505.56</ele>
        <time>2012-04-09T09:09:38Z</time>
      </trkpt>
      <trkpt lat="45.89732" lon="5.76102">
        <ele>1505.56</ele>
        <time>2012-04-09T09:09:40Z</time>
      </trkpt>
      <trkpt lat="45.89734" lon="5.76101">
        <ele>1506.04</ele>
        <time>2012-04-09T09:09:42Z</time>
      </trkpt>
      <trkpt lat="45.89736" lon="5.761">
        <ele>1506.52</ele>
        <time>2012-04-09T09:09:44Z</time>
      </trkpt>
      <trkpt lat="45.89737" lon="5.76101">
        <ele>1507</ele>
        <time>2012-04-09T09:09:46Z</time>
      </trkpt>
      <trkpt lat="45.89739" lon="5.761">
        <ele>1507.97</ele>
        <time>2012-04-09T09:09:48Z</time>
      </trkpt>
      <trkpt lat="45.89739" lon="5.761">
        <ele>1508.93</ele>
        <time>2012-04-09T09:09:50Z</time>
      </trkpt>
      <trkpt lat="45.89741" lon="5.76099">
        <ele>1509.41</ele>
        <time>2012-04-09T09:09:52Z</time>
      </trkpt>
      <trkpt lat="45.89742" lon="5.76098">
        <ele>1509.89</ele>
        <time>2012-04-09T09:09:54Z</time>
      </trkpt>
      <trkpt lat="45.89742" lon="5.76097">
        <ele>1509.89</ele>
        <time>2012-04-09T09:09:56Z</time>
      </trkpt>
      <trkpt lat="45.89745" lon="5.76097">
        <ele>1510.37</ele>
        <time>2012-04-09T09:09:58Z</time>
      </trkpt>
      <trkpt lat="45.89746" lon="5.76097">
        <ele>1510.85</ele>
        <time>2012-04-09T09:10:00Z</time>
      </trkpt>
      <trkpt lat="45.89748" lon="5.76098">
        <ele>1511.33</ele>
        <time>2012-04-09T09:10:02Z</time>
      </trkpt>
      <trkpt lat="45.89751" lon="5.76098">
        <ele>1510.85</ele>
        <time>2012-04-09T09:10:04Z</time>
      </trkpt>
      <trkpt lat="45.89753" lon="5.76098">
        <ele>1511.81</ele>
        <time>2012-04-09T09:10:06Z</time>
      </trkpt>
      <trkpt lat="45.89755" lon="5.76097">
        <ele>1512.29</ele>
        <time>2012-04-09T09:10:08Z</time>
      </trkpt>
      <trkpt lat="45.89757" lon="5.76098">
        <ele>1513.25</ele>
        <time>2012-04-09T09:10:10Z</time>
      </trkpt>
      <trkpt lat="45.89759" lon="5.76098">
        <ele>1513.25</ele>
        <time>2012-04-09T09:10:12Z</time>
      </trkpt>
      <trkpt lat="45.89761" lon="5.761">
        <ele>1513.25</ele>
        <time>2012-04-09T09:10:14Z</time>
      </trkpt>
      <trkpt lat="45.89763" lon="5.76101">
        <ele>1513.73</ele>
        <time>2012-04-09T09:10:16Z</time>
      </trkpt>
      <trkpt lat="45.89766" lon="5.76101">
        <ele>1513.73</ele>
        <time>2012-04-09T09:10:18Z</time>
      </trkpt>
      <trkpt lat="45.89769" lon="5.76102">
        <ele>1513.73</ele>
        <time>2012-04-09T09:10:20Z</time>
      </trkpt>
      <trkpt lat="45.89772" lon="5.76103">
        <ele>1514.21</ele>
        <time>2012-04-09T09:10:22Z</time>
      </trkpt>
      <trkpt lat="45.89774" lon="5.76104">
        <ele>1514.69</ele>
        <time>2012-04-09T09:10:24Z</time>
      </trkpt>
      <trkpt lat="45.89776" lon="5.76105">
        <ele>1515.18</ele>
        <time>2012-04-09T09:10:26Z</time>
      </trkpt>
      <trkpt lat="45.89778" lon="5.76106">
        <ele>1516.14</ele>
        <time>2012-04-09T09:10:28Z</time>
      </trkpt>
      <trkpt lat="45.8978" lon="5.76107">
        <ele>1516.62</ele>
        <time>2012-04-09T09:10:30Z</time>
      </trkpt>
      <trkpt lat="45.89782" lon="5.7611">
        <ele>1516.62</ele>
        <time>2012-04-09T09:10:32Z</time>
      </trkpt>
      <trkpt lat="45.89784" lon="5.76113">
        <ele>1517.1</ele>
        <time>2012-04-09T09:10:34Z</time>
      </trkpt>
      <trkpt lat="45.89786" lon="5.76114">
        <ele>1518.06</ele>
        <time>2012-04-09T09:10:36Z</time>
      </trkpt>
      <trkpt lat="45.89787" lon="5.76116">
        <ele>1518.06</ele>
        <time>2012-04-09T09:10:38Z</time>
      </trkpt>
      <trkpt lat="45.89788" lon="5.76117">
        <ele>1519.5</ele>
        <time>2012-04-09T09:10:40Z</time>
      </trkpt>
      <trkpt lat="45.89789" lon="5.76119">
        <ele>1519.98</ele>
        <time>2012-04-09T09:10:42Z</time>
      </trkpt>
      <trkpt lat="45.89789" lon="5.76121">
        <ele>1520.46</ele>
        <time>2012-04-09T09:10:44Z</time>
      </trkpt>
      <trkpt lat="45.8979" lon="5.76122">
        <ele>1521.42</ele>
        <time>2012-04-09T09:10:46Z</time>
      </trkpt>
      <trkpt lat="45.89791" lon="5.76123">
        <ele>1521.9</ele>
        <time>2012-04-09T09:10:48Z</time>
      </trkpt>
      <trkpt lat="45.89793" lon="5.76125">
        <ele>1521.9</ele>
        <time>2012-04-09T09:10:50Z</time>
      </trkpt>
      <trkpt lat="45.89795" lon="5.76127">
        <ele>1521.9</ele>
        <time>2012-04-09T09:10:52Z</time>
      </trkpt>
      <trkpt lat="45.89797" lon="5.76129">
        <ele>1522.39</ele>
        <time>2012-04-09T09:10:54Z</time>
      </trkpt>
      <trkpt lat="45.89799" lon="5.7613">
        <ele>1522.87</ele>
        <time>2012-04-09T09:10:56Z</time>
      </trkpt>
      <trkpt lat="45.89801" lon="5.76131">
        <ele>1523.35</ele>
        <time>2012-04-09T09:10:58Z</time>
      </trkpt>
      <trkpt lat="45.89803" lon="5.76131">
        <ele>1523.83</ele>
        <time>2012-04-09T09:11:00Z</time>
      </trkpt>
      <trkpt lat="45.89805" lon="5.76132">
        <ele>1524.31</ele>
        <time>2012-04-09T09:11:02Z</time>
      </trkpt>
      <trkpt lat="45.89806" lon="5.76132">
        <ele>1524.79</ele>
        <time>2012-04-09T09:11:04Z</time>
      </trkpt>
      <trkpt lat="45.89808" lon="5.76132">
        <ele>1524.79</ele>
        <time>2012-04-09T09:11:06Z</time>
      </trkpt>
      <trkpt lat="45.8981" lon="5.76133">
        <ele>1525.27</ele>
        <time>2012-04-09T09:11:08Z</time>
      </trkpt>
      <trkpt lat="45.89812" lon="5.76135">
        <ele>1525.75</ele>
        <time>2012-04-09T09:11:10Z</time>
      </trkpt>
      <trkpt lat="45.89814" lon="5.76135">
        <ele>1526.23</ele>
        <time>2012-04-09T09:11:12Z</time>
      </trkpt>
      <trkpt lat="45.89815" lon="5.76135">
        <ele>1527.19</ele>
        <time>2012-04-09T09:11:14Z</time>
      </trkpt>
      <trkpt lat="45.89816" lon="5.76136">
        <ele>1527.67</ele>
        <time>2012-04-09T09:11:16Z</time>
      </trkpt>
      <trkpt lat="45.89817" lon="5.76137">
        <ele>1527.19</ele>
        <time>2012-04-09T09:11:18Z</time>
      </trkpt>
      <trkpt lat="45.89817" lon="5.76137">
        <ele>1527.67</ele>
        <time>2012-04-09T09:11:20Z</time>
      </trkpt>
      <trkpt lat="45.89817" lon="5.76137">
        <ele>1527.67</ele>
        <time>2012-04-09T09:11:22Z</time>
      </trkpt>
      <trkpt lat="45.89818" lon="5.76137">
        <ele>1528.63</ele>
        <time>2012-04-09T09:11:24Z</time>
      </trkpt>
      <trkpt lat="45.89819" lon="5.76137">
        <ele>1529.11</ele>
        <time>2012-04-09T09:11:26Z</time>
      </trkpt>
      <trkpt lat="45.8982" lon="5.76135">
        <ele>1529.11</ele>
        <time>2012-04-09T09:11:28Z</time>
      </trkpt>
      <trkpt lat="45.89821" lon="5.76134">
        <ele>1530.08</ele>
        <time>2012-04-09T09:11:30Z</time>
      </trkpt>
      <trkpt lat="45.89821" lon="5.76133">
        <ele>1531.04</ele>
        <time>2012-04-09T09:11:32Z</time>
      </trkpt>
      <trkpt lat="45.89822" lon="5.76133">
        <ele>1531.52</ele>
        <time>2012-04-09T09:11:34Z</time>
      </trkpt>
      <trkpt lat="45.89823" lon="5.76134">
        <ele>1532.48</ele>
        <time>2012-04-09T09:11:36Z</time>
      </trkpt>
      <trkpt lat="45.89823" lon="5.76134">
        <ele>1532.48</ele>
        <time>2012-04-09T09:11:38Z</time>
      </trkpt>
      <trkpt lat="45.89823" lon="5.76134">
        <ele>1532</ele>
        <time>2012-04-09T09:11:40Z</time>
      </trkpt>
      <trkpt lat="45.89823" lon="5.76134">
        <ele>1532</ele>
        <time>2012-04-09T09:11:42Z</time>
      </trkpt>
      <trkpt lat="45.89823" lon="5.76134">
        <ele>1532.48</ele>
        <time>2012-04-09T09:11:44Z</time>
      </trkpt>
      <trkpt lat="45.89824" lon="5.76134">
        <ele>1532.96</ele>
        <time>2012-04-09T09:11:46Z</time>
      </trkpt>
      <trkpt lat="45.89826" lon="5.76134">
        <ele>1533.44</ele>
        <time>2012-04-09T09:11:48Z</time>
      </trkpt>
      <trkpt lat="45.89828" lon="5.76134">
        <ele>1533.92</ele>
        <time>2012-04-09T09:11:50Z</time>
      </trkpt>
      <trkpt lat="45.89829" lon="5.76133">
        <ele>1534.4</ele>
        <time>2012-04-09T09:11:52Z</time>
      </trkpt>
      <trkpt lat="45.89831" lon="5.76132">
        <ele>1534.88</ele>
        <time>2012-04-09T09:11:54Z</time>
      </trkpt>
      <trkpt lat="45.89832" lon="5.76131">
        <ele>1535.36</ele>
        <time>2012-04-09T09:11:56Z</time>
      </trkpt>
      <trkpt lat="45.89833" lon="5.7613">
        <ele>1536.32</ele>
        <time>2012-04-09T09:11:58Z</time>
      </trkpt>
      <trkpt lat="45.89834" lon="5.76129">
        <ele>1537.29</ele>
        <time>2012-04-09T09:12:00Z</time>
      </trkpt>
      <trkpt lat="45.89835" lon="5.76127">
        <ele>1537.77</ele>
        <time>2012-04-09T09:12:02Z</time>
      </trkpt>
      <trkpt lat="45.89836" lon="5.76126">
        <ele>1538.25</ele>
        <time>2012-04-09T09:12:04Z</time>
      </trkpt>
      <trkpt lat="45.89836" lon="5.76125">
        <ele>1539.21</ele>
        <time>2012-04-09T09:12:06Z</time>
      </trkpt>
      <trkpt lat="45.89837" lon="5.76125">
        <ele>1539.21</ele>
        <time>2012-04-09T09:12:08Z</time>
      </trkpt>
      <trkpt lat="45.89838" lon="5.76126">
        <ele>1540.17</ele>
        <time>2012-04-09T09:12:10Z</time>
      </trkpt>
      <trkpt lat="45.89839" lon="5.76126">
        <ele>1540.17</ele>
        <time>2012-04-09T09:12:12Z</time>
      </trkpt>
      <trkpt lat="45.8984" lon="5.76126">
        <ele>1540.17</ele>
        <time>2012-04-09T09:12:14Z</time>
      </trkpt>
      <trkpt lat="45.89841" lon="5.76126">
        <ele>1541.13</ele>
        <time>2012-04-09T09:12:16Z</time>
      </trkpt>
      <trkpt lat="45.89841" lon="5.76126">
        <ele>1541.61</ele>
        <time>2012-04-09T09:12:18Z</time>
      </trkpt>
      <trkpt lat="45.89841" lon="5.76126">
        <ele>1541.61</ele>
        <time>2012-04-09T09:12:20Z</time>
      </trkpt>
      <trkpt lat="45.89841" lon="5.76126">
        <ele>1542.09</ele>
        <time>2012-04-09T09:12:22Z</time>
      </trkpt>
      <trkpt lat="45.89842" lon="5.76125">
        <ele>1542.09</ele>
        <time>2012-04-09T09:12:24Z</time>
      </trkpt>
      <trkpt lat="45.89844" lon="5.76125">
        <ele>1542.09</ele>
        <time>2012-04-09T09:12:26Z</time>
      </trkpt>
      <trkpt lat="45.89846" lon="5.76124">
        <ele>1541.61</ele>
        <time>2012-04-09T09:12:28Z</time>
      </trkpt>
      <trkpt lat="45.89849" lon="5.76124">
        <ele>1542.57</ele>
        <time>2012-04-09T09:12:30Z</time>
      </trkpt>
      <trkpt lat="45.89851" lon="5.76125">
        <ele>1542.57</ele>
        <time>2012-04-09T09:12:32Z</time>
      </trkpt>
      <trkpt lat="45.89853" lon="5.76127">
        <ele>1542.57</ele>
        <time>2012-04-09T09:12:34Z</time>
      </trkpt>
      <trkpt lat="45.89856" lon="5.76126">
        <ele>1542.57</ele>
        <time>2012-04-09T09:12:36Z</time>
      </trkpt>
      <trkpt lat="45.89857" lon="5.76123">
        <ele>1542.57</ele>
        <time>2012-04-09T09:12:38Z</time>
      </trkpt>
      <trkpt lat="45.89858" lon="5.76123">
        <ele>1542.57</ele>
        <time>2012-04-09T09:12:40Z</time>
      </trkpt>
      <trkpt lat="45.8986" lon="5.76124">
        <ele>1542.57</ele>
        <time>2012-04-09T09:12:42Z</time>
      </trkpt>
      <trkpt lat="45.89861" lon="5.76125">
        <ele>1542.57</ele>
        <time>2012-04-09T09:12:44Z</time>
      </trkpt>
      <trkpt lat="45.89865" lon="5.76124">
        <ele>1542.09</ele>
        <time>2012-04-09T09:12:46Z</time>
      </trkpt>
      <trkpt lat="45.89868" lon="5.76124">
        <ele>1542.09</ele>
        <time>2012-04-09T09:12:48Z</time>
      </trkpt>
      <trkpt lat="45.89872" lon="5.76122">
        <ele>1543.05</ele>
        <time>2012-04-09T09:12:50Z</time>
      </trkpt>
      <trkpt lat="45.89874" lon="5.76121">
        <ele>1543.53</ele>
        <time>2012-04-09T09:12:52Z</time>
      </trkpt>
      <trkpt lat="45.89876" lon="5.76121">
        <ele>1543.53</ele>
        <time>2012-04-09T09:12:54Z</time>
      </trkpt>
      <trkpt lat="45.89878" lon="5.76122">
        <ele>1543.05</ele>
        <time>2012-04-09T09:12:56Z</time>
      </trkpt>
      <trkpt lat="45.89881" lon="5.76121">
        <ele>1543.53</ele>
        <time>2012-04-09T09:12:58Z</time>
      </trkpt>
      <trkpt lat="45.89883" lon="5.7612">
        <ele>1544.01</ele>
        <time>2012-04-09T09:13:00Z</time>
      </trkpt>
      <trkpt lat="45.89887" lon="5.76119">
        <ele>1544.01</ele>
        <time>2012-04-09T09:13:02Z</time>
      </trkpt>
      <trkpt lat="45.8989" lon="5.76117">
        <ele>1544.01</ele>
        <time>2012-04-09T09:13:04Z</time>
      </trkpt>
      <trkpt lat="45.89893" lon="5.76115">
        <ele>1544.01</ele>
        <time>2012-04-09T09:13:06Z</time>
      </trkpt>
      <trkpt lat="45.89896" lon="5.76114">
        <ele>1543.53</ele>
        <time>2012-04-09T09:13:08Z</time>
      </trkpt>
      <trkpt lat="45.899" lon="5.76112">
        <ele>1543.05</ele>
        <time>2012-04-09T09:13:10Z</time>
      </trkpt>
      <trkpt lat="45.89905" lon="5.76109">
        <ele>1544.01</ele>
        <time>2012-04-09T09:13:12Z</time>
      </trkpt>
      <trkpt lat="45.89909" lon="5.76108">
        <ele>1544.5</ele>
        <time>2012-04-09T09:13:14Z</time>
      </trkpt>
      <trkpt lat="45.89911" lon="5.76107">
        <ele>1545.46</ele>
        <time>2012-04-09T09:13:16Z</time>
      </trkpt>
      <trkpt lat="45.89913" lon="5.76105">
        <ele>1545.94</ele>
        <time>2012-04-09T09:13:18Z</time>
      </trkpt>
      <trkpt lat="45.89913" lon="5.76104">
        <ele>1546.9</ele>
        <time>2012-04-09T09:13:20Z</time>
      </trkpt>
      <trkpt lat="45.89914" lon="5.76103">
        <ele>1547.38</ele>
        <time>2012-04-09T09:13:22Z</time>
      </trkpt>
      <trkpt lat="45.89916" lon="5.76102">
        <ele>1548.34</ele>
        <time>2012-04-09T09:13:24Z</time>
      </trkpt>
      <trkpt lat="45.89917" lon="5.76101">
        <ele>1548.34</ele>
        <time>2012-04-09T09:13:26Z</time>
      </trkpt>
      <trkpt lat="45.89918" lon="5.761">
        <ele>1548.82</ele>
        <time>2012-04-09T09:13:28Z</time>
      </trkpt>
      <trkpt lat="45.89918" lon="5.761">
        <ele>1549.3</ele>
        <time>2012-04-09T09:13:30Z</time>
      </trkpt>
      <trkpt lat="45.89918" lon="5.761">
        <ele>1548.82</ele>
        <time>2012-04-09T09:13:32Z</time>
      </trkpt>
      <trkpt lat="45.89918" lon="5.761">
        <ele>1548.82</ele>
        <time>2012-04-09T09:13:34Z</time>
      </trkpt>
      <trkpt lat="45.89918" lon="5.761">
        <ele>1548.82</ele>
        <time>2012-04-09T09:13:36Z</time>
      </trkpt>
      <trkpt lat="45.89918" lon="5.761">
        <ele>1548.82</ele>
        <time>2012-04-09T09:13:38Z</time>
      </trkpt>
      <trkpt lat="45.89918" lon="5.761">
        <ele>1548.82</ele>
        <time>2012-04-09T09:13:40Z</time>
      </trkpt>
      <trkpt lat="45.89918" lon="5.761">
        <ele>1548.82</ele>
        <time>2012-04-09T09:13:42Z</time>
      </trkpt>
      <trkpt lat="45.89918" lon="5.761">
        <ele>1548.82</ele>
        <time>2012-04-09T09:13:44Z</time>
      </trkpt>
      <trkpt lat="45.89918" lon="5.761">
        <ele>1548.82</ele>
        <time>2012-04-09T09:13:46Z</time>
      </trkpt>
      <trkpt lat="45.89918" lon="5.761">
        <ele>1549.3</ele>
        <time>2012-04-09T09:13:48Z</time>
      </trkpt>
      <trkpt lat="45.89918" lon="5.761">
        <ele>1548.82</ele>
        <time>2012-04-09T09:13:50Z</time>
      </trkpt>
      <trkpt lat="45.89918" lon="5.761">
        <ele>1549.3</ele>
        <time>2012-04-09T09:13:52Z</time>
      </trkpt>
      <trkpt lat="45.89918" lon="5.761">
        <ele>1549.3</ele>
        <time>2012-04-09T09:13:54Z</time>
      </trkpt>
      <trkpt lat="45.89918" lon="5.761">
        <ele>1549.3</ele>
        <time>2012-04-09T09:13:56Z</time>
      </trkpt>
      <trkpt lat="45.89918" lon="5.761">
        <ele>1548.82</ele>
        <time>2012-04-09T09:13:58Z</time>
      </trkpt>
      <trkpt lat="45.89918" lon="5.761">
        <ele>1548.82</ele>
        <time>2012-04-09T09:14:00Z</time>
      </trkpt>
      <trkpt lat="45.89918" lon="5.761">
        <ele>1548.82</ele>
        <time>2012-04-09T09:14:02Z</time>
      </trkpt>
      <trkpt lat="45.89918" lon="5.761">
        <ele>1548.82</ele>
        <time>2012-04-09T09:14:04Z</time>
      </trkpt>
      <trkpt lat="45.89918" lon="5.761">
        <ele>1548.82</ele>
        <time>2012-04-09T09:14:06Z</time>
      </trkpt>
      <trkpt lat="45.89918" lon="5.761">
        <ele>1548.82</ele>
        <time>2012-04-09T09:14:08Z</time>
      </trkpt>
      <trkpt lat="45.89918" lon="5.761">
        <ele>1548.82</ele>
        <time>2012-04-09T09:14:10Z</time>
      </trkpt>
      <trkpt lat="45.89918" lon="5.761">
        <ele>1548.82</ele>
        <time>2012-04-09T09:14:12Z</time>
      </trkpt>
      <trkpt lat="45.89918" lon="5.761">
        <ele>1548.82</ele>
        <time>2012-04-09T09:14:14Z</time>
      </trkpt>
      <trkpt lat="45.89918" lon="5.761">
        <ele>1548.82</ele>
        <time>2012-04-09T09:14:16Z</time>
      </trkpt>
      <trkpt lat="45.89918" lon="5.761">
        <ele>1548.82</ele>
        <time>2012-04-09T09:14:18Z</time>
      </trkpt>
      <trkpt lat="45.89918" lon="5.761">
        <ele>1548.82</ele>
        <time>2012-04-09T09:14:20Z</time>
      </trkpt>
      <trkpt lat="45.89918" lon="5.761">
        <ele>1548.82</ele>
        <time>2012-04-09T09:14:22Z</time>
      </trkpt>
      <trkpt lat="45.89918" lon="5.761">
        <ele>1548.34</ele>
        <time>2012-04-09T09:14:24Z</time>
      </trkpt>
      <trkpt lat="45.89918" lon="5.761">
        <ele>1548.82</ele>
        <time>2012-04-09T09:14:26Z</time>
      </trkpt>
      <trkpt lat="45.89918" lon="5.761">
        <ele>1548.82</ele>
        <time>2012-04-09T09:14:28Z</time>
      </trkpt>
      <trkpt lat="45.89918" lon="5.761">
        <ele>1548.34</ele>
        <time>2012-04-09T09:14:30Z</time>
      </trkpt>
      <trkpt lat="45.89918" lon="5.761">
        <ele>1548.82</ele>
        <time>2012-04-09T09:14:32Z</time>
      </trkpt>
      <trkpt lat="45.89918" lon="5.761">
        <ele>1548.82</ele>
        <time>2012-04-09T09:14:34Z</time>
      </trkpt>
      <trkpt lat="45.89918" lon="5.761">
        <ele>1548.34</ele>
        <time>2012-04-09T09:14:36Z</time>
      </trkpt>
      <trkpt lat="45.89918" lon="5.761">
        <ele>1548.34</ele>
        <time>2012-04-09T09:14:38Z</time>
      </trkpt>
      <trkpt lat="45.89918" lon="5.761">
        <ele>1548.82</ele>
        <time>2012-04-09T09:14:40Z</time>
      </trkpt>
      <trkpt lat="45.89918" lon="5.761">
        <ele>1548.82</ele>
        <time>2012-04-09T09:14:42Z</time>
      </trkpt>
      <trkpt lat="45.89918" lon="5.76099">
        <ele>1549.3</ele>
        <time>2012-04-09T09:14:44Z</time>
      </trkpt>
      <trkpt lat="45.89921" lon="5.76096">
        <ele>1548.82</ele>
        <time>2012-04-09T09:14:46Z</time>
      </trkpt>
      <trkpt lat="45.89925" lon="5.76096">
        <ele>1547.38</ele>
        <time>2012-04-09T09:14:48Z</time>
      </trkpt>
      <trkpt lat="45.8993" lon="5.761">
        <ele>1545.46</ele>
        <time>2012-04-09T09:14:50Z</time>
      </trkpt>
      <trkpt lat="45.89935" lon="5.76102">
        <ele>1544.5</ele>
        <time>2012-04-09T09:14:52Z</time>
      </trkpt>
      <trkpt lat="45.89939" lon="5.76104">
        <ele>1544.01</ele>
        <time>2012-04-09T09:14:54Z</time>
      </trkpt>
      <trkpt lat="45.89942" lon="5.76106">
        <ele>1543.53</ele>
        <time>2012-04-09T09:14:56Z</time>
      </trkpt>
      <trkpt lat="45.89945" lon="5.76107">
        <ele>1542.09</ele>
        <time>2012-04-09T09:14:58Z</time>
      </trkpt>
      <trkpt lat="45.89948" lon="5.76109">
        <ele>1540.65</ele>
        <time>2012-04-09T09:15:00Z</time>
      </trkpt>
      <trkpt lat="45.89952" lon="5.76109">
        <ele>1540.17</ele>
        <time>2012-04-09T09:15:02Z</time>
      </trkpt>
      <trkpt lat="45.89957" lon="5.76109">
        <ele>1539.69</ele>
        <time>2012-04-09T09:15:04Z</time>
      </trkpt>
      <trkpt lat="45.89963" lon="5.76109">
        <ele>1539.21</ele>
        <time>2012-04-09T09:15:06Z</time>
      </trkpt>
      <trkpt lat="45.89968" lon="5.7611">
        <ele>1539.21</ele>
        <time>2012-04-09T09:15:08Z</time>
      </trkpt>
      <trkpt lat="45.89974" lon="5.76108">
        <ele>1539.21</ele>
        <time>2012-04-09T09:15:10Z</time>
      </trkpt>
      <trkpt lat="45.89979" lon="5.76107">
        <ele>1540.17</ele>
        <time>2012-04-09T09:15:12Z</time>
      </trkpt>
      <trkpt lat="45.89985" lon="5.76107">
        <ele>1540.65</ele>
        <time>2012-04-09T09:15:14Z</time>
      </trkpt>
      <trkpt lat="45.8999" lon="5.76107">
        <ele>1541.13</ele>
        <time>2012-04-09T09:15:16Z</time>
      </trkpt>
      <trkpt lat="45.89995" lon="5.76107">
        <ele>1541.61</ele>
        <time>2012-04-09T09:15:18Z</time>
      </trkpt>
      <trkpt lat="45.90001" lon="5.76106">
        <ele>1541.61</ele>
        <time>2012-04-09T09:15:20Z</time>
      </trkpt>
      <trkpt lat="45.90007" lon="5.76105">
        <ele>1542.09</ele>
        <time>2012-04-09T09:15:22Z</time>
      </trkpt>
      <trkpt lat="45.90012" lon="5.76105">
        <ele>1541.61</ele>
        <time>2012-04-09T09:15:24Z</time>
      </trkpt>
      <trkpt lat="45.90017" lon="5.76104">
        <ele>1542.09</ele>
        <time>2012-04-09T09:15:26Z</time>
      </trkpt>
      <trkpt lat="45.90022" lon="5.76103">
        <ele>1542.09</ele>
        <time>2012-04-09T09:15:28Z</time>
      </trkpt>
      <trkpt lat="45.90027" lon="5.76102">
        <ele>1542.09</ele>
        <time>2012-04-09T09:15:30Z</time>
      </trkpt>
      <trkpt lat="45.90032" lon="5.76103">
        <ele>1542.57</ele>
        <time>2012-04-09T09:15:32Z</time>
      </trkpt>
      <trkpt lat="45.90038" lon="5.76104">
        <ele>1542.57</ele>
        <time>2012-04-09T09:15:34Z</time>
      </trkpt>
      <trkpt lat="45.90043" lon="5.76106">
        <ele>1542.09</ele>
        <time>2012-04-09T09:15:36Z</time>
      </trkpt>
      <trkpt lat="45.90049" lon="5.76107">
        <ele>1542.09</ele>
        <time>2012-04-09T09:15:38Z</time>
      </trkpt>
      <trkpt lat="45.90054" lon="5.76109">
        <ele>1542.57</ele>
        <time>2012-04-09T09:15:40Z</time>
      </trkpt>
      <trkpt lat="45.90058" lon="5.76112">
        <ele>1542.57</ele>
        <time>2012-04-09T09:15:42Z</time>
      </trkpt>
      <trkpt lat="45.90063" lon="5.76113">
        <ele>1543.05</ele>
        <time>2012-04-09T09:15:44Z</time>
      </trkpt>
      <trkpt lat="45.90068" lon="5.76112">
        <ele>1543.53</ele>
        <time>2012-04-09T09:15:46Z</time>
      </trkpt>
      <trkpt lat="45.90073" lon="5.7611">
        <ele>1544.5</ele>
        <time>2012-04-09T09:15:48Z</time>
      </trkpt>
      <trkpt lat="45.90077" lon="5.76109">
        <ele>1544.5</ele>
        <time>2012-04-09T09:15:50Z</time>
      </trkpt>
      <trkpt lat="45.90081" lon="5.7611">
        <ele>1545.46</ele>
        <time>2012-04-09T09:15:52Z</time>
      </trkpt>
      <trkpt lat="45.90085" lon="5.76111">
        <ele>1544.98</ele>
        <time>2012-04-09T09:15:54Z</time>
      </trkpt>
      <trkpt lat="45.9009" lon="5.76111">
        <ele>1545.46</ele>
        <time>2012-04-09T09:15:56Z</time>
      </trkpt>
      <trkpt lat="45.90095" lon="5.76112">
        <ele>1545.46</ele>
        <time>2012-04-09T09:15:58Z</time>
      </trkpt>
      <trkpt lat="45.90099" lon="5.76114">
        <ele>1545.46</ele>
        <time>2012-04-09T09:16:00Z</time>
      </trkpt>
      <trkpt lat="45.90104" lon="5.76115">
        <ele>1545.46</ele>
        <time>2012-04-09T09:16:02Z</time>
      </trkpt>
      <trkpt lat="45.9011" lon="5.76115">
        <ele>1545.46</ele>
        <time>2012-04-09T09:16:04Z</time>
      </trkpt>
      <trkpt lat="45.90116" lon="5.76116">
        <ele>1545.94</ele>
        <time>2012-04-09T09:16:06Z</time>
      </trkpt>
      <trkpt lat="45.90121" lon="5.76115">
        <ele>1545.94</ele>
        <time>2012-04-09T09:16:08Z</time>
      </trkpt>
      <trkpt lat="45.90126" lon="5.76117">
        <ele>1545.46</ele>
        <time>2012-04-09T09:16:10Z</time>
      </trkpt>
      <trkpt lat="45.9013" lon="5.76116">
        <ele>1545.94</ele>
        <time>2012-04-09T09:16:12Z</time>
      </trkpt>
      <trkpt lat="45.90135" lon="5.76118">
        <ele>1545.46</ele>
        <time>2012-04-09T09:16:14Z</time>
      </trkpt>
      <trkpt lat="45.90138" lon="5.7612">
        <ele>1545.46</ele>
        <time>2012-04-09T09:16:16Z</time>
      </trkpt>
      <trkpt lat="45.90142" lon="5.76123">
        <ele>1544.5</ele>
        <time>2012-04-09T09:16:18Z</time>
      </trkpt>
      <trkpt lat="45.90146" lon="5.76125">
        <ele>1543.53</ele>
        <time>2012-04-09T09:16:20Z</time>
      </trkpt>
      <trkpt lat="45.9015" lon="5.76125">
        <ele>1543.05</ele>
        <time>2012-04-09T09:16:22Z</time>
      </trkpt>
      <trkpt lat="45.90153" lon="5.76127">
        <ele>1541.13</ele>
        <time>2012-04-09T09:16:24Z</time>
      </trkpt>
      <trkpt lat="45.90155" lon="5.76128">
        <ele>1540.17</ele>
        <time>2012-04-09T09:16:26Z</time>
      </trkpt>
      <trkpt lat="45.90157" lon="5.76128">
        <ele>1538.25</ele>
        <time>2012-04-09T09:16:28Z</time>
      </trkpt>
      <trkpt lat="45.9016" lon="5.76127">
        <ele>1537.77</ele>
        <time>2012-04-09T09:16:30Z</time>
      </trkpt>
      <trkpt lat="45.90162" lon="5.76125">
        <ele>1537.29</ele>
        <time>2012-04-09T09:16:32Z</time>
      </trkpt>
      <trkpt lat="45.90164" lon="5.76124">
        <ele>1536.32</ele>
        <time>2012-04-09T09:16:34Z</time>
      </trkpt>
      <trkpt lat="45.90167" lon="5.76124">
        <ele>1534.88</ele>
        <time>2012-04-09T09:16:36Z</time>
      </trkpt>
      <trkpt lat="45.9017" lon="5.76124">
        <ele>1533.92</ele>
        <time>2012-04-09T09:16:38Z</time>
      </trkpt>
      <trkpt lat="45.90175" lon="5.76121">
        <ele>1532.96</ele>
        <time>2012-04-09T09:16:40Z</time>
      </trkpt>
      <trkpt lat="45.9018" lon="5.76119">
        <ele>1531.52</ele>
        <time>2012-04-09T09:16:42Z</time>
      </trkpt>
      <trkpt lat="45.90186" lon="5.76117">
        <ele>1530.56</ele>
        <time>2012-04-09T09:16:44Z</time>
      </trkpt>
      <trkpt lat="45.90191" lon="5.76116">
        <ele>1530.08</ele>
        <time>2012-04-09T09:16:46Z</time>
      </trkpt>
      <trkpt lat="45.90197" lon="5.76115">
        <ele>1528.63</ele>
        <time>2012-04-09T09:16:48Z</time>
      </trkpt>
      <trkpt lat="45.90202" lon="5.76117">
        <ele>1527.19</ele>
        <time>2012-04-09T09:16:50Z</time>
      </trkpt>
      <trkpt lat="45.90207" lon="5.7612">
        <ele>1525.75</ele>
        <time>2012-04-09T09:16:52Z</time>
      </trkpt>
      <trkpt lat="45.90212" lon="5.76125">
        <ele>1524.31</ele>
        <time>2012-04-09T09:16:54Z</time>
      </trkpt>
      <trkpt lat="45.90216" lon="5.76129">
        <ele>1522.87</ele>
        <time>2012-04-09T09:16:56Z</time>
      </trkpt>
      <trkpt lat="45.9022" lon="5.76132">
        <ele>1521.42</ele>
        <time>2012-04-09T09:16:58Z</time>
      </trkpt>
      <trkpt lat="45.90225" lon="5.76136">
        <ele>1520.46</ele>
        <time>2012-04-09T09:17:00Z</time>
      </trkpt>
      <trkpt lat="45.90232" lon="5.76139">
        <ele>1519.02</ele>
        <time>2012-04-09T09:17:02Z</time>
      </trkpt>
      <trkpt lat="45.90239" lon="5.76141">
        <ele>1518.54</ele>
        <time>2012-04-09T09:17:04Z</time>
      </trkpt>
      <trkpt lat="45.90245" lon="5.76142">
        <ele>1518.54</ele>
        <time>2012-04-09T09:17:06Z</time>
      </trkpt>
      <trkpt lat="45.90252" lon="5.76143">
        <ele>1519.5</ele>
        <time>2012-04-09T09:17:08Z</time>
      </trkpt>
      <trkpt lat="45.90259" lon="5.76145">
        <ele>1519.98</ele>
        <time>2012-04-09T09:17:10Z</time>
      </trkpt>
      <trkpt lat="45.90265" lon="5.76147">
        <ele>1519.98</ele>
        <time>2012-04-09T09:17:12Z</time>
      </trkpt>
      <trkpt lat="45.90271" lon="5.76149">
        <ele>1520.94</ele>
        <time>2012-04-09T09:17:14Z</time>
      </trkpt>
      <trkpt lat="45.90276" lon="5.76151">
        <ele>1521.42</ele>
        <time>2012-04-09T09:17:16Z</time>
      </trkpt>
      <trkpt lat="45.90281" lon="5.76152">
        <ele>1521.42</ele>
        <time>2012-04-09T09:17:18Z</time>
      </trkpt>
      <trkpt lat="45.90286" lon="5.76152">
        <ele>1521.9</ele>
        <time>2012-04-09T09:17:20Z</time>
      </trkpt>
      <trkpt lat="45.9029" lon="5.76155">
        <ele>1521.9</ele>
        <time>2012-04-09T09:17:22Z</time>
      </trkpt>
      <trkpt lat="45.90295" lon="5.76158">
        <ele>1521.9</ele>
        <time>2012-04-09T09:17:24Z</time>
      </trkpt>
      <trkpt lat="45.90299" lon="5.76162">
        <ele>1521.42</ele>
        <time>2012-04-09T09:17:26Z</time>
      </trkpt>
      <trkpt lat="45.90303" lon="5.76168">
        <ele>1521.9</ele>
        <time>2012-04-09T09:17:28Z</time>
      </trkpt>
      <trkpt lat="45.90307" lon="5.76172">
        <ele>1521.42</ele>
        <time>2012-04-09T09:17:30Z</time>
      </trkpt>
      <trkpt lat="45.90311" lon="5.76174">
        <ele>1520.94</ele>
        <time>2012-04-09T09:17:32Z</time>
      </trkpt>
      <trkpt lat="45.90315" lon="5.76174">
        <ele>1519.98</ele>
        <time>2012-04-09T09:17:34Z</time>
      </trkpt>
      <trkpt lat="45.90318" lon="5.76177">
        <ele>1518.54</ele>
        <time>2012-04-09T09:17:36Z</time>
      </trkpt>
      <trkpt lat="45.90322" lon="5.76179">
        <ele>1517.58</ele>
        <time>2012-04-09T09:17:38Z</time>
      </trkpt>
      <trkpt lat="45.90325" lon="5.76181">
        <ele>1517.1</ele>
        <time>2012-04-09T09:17:40Z</time>
      </trkpt>
      <trkpt lat="45.90329" lon="5.76183">
        <ele>1516.62</ele>
        <time>2012-04-09T09:17:42Z</time>
      </trkpt>
      <trkpt lat="45.90334" lon="5.76185">
        <ele>1514.69</ele>
        <time>2012-04-09T09:17:44Z</time>
      </trkpt>
      <trkpt lat="45.9034" lon="5.76186">
        <ele>1514.69</ele>
        <time>2012-04-09T09:17:46Z</time>
      </trkpt>
      <trkpt lat="45.90345" lon="5.76185">
        <ele>1514.69</ele>
        <time>2012-04-09T09:17:48Z</time>
      </trkpt>
      <trkpt lat="45.9035" lon="5.76184">
        <ele>1514.69</ele>
        <time>2012-04-09T09:17:50Z</time>
      </trkpt>
      <trkpt lat="45.90355" lon="5.76184">
        <ele>1514.69</ele>
        <time>2012-04-09T09:17:52Z</time>
      </trkpt>
      <trkpt lat="45.9036" lon="5.76185">
        <ele>1515.66</ele>
        <time>2012-04-09T09:17:54Z</time>
      </trkpt>
      <trkpt lat="45.90365" lon="5.76185">
        <ele>1516.14</ele>
        <time>2012-04-09T09:17:56Z</time>
      </trkpt>
      <trkpt lat="45.9037" lon="5.76185">
        <ele>1516.62</ele>
        <time>2012-04-09T09:17:58Z</time>
      </trkpt>
      <trkpt lat="45.90374" lon="5.76182">
        <ele>1516.62</ele>
        <time>2012-04-09T09:18:00Z</time>
      </trkpt>
      <trkpt lat="45.90378" lon="5.76182">
        <ele>1517.58</ele>
        <time>2012-04-09T09:18:02Z</time>
      </trkpt>
      <trkpt lat="45.90383" lon="5.76183">
        <ele>1517.58</ele>
        <time>2012-04-09T09:18:04Z</time>
      </trkpt>
      <trkpt lat="45.90387" lon="5.76182">
        <ele>1518.54</ele>
        <time>2012-04-09T09:18:06Z</time>
      </trkpt>
      <trkpt lat="45.90391" lon="5.76182">
        <ele>1518.54</ele>
        <time>2012-04-09T09:18:08Z</time>
      </trkpt>
      <trkpt lat="45.90396" lon="5.7618">
        <ele>1518.54</ele>
        <time>2012-04-09T09:18:10Z</time>
      </trkpt>
      <trkpt lat="45.904" lon="5.76179">
        <ele>1519.02</ele>
        <time>2012-04-09T09:18:12Z</time>
      </trkpt>
      <trkpt lat="45.90405" lon="5.76177">
        <ele>1519.02</ele>
        <time>2012-04-09T09:18:14Z</time>
      </trkpt>
      <trkpt lat="45.9041" lon="5.76176">
        <ele>1519.5</ele>
        <time>2012-04-09T09:18:16Z</time>
      </trkpt>
      <trkpt lat="45.90414" lon="5.76174">
        <ele>1519.98</ele>
        <time>2012-04-09T09:18:18Z</time>
      </trkpt>
      <trkpt lat="45.90419" lon="5.76172">
        <ele>1519.98</ele>
        <time>2012-04-09T09:18:20Z</time>
      </trkpt>
      <trkpt lat="45.90423" lon="5.7617">
        <ele>1520.46</ele>
        <time>2012-04-09T09:18:22Z</time>
      </trkpt>
      <trkpt lat="45.90428" lon="5.76169">
        <ele>1521.9</ele>
        <time>2012-04-09T09:18:24Z</time>
      </trkpt>
      <trkpt lat="45.90432" lon="5.76167">
        <ele>1521.9</ele>
        <time>2012-04-09T09:18:26Z</time>
      </trkpt>
      <trkpt lat="45.90436" lon="5.76166">
        <ele>1522.39</ele>
        <time>2012-04-09T09:18:28Z</time>
      </trkpt>
      <trkpt lat="45.9044" lon="5.76165">
        <ele>1522.39</ele>
        <time>2012-04-09T09:18:30Z</time>
      </trkpt>
      <trkpt lat="45.90444" lon="5.76164">
        <ele>1522.87</ele>
        <time>2012-04-09T09:18:32Z</time>
      </trkpt>
      <trkpt lat="45.90448" lon="5.76162">
        <ele>1522.87</ele>
        <time>2012-04-09T09:18:34Z</time>
      </trkpt>
      <trkpt lat="45.90452" lon="5.76161">
        <ele>1523.35</ele>
        <time>2012-04-09T09:18:36Z</time>
      </trkpt>
      <trkpt lat="45.90457" lon="5.7616">
        <ele>1524.31</ele>
        <time>2012-04-09T09:18:38Z</time>
      </trkpt>
      <trkpt lat="45.90461" lon="5.76158">
        <ele>1524.31</ele>
        <time>2012-04-09T09:18:40Z</time>
      </trkpt>
      <trkpt lat="45.90465" lon="5.76156">
        <ele>1524.79</ele>
        <time>2012-04-09T09:18:42Z</time>
      </trkpt>
      <trkpt lat="45.90469" lon="5.76154">
        <ele>1525.27</ele>
        <time>2012-04-09T09:18:44Z</time>
      </trkpt>
      <trkpt lat="45.90473" lon="5.76151">
        <ele>1525.75</ele>
        <time>2012-04-09T09:18:46Z</time>
      </trkpt>
      <trkpt lat="45.90477" lon="5.76149">
        <ele>1526.23</ele>
        <time>2012-04-09T09:18:48Z</time>
      </trkpt>
      <trkpt lat="45.90481" lon="5.76148">
        <ele>1526.71</ele>
        <time>2012-04-09T09:18:50Z</time>
      </trkpt>
      <trkpt lat="45.90485" lon="5.76147">
        <ele>1527.67</ele>
        <time>2012-04-09T09:18:52Z</time>
      </trkpt>
      <trkpt lat="45.90489" lon="5.76144">
        <ele>1527.67</ele>
        <time>2012-04-09T09:18:54Z</time>
      </trkpt>
      <trkpt lat="45.90494" lon="5.76143">
        <ele>1528.15</ele>
        <time>2012-04-09T09:18:56Z</time>
      </trkpt>
      <trkpt lat="45.90497" lon="5.76143">
        <ele>1528.15</ele>
        <time>2012-04-09T09:18:58Z</time>
      </trkpt>
      <trkpt lat="45.90502" lon="5.76143">
        <ele>1528.63</ele>
        <time>2012-04-09T09:19:00Z</time>
      </trkpt>
      <trkpt lat="45.90506" lon="5.76142">
        <ele>1528.63</ele>
        <time>2012-04-09T09:19:02Z</time>
      </trkpt>
      <trkpt lat="45.9051" lon="5.76141">
        <ele>1528.15</ele>
        <time>2012-04-09T09:19:04Z</time>
      </trkpt>
      <trkpt lat="45.90515" lon="5.76139">
        <ele>1529.11</ele>
        <time>2012-04-09T09:19:06Z</time>
      </trkpt>
      <trkpt lat="45.90519" lon="5.76138">
        <ele>1529.11</ele>
        <time>2012-04-09T09:19:08Z</time>
      </trkpt>
      <trkpt lat="45.90524" lon="5.76136">
        <ele>1529.59</ele>
        <time>2012-04-09T09:19:10Z</time>
      </trkpt>
      <trkpt lat="45.90527" lon="5.76133">
        <ele>1529.59</ele>
        <time>2012-04-09T09:19:12Z</time>
      </trkpt>
      <trkpt lat="45.90531" lon="5.76133">
        <ele>1530.08</ele>
        <time>2012-04-09T09:19:14Z</time>
      </trkpt>
      <trkpt lat="45.90535" lon="5.76133">
        <ele>1531.04</ele>
        <time>2012-04-09T09:19:16Z</time>
      </trkpt>
      <trkpt lat="45.9054" lon="5.76135">
        <ele>1532</ele>
        <time>2012-04-09T09:19:18Z</time>
      </trkpt>
      <trkpt lat="45.90543" lon="5.76136">
        <ele>1532</ele>
        <time>2012-04-09T09:19:20Z</time>
      </trkpt>
      <trkpt lat="45.90546" lon="5.76136">
        <ele>1532.48</ele>
        <time>2012-04-09T09:19:22Z</time>
      </trkpt>
      <trkpt lat="45.9055" lon="5.76137">
        <ele>1532.96</ele>
        <time>2012-04-09T09:19:24Z</time>
      </trkpt>
      <trkpt lat="45.90552" lon="5.76139">
        <ele>1533.92</ele>
        <time>2012-04-09T09:19:26Z</time>
      </trkpt>
      <trkpt lat="45.90556" lon="5.76141">
        <ele>1533.92</ele>
        <time>2012-04-09T09:19:28Z</time>
      </trkpt>
      <trkpt lat="45.90559" lon="5.76144">
        <ele>1534.4</ele>
        <time>2012-04-09T09:19:30Z</time>
      </trkpt>
      <trkpt lat="45.90562" lon="5.76147">
        <ele>1534.88</ele>
        <time>2012-04-09T09:19:32Z</time>
      </trkpt>
      <trkpt lat="45.90565" lon="5.76148">
        <ele>1535.36</ele>
        <time>2012-04-09T09:19:34Z</time>
      </trkpt>
      <trkpt lat="45.90569" lon="5.7615">
        <ele>1535.84</ele>
        <time>2012-04-09T09:19:36Z</time>
      </trkpt>
      <trkpt lat="45.90573" lon="5.76151">
        <ele>1536.32</ele>
        <time>2012-04-09T09:19:38Z</time>
      </trkpt>
      <trkpt lat="45.90575" lon="5.76152">
        <ele>1536.32</ele>
        <time>2012-04-09T09:19:40Z</time>
      </trkpt>
      <trkpt lat="45.90578" lon="5.76152">
        <ele>1536.32</ele>
        <time>2012-04-09T09:19:42Z</time>
      </trkpt>
      <trkpt lat="45.9058" lon="5.76152">
        <ele>1536.8</ele>
        <time>2012-04-09T09:19:44Z</time>
      </trkpt>
      <trkpt lat="45.90582" lon="5.76152">
        <ele>1536.8</ele>
        <time>2012-04-09T09:19:46Z</time>
      </trkpt>
      <trkpt lat="45.90585" lon="5.76153">
        <ele>1536.8</ele>
        <time>2012-04-09T09:19:48Z</time>
      </trkpt>
      <trkpt lat="45.90587" lon="5.76153">
        <ele>1537.29</ele>
        <time>2012-04-09T09:19:50Z</time>
      </trkpt>
      <trkpt lat="45.90589" lon="5.76153">
        <ele>1537.77</ele>
        <time>2012-04-09T09:19:52Z</time>
      </trkpt>
      <trkpt lat="45.90591" lon="5.76154">
        <ele>1537.29</ele>
        <time>2012-04-09T09:19:54Z</time>
      </trkpt>
      <trkpt lat="45.90593" lon="5.76156">
        <ele>1537.29</ele>
        <time>2012-04-09T09:19:56Z</time>
      </trkpt>
      <trkpt lat="45.90595" lon="5.76156">
        <ele>1537.29</ele>
        <time>2012-04-09T09:19:58Z</time>
      </trkpt>
      <trkpt lat="45.90597" lon="5.76157">
        <ele>1537.77</ele>
        <time>2012-04-09T09:20:00Z</time>
      </trkpt>
      <trkpt lat="45.90599" lon="5.76159">
        <ele>1537.77</ele>
        <time>2012-04-09T09:20:02Z</time>
      </trkpt>
      <trkpt lat="45.90601" lon="5.7616">
        <ele>1538.25</ele>
        <time>2012-04-09T09:20:04Z</time>
      </trkpt>
      <trkpt lat="45.90603" lon="5.7616">
        <ele>1538.25</ele>
        <time>2012-04-09T09:20:06Z</time>
      </trkpt>
      <trkpt lat="45.90606" lon="5.76162">
        <ele>1538.25</ele>
        <time>2012-04-09T09:20:08Z</time>
      </trkpt>
      <trkpt lat="45.90608" lon="5.76163">
        <ele>1537.77</ele>
        <time>2012-04-09T09:20:10Z</time>
      </trkpt>
      <trkpt lat="45.90611" lon="5.76164">
        <ele>1538.25</ele>
        <time>2012-04-09T09:20:12Z</time>
      </trkpt>
      <trkpt lat="45.90613" lon="5.76164">
        <ele>1538.73</ele>
        <time>2012-04-09T09:20:14Z</time>
      </trkpt>
      <trkpt lat="45.90614" lon="5.76165">
        <ele>1538.25</ele>
        <time>2012-04-09T09:20:16Z</time>
      </trkpt>
      <trkpt lat="45.90616" lon="5.76166">
        <ele>1537.77</ele>
        <time>2012-04-09T09:20:18Z</time>
      </trkpt>
      <trkpt lat="45.90618" lon="5.76166">
        <ele>1537.77</ele>
        <time>2012-04-09T09:20:20Z</time>
      </trkpt>
      <trkpt lat="45.9062" lon="5.76166">
        <ele>1538.73</ele>
        <time>2012-04-09T09:20:22Z</time>
      </trkpt>
      <trkpt lat="45.90622" lon="5.76165">
        <ele>1538.25</ele>
        <time>2012-04-09T09:20:24Z</time>
      </trkpt>
      <trkpt lat="45.90622" lon="5.76165">
        <ele>1538.25</ele>
        <time>2012-04-09T09:20:26Z</time>
      </trkpt>
      <trkpt lat="45.90622" lon="5.76165">
        <ele>1538.25</ele>
        <time>2012-04-09T09:20:28Z</time>
      </trkpt>
      <trkpt lat="45.90622" lon="5.76165">
        <ele>1538.25</ele>
        <time>2012-04-09T09:20:30Z</time>
      </trkpt>
      <trkpt lat="45.90625" lon="5.76166">
        <ele>1537.77</ele>
        <time>2012-04-09T09:20:32Z</time>
      </trkpt>
      <trkpt lat="45.90627" lon="5.76166">
        <ele>1537.77</ele>
        <time>2012-04-09T09:20:34Z</time>
      </trkpt>
      <trkpt lat="45.9063" lon="5.76166">
        <ele>1538.25</ele>
        <time>2012-04-09T09:20:36Z</time>
      </trkpt>
      <trkpt lat="45.90632" lon="5.76165">
        <ele>1538.25</ele>
        <time>2012-04-09T09:20:38Z</time>
      </trkpt>
      <trkpt lat="45.90634" lon="5.76165">
        <ele>1538.73</ele>
        <time>2012-04-09T09:20:40Z</time>
      </trkpt>
      <trkpt lat="45.90636" lon="5.76164">
        <ele>1538.73</ele>
        <time>2012-04-09T09:20:42Z</time>
      </trkpt>
      <trkpt lat="45.90637" lon="5.76162">
        <ele>1538.73</ele>
        <time>2012-04-09T09:20:44Z</time>
      </trkpt>
      <trkpt lat="45.90638" lon="5.76159">
        <ele>1539.21</ele>
        <time>2012-04-09T09:20:46Z</time>
      </trkpt>
      <trkpt lat="45.90639" lon="5.76158">
        <ele>1539.69</ele>
        <time>2012-04-09T09:20:48Z</time>
      </trkpt>
      <trkpt lat="45.90639" lon="5.76157">
        <ele>1539.69</ele>
        <time>2012-04-09T09:20:50Z</time>
      </trkpt>
      <trkpt lat="45.90639" lon="5.76157">
        <ele>1540.17</ele>
        <time>2012-04-09T09:20:52Z</time>
      </trkpt>
      <trkpt lat="45.90639" lon="5.76157">
        <ele>1540.17</ele>
        <time>2012-04-09T09:20:54Z</time>
      </trkpt>
      <trkpt lat="45.90642" lon="5.76158">
        <ele>1539.69</ele>
        <time>2012-04-09T09:20:56Z</time>
      </trkpt>
      <trkpt lat="45.90644" lon="5.76159">
        <ele>1539.69</ele>
        <time>2012-04-09T09:20:58Z</time>
      </trkpt>
      <trkpt lat="45.90646" lon="5.7616">
        <ele>1539.69</ele>
        <time>2012-04-09T09:21:00Z</time>
      </trkpt>
      <trkpt lat="45.90649" lon="5.76161">
        <ele>1539.69</ele>
        <time>2012-04-09T09:21:02Z</time>
      </trkpt>
      <trkpt lat="45.90651" lon="5.76161">
        <ele>1539.69</ele>
        <time>2012-04-09T09:21:04Z</time>
      </trkpt>
      <trkpt lat="45.90654" lon="5.76162">
        <ele>1539.69</ele>
        <time>2012-04-09T09:21:06Z</time>
      </trkpt>
      <trkpt lat="45.90657" lon="5.76162">
        <ele>1539.69</ele>
        <time>2012-04-09T09:21:08Z</time>
      </trkpt>
      <trkpt lat="45.90659" lon="5.76161">
        <ele>1539.69</ele>
        <time>2012-04-09T09:21:10Z</time>
      </trkpt>
      <trkpt lat="45.90662" lon="5.76161">
        <ele>1539.69</ele>
        <time>2012-04-09T09:21:12Z</time>
      </trkpt>
      <trkpt lat="45.90664" lon="5.76162">
        <ele>1539.69</ele>
        <time>2012-04-09T09:21:14Z</time>
      </trkpt>
      <trkpt lat="45.90666" lon="5.76161">
        <ele>1539.69</ele>
        <time>2012-04-09T09:21:16Z</time>
      </trkpt>
      <trkpt lat="45.90669" lon="5.76161">
        <ele>1540.17</ele>
        <time>2012-04-09T09:21:18Z</time>
      </trkpt>
      <trkpt lat="45.90672" lon="5.76162">
        <ele>1539.69</ele>
        <time>2012-04-09T09:21:20Z</time>
      </trkpt>
      <trkpt lat="45.90674" lon="5.76163">
        <ele>1539.69</ele>
        <time>2012-04-09T09:21:22Z</time>
      </trkpt>
      <trkpt lat="45.90676" lon="5.76164">
        <ele>1539.21</ele>
        <time>2012-04-09T09:21:24Z</time>
      </trkpt>
      <trkpt lat="45.90678" lon="5.76165">
        <ele>1538.73</ele>
        <time>2012-04-09T09:21:26Z</time>
      </trkpt>
      <trkpt lat="45.9068" lon="5.76166">
        <ele>1540.17</ele>
        <time>2012-04-09T09:21:28Z</time>
      </trkpt>
      <trkpt lat="45.90682" lon="5.76167">
        <ele>1540.65</ele>
        <time>2012-04-09T09:21:30Z</time>
      </trkpt>
      <trkpt lat="45.90685" lon="5.76167">
        <ele>1539.21</ele>
        <time>2012-04-09T09:21:32Z</time>
      </trkpt>
      <trkpt lat="45.90687" lon="5.76168">
        <ele>1539.21</ele>
        <time>2012-04-09T09:21:34Z</time>
      </trkpt>
      <trkpt lat="45.90689" lon="5.7617">
        <ele>1536.32</ele>
        <time>2012-04-09T09:21:36Z</time>
      </trkpt>
      <trkpt lat="45.9069" lon="5.76173">
        <ele>1539.21</ele>
        <time>2012-04-09T09:21:38Z</time>
      </trkpt>
      <trkpt lat="45.90692" lon="5.76175">
        <ele>1537.77</ele>
        <time>2012-04-09T09:21:40Z</time>
      </trkpt>
      <trkpt lat="45.90694" lon="5.76177">
        <ele>1537.77</ele>
        <time>2012-04-09T09:21:42Z</time>
      </trkpt>
      <trkpt lat="45.90696" lon="5.76179">
        <ele>1536.8</ele>
        <time>2012-04-09T09:21:44Z</time>
      </trkpt>
      <trkpt lat="45.90699" lon="5.76182">
        <ele>1535.84</ele>
        <time>2012-04-09T09:21:46Z</time>
      </trkpt>
      <trkpt lat="45.90701" lon="5.76183">
        <ele>1535.36</ele>
        <time>2012-04-09T09:21:48Z</time>
      </trkpt>
      <trkpt lat="45.90704" lon="5.76185">
        <ele>1534.4</ele>
        <time>2012-04-09T09:21:50Z</time>
      </trkpt>
      <trkpt lat="45.90707" lon="5.76186">
        <ele>1533.92</ele>
        <time>2012-04-09T09:21:52Z</time>
      </trkpt>
      <trkpt lat="45.90709" lon="5.76187">
        <ele>1532.48</ele>
        <time>2012-04-09T09:21:54Z</time>
      </trkpt>
      <trkpt lat="45.90711" lon="5.76188">
        <ele>1532</ele>
        <time>2012-04-09T09:21:56Z</time>
      </trkpt>
      <trkpt lat="45.90714" lon="5.76189">
        <ele>1531.52</ele>
        <time>2012-04-09T09:21:58Z</time>
      </trkpt>
      <trkpt lat="45.90716" lon="5.7619">
        <ele>1531.04</ele>
        <time>2012-04-09T09:22:00Z</time>
      </trkpt>
      <trkpt lat="45.90719" lon="5.7619">
        <ele>1530.08</ele>
        <time>2012-04-09T09:22:02Z</time>
      </trkpt>
      <trkpt lat="45.90723" lon="5.7619">
        <ele>1529.11</ele>
        <time>2012-04-09T09:22:04Z</time>
      </trkpt>
      <trkpt lat="45.90726" lon="5.76191">
        <ele>1528.15</ele>
        <time>2012-04-09T09:22:06Z</time>
      </trkpt>
      <trkpt lat="45.90729" lon="5.76191">
        <ele>1527.67</ele>
        <time>2012-04-09T09:22:08Z</time>
      </trkpt>
      <trkpt lat="45.90734" lon="5.7619">
        <ele>1526.71</ele>
        <time>2012-04-09T09:22:10Z</time>
      </trkpt>
      <trkpt lat="45.90738" lon="5.7619">
        <ele>1525.75</ele>
        <time>2012-04-09T09:22:12Z</time>
      </trkpt>
      <trkpt lat="45.90743" lon="5.76191">
        <ele>1524.31</ele>
        <time>2012-04-09T09:22:14Z</time>
      </trkpt>
      <trkpt lat="45.90748" lon="5.76191">
        <ele>1522.87</ele>
        <time>2012-04-09T09:22:16Z</time>
      </trkpt>
      <trkpt lat="45.90753" lon="5.76192">
        <ele>1520.94</ele>
        <time>2012-04-09T09:22:18Z</time>
      </trkpt>
      <trkpt lat="45.90755" lon="5.76192">
        <ele>1520.46</ele>
        <time>2012-04-09T09:22:20Z</time>
      </trkpt>
      <trkpt lat="45.90758" lon="5.76192">
        <ele>1519.98</ele>
        <time>2012-04-09T09:22:22Z</time>
      </trkpt>
      <trkpt lat="45.9076" lon="5.76192">
        <ele>1519.5</ele>
        <time>2012-04-09T09:22:24Z</time>
      </trkpt>
      <trkpt lat="45.90762" lon="5.76191">
        <ele>1518.54</ele>
        <time>2012-04-09T09:22:26Z</time>
      </trkpt>
      <trkpt lat="45.90765" lon="5.76191">
        <ele>1518.06</ele>
        <time>2012-04-09T09:22:28Z</time>
      </trkpt>
      <trkpt lat="45.90767" lon="5.76191">
        <ele>1517.1</ele>
        <time>2012-04-09T09:22:30Z</time>
      </trkpt>
      <trkpt lat="45.90768" lon="5.76193">
        <ele>1517.1</ele>
        <time>2012-04-09T09:22:32Z</time>
      </trkpt>
      <trkpt lat="45.90768" lon="5.76193">
        <ele>1516.62</ele>
        <time>2012-04-09T09:22:34Z</time>
      </trkpt>
      <trkpt lat="45.9077" lon="5.76192">
        <ele>1515.18</ele>
        <time>2012-04-09T09:22:36Z</time>
      </trkpt>
      <trkpt lat="45.90773" lon="5.76192">
        <ele>1515.18</ele>
        <time>2012-04-09T09:22:38Z</time>
      </trkpt>
      <trkpt lat="45.90777" lon="5.76192">
        <ele>1513.73</ele>
        <time>2012-04-09T09:22:40Z</time>
      </trkpt>
      <trkpt lat="45.9078" lon="5.76192">
        <ele>1513.25</ele>
        <time>2012-04-09T09:22:42Z</time>
      </trkpt>
      <trkpt lat="45.90783" lon="5.76193">
        <ele>1512.77</ele>
        <time>2012-04-09T09:22:44Z</time>
      </trkpt>
      <trkpt lat="45.90785" lon="5.76193">
        <ele>1511.81</ele>
        <time>2012-04-09T09:22:46Z</time>
      </trkpt>
      <trkpt lat="45.90788" lon="5.76192">
        <ele>1511.33</ele>
        <time>2012-04-09T09:22:48Z</time>
      </trkpt>
      <trkpt lat="45.90791" lon="5.76192">
        <ele>1510.37</ele>
        <time>2012-04-09T09:22:50Z</time>
      </trkpt>
      <trkpt lat="45.90794" lon="5.76193">
        <ele>1510.37</ele>
        <time>2012-04-09T09:22:52Z</time>
      </trkpt>
      <trkpt lat="45.90796" lon="5.76194">
        <ele>1509.89</ele>
        <time>2012-04-09T09:22:54Z</time>
      </trkpt>
      <trkpt lat="45.908" lon="5.76196">
        <ele>1508.45</ele>
        <time>2012-04-09T09:22:56Z</time>
      </trkpt>
      <trkpt lat="45.90803" lon="5.76196">
        <ele>1507.48</ele>
        <time>2012-04-09T09:22:58Z</time>
      </trkpt>
      <trkpt lat="45.90805" lon="5.76198">
        <ele>1506.52</ele>
        <time>2012-04-09T09:23:00Z</time>
      </trkpt>
      <trkpt lat="45.90808" lon="5.76201">
        <ele>1505.56</ele>
        <time>2012-04-09T09:23:02Z</time>
      </trkpt>
      <trkpt lat="45.90809" lon="5.76206">
        <ele>1504.6</ele>
        <time>2012-04-09T09:23:04Z</time>
      </trkpt>
      <trkpt lat="45.90808" lon="5.76213">
        <ele>1504.6</ele>
        <time>2012-04-09T09:23:06Z</time>
      </trkpt>
      <trkpt lat="45.90806" lon="5.76219">
        <ele>1504.12</ele>
        <time>2012-04-09T09:23:08Z</time>
      </trkpt>
      <trkpt lat="45.90804" lon="5.76225">
        <ele>1503.64</ele>
        <time>2012-04-09T09:23:10Z</time>
      </trkpt>
      <trkpt lat="45.90803" lon="5.76231">
        <ele>1503.16</ele>
        <time>2012-04-09T09:23:12Z</time>
      </trkpt>
      <trkpt lat="45.90801" lon="5.76237">
        <ele>1502.2</ele>
        <time>2012-04-09T09:23:14Z</time>
      </trkpt>
      <trkpt lat="45.908" lon="5.76242">
        <ele>1501.24</ele>
        <time>2012-04-09T09:23:16Z</time>
      </trkpt>
      <trkpt lat="45.908" lon="5.76247">
        <ele>1499.79</ele>
        <time>2012-04-09T09:23:18Z</time>
      </trkpt>
      <trkpt lat="45.90802" lon="5.76249">
        <ele>1499.31</ele>
        <time>2012-04-09T09:23:20Z</time>
      </trkpt>
      <trkpt lat="45.90804" lon="5.76252">
        <ele>1498.35</ele>
        <time>2012-04-09T09:23:22Z</time>
      </trkpt>
      <trkpt lat="45.90806" lon="5.76253">
        <ele>1497.39</ele>
        <time>2012-04-09T09:23:24Z</time>
      </trkpt>
      <trkpt lat="45.90808" lon="5.76254">
        <ele>1496.91</ele>
        <time>2012-04-09T09:23:26Z</time>
      </trkpt>
      <trkpt lat="45.9081" lon="5.76256">
        <ele>1495.95</ele>
        <time>2012-04-09T09:23:28Z</time>
      </trkpt>
      <trkpt lat="45.90813" lon="5.76258">
        <ele>1494.99</ele>
        <time>2012-04-09T09:23:30Z</time>
      </trkpt>
      <trkpt lat="45.90816" lon="5.76261">
        <ele>1493.55</ele>
        <time>2012-04-09T09:23:32Z</time>
      </trkpt>
      <trkpt lat="45.90821" lon="5.76264">
        <ele>1493.06</ele>
        <time>2012-04-09T09:23:34Z</time>
      </trkpt>
      <trkpt lat="45.90826" lon="5.76265">
        <ele>1493.06</ele>
        <time>2012-04-09T09:23:36Z</time>
      </trkpt>
      <trkpt lat="45.90831" lon="5.76268">
        <ele>1493.06</ele>
        <time>2012-04-09T09:23:38Z</time>
      </trkpt>
      <trkpt lat="45.90835" lon="5.76268">
        <ele>1493.55</ele>
        <time>2012-04-09T09:23:40Z</time>
      </trkpt>
      <trkpt lat="45.9084" lon="5.76268">
        <ele>1494.03</ele>
        <time>2012-04-09T09:23:42Z</time>
      </trkpt>
      <trkpt lat="45.90845" lon="5.76268">
        <ele>1494.03</ele>
        <time>2012-04-09T09:23:44Z</time>
      </trkpt>
      <trkpt lat="45.90849" lon="5.76269">
        <ele>1494.03</ele>
        <time>2012-04-09T09:23:46Z</time>
      </trkpt>
      <trkpt lat="45.90853" lon="5.7627">
        <ele>1494.03</ele>
        <time>2012-04-09T09:23:48Z</time>
      </trkpt>
      <trkpt lat="45.90857" lon="5.7627">
        <ele>1494.03</ele>
        <time>2012-04-09T09:23:50Z</time>
      </trkpt>
      <trkpt lat="45.9086" lon="5.7627">
        <ele>1494.51</ele>
        <time>2012-04-09T09:23:52Z</time>
      </trkpt>
      <trkpt lat="45.90864" lon="5.76271">
        <ele>1495.47</ele>
        <time>2012-04-09T09:23:54Z</time>
      </trkpt>
      <trkpt lat="45.90868" lon="5.76272">
        <ele>1495.47</ele>
        <time>2012-04-09T09:23:56Z</time>
      </trkpt>
      <trkpt lat="45.90872" lon="5.76273">
        <ele>1496.43</ele>
        <time>2012-04-09T09:23:58Z</time>
      </trkpt>
      <trkpt lat="45.90875" lon="5.76273">
        <ele>1496.43</ele>
        <time>2012-04-09T09:24:00Z</time>
      </trkpt>
      <trkpt lat="45.90879" lon="5.76275">
        <ele>1496.43</ele>
        <time>2012-04-09T09:24:02Z</time>
      </trkpt>
      <trkpt lat="45.90883" lon="5.76276">
        <ele>1497.39</ele>
        <time>2012-04-09T09:24:04Z</time>
      </trkpt>
      <trkpt lat="45.90887" lon="5.76277">
        <ele>1497.39</ele>
        <time>2012-04-09T09:24:06Z</time>
      </trkpt>
      <trkpt lat="45.90892" lon="5.76277">
        <ele>1498.35</ele>
        <time>2012-04-09T09:24:08Z</time>
      </trkpt>
      <trkpt lat="45.90895" lon="5.76278">
        <ele>1498.35</ele>
        <time>2012-04-09T09:24:10Z</time>
      </trkpt>
      <trkpt lat="45.90899" lon="5.7628">
        <ele>1499.79</ele>
        <time>2012-04-09T09:24:12Z</time>
      </trkpt>
      <trkpt lat="45.90902" lon="5.76281">
        <ele>1499.79</ele>
        <time>2012-04-09T09:24:14Z</time>
      </trkpt>
      <trkpt lat="45.90906" lon="5.76281">
        <ele>1500.27</ele>
        <time>2012-04-09T09:24:16Z</time>
      </trkpt>
      <trkpt lat="45.9091" lon="5.76282">
        <ele>1500.76</ele>
        <time>2012-04-09T09:24:18Z</time>
      </trkpt>
      <trkpt lat="45.90913" lon="5.76283">
        <ele>1501.24</ele>
        <time>2012-04-09T09:24:20Z</time>
      </trkpt>
      <trkpt lat="45.90916" lon="5.76284">
        <ele>1501.24</ele>
        <time>2012-04-09T09:24:22Z</time>
      </trkpt>
      <trkpt lat="45.90918" lon="5.76285">
        <ele>1502.2</ele>
        <time>2012-04-09T09:24:24Z</time>
      </trkpt>
      <trkpt lat="45.90921" lon="5.76285">
        <ele>1502.68</ele>
        <time>2012-04-09T09:24:26Z</time>
      </trkpt>
      <trkpt lat="45.90923" lon="5.76286">
        <ele>1502.68</ele>
        <time>2012-04-09T09:24:28Z</time>
      </trkpt>
      <trkpt lat="45.90926" lon="5.76286">
        <ele>1503.64</ele>
        <time>2012-04-09T09:24:30Z</time>
      </trkpt>
      <trkpt lat="45.90928" lon="5.76287">
        <ele>1503.64</ele>
        <time>2012-04-09T09:24:32Z</time>
      </trkpt>
      <trkpt lat="45.9093" lon="5.76289">
        <ele>1504.6</ele>
        <time>2012-04-09T09:24:34Z</time>
      </trkpt>
      <trkpt lat="45.90932" lon="5.7629">
        <ele>1504.6</ele>
        <time>2012-04-09T09:24:36Z</time>
      </trkpt>
      <trkpt lat="45.90935" lon="5.76291">
        <ele>1505.08</ele>
        <time>2012-04-09T09:24:38Z</time>
      </trkpt>
      <trkpt lat="45.90937" lon="5.7629">
        <ele>1505.56</ele>
        <time>2012-04-09T09:24:40Z</time>
      </trkpt>
      <trkpt lat="45.90939" lon="5.76291">
        <ele>1506.52</ele>
        <time>2012-04-09T09:24:42Z</time>
      </trkpt>
      <trkpt lat="45.90942" lon="5.76292">
        <ele>1507</ele>
        <time>2012-04-09T09:24:44Z</time>
      </trkpt>
      <trkpt lat="45.90944" lon="5.76292">
        <ele>1507.97</ele>
        <time>2012-04-09T09:24:46Z</time>
      </trkpt>
      <trkpt lat="45.90947" lon="5.76294">
        <ele>1508.45</ele>
        <time>2012-04-09T09:24:48Z</time>
      </trkpt>
      <trkpt lat="45.90949" lon="5.76295">
        <ele>1508.45</ele>
        <time>2012-04-09T09:24:50Z</time>
      </trkpt>
      <trkpt lat="45.90951" lon="5.76296">
        <ele>1509.89</ele>
        <time>2012-04-09T09:24:52Z</time>
      </trkpt>
      <trkpt lat="45.90954" lon="5.76297">
        <ele>1509.89</ele>
        <time>2012-04-09T09:24:54Z</time>
      </trkpt>
      <trkpt lat="45.90957" lon="5.76298">
        <ele>1510.37</ele>
        <time>2012-04-09T09:24:56Z</time>
      </trkpt>
      <trkpt lat="45.9096" lon="5.76301">
        <ele>1511.33</ele>
        <time>2012-04-09T09:24:58Z</time>
      </trkpt>
      <trkpt lat="45.90963" lon="5.76305">
        <ele>1511.81</ele>
        <time>2012-04-09T09:25:00Z</time>
      </trkpt>
      <trkpt lat="45.90966" lon="5.76308">
        <ele>1512.29</ele>
        <time>2012-04-09T09:25:02Z</time>
      </trkpt>
      <trkpt lat="45.90969" lon="5.76311">
        <ele>1512.77</ele>
        <time>2012-04-09T09:25:04Z</time>
      </trkpt>
      <trkpt lat="45.90972" lon="5.76314">
        <ele>1512.77</ele>
        <time>2012-04-09T09:25:06Z</time>
      </trkpt>
      <trkpt lat="45.90975" lon="5.76317">
        <ele>1513.25</ele>
        <time>2012-04-09T09:25:08Z</time>
      </trkpt>
      <trkpt lat="45.90978" lon="5.7632">
        <ele>1513.25</ele>
        <time>2012-04-09T09:25:10Z</time>
      </trkpt>
      <trkpt lat="45.9098" lon="5.76324">
        <ele>1512.77</ele>
        <time>2012-04-09T09:25:12Z</time>
      </trkpt>
      <trkpt lat="45.90983" lon="5.76328">
        <ele>1512.29</ele>
        <time>2012-04-09T09:25:14Z</time>
      </trkpt>
      <trkpt lat="45.90985" lon="5.76332">
        <ele>1511.33</ele>
        <time>2012-04-09T09:25:16Z</time>
      </trkpt>
      <trkpt lat="45.90986" lon="5.76336">
        <ele>1510.85</ele>
        <time>2012-04-09T09:25:18Z</time>
      </trkpt>
      <trkpt lat="45.90988" lon="5.7634">
        <ele>1510.37</ele>
        <time>2012-04-09T09:25:20Z</time>
      </trkpt>
      <trkpt lat="45.90989" lon="5.76346">
        <ele>1508.93</ele>
        <time>2012-04-09T09:25:22Z</time>
      </trkpt>
      <trkpt lat="45.90991" lon="5.76351">
        <ele>1507.97</ele>
        <time>2012-04-09T09:25:24Z</time>
      </trkpt>
      <trkpt lat="45.90996" lon="5.76353">
        <ele>1506.52</ele>
        <time>2012-04-09T09:25:26Z</time>
      </trkpt>
      <trkpt lat="45.91001" lon="5.76356">
        <ele>1506.52</ele>
        <time>2012-04-09T09:25:28Z</time>
      </trkpt>
      <trkpt lat="45.91004" lon="5.76361">
        <ele>1506.52</ele>
        <time>2012-04-09T09:25:30Z</time>
      </trkpt>
      <trkpt lat="45.91008" lon="5.76366">
        <ele>1506.04</ele>
        <time>2012-04-09T09:25:32Z</time>
      </trkpt>
      <trkpt lat="45.91012" lon="5.7637">
        <ele>1506.04</ele>
        <time>2012-04-09T09:25:34Z</time>
      </trkpt>
      <trkpt lat="45.91015" lon="5.76375">
        <ele>1506.04</ele>
        <time>2012-04-09T09:25:36Z</time>
      </trkpt>
      <trkpt lat="45.91019" lon="5.76381">
        <ele>1506.04</ele>
        <time>2012-04-09T09:25:38Z</time>
      </trkpt>
      <trkpt lat="45.91024" lon="5.76386">
        <ele>1505.56</ele>
        <time>2012-04-09T09:25:40Z</time>
      </trkpt>
      <trkpt lat="45.91028" lon="5.76391">
        <ele>1506.04</ele>
        <time>2012-04-09T09:25:42Z</time>
      </trkpt>
      <trkpt lat="45.91033" lon="5.76395">
        <ele>1506.04</ele>
        <time>2012-04-09T09:25:44Z</time>
      </trkpt>
      <trkpt lat="45.91037" lon="5.76398">
        <ele>1507</ele>
        <time>2012-04-09T09:25:46Z</time>
      </trkpt>
      <trkpt lat="45.91041" lon="5.76401">
        <ele>1507.48</ele>
        <time>2012-04-09T09:25:48Z</time>
      </trkpt>
      <trkpt lat="45.91045" lon="5.76403">
        <ele>1508.45</ele>
        <time>2012-04-09T09:25:50Z</time>
      </trkpt>
      <trkpt lat="45.91049" lon="5.76406">
        <ele>1508.93</ele>
        <time>2012-04-09T09:25:52Z</time>
      </trkpt>
      <trkpt lat="45.91052" lon="5.7641">
        <ele>1509.41</ele>
        <time>2012-04-09T09:25:54Z</time>
      </trkpt>
      <trkpt lat="45.91057" lon="5.76411">
        <ele>1509.89</ele>
        <time>2012-04-09T09:25:56Z</time>
      </trkpt>
      <trkpt lat="45.91061" lon="5.76412">
        <ele>1509.89</ele>
        <time>2012-04-09T09:25:58Z</time>
      </trkpt>
      <trkpt lat="45.91066" lon="5.76412">
        <ele>1510.37</ele>
        <time>2012-04-09T09:26:00Z</time>
      </trkpt>
      <trkpt lat="45.91069" lon="5.7641">
        <ele>1511.33</ele>
        <time>2012-04-09T09:26:02Z</time>
      </trkpt>
      <trkpt lat="45.91072" lon="5.76407">
        <ele>1511.33</ele>
        <time>2012-04-09T09:26:04Z</time>
      </trkpt>
      <trkpt lat="45.91075" lon="5.76403">
        <ele>1511.81</ele>
        <time>2012-04-09T09:26:06Z</time>
      </trkpt>
      <trkpt lat="45.91077" lon="5.76399">
        <ele>1512.77</ele>
        <time>2012-04-09T09:26:08Z</time>
      </trkpt>
      <trkpt lat="45.9108" lon="5.76394">
        <ele>1513.25</ele>
        <time>2012-04-09T09:26:10Z</time>
      </trkpt>
      <trkpt lat="45.91082" lon="5.76389">
        <ele>1512.77</ele>
        <time>2012-04-09T09:26:12Z</time>
      </trkpt>
      <trkpt lat="45.91084" lon="5.76385">
        <ele>1512.77</ele>
        <time>2012-04-09T09:26:14Z</time>
      </trkpt>
      <trkpt lat="45.91086" lon="5.76381">
        <ele>1513.73</ele>
        <time>2012-04-09T09:26:16Z</time>
      </trkpt>
      <trkpt lat="45.91089" lon="5.76377">
        <ele>1513.25</ele>
        <time>2012-04-09T09:26:18Z</time>
      </trkpt>
      <trkpt lat="45.91091" lon="5.76373">
        <ele>1512.77</ele>
        <time>2012-04-09T09:26:20Z</time>
      </trkpt>
      <trkpt lat="45.91093" lon="5.76367">
        <ele>1512.29</ele>
        <time>2012-04-09T09:26:22Z</time>
      </trkpt>
      <trkpt lat="45.91094" lon="5.76364">
        <ele>1511.81</ele>
        <time>2012-04-09T09:26:24Z</time>
      </trkpt>
      <trkpt lat="45.91094" lon="5.76363">
        <ele>1511.81</ele>
        <time>2012-04-09T09:26:26Z</time>
      </trkpt>
      <trkpt lat="45.91094" lon="5.76363">
        <ele>1511.33</ele>
        <time>2012-04-09T09:26:28Z</time>
      </trkpt>
      <trkpt lat="45.91094" lon="5.76363">
        <ele>1511.33</ele>
        <time>2012-04-09T09:26:30Z</time>
      </trkpt>
      <trkpt lat="45.91094" lon="5.76363">
        <ele>1511.81</ele>
        <time>2012-04-09T09:26:32Z</time>
      </trkpt>
      <trkpt lat="45.91096" lon="5.76361">
        <ele>1511.33</ele>
        <time>2012-04-09T09:26:34Z</time>
      </trkpt>
      <trkpt lat="45.91097" lon="5.76358">
        <ele>1509.89</ele>
        <time>2012-04-09T09:26:36Z</time>
      </trkpt>
      <trkpt lat="45.911" lon="5.76358">
        <ele>1509.41</ele>
        <time>2012-04-09T09:26:38Z</time>
      </trkpt>
      <trkpt lat="45.91102" lon="5.76356">
        <ele>1508.93</ele>
        <time>2012-04-09T09:26:40Z</time>
      </trkpt>
      <trkpt lat="45.91105" lon="5.76356">
        <ele>1507.97</ele>
        <time>2012-04-09T09:26:42Z</time>
      </trkpt>
      <trkpt lat="45.91107" lon="5.76356">
        <ele>1506.52</ele>
        <time>2012-04-09T09:26:44Z</time>
      </trkpt>
      <trkpt lat="45.91109" lon="5.76356">
        <ele>1506.04</ele>
        <time>2012-04-09T09:26:46Z</time>
      </trkpt>
      <trkpt lat="45.91111" lon="5.76354">
        <ele>1504.6</ele>
        <time>2012-04-09T09:26:48Z</time>
      </trkpt>
      <trkpt lat="45.91113" lon="5.76353">
        <ele>1503.64</ele>
        <time>2012-04-09T09:26:50Z</time>
      </trkpt>
      <trkpt lat="45.91115" lon="5.76354">
        <ele>1502.68</ele>
        <time>2012-04-09T09:26:52Z</time>
      </trkpt>
      <trkpt lat="45.91117" lon="5.76353">
        <ele>1502.2</ele>
        <time>2012-04-09T09:26:54Z</time>
      </trkpt>
      <trkpt lat="45.91118" lon="5.76353">
        <ele>1501.24</ele>
        <time>2012-04-09T09:26:56Z</time>
      </trkpt>
      <trkpt lat="45.9112" lon="5.76352">
        <ele>1500.27</ele>
        <time>2012-04-09T09:26:58Z</time>
      </trkpt>
      <trkpt lat="45.91121" lon="5.7635">
        <ele>1499.31</ele>
        <time>2012-04-09T09:27:00Z</time>
      </trkpt>
      <trkpt lat="45.91122" lon="5.76348">
        <ele>1498.35</ele>
        <time>2012-04-09T09:27:02Z</time>
      </trkpt>
      <trkpt lat="45.91122" lon="5.76346">
        <ele>1497.39</ele>
        <time>2012-04-09T09:27:04Z</time>
      </trkpt>
      <trkpt lat="45.91122" lon="5.76346">
        <ele>1497.39</ele>
        <time>2012-04-09T09:27:06Z</time>
      </trkpt>
      <trkpt lat="45.91122" lon="5.76344">
        <ele>1496.91</ele>
        <time>2012-04-09T09:27:08Z</time>
      </trkpt>
      <trkpt lat="45.91123" lon="5.76342">
        <ele>1496.43</ele>
        <time>2012-04-09T09:27:10Z</time>
      </trkpt>
      <trkpt lat="45.91125" lon="5.76341">
        <ele>1495.47</ele>
        <time>2012-04-09T09:27:12Z</time>
      </trkpt>
      <trkpt lat="45.91126" lon="5.7634">
        <ele>1494.51</ele>
        <time>2012-04-09T09:27:14Z</time>
      </trkpt>
      <trkpt lat="45.91128" lon="5.7634">
        <ele>1493.06</ele>
        <time>2012-04-09T09:27:16Z</time>
      </trkpt>
      <trkpt lat="45.91128" lon="5.76339">
        <ele>1493.06</ele>
        <time>2012-04-09T09:27:18Z</time>
      </trkpt>
      <trkpt lat="45.91129" lon="5.76338">
        <ele>1492.58</ele>
        <time>2012-04-09T09:27:20Z</time>
      </trkpt>
      <trkpt lat="45.91129" lon="5.76339">
        <ele>1491.62</ele>
        <time>2012-04-09T09:27:22Z</time>
      </trkpt>
      <trkpt lat="45.9113" lon="5.76337">
        <ele>1491.62</ele>
        <time>2012-04-09T09:27:24Z</time>
      </trkpt>
      <trkpt lat="45.91131" lon="5.76336">
        <ele>1490.66</ele>
        <time>2012-04-09T09:27:26Z</time>
      </trkpt>
      <trkpt lat="45.91132" lon="5.76337">
        <ele>1490.18</ele>
        <time>2012-04-09T09:27:28Z</time>
      </trkpt>
      <trkpt lat="45.91133" lon="5.76338">
        <ele>1489.7</ele>
        <time>2012-04-09T09:27:30Z</time>
      </trkpt>
      <trkpt lat="45.91134" lon="5.76338">
        <ele>1489.7</ele>
        <time>2012-04-09T09:27:32Z</time>
      </trkpt>
      <trkpt lat="45.91135" lon="5.76338">
        <ele>1489.22</ele>
        <time>2012-04-09T09:27:34Z</time>
      </trkpt>
      <trkpt lat="45.91135" lon="5.76338">
        <ele>1488.74</ele>
        <time>2012-04-09T09:27:36Z</time>
      </trkpt>
      <trkpt lat="45.91135" lon="5.76337">
        <ele>1487.78</ele>
        <time>2012-04-09T09:27:38Z</time>
      </trkpt>
      <trkpt lat="45.91135" lon="5.76337">
        <ele>1488.26</ele>
        <time>2012-04-09T09:27:40Z</time>
      </trkpt>
      <trkpt lat="45.91135" lon="5.76337">
        <ele>1487.78</ele>
        <time>2012-04-09T09:27:42Z</time>
      </trkpt>
      <trkpt lat="45.91136" lon="5.76337">
        <ele>1487.3</ele>
        <time>2012-04-09T09:27:44Z</time>
      </trkpt>
      <trkpt lat="45.91137" lon="5.76338">
        <ele>1486.82</ele>
        <time>2012-04-09T09:27:46Z</time>
      </trkpt>
      <trkpt lat="45.91139" lon="5.76339">
        <ele>1486.34</ele>
        <time>2012-04-09T09:27:48Z</time>
      </trkpt>
      <trkpt lat="45.91141" lon="5.76341">
        <ele>1485.37</ele>
        <time>2012-04-09T09:27:50Z</time>
      </trkpt>
      <trkpt lat="45.91143" lon="5.76342">
        <ele>1485.37</ele>
        <time>2012-04-09T09:27:52Z</time>
      </trkpt>
      <trkpt lat="45.91144" lon="5.76342">
        <ele>1484.41</ele>
        <time>2012-04-09T09:27:54Z</time>
      </trkpt>
      <trkpt lat="45.91145" lon="5.76344">
        <ele>1483.93</ele>
        <time>2012-04-09T09:27:56Z</time>
      </trkpt>
      <trkpt lat="45.91146" lon="5.76345">
        <ele>1483.45</ele>
        <time>2012-04-09T09:27:58Z</time>
      </trkpt>
      <trkpt lat="45.91148" lon="5.76347">
        <ele>1482.49</ele>
        <time>2012-04-09T09:28:00Z</time>
      </trkpt>
      <trkpt lat="45.91151" lon="5.76348">
        <ele>1481.53</ele>
        <time>2012-04-09T09:28:02Z</time>
      </trkpt>
      <trkpt lat="45.91154" lon="5.76348">
        <ele>1481.53</ele>
        <time>2012-04-09T09:28:04Z</time>
      </trkpt>
      <trkpt lat="45.91156" lon="5.76348">
        <ele>1480.57</ele>
        <time>2012-04-09T09:28:06Z</time>
      </trkpt>
      <trkpt lat="45.91158" lon="5.76348">
        <ele>1480.09</ele>
        <time>2012-04-09T09:28:08Z</time>
      </trkpt>
      <trkpt lat="45.91158" lon="5.76347">
        <ele>1479.61</ele>
        <time>2012-04-09T09:28:10Z</time>
      </trkpt>
      <trkpt lat="45.91159" lon="5.76347">
        <ele>1479.13</ele>
        <time>2012-04-09T09:28:12Z</time>
      </trkpt>
      <trkpt lat="45.9116" lon="5.76348">
        <ele>1478.16</ele>
        <time>2012-04-09T09:28:14Z</time>
      </trkpt>
      <trkpt lat="45.91161" lon="5.76349">
        <ele>1477.68</ele>
        <time>2012-04-09T09:28:16Z</time>
      </trkpt>
      <trkpt lat="45.91161" lon="5.76349">
        <ele>1477.68</ele>
        <time>2012-04-09T09:28:18Z</time>
      </trkpt>
      <trkpt lat="45.91161" lon="5.76349">
        <ele>1477.68</ele>
        <time>2012-04-09T09:28:20Z</time>
      </trkpt>
      <trkpt lat="45.91164" lon="5.7635">
        <ele>1477.2</ele>
        <time>2012-04-09T09:28:22Z</time>
      </trkpt>
      <trkpt lat="45.91166" lon="5.76349">
        <ele>1476.24</ele>
        <time>2012-04-09T09:28:24Z</time>
      </trkpt>
      <trkpt lat="45.91168" lon="5.76349">
        <ele>1476.24</ele>
        <time>2012-04-09T09:28:26Z</time>
      </trkpt>
      <trkpt lat="45.9117" lon="5.76349">
        <ele>1475.76</ele>
        <time>2012-04-09T09:28:28Z</time>
      </trkpt>
      <trkpt lat="45.91171" lon="5.7635">
        <ele>1475.28</ele>
        <time>2012-04-09T09:28:30Z</time>
      </trkpt>
      <trkpt lat="45.91173" lon="5.76351">
        <ele>1474.8</ele>
        <time>2012-04-09T09:28:32Z</time>
      </trkpt>
      <trkpt lat="45.91175" lon="5.76352">
        <ele>1474.32</ele>
        <time>2012-04-09T09:28:34Z</time>
      </trkpt>
      <trkpt lat="45.91179" lon="5.76353">
        <ele>1473.84</ele>
        <time>2012-04-09T09:28:36Z</time>
      </trkpt>
      <trkpt lat="45.91182" lon="5.76352">
        <ele>1472.88</ele>
        <time>2012-04-09T09:28:38Z</time>
      </trkpt>
      <trkpt lat="45.91185" lon="5.76353">
        <ele>1472.88</ele>
        <time>2012-04-09T09:28:40Z</time>
      </trkpt>
      <trkpt lat="45.91188" lon="5.76354">
        <ele>1471.44</ele>
        <time>2012-04-09T09:28:42Z</time>
      </trkpt>
      <trkpt lat="45.91189" lon="5.76355">
        <ele>1470.95</ele>
        <time>2012-04-09T09:28:44Z</time>
      </trkpt>
      <trkpt lat="45.91191" lon="5.76356">
        <ele>1469.99</ele>
        <time>2012-04-09T09:28:46Z</time>
      </trkpt>
      <trkpt lat="45.91192" lon="5.76357">
        <ele>1469.51</ele>
        <time>2012-04-09T09:28:48Z</time>
      </trkpt>
      <trkpt lat="45.91193" lon="5.76356">
        <ele>1469.03</ele>
        <time>2012-04-09T09:28:50Z</time>
      </trkpt>
      <trkpt lat="45.91195" lon="5.76356">
        <ele>1468.07</ele>
        <time>2012-04-09T09:28:52Z</time>
      </trkpt>
      <trkpt lat="45.91197" lon="5.76357">
        <ele>1467.59</ele>
        <time>2012-04-09T09:28:54Z</time>
      </trkpt>
      <trkpt lat="45.91199" lon="5.76359">
        <ele>1466.15</ele>
        <time>2012-04-09T09:28:56Z</time>
      </trkpt>
      <trkpt lat="45.91201" lon="5.76359">
        <ele>1466.15</ele>
        <time>2012-04-09T09:28:58Z</time>
      </trkpt>
      <trkpt lat="45.91202" lon="5.7636">
        <ele>1465.19</ele>
        <time>2012-04-09T09:29:00Z</time>
      </trkpt>
      <trkpt lat="45.91204" lon="5.76361">
        <ele>1464.23</ele>
        <time>2012-04-09T09:29:02Z</time>
      </trkpt>
      <trkpt lat="45.91207" lon="5.76362">
        <ele>1463.26</ele>
        <time>2012-04-09T09:29:04Z</time>
      </trkpt>
      <trkpt lat="45.91209" lon="5.76362">
        <ele>1462.3</ele>
        <time>2012-04-09T09:29:06Z</time>
      </trkpt>
      <trkpt lat="45.91213" lon="5.76362">
        <ele>1460.86</ele>
        <time>2012-04-09T09:29:08Z</time>
      </trkpt>
      <trkpt lat="45.91216" lon="5.76362">
        <ele>1460.38</ele>
        <time>2012-04-09T09:29:10Z</time>
      </trkpt>
      <trkpt lat="45.91219" lon="5.76364">
        <ele>1459.42</ele>
        <time>2012-04-09T09:29:12Z</time>
      </trkpt>
      <trkpt lat="45.91221" lon="5.76367">
        <ele>1458.46</ele>
        <time>2012-04-09T09:29:14Z</time>
      </trkpt>
      <trkpt lat="45.91224" lon="5.76369">
        <ele>1457.5</ele>
        <time>2012-04-09T09:29:16Z</time>
      </trkpt>
      <trkpt lat="45.91227" lon="5.76369">
        <ele>1457.02</ele>
        <time>2012-04-09T09:29:18Z</time>
      </trkpt>
      <trkpt lat="45.91228" lon="5.76368">
        <ele>1456.53</ele>
        <time>2012-04-09T09:29:20Z</time>
      </trkpt>
      <trkpt lat="45.9123" lon="5.76369">
        <ele>1455.57</ele>
        <time>2012-04-09T09:29:22Z</time>
      </trkpt>
      <trkpt lat="45.91232" lon="5.7637">
        <ele>1455.09</ele>
        <time>2012-04-09T09:29:24Z</time>
      </trkpt>
      <trkpt lat="45.91233" lon="5.76369">
        <ele>1454.13</ele>
        <time>2012-04-09T09:29:26Z</time>
      </trkpt>
      <trkpt lat="45.91235" lon="5.7637">
        <ele>1453.17</ele>
        <time>2012-04-09T09:29:28Z</time>
      </trkpt>
      <trkpt lat="45.91237" lon="5.76372">
        <ele>1451.73</ele>
        <time>2012-04-09T09:29:30Z</time>
      </trkpt>
      <trkpt lat="45.91239" lon="5.76373">
        <ele>1450.77</ele>
        <time>2012-04-09T09:29:32Z</time>
      </trkpt>
      <trkpt lat="45.91242" lon="5.76374">
        <ele>1450.29</ele>
        <time>2012-04-09T09:29:34Z</time>
      </trkpt>
      <trkpt lat="45.91245" lon="5.76376">
        <ele>1449.32</ele>
        <time>2012-04-09T09:29:36Z</time>
      </trkpt>
      <trkpt lat="45.91248" lon="5.76377">
        <ele>1448.36</ele>
        <time>2012-04-09T09:29:38Z</time>
      </trkpt>
      <trkpt lat="45.91251" lon="5.76377">
        <ele>1447.4</ele>
        <time>2012-04-09T09:29:40Z</time>
      </trkpt>
      <trkpt lat="45.91252" lon="5.76378">
        <ele>1446.92</ele>
        <time>2012-04-09T09:29:42Z</time>
      </trkpt>
      <trkpt lat="45.91252" lon="5.76378">
        <ele>1446.44</ele>
        <time>2012-04-09T09:29:44Z</time>
      </trkpt>
      <trkpt lat="45.91255" lon="5.7638">
        <ele>1445.48</ele>
        <time>2012-04-09T09:29:46Z</time>
      </trkpt>
      <trkpt lat="45.91257" lon="5.7638">
        <ele>1445</ele>
        <time>2012-04-09T09:29:48Z</time>
      </trkpt>
      <trkpt lat="45.9126" lon="5.76382">
        <ele>1444.52</ele>
        <time>2012-04-09T09:29:50Z</time>
      </trkpt>
      <trkpt lat="45.91261" lon="5.76382">
        <ele>1443.56</ele>
        <time>2012-04-09T09:29:52Z</time>
      </trkpt>
      <trkpt lat="45.91264" lon="5.76383">
        <ele>1442.6</ele>
        <time>2012-04-09T09:29:54Z</time>
      </trkpt>
      <trkpt lat="45.91265" lon="5.76385">
        <ele>1441.63</ele>
        <time>2012-04-09T09:29:56Z</time>
      </trkpt>
      <trkpt lat="45.91267" lon="5.76384">
        <ele>1441.15</ele>
        <time>2012-04-09T09:29:58Z</time>
      </trkpt>
      <trkpt lat="45.91267" lon="5.76385">
        <ele>1439.71</ele>
        <time>2012-04-09T09:30:00Z</time>
      </trkpt>
      <trkpt lat="45.9127" lon="5.76386">
        <ele>1439.23</ele>
        <time>2012-04-09T09:30:02Z</time>
      </trkpt>
      <trkpt lat="45.91271" lon="5.76387">
        <ele>1438.75</ele>
        <time>2012-04-09T09:30:04Z</time>
      </trkpt>
      <trkpt lat="45.91273" lon="5.76388">
        <ele>1438.27</ele>
        <time>2012-04-09T09:30:06Z</time>
      </trkpt>
      <trkpt lat="45.91274" lon="5.76388">
        <ele>1437.79</ele>
        <time>2012-04-09T09:30:08Z</time>
      </trkpt>
      <trkpt lat="45.91274" lon="5.76388">
        <ele>1437.79</ele>
        <time>2012-04-09T09:30:10Z</time>
      </trkpt>
      <trkpt lat="45.91276" lon="5.76389">
        <ele>1437.31</ele>
        <time>2012-04-09T09:30:12Z</time>
      </trkpt>
      <trkpt lat="45.91278" lon="5.76389">
        <ele>1436.35</ele>
        <time>2012-04-09T09:30:14Z</time>
      </trkpt>
      <trkpt lat="45.91279" lon="5.76389">
        <ele>1435.87</ele>
        <time>2012-04-09T09:30:16Z</time>
      </trkpt>
      <trkpt lat="45.91281" lon="5.76391">
        <ele>1435.39</ele>
        <time>2012-04-09T09:30:18Z</time>
      </trkpt>
      <trkpt lat="45.91283" lon="5.76393">
        <ele>1434.91</ele>
        <time>2012-04-09T09:30:20Z</time>
      </trkpt>
      <trkpt lat="45.91283" lon="5.76394">
        <ele>1433.94</ele>
        <time>2012-04-09T09:30:22Z</time>
      </trkpt>
      <trkpt lat="45.91284" lon="5.76395">
        <ele>1433.46</ele>
        <time>2012-04-09T09:30:24Z</time>
      </trkpt>
      <trkpt lat="45.91287" lon="5.76397">
        <ele>1432.5</ele>
        <time>2012-04-09T09:30:26Z</time>
      </trkpt>
      <trkpt lat="45.91289" lon="5.76399">
        <ele>1431.54</ele>
        <time>2012-04-09T09:30:28Z</time>
      </trkpt>
      <trkpt lat="45.91292" lon="5.76402">
        <ele>1431.06</ele>
        <time>2012-04-09T09:30:30Z</time>
      </trkpt>
      <trkpt lat="45.91292" lon="5.76403">
        <ele>1429.62</ele>
        <time>2012-04-09T09:30:32Z</time>
      </trkpt>
      <trkpt lat="45.91292" lon="5.76404">
        <ele>1429.14</ele>
        <time>2012-04-09T09:30:34Z</time>
      </trkpt>
      <trkpt lat="45.91292" lon="5.76405">
        <ele>1428.66</ele>
        <time>2012-04-09T09:30:36Z</time>
      </trkpt>
      <trkpt lat="45.91293" lon="5.76406">
        <ele>1427.7</ele>
        <time>2012-04-09T09:30:38Z</time>
      </trkpt>
      <trkpt lat="45.91293" lon="5.76408">
        <ele>1426.25</ele>
        <time>2012-04-09T09:30:40Z</time>
      </trkpt>
      <trkpt lat="45.91295" lon="5.76411">
        <ele>1425.29</ele>
        <time>2012-04-09T09:30:42Z</time>
      </trkpt>
      <trkpt lat="45.91296" lon="5.76413">
        <ele>1425.29</ele>
        <time>2012-04-09T09:30:44Z</time>
      </trkpt>
      <trkpt lat="45.91298" lon="5.76415">
        <ele>1422.89</ele>
        <time>2012-04-09T09:30:46Z</time>
      </trkpt>
      <trkpt lat="45.913" lon="5.76417">
        <ele>1423.37</ele>
        <time>2012-04-09T09:30:48Z</time>
      </trkpt>
      <trkpt lat="45.91301" lon="5.76419">
        <ele>1422.41</ele>
        <time>2012-04-09T09:30:50Z</time>
      </trkpt>
      <trkpt lat="45.91303" lon="5.76422">
        <ele>1421.45</ele>
        <time>2012-04-09T09:30:52Z</time>
      </trkpt>
      <trkpt lat="45.91307" lon="5.76423">
        <ele>1420</ele>
        <time>2012-04-09T09:30:54Z</time>
      </trkpt>
      <trkpt lat="45.91308" lon="5.76426">
        <ele>1418.56</ele>
        <time>2012-04-09T09:30:56Z</time>
      </trkpt>
      <trkpt lat="45.9131" lon="5.76428">
        <ele>1417.6</ele>
        <time>2012-04-09T09:30:58Z</time>
      </trkpt>
      <trkpt lat="45.91312" lon="5.76431">
        <ele>1416.64</ele>
        <time>2012-04-09T09:31:00Z</time>
      </trkpt>
      <trkpt lat="45.91314" lon="5.76433">
        <ele>1415.2</ele>
        <time>2012-04-09T09:31:02Z</time>
      </trkpt>
      <trkpt lat="45.91316" lon="5.76434">
        <ele>1415.2</ele>
        <time>2012-04-09T09:31:04Z</time>
      </trkpt>
      <trkpt lat="45.91319" lon="5.76436">
        <ele>1414.24</ele>
        <time>2012-04-09T09:31:06Z</time>
      </trkpt>
      <trkpt lat="45.91323" lon="5.76436">
        <ele>1413.76</ele>
        <time>2012-04-09T09:31:08Z</time>
      </trkpt>
      <trkpt lat="45.91324" lon="5.76436">
        <ele>1413.28</ele>
        <time>2012-04-09T09:31:10Z</time>
      </trkpt>
      <trkpt lat="45.91324" lon="5.76437">
        <ele>1412.31</ele>
        <time>2012-04-09T09:31:12Z</time>
      </trkpt>
      <trkpt lat="45.91324" lon="5.76437">
        <ele>1411.35</ele>
        <time>2012-04-09T09:31:14Z</time>
      </trkpt>
      <trkpt lat="45.91325" lon="5.76437">
        <ele>1410.39</ele>
        <time>2012-04-09T09:31:16Z</time>
      </trkpt>
      <trkpt lat="45.91326" lon="5.76439">
        <ele>1409.91</ele>
        <time>2012-04-09T09:31:18Z</time>
      </trkpt>
      <trkpt lat="45.9133" lon="5.76439">
        <ele>1408.47</ele>
        <time>2012-04-09T09:31:20Z</time>
      </trkpt>
      <trkpt lat="45.91332" lon="5.7644">
        <ele>1407.51</ele>
        <time>2012-04-09T09:31:22Z</time>
      </trkpt>
      <trkpt lat="45.91335" lon="5.76441">
        <ele>1406.55</ele>
        <time>2012-04-09T09:31:24Z</time>
      </trkpt>
      <trkpt lat="45.91339" lon="5.76445">
        <ele>1405.1</ele>
        <time>2012-04-09T09:31:26Z</time>
      </trkpt>
      <trkpt lat="45.91341" lon="5.76448">
        <ele>1405.1</ele>
        <time>2012-04-09T09:31:28Z</time>
      </trkpt>
      <trkpt lat="45.91344" lon="5.76451">
        <ele>1405.1</ele>
        <time>2012-04-09T09:31:30Z</time>
      </trkpt>
      <trkpt lat="45.91346" lon="5.76455">
        <ele>1405.58</ele>
        <time>2012-04-09T09:31:32Z</time>
      </trkpt>
      <trkpt lat="45.91351" lon="5.76461">
        <ele>1405.1</ele>
        <time>2012-04-09T09:31:34Z</time>
      </trkpt>
      <trkpt lat="45.91357" lon="5.76465">
        <ele>1403.66</ele>
        <time>2012-04-09T09:31:36Z</time>
      </trkpt>
      <trkpt lat="45.91361" lon="5.7647">
        <ele>1402.7</ele>
        <time>2012-04-09T09:31:38Z</time>
      </trkpt>
      <trkpt lat="45.91365" lon="5.76474">
        <ele>1400.78</ele>
        <time>2012-04-09T09:31:40Z</time>
      </trkpt>
      <trkpt lat="45.9137" lon="5.76477">
        <ele>1399.82</ele>
        <time>2012-04-09T09:31:42Z</time>
      </trkpt>
      <trkpt lat="45.91375" lon="5.76482">
        <ele>1398.86</ele>
        <time>2012-04-09T09:31:44Z</time>
      </trkpt>
      <trkpt lat="45.9138" lon="5.76488">
        <ele>1397.89</ele>
        <time>2012-04-09T09:31:46Z</time>
      </trkpt>
      <trkpt lat="45.91386" lon="5.7649">
        <ele>1397.89</ele>
        <time>2012-04-09T09:31:48Z</time>
      </trkpt>
      <trkpt lat="45.91388" lon="5.76491">
        <ele>1398.37</ele>
        <time>2012-04-09T09:31:50Z</time>
      </trkpt>
      <trkpt lat="45.91391" lon="5.76494">
        <ele>1397.89</ele>
        <time>2012-04-09T09:31:52Z</time>
      </trkpt>
      <trkpt lat="45.91395" lon="5.76497">
        <ele>1397.41</ele>
        <time>2012-04-09T09:31:54Z</time>
      </trkpt>
      <trkpt lat="45.91398" lon="5.76499">
        <ele>1396.45</ele>
        <time>2012-04-09T09:31:56Z</time>
      </trkpt>
      <trkpt lat="45.91401" lon="5.76502">
        <ele>1395.97</ele>
        <time>2012-04-09T09:31:58Z</time>
      </trkpt>
      <trkpt lat="45.91404" lon="5.76507">
        <ele>1395.97</ele>
        <time>2012-04-09T09:32:00Z</time>
      </trkpt>
      <trkpt lat="45.91408" lon="5.76511">
        <ele>1395.01</ele>
        <time>2012-04-09T09:32:02Z</time>
      </trkpt>
      <trkpt lat="45.91413" lon="5.76516">
        <ele>1395.01</ele>
        <time>2012-04-09T09:32:04Z</time>
      </trkpt>
      <trkpt lat="45.91418" lon="5.76518">
        <ele>1395.49</ele>
        <time>2012-04-09T09:32:06Z</time>
      </trkpt>
      <trkpt lat="45.91422" lon="5.76518">
        <ele>1395.97</ele>
        <time>2012-04-09T09:32:08Z</time>
      </trkpt>
      <trkpt lat="45.91425" lon="5.76518">
        <ele>1395.97</ele>
        <time>2012-04-09T09:32:10Z</time>
      </trkpt>
      <trkpt lat="45.91428" lon="5.76518">
        <ele>1395.97</ele>
        <time>2012-04-09T09:32:12Z</time>
      </trkpt>
      <trkpt lat="45.91431" lon="5.76519">
        <ele>1395.97</ele>
        <time>2012-04-09T09:32:14Z</time>
      </trkpt>
      <trkpt lat="45.91435" lon="5.76522">
        <ele>1395.49</ele>
        <time>2012-04-09T09:32:16Z</time>
      </trkpt>
      <trkpt lat="45.91436" lon="5.76526">
        <ele>1394.05</ele>
        <time>2012-04-09T09:32:18Z</time>
      </trkpt>
      <trkpt lat="45.91441" lon="5.76534">
        <ele>1393.57</ele>
        <time>2012-04-09T09:32:20Z</time>
      </trkpt>
      <trkpt lat="45.91447" lon="5.76537">
        <ele>1393.57</ele>
        <time>2012-04-09T09:32:22Z</time>
      </trkpt>
      <trkpt lat="45.9145" lon="5.76538">
        <ele>1395.01</ele>
        <time>2012-04-09T09:32:24Z</time>
      </trkpt>
      <trkpt lat="45.91456" lon="5.76541">
        <ele>1395.49</ele>
        <time>2012-04-09T09:32:26Z</time>
      </trkpt>
      <trkpt lat="45.91461" lon="5.76543">
        <ele>1396.45</ele>
        <time>2012-04-09T09:32:28Z</time>
      </trkpt>
      <trkpt lat="45.91464" lon="5.76543">
        <ele>1396.93</ele>
        <time>2012-04-09T09:32:30Z</time>
      </trkpt>
      <trkpt lat="45.91469" lon="5.76544">
        <ele>1396.45</ele>
        <time>2012-04-09T09:32:32Z</time>
      </trkpt>
      <trkpt lat="45.91471" lon="5.76545">
        <ele>1395.97</ele>
        <time>2012-04-09T09:32:34Z</time>
      </trkpt>
      <trkpt lat="45.91474" lon="5.76547">
        <ele>1394.05</ele>
        <time>2012-04-09T09:32:36Z</time>
      </trkpt>
      <trkpt lat="45.91476" lon="5.76548">
        <ele>1394.05</ele>
        <time>2012-04-09T09:32:38Z</time>
      </trkpt>
      <trkpt lat="45.91482" lon="5.7655">
        <ele>1393.09</ele>
        <time>2012-04-09T09:32:40Z</time>
      </trkpt>
      <trkpt lat="45.91487" lon="5.76551">
        <ele>1392.61</ele>
        <time>2012-04-09T09:32:42Z</time>
      </trkpt>
      <trkpt lat="45.9149" lon="5.76551">
        <ele>1392.61</ele>
        <time>2012-04-09T09:32:44Z</time>
      </trkpt>
      <trkpt lat="45.91493" lon="5.76552">
        <ele>1392.61</ele>
        <time>2012-04-09T09:32:46Z</time>
      </trkpt>
      <trkpt lat="45.91496" lon="5.76552">
        <ele>1392.13</ele>
        <time>2012-04-09T09:32:48Z</time>
      </trkpt>
      <trkpt lat="45.91502" lon="5.76559">
        <ele>1392.13</ele>
        <time>2012-04-09T09:32:50Z</time>
      </trkpt>
      <trkpt lat="45.91507" lon="5.76564">
        <ele>1392.13</ele>
        <time>2012-04-09T09:32:52Z</time>
      </trkpt>
      <trkpt lat="45.91512" lon="5.76571">
        <ele>1392.13</ele>
        <time>2012-04-09T09:32:54Z</time>
      </trkpt>
      <trkpt lat="45.91517" lon="5.76576">
        <ele>1390.2</ele>
        <time>2012-04-09T09:32:56Z</time>
      </trkpt>
      <trkpt lat="45.91521" lon="5.76579">
        <ele>1389.72</ele>
        <time>2012-04-09T09:32:58Z</time>
      </trkpt>
      <trkpt lat="45.91523" lon="5.76585">
        <ele>1388.28</ele>
        <time>2012-04-09T09:33:00Z</time>
      </trkpt>
      <trkpt lat="45.91528" lon="5.76589">
        <ele>1387.8</ele>
        <time>2012-04-09T09:33:02Z</time>
      </trkpt>
      <trkpt lat="45.91534" lon="5.76593">
        <ele>1386.84</ele>
        <time>2012-04-09T09:33:04Z</time>
      </trkpt>
      <trkpt lat="45.9154" lon="5.76598">
        <ele>1386.36</ele>
        <time>2012-04-09T09:33:06Z</time>
      </trkpt>
      <trkpt lat="45.91545" lon="5.76601">
        <ele>1385.88</ele>
        <time>2012-04-09T09:33:08Z</time>
      </trkpt>
      <trkpt lat="45.9155" lon="5.76604">
        <ele>1384.92</ele>
        <time>2012-04-09T09:33:10Z</time>
      </trkpt>
      <trkpt lat="45.91554" lon="5.76604">
        <ele>1383.47</ele>
        <time>2012-04-09T09:33:12Z</time>
      </trkpt>
      <trkpt lat="45.91557" lon="5.76606">
        <ele>1382.99</ele>
        <time>2012-04-09T09:33:14Z</time>
      </trkpt>
      <trkpt lat="45.91561" lon="5.7661">
        <ele>1382.03</ele>
        <time>2012-04-09T09:33:16Z</time>
      </trkpt>
      <trkpt lat="45.91565" lon="5.76612">
        <ele>1380.59</ele>
        <time>2012-04-09T09:33:18Z</time>
      </trkpt>
      <trkpt lat="45.91568" lon="5.76613">
        <ele>1380.11</ele>
        <time>2012-04-09T09:33:20Z</time>
      </trkpt>
      <trkpt lat="45.91571" lon="5.76617">
        <ele>1378.67</ele>
        <time>2012-04-09T09:33:22Z</time>
      </trkpt>
      <trkpt lat="45.91574" lon="5.7662">
        <ele>1377.71</ele>
        <time>2012-04-09T09:33:24Z</time>
      </trkpt>
      <trkpt lat="45.91578" lon="5.76621">
        <ele>1377.23</ele>
        <time>2012-04-09T09:33:26Z</time>
      </trkpt>
      <trkpt lat="45.91581" lon="5.76621">
        <ele>1376.75</ele>
        <time>2012-04-09T09:33:28Z</time>
      </trkpt>
      <trkpt lat="45.91584" lon="5.7662">
        <ele>1376.26</ele>
        <time>2012-04-09T09:33:30Z</time>
      </trkpt>
      <trkpt lat="45.91587" lon="5.7662">
        <ele>1375.3</ele>
        <time>2012-04-09T09:33:32Z</time>
      </trkpt>
      <trkpt lat="45.91589" lon="5.76621">
        <ele>1374.34</ele>
        <time>2012-04-09T09:33:34Z</time>
      </trkpt>
      <trkpt lat="45.91592" lon="5.76621">
        <ele>1372.42</ele>
        <time>2012-04-09T09:33:36Z</time>
      </trkpt>
      <trkpt lat="45.91595" lon="5.76621">
        <ele>1371.46</ele>
        <time>2012-04-09T09:33:38Z</time>
      </trkpt>
      <trkpt lat="45.91599" lon="5.76621">
        <ele>1370.5</ele>
        <time>2012-04-09T09:33:40Z</time>
      </trkpt>
      <trkpt lat="45.91601" lon="5.76621">
        <ele>1369.05</ele>
        <time>2012-04-09T09:33:42Z</time>
      </trkpt>
      <trkpt lat="45.91603" lon="5.76624">
        <ele>1369.05</ele>
        <time>2012-04-09T09:33:44Z</time>
      </trkpt>
      <trkpt lat="45.91604" lon="5.76626">
        <ele>1368.09</ele>
        <time>2012-04-09T09:33:46Z</time>
      </trkpt>
      <trkpt lat="45.91608" lon="5.76631">
        <ele>1367.61</ele>
        <time>2012-04-09T09:33:48Z</time>
      </trkpt>
      <trkpt lat="45.91612" lon="5.76634">
        <ele>1366.65</ele>
        <time>2012-04-09T09:33:50Z</time>
      </trkpt>
      <trkpt lat="45.91615" lon="5.76633">
        <ele>1365.69</ele>
        <time>2012-04-09T09:33:52Z</time>
      </trkpt>
      <trkpt lat="45.91619" lon="5.76633">
        <ele>1364.73</ele>
        <time>2012-04-09T09:33:54Z</time>
      </trkpt>
      <trkpt lat="45.91622" lon="5.76634">
        <ele>1363.29</ele>
        <time>2012-04-09T09:33:56Z</time>
      </trkpt>
      <trkpt lat="45.91627" lon="5.76639">
        <ele>1362.81</ele>
        <time>2012-04-09T09:33:58Z</time>
      </trkpt>
      <trkpt lat="45.9163" lon="5.76643">
        <ele>1361.84</ele>
        <time>2012-04-09T09:34:00Z</time>
      </trkpt>
      <trkpt lat="45.91635" lon="5.76644">
        <ele>1359.44</ele>
        <time>2012-04-09T09:34:02Z</time>
      </trkpt>
      <trkpt lat="45.91637" lon="5.76646">
        <ele>1358.48</ele>
        <time>2012-04-09T09:34:04Z</time>
      </trkpt>
      <trkpt lat="45.91641" lon="5.7665">
        <ele>1357.04</ele>
        <time>2012-04-09T09:34:06Z</time>
      </trkpt>
      <trkpt lat="45.91645" lon="5.76653">
        <ele>1356.08</ele>
        <time>2012-04-09T09:34:08Z</time>
      </trkpt>
      <trkpt lat="45.91649" lon="5.76654">
        <ele>1355.6</ele>
        <time>2012-04-09T09:34:10Z</time>
      </trkpt>
      <trkpt lat="45.91655" lon="5.76657">
        <ele>1355.12</ele>
        <time>2012-04-09T09:34:12Z</time>
      </trkpt>
      <trkpt lat="45.91657" lon="5.7666">
        <ele>1354.15</ele>
        <time>2012-04-09T09:34:14Z</time>
      </trkpt>
      <trkpt lat="45.9166" lon="5.76662">
        <ele>1353.19</ele>
        <time>2012-04-09T09:34:16Z</time>
      </trkpt>
      <trkpt lat="45.91661" lon="5.76664">
        <ele>1351.27</ele>
        <time>2012-04-09T09:34:18Z</time>
      </trkpt>
      <trkpt lat="45.91669" lon="5.76671">
        <ele>1350.31</ele>
        <time>2012-04-09T09:34:20Z</time>
      </trkpt>
      <trkpt lat="45.91673" lon="5.76674">
        <ele>1349.35</ele>
        <time>2012-04-09T09:34:22Z</time>
      </trkpt>
      <trkpt lat="45.91678" lon="5.76677">
        <ele>1347.91</ele>
        <time>2012-04-09T09:34:24Z</time>
      </trkpt>
      <trkpt lat="45.91683" lon="5.76681">
        <ele>1347.43</ele>
        <time>2012-04-09T09:34:26Z</time>
      </trkpt>
      <trkpt lat="45.91686" lon="5.76684">
        <ele>1345.98</ele>
        <time>2012-04-09T09:34:28Z</time>
      </trkpt>
      <trkpt lat="45.9169" lon="5.76688">
        <ele>1345.5</ele>
        <time>2012-04-09T09:34:30Z</time>
      </trkpt>
      <trkpt lat="45.91694" lon="5.76692">
        <ele>1344.06</ele>
        <time>2012-04-09T09:34:32Z</time>
      </trkpt>
      <trkpt lat="45.91698" lon="5.76694">
        <ele>1343.58</ele>
        <time>2012-04-09T09:34:34Z</time>
      </trkpt>
      <trkpt lat="45.91701" lon="5.76696">
        <ele>1342.14</ele>
        <time>2012-04-09T09:34:36Z</time>
      </trkpt>
      <trkpt lat="45.91703" lon="5.76698">
        <ele>1341.66</ele>
        <time>2012-04-09T09:34:38Z</time>
      </trkpt>
      <trkpt lat="45.91704" lon="5.76697">
        <ele>1341.18</ele>
        <time>2012-04-09T09:34:40Z</time>
      </trkpt>
      <trkpt lat="45.91706" lon="5.767">
        <ele>1339.73</ele>
        <time>2012-04-09T09:34:42Z</time>
      </trkpt>
      <trkpt lat="45.9171" lon="5.76704">
        <ele>1338.77</ele>
        <time>2012-04-09T09:34:44Z</time>
      </trkpt>
      <trkpt lat="45.91712" lon="5.76704">
        <ele>1338.29</ele>
        <time>2012-04-09T09:34:46Z</time>
      </trkpt>
      <trkpt lat="45.91712" lon="5.76704">
        <ele>1338.29</ele>
        <time>2012-04-09T09:34:48Z</time>
      </trkpt>
      <trkpt lat="45.91712" lon="5.76704">
        <ele>1338.77</ele>
        <time>2012-04-09T09:34:50Z</time>
      </trkpt>
      <trkpt lat="45.91713" lon="5.76705">
        <ele>1339.25</ele>
        <time>2012-04-09T09:34:52Z</time>
      </trkpt>
      <trkpt lat="45.91716" lon="5.76706">
        <ele>1338.29</ele>
        <time>2012-04-09T09:34:54Z</time>
      </trkpt>
      <trkpt lat="45.91718" lon="5.76707">
        <ele>1338.77</ele>
        <time>2012-04-09T09:34:56Z</time>
      </trkpt>
      <trkpt lat="45.91721" lon="5.76708">
        <ele>1337.33</ele>
        <time>2012-04-09T09:34:58Z</time>
      </trkpt>
      <trkpt lat="45.91723" lon="5.76709">
        <ele>1336.85</ele>
        <time>2012-04-09T09:35:00Z</time>
      </trkpt>
      <trkpt lat="45.91726" lon="5.76711">
        <ele>1336.37</ele>
        <time>2012-04-09T09:35:02Z</time>
      </trkpt>
      <trkpt lat="45.91728" lon="5.76713">
        <ele>1335.41</ele>
        <time>2012-04-09T09:35:04Z</time>
      </trkpt>
      <trkpt lat="45.91729" lon="5.76717">
        <ele>1334.93</ele>
        <time>2012-04-09T09:35:06Z</time>
      </trkpt>
      <trkpt lat="45.91731" lon="5.76721">
        <ele>1334.45</ele>
        <time>2012-04-09T09:35:08Z</time>
      </trkpt>
      <trkpt lat="45.91754" lon="5.76724">
        <ele>1320.6328125</ele>
      </trkpt>
      <trkpt lat="45.91801" lon="5.76713">
        <ele>1318.4414063</ele>
      </trkpt>
      <trkpt lat="45.91907" lon="5.76621">
        <ele>1311.4492188</ele>
      </trkpt>
      <trkpt lat="45.91833" lon="5.76636">
        <ele>1308.2890625</ele>
      </trkpt>
      <trkpt lat="45.91779" lon="5.7661">
        <ele>1310.7929688</ele>
      </trkpt>
      <trkpt lat="45.91778" lon="5.7661">
        <ele>1311.3125</ele>
      </trkpt>
      <trkpt lat="45.9174" lon="5.76605">
        <ele>1323.0507813</ele>
      </trkpt>
      <trkpt lat="45.91742" lon="5.76605">
        <ele>1322.3710938</ele>
      </trkpt>
      <trkpt lat="45.91666" lon="5.76537">
        <ele>1334.9609375</ele>
      </trkpt>
      <trkpt lat="45.91562" lon="5.7648">
        <ele>1352.90625</ele>
      </trkpt>
      <trkpt lat="45.91461" lon="5.76384">
        <ele>1357.65625</ele>
      </trkpt>
      <trkpt lat="45.9146" lon="5.76384">
        <ele>1358.4726563</ele>
      </trkpt>
      <trkpt lat="45.91354" lon="5.76248">
        <ele>1372.0273438</ele>
      </trkpt>
      <trkpt lat="45.91233" lon="5.76119">
        <ele>1377.71875</ele>
      </trkpt>
      <trkpt lat="45.91125" lon="5.76009">
        <ele>1384.4492188</ele>
      </trkpt>
      <trkpt lat="45.91122" lon="5.76007">
        <ele>1385.109375</ele>
      </trkpt>
      <trkpt lat="45.91057" lon="5.7591">
        <ele>1384.890625</ele>
      </trkpt>
      <trkpt lat="45.91041" lon="5.75864">
        <ele>1382.8164063</ele>
      </trkpt>
      <trkpt lat="45.91041" lon="5.75866">
        <ele>1382.9609375</ele>
      </trkpt>
      <trkpt lat="45.90953" lon="5.75827">
        <ele>1391.3828125</ele>
      </trkpt>
      <trkpt lat="45.90951" lon="5.75825">
        <ele>1391.453125</ele>
      </trkpt>
      <trkpt lat="45.90919" lon="5.75796">
        <ele>1391.8007813</ele>
      </trkpt>
      <trkpt lat="45.90928" lon="5.75757">
        <ele>1389.5039063</ele>
      </trkpt>
      <trkpt lat="45.90908" lon="5.75741">
        <ele>1388.9726563</ele>
      </trkpt>
      <trkpt lat="45.90906" lon="5.75741">
        <ele>1389.0820313</ele>
      </trkpt>
      <trkpt lat="45.90807" lon="5.75695">
        <ele>1385.7617188</ele>
      </trkpt>
      <trkpt lat="45.90647" lon="5.75625">
        <ele>1375.5078125</ele>
      </trkpt>
      <trkpt lat="45.90646" lon="5.75625">
        <ele>1375.2578125</ele>
      </trkpt>
      <trkpt lat="45.90561" lon="5.75605">
        <ele>1366.3828125</ele>
      </trkpt>
      <trkpt lat="45.90421" lon="5.75623">
        <ele>1349.7460938</ele>
      </trkpt>
      <trkpt lat="45.90315" lon="5.75603">
        <ele>1334.4882813</ele>
      </trkpt>
      <trkpt lat="45.90313" lon="5.75607">
        <ele>1335.2890625</ele>
      </trkpt>
      <trkpt lat="45.90121" lon="5.75671">
        <ele>1325.6015625</ele>
      </trkpt>
      <trkpt lat="45.89976" lon="5.75686">
        <ele>1308.3984375</ele>
      </trkpt>
      <trkpt lat="45.89974" lon="5.75686">
        <ele>1308.0742188</ele>
      </trkpt>
      <trkpt lat="45.8988" lon="5.75697">
        <ele>1299.6484375</ele>
      </trkpt>
      <trkpt lat="45.89861" lon="5.7568">
        <ele>1289.6367188</ele>
      </trkpt>
      <trkpt lat="45.89783" lon="5.75724">
        <ele>1304.5273438</ele>
      </trkpt>
      <trkpt lat="45.8964" lon="5.75765">
        <ele>1306.1640625</ele>
      </trkpt>
      <trkpt lat="45.89636" lon="5.75765">
        <ele>1305.6484375</ele>
      </trkpt>
      <trkpt lat="45.89469" lon="5.75757">
        <ele>1266.0507813</ele>
      </trkpt>
      <trkpt lat="45.89309" lon="5.7575">
        <ele>1249.8203125</ele>
      </trkpt>
      <trkpt lat="45.89165" lon="5.75713">
        <ele>1228.4140625</ele>
      </trkpt>
      <trkpt lat="45.89057" lon="5.75656">
        <ele>1207.7265625</ele>
      </trkpt>
      <trkpt lat="45.88973" lon="5.7557">
        <ele>1194.3320313</ele>
      </trkpt>
      <trkpt lat="45.88946" lon="5.75458">
        <ele>1163.2578125</ele>
      </trkpt>
      <trkpt lat="45.88881" lon="5.75441">
        <ele>1175.2265625</ele>
      </trkpt>
      <trkpt lat="45.88766" lon="5.75458">
        <ele>1214.7929688</ele>
      </trkpt>
      <trkpt lat="45.88696" lon="5.75425">
        <ele>1229.1523438</ele>
      </trkpt>
      <trkpt lat="45.88648" lon="5.75456">
        <ele>1254.7304688</ele>
      </trkpt>
      <trkpt lat="45.88646" lon="5.75456">
        <ele>1255.3164063</ele>
      </trkpt>
      <trkpt lat="45.88594" lon="5.75443">
        <ele>1267.421875</ele>
      </trkpt>
      <trkpt lat="45.88594" lon="5.75445">
        <ele>1268.2148438</ele>
      </trkpt>
      <trkpt lat="45.88547" lon="5.75465">
        <ele>1291.421875</ele>
      </trkpt>
      <trkpt lat="45.88545" lon="5.75373">
        <ele>1264.6601563</ele>
      </trkpt>
      <trkpt lat="45.88545" lon="5.75371">
        <ele>1264.3789063</ele>
      </trkpt>
      <trkpt lat="45.88513" lon="5.75329">
        <ele>1273.5429688</ele>
      </trkpt>
      <trkpt lat="45.88439" lon="5.75316">
        <ele>1294.203125</ele>
      </trkpt>
      <trkpt lat="45.88441" lon="5.75318">
        <ele>1293.9921875</ele>
      </trkpt>
      <trkpt lat="45.88344" lon="5.75298">
        <ele>1308.3046875</ele>
      </trkpt>
      <trkpt lat="45.88342" lon="5.75298">
        <ele>1308.5234375</ele>
      </trkpt>
      <trkpt lat="45.88245" lon="5.75274">
        <ele>1307.1523438</ele>
      </trkpt>
      <trkpt lat="45.88165" lon="5.75224">
        <ele>1300.5390625</ele>
      </trkpt>
      <trkpt lat="45.88114" lon="5.75171">
        <ele>1301.6835938</ele>
      </trkpt>
      <trkpt lat="45.88053" lon="5.75077">
        <ele>1307.1679688</ele>
      </trkpt>
      <trkpt lat="45.88053" lon="5.75075">
        <ele>1307.1328125</ele>
      </trkpt>
      <trkpt lat="45.87985" lon="5.75042">
        <ele>1300.4921875</ele>
      </trkpt>
      <trkpt lat="45.87888" lon="5.75033">
        <ele>1279.5429688</ele>
      </trkpt>
      <trkpt lat="45.87812" lon="5.74993">
        <ele>1275.4726563</ele>
      </trkpt>
      <trkpt lat="45.87755" lon="5.74952">
        <ele>1278.8007813</ele>
      </trkpt>
      <trkpt lat="45.87669" lon="5.74941">
        <ele>1267.3710938</ele>
      </trkpt>
      <trkpt lat="45.8766" lon="5.74921">
        <ele>1262.953125</ele>
      </trkpt>
      <trkpt lat="45.87735" lon="5.74866">
        <ele>1256.2070313</ele>
      </trkpt>
      <trkpt lat="45.87911" lon="5.74752">
        <ele>1231</ele>
      </trkpt>
      <trkpt lat="45.8806" lon="5.74621">
        <ele>1191.0351563</ele>
      </trkpt>
      <trkpt lat="45.88188" lon="5.74544">
        <ele>1164.890625</ele>
      </trkpt>
      <trkpt lat="45.88278" lon="5.74592">
        <ele>1165.3125</ele>
      </trkpt>
      <trkpt lat="45.8828" lon="5.74553">
        <ele>1150.703125</ele>
      </trkpt>
      <trkpt lat="45.8828" lon="5.7455">
        <ele>1149.9179688</ele>
      </trkpt>
      <trkpt lat="45.88227" lon="5.7443">
        <ele>1126.8359375</ele>
      </trkpt>
      <trkpt lat="45.88226" lon="5.74427">
        <ele>1126.4101563</ele>
      </trkpt>
      <trkpt lat="45.88175" lon="5.74272">
        <ele>1108.2382813</ele>
      </trkpt>
      <trkpt lat="45.88174" lon="5.7427">
        <ele>1108.1328125</ele>
      </trkpt>
      <trkpt lat="45.88127" lon="5.74177">
        <ele>1106.609375</ele>
      </trkpt>
      <trkpt lat="45.88125" lon="5.74177">
        <ele>1106.7382813</ele>
      </trkpt>
      <trkpt lat="45.88035" lon="5.74114">
        <ele>1112.5507813</ele>
      </trkpt>
      <trkpt lat="45.88032" lon="5.74114">
        <ele>1112.4609375</ele>
      </trkpt>
      <trkpt lat="45.87904" lon="5.74138">
        <ele>1082.875</ele>
      </trkpt>
      <trkpt lat="45.87899" lon="5.74182">
        <ele>1072.2578125</ele>
      </trkpt>
      <trkpt lat="45.87936" lon="5.74324">
        <ele>1088.96875</ele>
      </trkpt>
      <trkpt lat="45.87936" lon="5.74351">
        <ele>1093.8320313</ele>
      </trkpt>
      <trkpt lat="45.87897" lon="5.74281">
        <ele>1065.859375</ele>
      </trkpt>
      <trkpt lat="45.87895" lon="5.74278">
        <ele>1065.1015625</ele>
      </trkpt>
      <trkpt lat="45.87852" lon="5.74256">
        <ele>1047.3125</ele>
      </trkpt>
      <trkpt lat="45.87823" lon="5.743">
        <ele>1037.078125</ele>
      </trkpt>
      <trkpt lat="45.878" lon="5.74292">
        <ele>1024.3554688</ele>
      </trkpt>
      <trkpt lat="45.87803" lon="5.74237">
        <ele>1026.8671875</ele>
      </trkpt>
      <trkpt lat="45.87755" lon="5.74289">
        <ele>1002.5390625</ele>
      </trkpt>
      <trkpt lat="45.87656" lon="5.74311">
        <ele>958.0078125</ele>
      </trkpt>
      <trkpt lat="45.87523" lon="5.74353">
        <ele>901.7773438</ele>
      </trkpt>
      <trkpt lat="45.87345" lon="5.74414">
        <ele>840.8007813</ele>
      </trkpt>
      <trkpt lat="45.87275" lon="5.7446">
        <ele>818.6914063</ele>
      </trkpt>
      <trkpt lat="45.87275" lon="5.74463">
        <ele>819.2890625</ele>
      </trkpt>
      <trkpt lat="45.87218" lon="5.74452">
        <ele>790.6289063</ele>
      </trkpt>
      <trkpt lat="45.87096" lon="5.74513">
        <ele>736.9335938</ele>
      </trkpt>
      <trkpt lat="45.86939" lon="5.74588">
        <ele>687.3710938</ele>
      </trkpt>
      <trkpt lat="45.867" lon="5.74651">
        <ele>624.1601563</ele>
      </trkpt>
      <trkpt lat="45.86698" lon="5.74651">
        <ele>623.640625</ele>
      </trkpt>
      <trkpt lat="45.86654" lon="5.7466">
        <ele>615.1171875</ele>
      </trkpt>
      <trkpt lat="45.86646" lon="5.74653">
        <ele>610.0117188</ele>
      </trkpt>
      <trkpt lat="45.86591" lon="5.74647">
        <ele>596.8984375</ele>
      </trkpt>
      <trkpt lat="45.86564" lon="5.74649">
        <ele>592.8476563</ele>
      </trkpt>
      <trkpt lat="45.86533" lon="5.74599">
        <ele>561.3320313</ele>
      </trkpt>
      <trkpt lat="45.86447" lon="5.74607">
        <ele>516.4179688</ele>
      </trkpt>
      <trkpt lat="45.86379" lon="5.74579">
        <ele>482.0546875</ele>
      </trkpt>
      <trkpt lat="45.86265" lon="5.74621">
        <ele>443.375</ele>
      </trkpt>
      <trkpt lat="45.86265" lon="5.74623">
        <ele>444.0546875</ele>
      </trkpt>
      <trkpt lat="45.86226" lon="5.74627">
        <ele>434.3789063</ele>
      </trkpt>
      <trkpt lat="45.86185" lon="5.74599">
        <ele>413.7929688</ele>
      </trkpt>
      <trkpt lat="45.86154" lon="5.74546">
        <ele>385.3515625</ele>
      </trkpt>
      <trkpt lat="45.86122" lon="5.74544">
        <ele>374.0664063</ele>
      </trkpt>
      <trkpt lat="45.86084" lon="5.74588">
        <ele>378.5351563</ele>
      </trkpt>
      <trkpt lat="45.86018" lon="5.74627">
        <ele>353.265625</ele>
      </trkpt>
      <trkpt lat="45.85965" lon="5.74682">
        <ele>339.671875</ele>
      </trkpt>
      <trkpt lat="45.85924" lon="5.74767">
        <ele>337.625</ele>
      </trkpt>
      <trkpt lat="45.85908" lon="5.74814">
        <ele>339.5</ele>
      </trkpt>
      <trkpt lat="45.85872" lon="5.74831">
        <ele>322.375</ele>
      </trkpt>
      <trkpt lat="45.85849" lon="5.74899">
        <ele>321.6953125</ele>
      </trkpt>
      <trkpt lat="45.85849" lon="5.74906">
        <ele>322.8789063</ele>
      </trkpt>
      <trkpt lat="45.85809" lon="5.74976">
        <ele>320.6445313</ele>
      </trkpt>
      <trkpt lat="45.85753" lon="5.75026">
        <ele>312.0820313</ele>
      </trkpt>
      <trkpt lat="45.85696" lon="5.75068">
        <ele>301.2734375</ele>
      </trkpt>
      <trkpt lat="45.85656" lon="5.7514">
        <ele>295.953125</ele>
      </trkpt>
      <trkpt lat="45.85656" lon="5.75143">
        <ele>296.03125</ele>
      </trkpt>
      <trkpt lat="45.8566" lon="5.75272">
        <ele>296.578125</ele>
      </trkpt>
      <trkpt lat="45.85662" lon="5.75338">
        <ele>302.4648438</ele>
      </trkpt>
      <trkpt lat="45.8562" lon="5.7545">
        <ele>309.1054688</ele>
      </trkpt>
      <trkpt lat="45.85586" lon="5.7555">
        <ele>322.7695313</ele>
      </trkpt>
      <trkpt lat="45.85541" lon="5.75638">
        <ele>326.21875</ele>
      </trkpt>
      <trkpt lat="45.85511" lon="5.75741">
        <ele>325.2109375</ele>
      </trkpt>
      <trkpt lat="45.85511" lon="5.75743">
        <ele>325.3710938</ele>
      </trkpt>
      <trkpt lat="45.85491" lon="5.75871">
        <ele>334.9804688</ele>
      </trkpt>
      <trkpt lat="45.85443" lon="5.75996">
        <ele>349.7539063</ele>
      </trkpt>
      <trkpt lat="45.85441" lon="5.75998">
        <ele>349.453125</ele>
      </trkpt>
      <trkpt lat="45.8538" lon="5.76108">
        <ele>346.2851563</ele>
      </trkpt>
      <trkpt lat="45.85302" lon="5.76257">
        <ele>341.9492188</ele>
      </trkpt>
      <trkpt lat="45.85234" lon="5.76423">
        <ele>366.46875</ele>
      </trkpt>
      <trkpt lat="45.85234" lon="5.76434">
        <ele>372.28125</ele>
      </trkpt>
      <trkpt lat="45.85184" lon="5.7654">
        <ele>382.140625</ele>
      </trkpt>
      <trkpt lat="45.8508" lon="5.76623">
        <ele>345.65625</ele>
      </trkpt>
      <trkpt lat="45.85067" lon="5.76691">
        <ele>330.2539063</ele>
      </trkpt>
      <trkpt lat="45.85103" lon="5.76772">
        <ele>330.5898438</ele>
      </trkpt>
      <trkpt lat="45.85146" lon="5.76915">
        <ele>329.453125</ele>
      </trkpt>
      <trkpt lat="45.85189" lon="5.77086">
        <ele>319.5117188</ele>
      </trkpt>
      <trkpt lat="45.85225" lon="5.7713">
        <ele>325.4882813</ele>
      </trkpt>
      <trkpt lat="45.85227" lon="5.77134">
        <ele>325.7578125</ele>
      </trkpt>
      <trkpt lat="45.85229" lon="5.77445">
        <ele>314.6796875</ele>
      </trkpt>
      <trkpt lat="45.85234" lon="5.77527">
        <ele>316.6523438</ele>
      </trkpt>
      <trkpt lat="45.8518" lon="5.77584">
        <ele>308.3007813</ele>
      </trkpt>
      <trkpt lat="45.85125" lon="5.77733">
        <ele>298.90625</ele>
      </trkpt>
      <trkpt lat="45.85002" lon="5.77779">
        <ele>288.9179688</ele>
      </trkpt>
      <trkpt lat="45.84886" lon="5.77928">
        <ele>259.2148438</ele>
      </trkpt>
    </trkseg>
  </trk>
</gpx>